<?xml version="1.0" encoding="UTF-8" standalone="no" ?>
<gpx xmlns="http://www.topografix.com/GPX/1/1" xmlns:xsi="http://www.w3.org/2001/XMLSchema-instance" xsi:schemaLocation="http://www.topografix.com/GPX/1/1 http://www.topografix.com/GPX/1/1/gpx.xsd" version="1.1" creator="VisuGPX - https://www.visugpx.com">
  <metadata>
    <name>9 ERMITES I 3 PICS</name>
    <desc><![CDATA[9 ermites : Sant Grau , Sant Andreu, Sant Feliu, Mare de Deu de les Agulles, Sant Aniol, Sant Marti, Mare de Deu de les Escales, Santa Barbara i Santa Cecilia.
3 pics: Bassegoda, Sant Marc i el Ferran]]></desc>
  </metadata>
  <trk>
    <name><![CDATA[9 ERMITES I 3 PiCS]]></name>
    <cmt><![CDATA[Ermites: Sant Grau d`Entreperas, Sant andreu de Guitarriu-Sant Feliu del Riu- Mare de Deu de les Agulles- Sant Aniol d`Aguja- Sant Marti de Talaixa- Mare de DEu de les Escales- Santa Barbara de Prunes- Santa Cecilia de Sadernes ( Arribada) 
 
Pics: Bassegoda- Sant Marc i El Ferran.]]></cmt>
    <desc><![CDATA[Ermites: Sant Grau d`Entreperas, Sant andreu de Guitarriu-Sant Feliu del Riu- Mare de Deu de les Agulles- Sant Aniol d`Aguja- Sant Marti de Talaixa- Mare de DEu de les Escales- Santa Barbara de Prunes- Santa Cecilia de Sadernes ( Arribada) 
 
Pics: Bassegoda- Sant Marc i El Ferran.]]></desc>
    <trkseg>
      <trkpt lat="42.26956" lon="2.59393">
        <ele>303.997</ele>
        <time>2018-01-10T04:49:42Z</time>
      </trkpt>
      <trkpt lat="42.26955" lon="2.59393">
        <ele>303.923</ele>
        <time>2018-01-10T04:49:43Z</time>
      </trkpt>
      <trkpt lat="42.26955" lon="2.59393">
        <ele>304.325</ele>
        <time>2018-01-10T04:50:22Z</time>
      </trkpt>
      <trkpt lat="42.26955" lon="2.59391">
        <ele>304.808</ele>
        <time>2018-01-10T04:50:47Z</time>
      </trkpt>
      <trkpt lat="42.26955" lon="2.59393">
        <ele>304.341</ele>
        <time>2018-01-10T04:51:23Z</time>
      </trkpt>
      <trkpt lat="42.26954" lon="2.59392">
        <ele>303.49</ele>
        <time>2018-01-10T04:51:45Z</time>
      </trkpt>
      <trkpt lat="42.26956" lon="2.59392">
        <ele>303.428</ele>
        <time>2018-01-10T04:52:20Z</time>
      </trkpt>
      <trkpt lat="42.26956" lon="2.59391">
        <ele>302.956</ele>
        <time>2018-01-10T04:52:43Z</time>
      </trkpt>
      <trkpt lat="42.26955" lon="2.5939">
        <ele>302.472</ele>
        <time>2018-01-10T04:53:09Z</time>
      </trkpt>
      <trkpt lat="42.26954" lon="2.5939">
        <ele>302.432</ele>
        <time>2018-01-10T04:53:35Z</time>
      </trkpt>
      <trkpt lat="42.26958" lon="2.59395">
        <ele>302.476</ele>
        <time>2018-01-10T04:53:55Z</time>
      </trkpt>
      <trkpt lat="42.2696" lon="2.59425">
        <ele>302.455</ele>
        <time>2018-01-10T04:54:12Z</time>
      </trkpt>
      <trkpt lat="42.26961" lon="2.59434">
        <ele>302.473</ele>
        <time>2018-01-10T04:54:17Z</time>
      </trkpt>
      <trkpt lat="42.26961" lon="2.59447">
        <ele>302.485</ele>
        <time>2018-01-10T04:54:23Z</time>
      </trkpt>
      <trkpt lat="42.26962" lon="2.59457">
        <ele>303.413</ele>
        <time>2018-01-10T04:54:27Z</time>
      </trkpt>
      <trkpt lat="42.26969" lon="2.59476">
        <ele>304.308</ele>
        <time>2018-01-10T04:54:39Z</time>
      </trkpt>
      <trkpt lat="42.26976" lon="2.59503">
        <ele>304.339</ele>
        <time>2018-01-10T04:54:53Z</time>
      </trkpt>
      <trkpt lat="42.26976" lon="2.59505">
        <ele>303.448</ele>
        <time>2018-01-10T04:54:54Z</time>
      </trkpt>
      <trkpt lat="42.26994" lon="2.59517">
        <ele>301.976</ele>
        <time>2018-01-10T04:55:07Z</time>
      </trkpt>
      <trkpt lat="42.27007" lon="2.59519">
        <ele>300.554</ele>
        <time>2018-01-10T04:55:18Z</time>
      </trkpt>
      <trkpt lat="42.27008" lon="2.59522">
        <ele>300.09</ele>
        <time>2018-01-10T04:55:20Z</time>
      </trkpt>
      <trkpt lat="42.27014" lon="2.59533">
        <ele>300.05</ele>
        <time>2018-01-10T04:55:27Z</time>
      </trkpt>
      <trkpt lat="42.27014" lon="2.59548">
        <ele>301.024</ele>
        <time>2018-01-10T04:55:36Z</time>
      </trkpt>
      <trkpt lat="42.27013" lon="2.59557">
        <ele>301.543</ele>
        <time>2018-01-10T04:55:40Z</time>
      </trkpt>
      <trkpt lat="42.27016" lon="2.59584">
        <ele>303.923</ele>
        <time>2018-01-10T04:55:55Z</time>
      </trkpt>
      <trkpt lat="42.27015" lon="2.596">
        <ele>305.883</ele>
        <time>2018-01-10T04:56:08Z</time>
      </trkpt>
      <trkpt lat="42.27018" lon="2.59614">
        <ele>307.211</ele>
        <time>2018-01-10T04:56:16Z</time>
      </trkpt>
      <trkpt lat="42.27028" lon="2.5963">
        <ele>307.708</ele>
        <time>2018-01-10T04:56:29Z</time>
      </trkpt>
      <trkpt lat="42.27033" lon="2.59634">
        <ele>308.264</ele>
        <time>2018-01-10T04:56:34Z</time>
      </trkpt>
      <trkpt lat="42.27037" lon="2.59637">
        <ele>308.293</ele>
        <time>2018-01-10T04:56:36Z</time>
      </trkpt>
      <trkpt lat="42.27055" lon="2.59652">
        <ele>311.131</ele>
        <time>2018-01-10T04:56:51Z</time>
      </trkpt>
      <trkpt lat="42.27068" lon="2.59672">
        <ele>311.199</ele>
        <time>2018-01-10T04:57:06Z</time>
      </trkpt>
      <trkpt lat="42.27082" lon="2.59695">
        <ele>309.675</ele>
        <time>2018-01-10T04:57:20Z</time>
      </trkpt>
      <trkpt lat="42.27098" lon="2.59719">
        <ele>307.765</ele>
        <time>2018-01-10T04:57:34Z</time>
      </trkpt>
      <trkpt lat="42.27087" lon="2.59749">
        <ele>306.379</ele>
        <time>2018-01-10T04:57:50Z</time>
      </trkpt>
      <trkpt lat="42.27073" lon="2.59777">
        <ele>304.818</ele>
        <time>2018-01-10T04:58:06Z</time>
      </trkpt>
      <trkpt lat="42.27061" lon="2.59799">
        <ele>303.927</ele>
        <time>2018-01-10T04:58:19Z</time>
      </trkpt>
      <trkpt lat="42.27051" lon="2.59822">
        <ele>302.968</ele>
        <time>2018-01-10T04:58:32Z</time>
      </trkpt>
      <trkpt lat="42.27033" lon="2.59844">
        <ele>301.914</ele>
        <time>2018-01-10T04:58:47Z</time>
      </trkpt>
      <trkpt lat="42.27012" lon="2.5984">
        <ele>301.008</ele>
        <time>2018-01-10T04:59:01Z</time>
      </trkpt>
      <trkpt lat="42.26992" lon="2.5984">
        <ele>299.534</ele>
        <time>2018-01-10T04:59:16Z</time>
      </trkpt>
      <trkpt lat="42.26969" lon="2.59839">
        <ele>298.183</ele>
        <time>2018-01-10T04:59:31Z</time>
      </trkpt>
      <trkpt lat="42.26968" lon="2.59839">
        <ele>298.191</ele>
        <time>2018-01-10T04:59:32Z</time>
      </trkpt>
      <trkpt lat="42.26945" lon="2.59844">
        <ele>295.299</ele>
        <time>2018-01-10T04:59:46Z</time>
      </trkpt>
      <trkpt lat="42.2693" lon="2.59856">
        <ele>291.995</ele>
        <time>2018-01-10T04:59:59Z</time>
      </trkpt>
      <trkpt lat="42.26915" lon="2.59871">
        <ele>289.945</ele>
        <time>2018-01-10T05:00:11Z</time>
      </trkpt>
      <trkpt lat="42.26909" lon="2.59881">
        <ele>288.569</ele>
        <time>2018-01-10T05:00:18Z</time>
      </trkpt>
      <trkpt lat="42.26903" lon="2.59893">
        <ele>287.028</ele>
        <time>2018-01-10T05:00:25Z</time>
      </trkpt>
      <trkpt lat="42.26896" lon="2.59913">
        <ele>285.623</ele>
        <time>2018-01-10T05:00:36Z</time>
      </trkpt>
      <trkpt lat="42.26891" lon="2.59902">
        <ele>282.283</ele>
        <time>2018-01-10T05:00:47Z</time>
      </trkpt>
      <trkpt lat="42.26895" lon="2.59878">
        <ele>279.811</ele>
        <time>2018-01-10T05:00:59Z</time>
      </trkpt>
      <trkpt lat="42.26894" lon="2.59873">
        <ele>278.908</ele>
        <time>2018-01-10T05:01:03Z</time>
      </trkpt>
      <trkpt lat="42.26885" lon="2.5988">
        <ele>277.024</ele>
        <time>2018-01-10T05:01:11Z</time>
      </trkpt>
      <trkpt lat="42.26881" lon="2.59897">
        <ele>275.043</ele>
        <time>2018-01-10T05:01:21Z</time>
      </trkpt>
      <trkpt lat="42.26873" lon="2.59927">
        <ele>272.691</ele>
        <time>2018-01-10T05:01:36Z</time>
      </trkpt>
      <trkpt lat="42.26867" lon="2.59947">
        <ele>270.739</ele>
        <time>2018-01-10T05:01:47Z</time>
      </trkpt>
      <trkpt lat="42.26862" lon="2.59965">
        <ele>268.825</ele>
        <time>2018-01-10T05:01:56Z</time>
      </trkpt>
      <trkpt lat="42.26856" lon="2.59987">
        <ele>266.925</ele>
        <time>2018-01-10T05:02:07Z</time>
      </trkpt>
      <trkpt lat="42.26847" lon="2.6001">
        <ele>264.949</ele>
        <time>2018-01-10T05:02:20Z</time>
      </trkpt>
      <trkpt lat="42.2683" lon="2.60029">
        <ele>261.628</ele>
        <time>2018-01-10T05:02:33Z</time>
      </trkpt>
      <trkpt lat="42.2682" lon="2.60038">
        <ele>260.169</ele>
        <time>2018-01-10T05:02:44Z</time>
      </trkpt>
      <trkpt lat="42.26807" lon="2.60058">
        <ele>258.704</ele>
        <time>2018-01-10T05:02:57Z</time>
      </trkpt>
      <trkpt lat="42.26796" lon="2.60085">
        <ele>256.824</ele>
        <time>2018-01-10T05:03:12Z</time>
      </trkpt>
      <trkpt lat="42.26783" lon="2.6011">
        <ele>255.308</ele>
        <time>2018-01-10T05:03:27Z</time>
      </trkpt>
      <trkpt lat="42.26775" lon="2.60131">
        <ele>254.438</ele>
        <time>2018-01-10T05:03:37Z</time>
      </trkpt>
      <trkpt lat="42.26763" lon="2.60165">
        <ele>253.417</ele>
        <time>2018-01-10T05:03:53Z</time>
      </trkpt>
      <trkpt lat="42.26756" lon="2.60184">
        <ele>253.415</ele>
        <time>2018-01-10T05:04:03Z</time>
      </trkpt>
      <trkpt lat="42.26753" lon="2.60209">
        <ele>252.433</ele>
        <time>2018-01-10T05:04:17Z</time>
      </trkpt>
      <trkpt lat="42.26755" lon="2.60231">
        <ele>252.059</ele>
        <time>2018-01-10T05:04:29Z</time>
      </trkpt>
      <trkpt lat="42.26758" lon="2.60244">
        <ele>252.049</ele>
        <time>2018-01-10T05:04:40Z</time>
      </trkpt>
      <trkpt lat="42.26759" lon="2.60258">
        <ele>248.643</ele>
        <time>2018-01-10T05:04:53Z</time>
      </trkpt>
      <trkpt lat="42.2676" lon="2.60271">
        <ele>250.082</ele>
        <time>2018-01-10T05:05:06Z</time>
      </trkpt>
      <trkpt lat="42.26763" lon="2.60272">
        <ele>250.025</ele>
        <time>2018-01-10T05:05:28Z</time>
      </trkpt>
      <trkpt lat="42.26762" lon="2.60282">
        <ele>251.526</ele>
        <time>2018-01-10T05:05:49Z</time>
      </trkpt>
      <trkpt lat="42.26755" lon="2.60299">
        <ele>251.508</ele>
        <time>2018-01-10T05:06:04Z</time>
      </trkpt>
      <trkpt lat="42.26748" lon="2.60311">
        <ele>252.908</ele>
        <time>2018-01-10T05:06:20Z</time>
      </trkpt>
      <trkpt lat="42.26736" lon="2.60329">
        <ele>256.394</ele>
        <time>2018-01-10T05:06:36Z</time>
      </trkpt>
      <trkpt lat="42.26736" lon="2.60348">
        <ele>259.263</ele>
        <time>2018-01-10T05:06:52Z</time>
      </trkpt>
      <trkpt lat="42.26736" lon="2.60363">
        <ele>261.651</ele>
        <time>2018-01-10T05:07:05Z</time>
      </trkpt>
      <trkpt lat="42.26727" lon="2.60366">
        <ele>263.529</ele>
        <time>2018-01-10T05:07:19Z</time>
      </trkpt>
      <trkpt lat="42.26717" lon="2.60371">
        <ele>265.995</ele>
        <time>2018-01-10T05:07:33Z</time>
      </trkpt>
      <trkpt lat="42.26719" lon="2.60377">
        <ele>268.825</ele>
        <time>2018-01-10T05:07:48Z</time>
      </trkpt>
      <trkpt lat="42.26718" lon="2.60386">
        <ele>272.179</ele>
        <time>2018-01-10T05:08:04Z</time>
      </trkpt>
      <trkpt lat="42.26728" lon="2.60393">
        <ele>275.098</ele>
        <time>2018-01-10T05:08:19Z</time>
      </trkpt>
      <trkpt lat="42.26733" lon="2.60397">
        <ele>277.435</ele>
        <time>2018-01-10T05:08:33Z</time>
      </trkpt>
      <trkpt lat="42.26741" lon="2.60403">
        <ele>280.386</ele>
        <time>2018-01-10T05:08:47Z</time>
      </trkpt>
      <trkpt lat="42.26741" lon="2.60412">
        <ele>283.214</ele>
        <time>2018-01-10T05:09:02Z</time>
      </trkpt>
      <trkpt lat="42.26738" lon="2.60418">
        <ele>284.608</ele>
        <time>2018-01-10T05:09:24Z</time>
      </trkpt>
      <trkpt lat="42.26733" lon="2.60427">
        <ele>287.565</ele>
        <time>2018-01-10T05:09:39Z</time>
      </trkpt>
      <trkpt lat="42.26733" lon="2.60437">
        <ele>287.064</ele>
        <time>2018-01-10T05:10:13Z</time>
      </trkpt>
      <trkpt lat="42.26738" lon="2.6044">
        <ele>287.042</ele>
        <time>2018-01-10T05:10:52Z</time>
      </trkpt>
      <trkpt lat="42.26733" lon="2.60438">
        <ele>287.08</ele>
        <time>2018-01-10T05:11:20Z</time>
      </trkpt>
      <trkpt lat="42.26719" lon="2.60436">
        <ele>289.036</ele>
        <time>2018-01-10T05:11:34Z</time>
      </trkpt>
      <trkpt lat="42.26711" lon="2.6044">
        <ele>291.466</ele>
        <time>2018-01-10T05:11:48Z</time>
      </trkpt>
      <trkpt lat="42.26694" lon="2.60443">
        <ele>292.38</ele>
        <time>2018-01-10T05:12:01Z</time>
      </trkpt>
      <trkpt lat="42.26682" lon="2.60441">
        <ele>295.759</ele>
        <time>2018-01-10T05:12:17Z</time>
      </trkpt>
      <trkpt lat="42.26676" lon="2.60441">
        <ele>298.163</ele>
        <time>2018-01-10T05:12:30Z</time>
      </trkpt>
      <trkpt lat="42.26667" lon="2.60451">
        <ele>298.144</ele>
        <time>2018-01-10T05:12:44Z</time>
      </trkpt>
      <trkpt lat="42.26651" lon="2.60458">
        <ele>299.518</ele>
        <time>2018-01-10T05:12:56Z</time>
      </trkpt>
      <trkpt lat="42.2664" lon="2.60466">
        <ele>301.908</ele>
        <time>2018-01-10T05:13:10Z</time>
      </trkpt>
      <trkpt lat="42.26638" lon="2.60476">
        <ele>304.398</ele>
        <time>2018-01-10T05:13:22Z</time>
      </trkpt>
      <trkpt lat="42.26639" lon="2.60494">
        <ele>306.327</ele>
        <time>2018-01-10T05:13:36Z</time>
      </trkpt>
      <trkpt lat="42.26646" lon="2.60506">
        <ele>309.635</ele>
        <time>2018-01-10T05:13:52Z</time>
      </trkpt>
      <trkpt lat="42.26651" lon="2.60518">
        <ele>312.523</ele>
        <time>2018-01-10T05:14:07Z</time>
      </trkpt>
      <trkpt lat="42.26654" lon="2.6053">
        <ele>313.559</ele>
        <time>2018-01-10T05:14:17Z</time>
      </trkpt>
      <trkpt lat="42.26657" lon="2.60542">
        <ele>315.429</ele>
        <time>2018-01-10T05:14:33Z</time>
      </trkpt>
      <trkpt lat="42.26663" lon="2.60551">
        <ele>317.883</ele>
        <time>2018-01-10T05:14:47Z</time>
      </trkpt>
      <trkpt lat="42.26673" lon="2.60561">
        <ele>321.252</ele>
        <time>2018-01-10T05:15:02Z</time>
      </trkpt>
      <trkpt lat="42.2668" lon="2.60571">
        <ele>324.114</ele>
        <time>2018-01-10T05:15:16Z</time>
      </trkpt>
      <trkpt lat="42.26687" lon="2.60582">
        <ele>326.554</ele>
        <time>2018-01-10T05:15:33Z</time>
      </trkpt>
      <trkpt lat="42.26695" lon="2.6059">
        <ele>329.809</ele>
        <time>2018-01-10T05:15:49Z</time>
      </trkpt>
      <trkpt lat="42.26708" lon="2.60596">
        <ele>333.208</ele>
        <time>2018-01-10T05:16:05Z</time>
      </trkpt>
      <trkpt lat="42.2671" lon="2.60588">
        <ele>333.733</ele>
        <time>2018-01-10T05:16:17Z</time>
      </trkpt>
      <trkpt lat="42.26712" lon="2.60572">
        <ele>336.142</ele>
        <time>2018-01-10T05:16:31Z</time>
      </trkpt>
      <trkpt lat="42.26717" lon="2.60556">
        <ele>338.57</ele>
        <time>2018-01-10T05:16:46Z</time>
      </trkpt>
      <trkpt lat="42.2672" lon="2.60542">
        <ele>340.958</ele>
        <time>2018-01-10T05:17:01Z</time>
      </trkpt>
      <trkpt lat="42.26728" lon="2.60535">
        <ele>343.814</ele>
        <time>2018-01-10T05:17:16Z</time>
      </trkpt>
      <trkpt lat="42.2673" lon="2.60543">
        <ele>346.214</ele>
        <time>2018-01-10T05:17:30Z</time>
      </trkpt>
      <trkpt lat="42.26733" lon="2.60554">
        <ele>349.198</ele>
        <time>2018-01-10T05:17:43Z</time>
      </trkpt>
      <trkpt lat="42.26742" lon="2.60567">
        <ele>352.427</ele>
        <time>2018-01-10T05:18:01Z</time>
      </trkpt>
      <trkpt lat="42.26749" lon="2.60584">
        <ele>354.397</ele>
        <time>2018-01-10T05:18:18Z</time>
      </trkpt>
      <trkpt lat="42.26751" lon="2.60599">
        <ele>355.323</ele>
        <time>2018-01-10T05:18:32Z</time>
      </trkpt>
      <trkpt lat="42.26753" lon="2.6062">
        <ele>357.225</ele>
        <time>2018-01-10T05:18:45Z</time>
      </trkpt>
      <trkpt lat="42.26758" lon="2.60633">
        <ele>360.608</ele>
        <time>2018-01-10T05:18:59Z</time>
      </trkpt>
      <trkpt lat="42.26765" lon="2.60646">
        <ele>362.511</ele>
        <time>2018-01-10T05:19:13Z</time>
      </trkpt>
      <trkpt lat="42.26771" lon="2.6066">
        <ele>365.49</ele>
        <time>2018-01-10T05:19:29Z</time>
      </trkpt>
      <trkpt lat="42.26783" lon="2.60663">
        <ele>368.348</ele>
        <time>2018-01-10T05:19:45Z</time>
      </trkpt>
      <trkpt lat="42.26789" lon="2.60658">
        <ele>371.686</ele>
        <time>2018-01-10T05:19:59Z</time>
      </trkpt>
      <trkpt lat="42.26795" lon="2.60653">
        <ele>374.572</ele>
        <time>2018-01-10T05:20:12Z</time>
      </trkpt>
      <trkpt lat="42.26806" lon="2.60654">
        <ele>377.442</ele>
        <time>2018-01-10T05:20:27Z</time>
      </trkpt>
      <trkpt lat="42.26814" lon="2.60656">
        <ele>380.876</ele>
        <time>2018-01-10T05:20:40Z</time>
      </trkpt>
      <trkpt lat="42.26823" lon="2.60664">
        <ele>382.785</ele>
        <time>2018-01-10T05:20:56Z</time>
      </trkpt>
      <trkpt lat="42.26829" lon="2.60678">
        <ele>384.618</ele>
        <time>2018-01-10T05:21:11Z</time>
      </trkpt>
      <trkpt lat="42.26841" lon="2.60689">
        <ele>386.198</ele>
        <time>2018-01-10T05:21:23Z</time>
      </trkpt>
      <trkpt lat="42.2685" lon="2.60703">
        <ele>388.517</ele>
        <time>2018-01-10T05:21:39Z</time>
      </trkpt>
      <trkpt lat="42.26857" lon="2.60714">
        <ele>391.808</ele>
        <time>2018-01-10T05:21:54Z</time>
      </trkpt>
      <trkpt lat="42.26865" lon="2.60728">
        <ele>394.753</ele>
        <time>2018-01-10T05:22:10Z</time>
      </trkpt>
      <trkpt lat="42.26876" lon="2.60738">
        <ele>398.162</ele>
        <time>2018-01-10T05:22:30Z</time>
      </trkpt>
      <trkpt lat="42.26891" lon="2.60749">
        <ele>400.03</ele>
        <time>2018-01-10T05:22:46Z</time>
      </trkpt>
      <trkpt lat="42.26908" lon="2.60754">
        <ele>401.938</ele>
        <time>2018-01-10T05:23:03Z</time>
      </trkpt>
      <trkpt lat="42.26924" lon="2.6076">
        <ele>403.474</ele>
        <time>2018-01-10T05:23:20Z</time>
      </trkpt>
      <trkpt lat="42.26932" lon="2.60761">
        <ele>403.874</ele>
        <time>2018-01-10T05:23:25Z</time>
      </trkpt>
      <trkpt lat="42.2695" lon="2.60767">
        <ele>405.868</ele>
        <time>2018-01-10T05:23:40Z</time>
      </trkpt>
      <trkpt lat="42.26965" lon="2.60779">
        <ele>408.727</ele>
        <time>2018-01-10T05:23:59Z</time>
      </trkpt>
      <trkpt lat="42.26978" lon="2.60794">
        <ele>410.135</ele>
        <time>2018-01-10T05:24:14Z</time>
      </trkpt>
      <trkpt lat="42.26994" lon="2.6081">
        <ele>413.086</ele>
        <time>2018-01-10T05:24:31Z</time>
      </trkpt>
      <trkpt lat="42.27" lon="2.60823">
        <ele>415.914</ele>
        <time>2018-01-10T05:24:45Z</time>
      </trkpt>
      <trkpt lat="42.2701" lon="2.60836">
        <ele>419.208</ele>
        <time>2018-01-10T05:25:03Z</time>
      </trkpt>
      <trkpt lat="42.27023" lon="2.60847">
        <ele>421.695</ele>
        <time>2018-01-10T05:25:22Z</time>
      </trkpt>
      <trkpt lat="42.27023" lon="2.60855">
        <ele>425.594</ele>
        <time>2018-01-10T05:25:33Z</time>
      </trkpt>
      <trkpt lat="42.27022" lon="2.60868">
        <ele>428.492</ele>
        <time>2018-01-10T05:25:52Z</time>
      </trkpt>
      <trkpt lat="42.27012" lon="2.60877">
        <ele>431.26</ele>
        <time>2018-01-10T05:26:09Z</time>
      </trkpt>
      <trkpt lat="42.27001" lon="2.60882">
        <ele>433.666</ele>
        <time>2018-01-10T05:26:23Z</time>
      </trkpt>
      <trkpt lat="42.26989" lon="2.60876">
        <ele>435.626</ele>
        <time>2018-01-10T05:26:36Z</time>
      </trkpt>
      <trkpt lat="42.2698" lon="2.60881">
        <ele>438.01</ele>
        <time>2018-01-10T05:26:50Z</time>
      </trkpt>
      <trkpt lat="42.26984" lon="2.60898">
        <ele>440.449</ele>
        <time>2018-01-10T05:27:05Z</time>
      </trkpt>
      <trkpt lat="42.26987" lon="2.60917">
        <ele>442.371</ele>
        <time>2018-01-10T05:27:22Z</time>
      </trkpt>
      <trkpt lat="42.26987" lon="2.60938">
        <ele>445.741</ele>
        <time>2018-01-10T05:27:38Z</time>
      </trkpt>
      <trkpt lat="42.26983" lon="2.60952">
        <ele>448.515</ele>
        <time>2018-01-10T05:27:54Z</time>
      </trkpt>
      <trkpt lat="42.26992" lon="2.60957">
        <ele>451.908</ele>
        <time>2018-01-10T05:28:08Z</time>
      </trkpt>
      <trkpt lat="42.27004" lon="2.60959">
        <ele>454.379</ele>
        <time>2018-01-10T05:28:22Z</time>
      </trkpt>
      <trkpt lat="42.27005" lon="2.60969">
        <ele>456.768</ele>
        <time>2018-01-10T05:28:35Z</time>
      </trkpt>
      <trkpt lat="42.26997" lon="2.60976">
        <ele>458.636</ele>
        <time>2018-01-10T05:28:48Z</time>
      </trkpt>
      <trkpt lat="42.26991" lon="2.6098">
        <ele>460.184</ele>
        <time>2018-01-10T05:29:01Z</time>
      </trkpt>
      <trkpt lat="42.26981" lon="2.60977">
        <ele>461.56</ele>
        <time>2018-01-10T05:29:12Z</time>
      </trkpt>
      <trkpt lat="42.26971" lon="2.60972">
        <ele>463.05</ele>
        <time>2018-01-10T05:29:24Z</time>
      </trkpt>
      <trkpt lat="42.26962" lon="2.6097">
        <ele>463.484</ele>
        <time>2018-01-10T05:29:34Z</time>
      </trkpt>
      <trkpt lat="42.26956" lon="2.60968">
        <ele>463.983</ele>
        <time>2018-01-10T05:29:42Z</time>
      </trkpt>
      <trkpt lat="42.26943" lon="2.60975">
        <ele>465.912</ele>
        <time>2018-01-10T05:29:55Z</time>
      </trkpt>
      <trkpt lat="42.26931" lon="2.60979">
        <ele>468.332</ele>
        <time>2018-01-10T05:30:09Z</time>
      </trkpt>
      <trkpt lat="42.2692" lon="2.60974">
        <ele>469.205</ele>
        <time>2018-01-10T05:30:19Z</time>
      </trkpt>
      <trkpt lat="42.26907" lon="2.60975">
        <ele>470.708</ele>
        <time>2018-01-10T05:30:30Z</time>
      </trkpt>
      <trkpt lat="42.26893" lon="2.60976">
        <ele>473.563</ele>
        <time>2018-01-10T05:30:45Z</time>
      </trkpt>
      <trkpt lat="42.26881" lon="2.60978">
        <ele>475.932</ele>
        <time>2018-01-10T05:30:59Z</time>
      </trkpt>
      <trkpt lat="42.26871" lon="2.60981">
        <ele>478.31</ele>
        <time>2018-01-10T05:31:12Z</time>
      </trkpt>
      <trkpt lat="42.26862" lon="2.60988">
        <ele>481.728</ele>
        <time>2018-01-10T05:31:27Z</time>
      </trkpt>
      <trkpt lat="42.26856" lon="2.60996">
        <ele>483.634</ele>
        <time>2018-01-10T05:31:43Z</time>
      </trkpt>
      <trkpt lat="42.2685" lon="2.61012">
        <ele>487.094</ele>
        <time>2018-01-10T05:31:57Z</time>
      </trkpt>
      <trkpt lat="42.26847" lon="2.61024">
        <ele>489.498</ele>
        <time>2018-01-10T05:32:12Z</time>
      </trkpt>
      <trkpt lat="42.26836" lon="2.61035">
        <ele>492.337</ele>
        <time>2018-01-10T05:32:25Z</time>
      </trkpt>
      <trkpt lat="42.26831" lon="2.6104">
        <ele>494.758</ele>
        <time>2018-01-10T05:32:39Z</time>
      </trkpt>
      <trkpt lat="42.26823" lon="2.6105">
        <ele>496.652</ele>
        <time>2018-01-10T05:32:53Z</time>
      </trkpt>
      <trkpt lat="42.26821" lon="2.61062">
        <ele>499.017</ele>
        <time>2018-01-10T05:33:06Z</time>
      </trkpt>
      <trkpt lat="42.26819" lon="2.61073">
        <ele>501.408</ele>
        <time>2018-01-10T05:33:20Z</time>
      </trkpt>
      <trkpt lat="42.26821" lon="2.61086">
        <ele>503.397</ele>
        <time>2018-01-10T05:33:33Z</time>
      </trkpt>
      <trkpt lat="42.26828" lon="2.611">
        <ele>506.286</ele>
        <time>2018-01-10T05:33:48Z</time>
      </trkpt>
      <trkpt lat="42.26837" lon="2.61109">
        <ele>508.654</ele>
        <time>2018-01-10T05:34:02Z</time>
      </trkpt>
      <trkpt lat="42.26843" lon="2.61119">
        <ele>512.012</ele>
        <time>2018-01-10T05:34:17Z</time>
      </trkpt>
      <trkpt lat="42.26848" lon="2.61125">
        <ele>514.498</ele>
        <time>2018-01-10T05:34:30Z</time>
      </trkpt>
      <trkpt lat="42.26856" lon="2.61136">
        <ele>516.848</ele>
        <time>2018-01-10T05:34:45Z</time>
      </trkpt>
      <trkpt lat="42.26865" lon="2.61146">
        <ele>519.262</ele>
        <time>2018-01-10T05:34:59Z</time>
      </trkpt>
      <trkpt lat="42.26871" lon="2.61158">
        <ele>522.671</ele>
        <time>2018-01-10T05:35:13Z</time>
      </trkpt>
      <trkpt lat="42.26883" lon="2.61167">
        <ele>525.066</ele>
        <time>2018-01-10T05:35:30Z</time>
      </trkpt>
      <trkpt lat="42.26892" lon="2.61174">
        <ele>527.929</ele>
        <time>2018-01-10T05:35:44Z</time>
      </trkpt>
      <trkpt lat="42.26903" lon="2.61181">
        <ele>530.721</ele>
        <time>2018-01-10T05:35:59Z</time>
      </trkpt>
      <trkpt lat="42.26913" lon="2.61192">
        <ele>533.108</ele>
        <time>2018-01-10T05:36:15Z</time>
      </trkpt>
      <trkpt lat="42.26916" lon="2.61214">
        <ele>536.538</ele>
        <time>2018-01-10T05:36:29Z</time>
      </trkpt>
      <trkpt lat="42.26925" lon="2.61223">
        <ele>539.937</ele>
        <time>2018-01-10T05:36:45Z</time>
      </trkpt>
      <trkpt lat="42.26931" lon="2.61229">
        <ele>541.345</ele>
        <time>2018-01-10T05:36:57Z</time>
      </trkpt>
      <trkpt lat="42.2694" lon="2.61242">
        <ele>544.283</ele>
        <time>2018-01-10T05:37:13Z</time>
      </trkpt>
      <trkpt lat="42.26954" lon="2.61252">
        <ele>546.659</ele>
        <time>2018-01-10T05:37:28Z</time>
      </trkpt>
      <trkpt lat="42.26962" lon="2.61264">
        <ele>549.089</ele>
        <time>2018-01-10T05:37:42Z</time>
      </trkpt>
      <trkpt lat="42.2697" lon="2.61277">
        <ele>550.973</ele>
        <time>2018-01-10T05:37:57Z</time>
      </trkpt>
      <trkpt lat="42.2698" lon="2.61288">
        <ele>553.392</ele>
        <time>2018-01-10T05:38:13Z</time>
      </trkpt>
      <trkpt lat="42.2699" lon="2.613">
        <ele>555.722</ele>
        <time>2018-01-10T05:38:30Z</time>
      </trkpt>
      <trkpt lat="42.27005" lon="2.61306">
        <ele>558.662</ele>
        <time>2018-01-10T05:38:46Z</time>
      </trkpt>
      <trkpt lat="42.27011" lon="2.61313">
        <ele>562.008</ele>
        <time>2018-01-10T05:38:58Z</time>
      </trkpt>
      <trkpt lat="42.27012" lon="2.61328">
        <ele>565.308</ele>
        <time>2018-01-10T05:39:14Z</time>
      </trkpt>
      <trkpt lat="42.27014" lon="2.6134">
        <ele>567.374</ele>
        <time>2018-01-10T05:39:27Z</time>
      </trkpt>
      <trkpt lat="42.27016" lon="2.61351">
        <ele>570.253</ele>
        <time>2018-01-10T05:39:39Z</time>
      </trkpt>
      <trkpt lat="42.2702" lon="2.61363">
        <ele>572.681</ele>
        <time>2018-01-10T05:39:53Z</time>
      </trkpt>
      <trkpt lat="42.27024" lon="2.61374">
        <ele>575.069</ele>
        <time>2018-01-10T05:40:07Z</time>
      </trkpt>
      <trkpt lat="42.27028" lon="2.61387">
        <ele>576.945</ele>
        <time>2018-01-10T05:40:20Z</time>
      </trkpt>
      <trkpt lat="42.27031" lon="2.61403">
        <ele>580.225</ele>
        <time>2018-01-10T05:40:38Z</time>
      </trkpt>
      <trkpt lat="42.27037" lon="2.61414">
        <ele>583.199</ele>
        <time>2018-01-10T05:40:53Z</time>
      </trkpt>
      <trkpt lat="42.27043" lon="2.61425">
        <ele>586.028</ele>
        <time>2018-01-10T05:41:09Z</time>
      </trkpt>
      <trkpt lat="42.27048" lon="2.61437">
        <ele>587.983</ele>
        <time>2018-01-10T05:41:21Z</time>
      </trkpt>
      <trkpt lat="42.27049" lon="2.61448">
        <ele>588.925</ele>
        <time>2018-01-10T05:41:30Z</time>
      </trkpt>
      <trkpt lat="42.2705" lon="2.61463">
        <ele>590.317</ele>
        <time>2018-01-10T05:41:42Z</time>
      </trkpt>
      <trkpt lat="42.27049" lon="2.61475">
        <ele>591.808</ele>
        <time>2018-01-10T05:41:53Z</time>
      </trkpt>
      <trkpt lat="42.27049" lon="2.61494">
        <ele>594.25</ele>
        <time>2018-01-10T05:42:06Z</time>
      </trkpt>
      <trkpt lat="42.27054" lon="2.61517">
        <ele>596.189</ele>
        <time>2018-01-10T05:42:22Z</time>
      </trkpt>
      <trkpt lat="42.27058" lon="2.61532">
        <ele>599.057</ele>
        <time>2018-01-10T05:42:35Z</time>
      </trkpt>
      <trkpt lat="42.2706" lon="2.61549">
        <ele>601.495</ele>
        <time>2018-01-10T05:42:50Z</time>
      </trkpt>
      <trkpt lat="42.27065" lon="2.61565">
        <ele>602.451</ele>
        <time>2018-01-10T05:43:02Z</time>
      </trkpt>
      <trkpt lat="42.27073" lon="2.6158">
        <ele>603.371</ele>
        <time>2018-01-10T05:43:14Z</time>
      </trkpt>
      <trkpt lat="42.27082" lon="2.61596">
        <ele>604.315</ele>
        <time>2018-01-10T05:43:27Z</time>
      </trkpt>
      <trkpt lat="42.2709" lon="2.61616">
        <ele>605.734</ele>
        <time>2018-01-10T05:43:41Z</time>
      </trkpt>
      <trkpt lat="42.27097" lon="2.61634">
        <ele>607.633</ele>
        <time>2018-01-10T05:43:54Z</time>
      </trkpt>
      <trkpt lat="42.27103" lon="2.61652">
        <ele>608.123</ele>
        <time>2018-01-10T05:44:07Z</time>
      </trkpt>
      <trkpt lat="42.2711" lon="2.6167">
        <ele>609.615</ele>
        <time>2018-01-10T05:44:21Z</time>
      </trkpt>
      <trkpt lat="42.27118" lon="2.61691">
        <ele>612.008</ele>
        <time>2018-01-10T05:44:38Z</time>
      </trkpt>
      <trkpt lat="42.27137" lon="2.61701">
        <ele>614.435</ele>
        <time>2018-01-10T05:44:55Z</time>
      </trkpt>
      <trkpt lat="42.27148" lon="2.61715">
        <ele>617.344</ele>
        <time>2018-01-10T05:45:13Z</time>
      </trkpt>
      <trkpt lat="42.27156" lon="2.61728">
        <ele>620.612</ele>
        <time>2018-01-10T05:45:27Z</time>
      </trkpt>
      <trkpt lat="42.27169" lon="2.61738">
        <ele>623.55</ele>
        <time>2018-01-10T05:45:43Z</time>
      </trkpt>
      <trkpt lat="42.27175" lon="2.61772">
        <ele>625.466</ele>
        <time>2018-01-10T05:45:58Z</time>
      </trkpt>
      <trkpt lat="42.27181" lon="2.61781">
        <ele>628.896</ele>
        <time>2018-01-10T05:46:15Z</time>
      </trkpt>
      <trkpt lat="42.27183" lon="2.61783">
        <ele>630.21</ele>
        <time>2018-01-10T05:46:37Z</time>
      </trkpt>
      <trkpt lat="42.27189" lon="2.61782">
        <ele>630.749</ele>
        <time>2018-01-10T05:46:57Z</time>
      </trkpt>
      <trkpt lat="42.27194" lon="2.61786">
        <ele>634.183</ele>
        <time>2018-01-10T05:47:09Z</time>
      </trkpt>
      <trkpt lat="42.27201" lon="2.61792">
        <ele>635.525</ele>
        <time>2018-01-10T05:47:21Z</time>
      </trkpt>
      <trkpt lat="42.27206" lon="2.61795">
        <ele>636.517</ele>
        <time>2018-01-10T05:47:42Z</time>
      </trkpt>
      <trkpt lat="42.27205" lon="2.61799">
        <ele>636.508</ele>
        <time>2018-01-10T05:48:02Z</time>
      </trkpt>
      <trkpt lat="42.27206" lon="2.61799">
        <ele>636.58</ele>
        <time>2018-01-10T05:48:30Z</time>
      </trkpt>
      <trkpt lat="42.27208" lon="2.61797">
        <ele>636.539</ele>
        <time>2018-01-10T05:48:54Z</time>
      </trkpt>
      <trkpt lat="42.27218" lon="2.61795">
        <ele>636.597</ele>
        <time>2018-01-10T05:49:04Z</time>
      </trkpt>
      <trkpt lat="42.27231" lon="2.61796">
        <ele>637.495</ele>
        <time>2018-01-10T05:49:16Z</time>
      </trkpt>
      <trkpt lat="42.2724" lon="2.61795">
        <ele>638.911</ele>
        <time>2018-01-10T05:49:28Z</time>
      </trkpt>
      <trkpt lat="42.27249" lon="2.618">
        <ele>639.411</ele>
        <time>2018-01-10T05:49:39Z</time>
      </trkpt>
      <trkpt lat="42.27261" lon="2.61803">
        <ele>640.865</ele>
        <time>2018-01-10T05:49:53Z</time>
      </trkpt>
      <trkpt lat="42.27279" lon="2.61801">
        <ele>643.274</ele>
        <time>2018-01-10T05:50:09Z</time>
      </trkpt>
      <trkpt lat="42.27291" lon="2.61814">
        <ele>645.698</ele>
        <time>2018-01-10T05:50:24Z</time>
      </trkpt>
      <trkpt lat="42.27304" lon="2.61822">
        <ele>647.515</ele>
        <time>2018-01-10T05:50:35Z</time>
      </trkpt>
      <trkpt lat="42.27314" lon="2.61835">
        <ele>649.026</ele>
        <time>2018-01-10T05:50:47Z</time>
      </trkpt>
      <trkpt lat="42.27322" lon="2.61849">
        <ele>651.908</ele>
        <time>2018-01-10T05:51:03Z</time>
      </trkpt>
      <trkpt lat="42.27329" lon="2.61859">
        <ele>654.331</ele>
        <time>2018-01-10T05:51:16Z</time>
      </trkpt>
      <trkpt lat="42.27339" lon="2.61863">
        <ele>657.28</ele>
        <time>2018-01-10T05:51:30Z</time>
      </trkpt>
      <trkpt lat="42.27348" lon="2.61872">
        <ele>660.528</ele>
        <time>2018-01-10T05:51:45Z</time>
      </trkpt>
      <trkpt lat="42.27356" lon="2.61884">
        <ele>662.926</ele>
        <time>2018-01-10T05:51:59Z</time>
      </trkpt>
      <trkpt lat="42.27358" lon="2.61896">
        <ele>665.812</ele>
        <time>2018-01-10T05:52:13Z</time>
      </trkpt>
      <trkpt lat="42.2736" lon="2.61909">
        <ele>667.242</ele>
        <time>2018-01-10T05:52:25Z</time>
      </trkpt>
      <trkpt lat="42.27363" lon="2.61921">
        <ele>669.766</ele>
        <time>2018-01-10T05:52:37Z</time>
      </trkpt>
      <trkpt lat="42.27369" lon="2.61933">
        <ele>671.695</ele>
        <time>2018-01-10T05:52:51Z</time>
      </trkpt>
      <trkpt lat="42.2737" lon="2.61943">
        <ele>674.073</ele>
        <time>2018-01-10T05:53:04Z</time>
      </trkpt>
      <trkpt lat="42.2737" lon="2.6196">
        <ele>677.385</ele>
        <time>2018-01-10T05:53:18Z</time>
      </trkpt>
      <trkpt lat="42.27374" lon="2.61978">
        <ele>679.713</ele>
        <time>2018-01-10T05:53:32Z</time>
      </trkpt>
      <trkpt lat="42.27376" lon="2.61989">
        <ele>681.708</ele>
        <time>2018-01-10T05:53:44Z</time>
      </trkpt>
      <trkpt lat="42.27376" lon="2.61994">
        <ele>684.169</ele>
        <time>2018-01-10T05:53:57Z</time>
      </trkpt>
      <trkpt lat="42.27376" lon="2.62005">
        <ele>687.018</ele>
        <time>2018-01-10T05:54:11Z</time>
      </trkpt>
      <trkpt lat="42.27377" lon="2.62016">
        <ele>689.446</ele>
        <time>2018-01-10T05:54:27Z</time>
      </trkpt>
      <trkpt lat="42.27378" lon="2.6204">
        <ele>690.844</ele>
        <time>2018-01-10T05:54:40Z</time>
      </trkpt>
      <trkpt lat="42.27378" lon="2.62048">
        <ele>693.78</ele>
        <time>2018-01-10T05:54:55Z</time>
      </trkpt>
      <trkpt lat="42.27381" lon="2.62059">
        <ele>695.65</ele>
        <time>2018-01-10T05:55:10Z</time>
      </trkpt>
      <trkpt lat="42.27384" lon="2.62071">
        <ele>699.074</ele>
        <time>2018-01-10T05:55:24Z</time>
      </trkpt>
      <trkpt lat="42.27384" lon="2.62082">
        <ele>701.473</ele>
        <time>2018-01-10T05:55:42Z</time>
      </trkpt>
      <trkpt lat="42.2738" lon="2.62093">
        <ele>702.828</ele>
        <time>2018-01-10T05:55:53Z</time>
      </trkpt>
      <trkpt lat="42.27378" lon="2.62106">
        <ele>705.289</ele>
        <time>2018-01-10T05:56:05Z</time>
      </trkpt>
      <trkpt lat="42.27378" lon="2.62119">
        <ele>708.117</ele>
        <time>2018-01-10T05:56:19Z</time>
      </trkpt>
      <trkpt lat="42.27374" lon="2.62136">
        <ele>710.508</ele>
        <time>2018-01-10T05:56:33Z</time>
      </trkpt>
      <trkpt lat="42.27375" lon="2.62138">
        <ele>712.914</ele>
        <time>2018-01-10T05:56:46Z</time>
      </trkpt>
      <trkpt lat="42.27382" lon="2.62142">
        <ele>714.463</ele>
        <time>2018-01-10T05:56:57Z</time>
      </trkpt>
      <trkpt lat="42.2739" lon="2.62138">
        <ele>715.871</ele>
        <time>2018-01-10T05:57:07Z</time>
      </trkpt>
      <trkpt lat="42.27399" lon="2.62139">
        <ele>718.759</ele>
        <time>2018-01-10T05:57:20Z</time>
      </trkpt>
      <trkpt lat="42.27401" lon="2.62151">
        <ele>720.185</ele>
        <time>2018-01-10T05:57:33Z</time>
      </trkpt>
      <trkpt lat="42.27402" lon="2.62172">
        <ele>722.535</ele>
        <time>2018-01-10T05:57:47Z</time>
      </trkpt>
      <trkpt lat="42.27404" lon="2.62184">
        <ele>724.999</ele>
        <time>2018-01-10T05:57:59Z</time>
      </trkpt>
      <trkpt lat="42.27405" lon="2.62195">
        <ele>727.858</ele>
        <time>2018-01-10T05:58:11Z</time>
      </trkpt>
      <trkpt lat="42.2741" lon="2.62211">
        <ele>729.752</ele>
        <time>2018-01-10T05:58:27Z</time>
      </trkpt>
      <trkpt lat="42.27414" lon="2.62225">
        <ele>732.653</ele>
        <time>2018-01-10T05:58:41Z</time>
      </trkpt>
      <trkpt lat="42.2742" lon="2.62235">
        <ele>734.108</ele>
        <time>2018-01-10T05:58:53Z</time>
      </trkpt>
      <trkpt lat="42.27423" lon="2.62245">
        <ele>735.008</ele>
        <time>2018-01-10T05:59:00Z</time>
      </trkpt>
      <trkpt lat="42.27427" lon="2.6226">
        <ele>736.997</ele>
        <time>2018-01-10T05:59:13Z</time>
      </trkpt>
      <trkpt lat="42.27429" lon="2.62272">
        <ele>738.926</ele>
        <time>2018-01-10T05:59:24Z</time>
      </trkpt>
      <trkpt lat="42.27442" lon="2.62282">
        <ele>742.224</ele>
        <time>2018-01-10T05:59:39Z</time>
      </trkpt>
      <trkpt lat="42.2745" lon="2.62293">
        <ele>744.692</ele>
        <time>2018-01-10T05:59:51Z</time>
      </trkpt>
      <trkpt lat="42.27451" lon="2.62306">
        <ele>747.558</ele>
        <time>2018-01-10T06:00:05Z</time>
      </trkpt>
      <trkpt lat="42.27448" lon="2.62317">
        <ele>749.468</ele>
        <time>2018-01-10T06:00:19Z</time>
      </trkpt>
      <trkpt lat="42.27455" lon="2.62328">
        <ele>752.382</ele>
        <time>2018-01-10T06:00:35Z</time>
      </trkpt>
      <trkpt lat="42.27457" lon="2.62334">
        <ele>755.751</ele>
        <time>2018-01-10T06:00:48Z</time>
      </trkpt>
      <trkpt lat="42.27453" lon="2.62344">
        <ele>757.145</ele>
        <time>2018-01-10T06:01:03Z</time>
      </trkpt>
      <trkpt lat="42.27453" lon="2.62355">
        <ele>759.147</ele>
        <time>2018-01-10T06:01:17Z</time>
      </trkpt>
      <trkpt lat="42.27449" lon="2.6237">
        <ele>760.511</ele>
        <time>2018-01-10T06:01:33Z</time>
      </trkpt>
      <trkpt lat="42.27448" lon="2.62374">
        <ele>760.508</ele>
        <time>2018-01-10T06:01:37Z</time>
      </trkpt>
      <trkpt lat="42.27446" lon="2.6238">
        <ele>760.526</ele>
        <time>2018-01-10T06:01:42Z</time>
      </trkpt>
      <trkpt lat="42.27445" lon="2.62388">
        <ele>760.515</ele>
        <time>2018-01-10T06:01:46Z</time>
      </trkpt>
      <trkpt lat="42.27446" lon="2.62396">
        <ele>759.573</ele>
        <time>2018-01-10T06:01:50Z</time>
      </trkpt>
      <trkpt lat="42.27443" lon="2.62416">
        <ele>761.021</ele>
        <time>2018-01-10T06:02:03Z</time>
      </trkpt>
      <trkpt lat="42.27441" lon="2.62434">
        <ele>762.477</ele>
        <time>2018-01-10T06:02:16Z</time>
      </trkpt>
      <trkpt lat="42.27442" lon="2.62453">
        <ele>765.387</ele>
        <time>2018-01-10T06:02:28Z</time>
      </trkpt>
      <trkpt lat="42.27446" lon="2.62467">
        <ele>767.791</ele>
        <time>2018-01-10T06:02:41Z</time>
      </trkpt>
      <trkpt lat="42.27461" lon="2.62482">
        <ele>770.11</ele>
        <time>2018-01-10T06:02:55Z</time>
      </trkpt>
      <trkpt lat="42.27467" lon="2.62492">
        <ele>772.556</ele>
        <time>2018-01-10T06:03:09Z</time>
      </trkpt>
      <trkpt lat="42.27475" lon="2.62498">
        <ele>774.959</ele>
        <time>2018-01-10T06:03:23Z</time>
      </trkpt>
      <trkpt lat="42.27481" lon="2.62509">
        <ele>777.314</ele>
        <time>2018-01-10T06:03:36Z</time>
      </trkpt>
      <trkpt lat="42.2748" lon="2.62528">
        <ele>779.208</ele>
        <time>2018-01-10T06:03:47Z</time>
      </trkpt>
      <trkpt lat="42.27484" lon="2.62528">
        <ele>780.257</ele>
        <time>2018-01-10T06:03:59Z</time>
      </trkpt>
      <trkpt lat="42.27487" lon="2.62535">
        <ele>781.276</ele>
        <time>2018-01-10T06:04:11Z</time>
      </trkpt>
      <trkpt lat="42.27491" lon="2.62538">
        <ele>781.214</ele>
        <time>2018-01-10T06:04:33Z</time>
      </trkpt>
      <trkpt lat="42.27491" lon="2.62525">
        <ele>781.282</ele>
        <time>2018-01-10T06:04:51Z</time>
      </trkpt>
      <trkpt lat="42.27481" lon="2.62526">
        <ele>778.838</ele>
        <time>2018-01-10T06:04:58Z</time>
      </trkpt>
      <trkpt lat="42.27477" lon="2.62526">
        <ele>777.318</ele>
        <time>2018-01-10T06:05:05Z</time>
      </trkpt>
      <trkpt lat="42.27472" lon="2.62511">
        <ele>774.072</ele>
        <time>2018-01-10T06:05:17Z</time>
      </trkpt>
      <trkpt lat="42.27469" lon="2.62503">
        <ele>771.121</ele>
        <time>2018-01-10T06:05:26Z</time>
      </trkpt>
      <trkpt lat="42.27469" lon="2.62502">
        <ele>770.648</ele>
        <time>2018-01-10T06:05:28Z</time>
      </trkpt>
      <trkpt lat="42.27457" lon="2.62478">
        <ele>767.261</ele>
        <time>2018-01-10T06:05:42Z</time>
      </trkpt>
      <trkpt lat="42.27446" lon="2.62462">
        <ele>763.917</ele>
        <time>2018-01-10T06:05:52Z</time>
      </trkpt>
      <trkpt lat="42.27441" lon="2.62434">
        <ele>760.508</ele>
        <time>2018-01-10T06:06:03Z</time>
      </trkpt>
      <trkpt lat="42.27441" lon="2.62432">
        <ele>760.086</ele>
        <time>2018-01-10T06:06:04Z</time>
      </trkpt>
      <trkpt lat="42.27445" lon="2.6241">
        <ele>758.615</ele>
        <time>2018-01-10T06:06:15Z</time>
      </trkpt>
      <trkpt lat="42.27448" lon="2.62383">
        <ele>757.613</ele>
        <time>2018-01-10T06:06:31Z</time>
      </trkpt>
      <trkpt lat="42.27449" lon="2.62378">
        <ele>757.691</ele>
        <time>2018-01-10T06:06:34Z</time>
      </trkpt>
      <trkpt lat="42.2746" lon="2.62359">
        <ele>757.687</ele>
        <time>2018-01-10T06:06:46Z</time>
      </trkpt>
      <trkpt lat="42.27467" lon="2.62345">
        <ele>757.627</ele>
        <time>2018-01-10T06:06:55Z</time>
      </trkpt>
      <trkpt lat="42.27477" lon="2.62321">
        <ele>757.661</ele>
        <time>2018-01-10T06:07:08Z</time>
      </trkpt>
      <trkpt lat="42.27478" lon="2.62316">
        <ele>757.67</ele>
        <time>2018-01-10T06:07:12Z</time>
      </trkpt>
      <trkpt lat="42.27485" lon="2.62306">
        <ele>757.631</ele>
        <time>2018-01-10T06:07:18Z</time>
      </trkpt>
      <trkpt lat="42.27486" lon="2.62302">
        <ele>757.661</ele>
        <time>2018-01-10T06:07:20Z</time>
      </trkpt>
      <trkpt lat="42.27498" lon="2.62278">
        <ele>759.107</ele>
        <time>2018-01-10T06:07:34Z</time>
      </trkpt>
      <trkpt lat="42.27498" lon="2.62272">
        <ele>759.508</ele>
        <time>2018-01-10T06:07:38Z</time>
      </trkpt>
      <trkpt lat="42.27501" lon="2.62257">
        <ele>760.055</ele>
        <time>2018-01-10T06:07:46Z</time>
      </trkpt>
      <trkpt lat="42.27508" lon="2.62234">
        <ele>760.554</ele>
        <time>2018-01-10T06:07:59Z</time>
      </trkpt>
      <trkpt lat="42.27508" lon="2.62218">
        <ele>761.542</ele>
        <time>2018-01-10T06:08:07Z</time>
      </trkpt>
      <trkpt lat="42.27508" lon="2.62204">
        <ele>761.58</ele>
        <time>2018-01-10T06:08:15Z</time>
      </trkpt>
      <trkpt lat="42.27508" lon="2.622">
        <ele>761.576</ele>
        <time>2018-01-10T06:08:18Z</time>
      </trkpt>
      <trkpt lat="42.27509" lon="2.62193">
        <ele>761.526</ele>
        <time>2018-01-10T06:08:21Z</time>
      </trkpt>
      <trkpt lat="42.27514" lon="2.62174">
        <ele>761.59</ele>
        <time>2018-01-10T06:08:28Z</time>
      </trkpt>
      <trkpt lat="42.27517" lon="2.62165">
        <ele>761.059</ele>
        <time>2018-01-10T06:08:32Z</time>
      </trkpt>
      <trkpt lat="42.2752" lon="2.6216">
        <ele>760.036</ele>
        <time>2018-01-10T06:08:35Z</time>
      </trkpt>
      <trkpt lat="42.27527" lon="2.62146">
        <ele>758.617</ele>
        <time>2018-01-10T06:08:45Z</time>
      </trkpt>
      <trkpt lat="42.27531" lon="2.62135">
        <ele>759.118</ele>
        <time>2018-01-10T06:08:51Z</time>
      </trkpt>
      <trkpt lat="42.27536" lon="2.62121">
        <ele>758.608</ele>
        <time>2018-01-10T06:08:58Z</time>
      </trkpt>
      <trkpt lat="42.27543" lon="2.62109">
        <ele>758.635</ele>
        <time>2018-01-10T06:09:05Z</time>
      </trkpt>
      <trkpt lat="42.27552" lon="2.62088">
        <ele>758.174</ele>
        <time>2018-01-10T06:09:17Z</time>
      </trkpt>
      <trkpt lat="42.27553" lon="2.62086">
        <ele>758.162</ele>
        <time>2018-01-10T06:09:19Z</time>
      </trkpt>
      <trkpt lat="42.27556" lon="2.62081">
        <ele>758.16</ele>
        <time>2018-01-10T06:09:23Z</time>
      </trkpt>
      <trkpt lat="42.27561" lon="2.62074">
        <ele>758.116</ele>
        <time>2018-01-10T06:09:27Z</time>
      </trkpt>
      <trkpt lat="42.27563" lon="2.62071">
        <ele>758.166</ele>
        <time>2018-01-10T06:09:29Z</time>
      </trkpt>
      <trkpt lat="42.27563" lon="2.62069">
        <ele>758.14</ele>
        <time>2018-01-10T06:09:30Z</time>
      </trkpt>
      <trkpt lat="42.27572" lon="2.62046">
        <ele>758.149</ele>
        <time>2018-01-10T06:09:41Z</time>
      </trkpt>
      <trkpt lat="42.27573" lon="2.62043">
        <ele>758.166</ele>
        <time>2018-01-10T06:09:43Z</time>
      </trkpt>
      <trkpt lat="42.27574" lon="2.62035">
        <ele>759.129</ele>
        <time>2018-01-10T06:09:47Z</time>
      </trkpt>
      <trkpt lat="42.27577" lon="2.62026">
        <ele>759.521</ele>
        <time>2018-01-10T06:09:54Z</time>
      </trkpt>
      <trkpt lat="42.2758" lon="2.62019">
        <ele>760.008</ele>
        <time>2018-01-10T06:09:58Z</time>
      </trkpt>
      <trkpt lat="42.27585" lon="2.61996">
        <ele>762.458</ele>
        <time>2018-01-10T06:10:12Z</time>
      </trkpt>
      <trkpt lat="42.27589" lon="2.61977">
        <ele>765.387</ele>
        <time>2018-01-10T06:10:28Z</time>
      </trkpt>
      <trkpt lat="42.2759" lon="2.6196">
        <ele>766.715</ele>
        <time>2018-01-10T06:10:38Z</time>
      </trkpt>
      <trkpt lat="42.27586" lon="2.61941">
        <ele>767.773</ele>
        <time>2018-01-10T06:10:50Z</time>
      </trkpt>
      <trkpt lat="42.27587" lon="2.61936">
        <ele>767.769</ele>
        <time>2018-01-10T06:10:53Z</time>
      </trkpt>
      <trkpt lat="42.27589" lon="2.6193">
        <ele>767.719</ele>
        <time>2018-01-10T06:10:56Z</time>
      </trkpt>
      <trkpt lat="42.27595" lon="2.61905">
        <ele>768.223</ele>
        <time>2018-01-10T06:11:09Z</time>
      </trkpt>
      <trkpt lat="42.27605" lon="2.61895">
        <ele>769.632</ele>
        <time>2018-01-10T06:11:20Z</time>
      </trkpt>
      <trkpt lat="42.27611" lon="2.61893">
        <ele>770.667</ele>
        <time>2018-01-10T06:11:26Z</time>
      </trkpt>
      <trkpt lat="42.27615" lon="2.61889">
        <ele>770.681</ele>
        <time>2018-01-10T06:11:29Z</time>
      </trkpt>
      <trkpt lat="42.2762" lon="2.61882">
        <ele>771.119</ele>
        <time>2018-01-10T06:11:36Z</time>
      </trkpt>
      <trkpt lat="42.2763" lon="2.61882">
        <ele>772.508</ele>
        <time>2018-01-10T06:11:47Z</time>
      </trkpt>
      <trkpt lat="42.27645" lon="2.6187">
        <ele>773.538</ele>
        <time>2018-01-10T06:11:58Z</time>
      </trkpt>
      <trkpt lat="42.27656" lon="2.61863">
        <ele>773.537</ele>
        <time>2018-01-10T06:12:09Z</time>
      </trkpt>
      <trkpt lat="42.27657" lon="2.61858">
        <ele>773.055</ele>
        <time>2018-01-10T06:12:12Z</time>
      </trkpt>
      <trkpt lat="42.27659" lon="2.61846">
        <ele>773.513</ele>
        <time>2018-01-10T06:12:19Z</time>
      </trkpt>
      <trkpt lat="42.27667" lon="2.61828">
        <ele>773.599</ele>
        <time>2018-01-10T06:12:27Z</time>
      </trkpt>
      <trkpt lat="42.27672" lon="2.61803">
        <ele>772.079</ele>
        <time>2018-01-10T06:12:39Z</time>
      </trkpt>
      <trkpt lat="42.27673" lon="2.61801">
        <ele>772.013</ele>
        <time>2018-01-10T06:12:40Z</time>
      </trkpt>
      <trkpt lat="42.27676" lon="2.61777">
        <ele>772.062</ele>
        <time>2018-01-10T06:12:52Z</time>
      </trkpt>
      <trkpt lat="42.27684" lon="2.61747">
        <ele>772.058</ele>
        <time>2018-01-10T06:13:05Z</time>
      </trkpt>
      <trkpt lat="42.27702" lon="2.61715">
        <ele>774.452</ele>
        <time>2018-01-10T06:13:20Z</time>
      </trkpt>
      <trkpt lat="42.2771" lon="2.61704">
        <ele>775.417</ele>
        <time>2018-01-10T06:13:32Z</time>
      </trkpt>
      <trkpt lat="42.27719" lon="2.61696">
        <ele>775.908</ele>
        <time>2018-01-10T06:13:40Z</time>
      </trkpt>
      <trkpt lat="42.27724" lon="2.61691">
        <ele>775.947</ele>
        <time>2018-01-10T06:13:44Z</time>
      </trkpt>
      <trkpt lat="42.27726" lon="2.61689">
        <ele>775.946</ele>
        <time>2018-01-10T06:13:46Z</time>
      </trkpt>
      <trkpt lat="42.27734" lon="2.61683">
        <ele>775.474</ele>
        <time>2018-01-10T06:13:55Z</time>
      </trkpt>
      <trkpt lat="42.27737" lon="2.61681">
        <ele>775.952</ele>
        <time>2018-01-10T06:13:58Z</time>
      </trkpt>
      <trkpt lat="42.27753" lon="2.6168">
        <ele>776.888</ele>
        <time>2018-01-10T06:14:12Z</time>
      </trkpt>
      <trkpt lat="42.27765" lon="2.61684">
        <ele>777.368</ele>
        <time>2018-01-10T06:14:23Z</time>
      </trkpt>
      <trkpt lat="42.27769" lon="2.61685">
        <ele>777.312</ele>
        <time>2018-01-10T06:14:26Z</time>
      </trkpt>
      <trkpt lat="42.2778" lon="2.61693">
        <ele>777.341</ele>
        <time>2018-01-10T06:14:36Z</time>
      </trkpt>
      <trkpt lat="42.27795" lon="2.61702">
        <ele>777.322</ele>
        <time>2018-01-10T06:14:48Z</time>
      </trkpt>
      <trkpt lat="42.27804" lon="2.6171">
        <ele>777.362</ele>
        <time>2018-01-10T06:14:58Z</time>
      </trkpt>
      <trkpt lat="42.27817" lon="2.61717">
        <ele>777.308</ele>
        <time>2018-01-10T06:15:09Z</time>
      </trkpt>
      <trkpt lat="42.2783" lon="2.61723">
        <ele>777.308</ele>
        <time>2018-01-10T06:15:20Z</time>
      </trkpt>
      <trkpt lat="42.27844" lon="2.61732">
        <ele>775.454</ele>
        <time>2018-01-10T06:15:32Z</time>
      </trkpt>
      <trkpt lat="42.27851" lon="2.61734">
        <ele>774.943</ele>
        <time>2018-01-10T06:15:37Z</time>
      </trkpt>
      <trkpt lat="42.27864" lon="2.61747">
        <ele>773.551</ele>
        <time>2018-01-10T06:15:48Z</time>
      </trkpt>
      <trkpt lat="42.27877" lon="2.61757">
        <ele>772.539</ele>
        <time>2018-01-10T06:15:59Z</time>
      </trkpt>
      <trkpt lat="42.27892" lon="2.61765">
        <ele>771.685</ele>
        <time>2018-01-10T06:16:09Z</time>
      </trkpt>
      <trkpt lat="42.27901" lon="2.61768">
        <ele>771.155</ele>
        <time>2018-01-10T06:16:15Z</time>
      </trkpt>
      <trkpt lat="42.27919" lon="2.61775">
        <ele>771.169</ele>
        <time>2018-01-10T06:16:26Z</time>
      </trkpt>
      <trkpt lat="42.27938" lon="2.61784">
        <ele>770.148</ele>
        <time>2018-01-10T06:16:38Z</time>
      </trkpt>
      <trkpt lat="42.27951" lon="2.61789">
        <ele>770.122</ele>
        <time>2018-01-10T06:16:47Z</time>
      </trkpt>
      <trkpt lat="42.27969" lon="2.61802">
        <ele>769.662</ele>
        <time>2018-01-10T06:17:01Z</time>
      </trkpt>
      <trkpt lat="42.27986" lon="2.61811">
        <ele>769.608</ele>
        <time>2018-01-10T06:17:15Z</time>
      </trkpt>
      <trkpt lat="42.28" lon="2.61823">
        <ele>771.108</ele>
        <time>2018-01-10T06:17:28Z</time>
      </trkpt>
      <trkpt lat="42.2801" lon="2.61834">
        <ele>771.144</ele>
        <time>2018-01-10T06:17:40Z</time>
      </trkpt>
      <trkpt lat="42.28021" lon="2.61845">
        <ele>771.613</ele>
        <time>2018-01-10T06:17:52Z</time>
      </trkpt>
      <trkpt lat="42.28036" lon="2.61843">
        <ele>769.621</ele>
        <time>2018-01-10T06:18:05Z</time>
      </trkpt>
      <trkpt lat="42.28044" lon="2.61831">
        <ele>769.199</ele>
        <time>2018-01-10T06:18:14Z</time>
      </trkpt>
      <trkpt lat="42.28059" lon="2.61811">
        <ele>768.235</ele>
        <time>2018-01-10T06:18:26Z</time>
      </trkpt>
      <trkpt lat="42.2807" lon="2.61797">
        <ele>767.775</ele>
        <time>2018-01-10T06:18:37Z</time>
      </trkpt>
      <trkpt lat="42.28075" lon="2.61791">
        <ele>767.789</ele>
        <time>2018-01-10T06:18:41Z</time>
      </trkpt>
      <trkpt lat="42.28093" lon="2.61772">
        <ele>765.868</ele>
        <time>2018-01-10T06:18:54Z</time>
      </trkpt>
      <trkpt lat="42.28095" lon="2.61769">
        <ele>765.897</ele>
        <time>2018-01-10T06:18:57Z</time>
      </trkpt>
      <trkpt lat="42.28111" lon="2.61748">
        <ele>765.323</ele>
        <time>2018-01-10T06:19:09Z</time>
      </trkpt>
      <trkpt lat="42.28115" lon="2.61743">
        <ele>765.325</ele>
        <time>2018-01-10T06:19:11Z</time>
      </trkpt>
      <trkpt lat="42.28134" lon="2.6172">
        <ele>762.908</ele>
        <time>2018-01-10T06:19:25Z</time>
      </trkpt>
      <trkpt lat="42.28141" lon="2.61724">
        <ele>764.321</ele>
        <time>2018-01-10T06:19:34Z</time>
      </trkpt>
      <trkpt lat="42.28142" lon="2.61741">
        <ele>765.31</ele>
        <time>2018-01-10T06:19:47Z</time>
      </trkpt>
      <trkpt lat="42.28142" lon="2.61749">
        <ele>767.768</ele>
        <time>2018-01-10T06:19:58Z</time>
      </trkpt>
      <trkpt lat="42.28145" lon="2.61764">
        <ele>770.176</ele>
        <time>2018-01-10T06:20:11Z</time>
      </trkpt>
      <trkpt lat="42.28147" lon="2.61783">
        <ele>772.032</ele>
        <time>2018-01-10T06:20:24Z</time>
      </trkpt>
      <trkpt lat="42.28152" lon="2.61801">
        <ele>773.522</ele>
        <time>2018-01-10T06:20:37Z</time>
      </trkpt>
      <trkpt lat="42.28157" lon="2.61814">
        <ele>775.416</ele>
        <time>2018-01-10T06:20:48Z</time>
      </trkpt>
      <trkpt lat="42.28162" lon="2.61825">
        <ele>775.435</ele>
        <time>2018-01-10T06:20:58Z</time>
      </trkpt>
      <trkpt lat="42.28167" lon="2.61844">
        <ele>774.421</ele>
        <time>2018-01-10T06:21:12Z</time>
      </trkpt>
      <trkpt lat="42.28179" lon="2.61864">
        <ele>772.041</ele>
        <time>2018-01-10T06:21:34Z</time>
      </trkpt>
      <trkpt lat="42.28191" lon="2.61873">
        <ele>771.105</ele>
        <time>2018-01-10T06:21:46Z</time>
      </trkpt>
      <trkpt lat="42.28207" lon="2.61891">
        <ele>771.108</ele>
        <time>2018-01-10T06:22:01Z</time>
      </trkpt>
      <trkpt lat="42.28217" lon="2.61911">
        <ele>771.194</ele>
        <time>2018-01-10T06:22:14Z</time>
      </trkpt>
      <trkpt lat="42.28219" lon="2.61913">
        <ele>772.563</ele>
        <time>2018-01-10T06:22:17Z</time>
      </trkpt>
      <trkpt lat="42.28226" lon="2.6193">
        <ele>774.451</ele>
        <time>2018-01-10T06:22:31Z</time>
      </trkpt>
      <trkpt lat="42.28233" lon="2.6194">
        <ele>776.819</ele>
        <time>2018-01-10T06:22:43Z</time>
      </trkpt>
      <trkpt lat="42.28241" lon="2.61948">
        <ele>778.395</ele>
        <time>2018-01-10T06:22:52Z</time>
      </trkpt>
      <trkpt lat="42.28244" lon="2.61956">
        <ele>781.255</ele>
        <time>2018-01-10T06:23:06Z</time>
      </trkpt>
      <trkpt lat="42.2825" lon="2.61971">
        <ele>783.149</ele>
        <time>2018-01-10T06:23:21Z</time>
      </trkpt>
      <trkpt lat="42.2825" lon="2.61971">
        <ele>783.188</ele>
        <time>2018-01-10T06:23:22Z</time>
      </trkpt>
      <trkpt lat="42.28258" lon="2.61984">
        <ele>784.557</ele>
        <time>2018-01-10T06:23:34Z</time>
      </trkpt>
      <trkpt lat="42.28263" lon="2.61994">
        <ele>786.5</ele>
        <time>2018-01-10T06:23:46Z</time>
      </trkpt>
      <trkpt lat="42.28267" lon="2.62007">
        <ele>787.92</ele>
        <time>2018-01-10T06:24:00Z</time>
      </trkpt>
      <trkpt lat="42.28277" lon="2.62021">
        <ele>790.808</ele>
        <time>2018-01-10T06:24:13Z</time>
      </trkpt>
      <trkpt lat="42.28284" lon="2.62031">
        <ele>793.277</ele>
        <time>2018-01-10T06:24:25Z</time>
      </trkpt>
      <trkpt lat="42.28282" lon="2.62044">
        <ele>795.646</ele>
        <time>2018-01-10T06:24:37Z</time>
      </trkpt>
      <trkpt lat="42.28279" lon="2.62059">
        <ele>798.514</ele>
        <time>2018-01-10T06:24:52Z</time>
      </trkpt>
      <trkpt lat="42.28274" lon="2.6207">
        <ele>801.432</ele>
        <time>2018-01-10T06:25:06Z</time>
      </trkpt>
      <trkpt lat="42.28271" lon="2.62076">
        <ele>802.368</ele>
        <time>2018-01-10T06:25:13Z</time>
      </trkpt>
      <trkpt lat="42.28266" lon="2.62088">
        <ele>800.418</ele>
        <time>2018-01-10T06:25:27Z</time>
      </trkpt>
      <trkpt lat="42.28257" lon="2.62106">
        <ele>800.472</ele>
        <time>2018-01-10T06:25:35Z</time>
      </trkpt>
      <trkpt lat="42.28256" lon="2.62112">
        <ele>800.451</ele>
        <time>2018-01-10T06:25:39Z</time>
      </trkpt>
      <trkpt lat="42.28261" lon="2.62124">
        <ele>800.488</ele>
        <time>2018-01-10T06:25:52Z</time>
      </trkpt>
      <trkpt lat="42.2826" lon="2.62132">
        <ele>801.824</ele>
        <time>2018-01-10T06:25:55Z</time>
      </trkpt>
      <trkpt lat="42.28258" lon="2.62144">
        <ele>803.826</ele>
        <time>2018-01-10T06:26:07Z</time>
      </trkpt>
      <trkpt lat="42.28256" lon="2.62152">
        <ele>806.608</ele>
        <time>2018-01-10T06:26:18Z</time>
      </trkpt>
      <trkpt lat="42.28256" lon="2.62161">
        <ele>808.62</ele>
        <time>2018-01-10T06:26:31Z</time>
      </trkpt>
      <trkpt lat="42.28258" lon="2.6217">
        <ele>811.919</ele>
        <time>2018-01-10T06:26:46Z</time>
      </trkpt>
      <trkpt lat="42.28254" lon="2.62177">
        <ele>814.367</ele>
        <time>2018-01-10T06:27:00Z</time>
      </trkpt>
      <trkpt lat="42.28252" lon="2.62183">
        <ele>816.755</ele>
        <time>2018-01-10T06:27:14Z</time>
      </trkpt>
      <trkpt lat="42.28248" lon="2.62192">
        <ele>819.131</ele>
        <time>2018-01-10T06:27:27Z</time>
      </trkpt>
      <trkpt lat="42.28254" lon="2.62199">
        <ele>821.511</ele>
        <time>2018-01-10T06:27:42Z</time>
      </trkpt>
      <trkpt lat="42.28255" lon="2.62207">
        <ele>823.555</ele>
        <time>2018-01-10T06:27:54Z</time>
      </trkpt>
      <trkpt lat="42.28253" lon="2.6222">
        <ele>824.494</ele>
        <time>2018-01-10T06:28:07Z</time>
      </trkpt>
      <trkpt lat="42.28252" lon="2.62226">
        <ele>824.418</ele>
        <time>2018-01-10T06:28:13Z</time>
      </trkpt>
      <trkpt lat="42.28248" lon="2.6224">
        <ele>823.998</ele>
        <time>2018-01-10T06:28:24Z</time>
      </trkpt>
      <trkpt lat="42.28258" lon="2.62259">
        <ele>824.917</ele>
        <time>2018-01-10T06:28:37Z</time>
      </trkpt>
      <trkpt lat="42.28265" lon="2.62267">
        <ele>823.508</ele>
        <time>2018-01-10T06:28:44Z</time>
      </trkpt>
      <trkpt lat="42.28265" lon="2.62269">
        <ele>823.083</ele>
        <time>2018-01-10T06:28:46Z</time>
      </trkpt>
      <trkpt lat="42.28266" lon="2.62274">
        <ele>823.072</ele>
        <time>2018-01-10T06:28:52Z</time>
      </trkpt>
      <trkpt lat="42.28276" lon="2.62286">
        <ele>823.54</ele>
        <time>2018-01-10T06:29:04Z</time>
      </trkpt>
      <trkpt lat="42.28282" lon="2.62291">
        <ele>824.938</ele>
        <time>2018-01-10T06:29:18Z</time>
      </trkpt>
      <trkpt lat="42.28289" lon="2.62299">
        <ele>825.934</ele>
        <time>2018-01-10T06:29:29Z</time>
      </trkpt>
      <trkpt lat="42.28301" lon="2.623">
        <ele>826.344</ele>
        <time>2018-01-10T06:29:42Z</time>
      </trkpt>
      <trkpt lat="42.28322" lon="2.62303">
        <ele>825.918</ele>
        <time>2018-01-10T06:30:07Z</time>
      </trkpt>
      <trkpt lat="42.2833" lon="2.62298">
        <ele>825.927</ele>
        <time>2018-01-10T06:30:22Z</time>
      </trkpt>
      <trkpt lat="42.2834" lon="2.62295">
        <ele>826.328</ele>
        <time>2018-01-10T06:30:34Z</time>
      </trkpt>
      <trkpt lat="42.28356" lon="2.62285">
        <ele>827.889</ele>
        <time>2018-01-10T06:30:43Z</time>
      </trkpt>
      <trkpt lat="42.28358" lon="2.62276">
        <ele>831.217</ele>
        <time>2018-01-10T06:30:54Z</time>
      </trkpt>
      <trkpt lat="42.28358" lon="2.62273">
        <ele>832.108</ele>
        <time>2018-01-10T06:31:00Z</time>
      </trkpt>
      <trkpt lat="42.28357" lon="2.62262">
        <ele>835.074</ele>
        <time>2018-01-10T06:31:13Z</time>
      </trkpt>
      <trkpt lat="42.2836" lon="2.62254">
        <ele>837.423</ele>
        <time>2018-01-10T06:31:25Z</time>
      </trkpt>
      <trkpt lat="42.28362" lon="2.62243">
        <ele>840.361</ele>
        <time>2018-01-10T06:31:38Z</time>
      </trkpt>
      <trkpt lat="42.28365" lon="2.62227">
        <ele>843.259</ele>
        <time>2018-01-10T06:31:53Z</time>
      </trkpt>
      <trkpt lat="42.28367" lon="2.62209">
        <ele>843.665</ele>
        <time>2018-01-10T06:32:06Z</time>
      </trkpt>
      <trkpt lat="42.28374" lon="2.62196">
        <ele>844.155</ele>
        <time>2018-01-10T06:32:18Z</time>
      </trkpt>
      <trkpt lat="42.28382" lon="2.62185">
        <ele>843.249</ele>
        <time>2018-01-10T06:32:31Z</time>
      </trkpt>
      <trkpt lat="42.28389" lon="2.62174">
        <ele>842.798</ele>
        <time>2018-01-10T06:32:42Z</time>
      </trkpt>
      <trkpt lat="42.28393" lon="2.62167">
        <ele>844.154</ele>
        <time>2018-01-10T06:32:47Z</time>
      </trkpt>
      <trkpt lat="42.28404" lon="2.6216">
        <ele>847.056</ele>
        <time>2018-01-10T06:33:01Z</time>
      </trkpt>
      <trkpt lat="42.28414" lon="2.62152">
        <ele>848.911</ele>
        <time>2018-01-10T06:33:14Z</time>
      </trkpt>
      <trkpt lat="42.28427" lon="2.62142">
        <ele>849.908</ele>
        <time>2018-01-10T06:33:22Z</time>
      </trkpt>
      <trkpt lat="42.28437" lon="2.62131">
        <ele>851.857</ele>
        <time>2018-01-10T06:33:34Z</time>
      </trkpt>
      <trkpt lat="42.28445" lon="2.62128">
        <ele>852.876</ele>
        <time>2018-01-10T06:33:44Z</time>
      </trkpt>
      <trkpt lat="42.28454" lon="2.62124">
        <ele>853.364</ele>
        <time>2018-01-10T06:33:48Z</time>
      </trkpt>
      <trkpt lat="42.28465" lon="2.62113">
        <ele>853.362</ele>
        <time>2018-01-10T06:34:00Z</time>
      </trkpt>
      <trkpt lat="42.28472" lon="2.62108">
        <ele>850.988</ele>
        <time>2018-01-10T06:34:08Z</time>
      </trkpt>
      <trkpt lat="42.28478" lon="2.62104">
        <ele>849.978</ele>
        <time>2018-01-10T06:34:12Z</time>
      </trkpt>
      <trkpt lat="42.2848" lon="2.62101">
        <ele>849.912</ele>
        <time>2018-01-10T06:34:14Z</time>
      </trkpt>
      <trkpt lat="42.28484" lon="2.62097">
        <ele>848.921</ele>
        <time>2018-01-10T06:34:18Z</time>
      </trkpt>
      <trkpt lat="42.28496" lon="2.62095">
        <ele>848.075</ele>
        <time>2018-01-10T06:34:28Z</time>
      </trkpt>
      <trkpt lat="42.28504" lon="2.62099">
        <ele>847.028</ele>
        <time>2018-01-10T06:34:39Z</time>
      </trkpt>
      <trkpt lat="42.28511" lon="2.62092">
        <ele>848.02</ele>
        <time>2018-01-10T06:34:50Z</time>
      </trkpt>
      <trkpt lat="42.28512" lon="2.62075">
        <ele>847.508</ele>
        <time>2018-01-10T06:35:02Z</time>
      </trkpt>
      <trkpt lat="42.28516" lon="2.62064">
        <ele>845.199</ele>
        <time>2018-01-10T06:35:13Z</time>
      </trkpt>
      <trkpt lat="42.28516" lon="2.6205">
        <ele>843.268</ele>
        <time>2018-01-10T06:35:23Z</time>
      </trkpt>
      <trkpt lat="42.28516" lon="2.62048">
        <ele>843.236</ele>
        <time>2018-01-10T06:35:24Z</time>
      </trkpt>
      <trkpt lat="42.28511" lon="2.62026">
        <ele>842.734</ele>
        <time>2018-01-10T06:35:38Z</time>
      </trkpt>
      <trkpt lat="42.28507" lon="2.61998">
        <ele>842.71</ele>
        <time>2018-01-10T06:35:52Z</time>
      </trkpt>
      <trkpt lat="42.28506" lon="2.61991">
        <ele>842.76</ele>
        <time>2018-01-10T06:36:07Z</time>
      </trkpt>
      <trkpt lat="42.28507" lon="2.61989">
        <ele>844.184</ele>
        <time>2018-01-10T06:36:11Z</time>
      </trkpt>
      <trkpt lat="42.28513" lon="2.61985">
        <ele>846.123</ele>
        <time>2018-01-10T06:36:21Z</time>
      </trkpt>
      <trkpt lat="42.28523" lon="2.61983">
        <ele>848.594</ele>
        <time>2018-01-10T06:36:35Z</time>
      </trkpt>
      <trkpt lat="42.28531" lon="2.61985">
        <ele>850.457</ele>
        <time>2018-01-10T06:36:46Z</time>
      </trkpt>
      <trkpt lat="42.28537" lon="2.61992">
        <ele>852.822</ele>
        <time>2018-01-10T06:36:58Z</time>
      </trkpt>
      <trkpt lat="42.28541" lon="2.62003">
        <ele>855.708</ele>
        <time>2018-01-10T06:37:12Z</time>
      </trkpt>
      <trkpt lat="42.2855" lon="2.62005">
        <ele>858.121</ele>
        <time>2018-01-10T06:37:24Z</time>
      </trkpt>
      <trkpt lat="42.28556" lon="2.62013">
        <ele>861.05</ele>
        <time>2018-01-10T06:37:37Z</time>
      </trkpt>
      <trkpt lat="42.28554" lon="2.62028">
        <ele>863.498</ele>
        <time>2018-01-10T06:37:50Z</time>
      </trkpt>
      <trkpt lat="42.2855" lon="2.62035">
        <ele>865.356</ele>
        <time>2018-01-10T06:38:01Z</time>
      </trkpt>
      <trkpt lat="42.28552" lon="2.62038">
        <ele>865.822</ele>
        <time>2018-01-10T06:38:08Z</time>
      </trkpt>
      <trkpt lat="42.28551" lon="2.62036">
        <ele>865.862</ele>
        <time>2018-01-10T06:38:10Z</time>
      </trkpt>
      <trkpt lat="42.2855" lon="2.62046">
        <ele>865.376</ele>
        <time>2018-01-10T06:38:22Z</time>
      </trkpt>
      <trkpt lat="42.28554" lon="2.6206">
        <ele>868.295</ele>
        <time>2018-01-10T06:38:34Z</time>
      </trkpt>
      <trkpt lat="42.28558" lon="2.62067">
        <ele>870.651</ele>
        <time>2018-01-10T06:38:46Z</time>
      </trkpt>
      <trkpt lat="42.28562" lon="2.62076">
        <ele>873.501</ele>
        <time>2018-01-10T06:38:59Z</time>
      </trkpt>
      <trkpt lat="42.28559" lon="2.62096">
        <ele>876.811</ele>
        <time>2018-01-10T06:39:13Z</time>
      </trkpt>
      <trkpt lat="42.2856" lon="2.6211">
        <ele>879.208</ele>
        <time>2018-01-10T06:39:26Z</time>
      </trkpt>
      <trkpt lat="42.28566" lon="2.62116">
        <ele>882.197</ele>
        <time>2018-01-10T06:39:40Z</time>
      </trkpt>
      <trkpt lat="42.28574" lon="2.62125">
        <ele>884.566</ele>
        <time>2018-01-10T06:39:53Z</time>
      </trkpt>
      <trkpt lat="42.28582" lon="2.62134">
        <ele>886.944</ele>
        <time>2018-01-10T06:40:05Z</time>
      </trkpt>
      <trkpt lat="42.2859" lon="2.62142">
        <ele>888.862</ele>
        <time>2018-01-10T06:40:18Z</time>
      </trkpt>
      <trkpt lat="42.28602" lon="2.6215">
        <ele>891.738</ele>
        <time>2018-01-10T06:40:33Z</time>
      </trkpt>
      <trkpt lat="42.28616" lon="2.62149">
        <ele>894.668</ele>
        <time>2018-01-10T06:40:47Z</time>
      </trkpt>
      <trkpt lat="42.28626" lon="2.62146">
        <ele>897.022</ele>
        <time>2018-01-10T06:41:00Z</time>
      </trkpt>
      <trkpt lat="42.2863" lon="2.62137">
        <ele>900.481</ele>
        <time>2018-01-10T06:41:14Z</time>
      </trkpt>
      <trkpt lat="42.28643" lon="2.62125">
        <ele>901.851</ele>
        <time>2018-01-10T06:41:31Z</time>
      </trkpt>
      <trkpt lat="42.28644" lon="2.62117">
        <ele>902.801</ele>
        <time>2018-01-10T06:41:37Z</time>
      </trkpt>
      <trkpt lat="42.28652" lon="2.62118">
        <ele>904.211</ele>
        <time>2018-01-10T06:41:49Z</time>
      </trkpt>
      <trkpt lat="42.28658" lon="2.6213">
        <ele>907.108</ele>
        <time>2018-01-10T06:42:03Z</time>
      </trkpt>
      <trkpt lat="42.2866" lon="2.62136">
        <ele>909.557</ele>
        <time>2018-01-10T06:42:12Z</time>
      </trkpt>
      <trkpt lat="42.28664" lon="2.62134">
        <ele>910.526</ele>
        <time>2018-01-10T06:42:17Z</time>
      </trkpt>
      <trkpt lat="42.2867" lon="2.62133">
        <ele>911.934</ele>
        <time>2018-01-10T06:42:23Z</time>
      </trkpt>
      <trkpt lat="42.28675" lon="2.62134">
        <ele>914.812</ele>
        <time>2018-01-10T06:42:37Z</time>
      </trkpt>
      <trkpt lat="42.2868" lon="2.62133">
        <ele>916.738</ele>
        <time>2018-01-10T06:42:51Z</time>
      </trkpt>
      <trkpt lat="42.28682" lon="2.62133">
        <ele>918.258</ele>
        <time>2018-01-10T06:43:02Z</time>
      </trkpt>
      <trkpt lat="42.28687" lon="2.62129">
        <ele>919.652</ele>
        <time>2018-01-10T06:43:15Z</time>
      </trkpt>
      <trkpt lat="42.28694" lon="2.62129">
        <ele>920.611</ele>
        <time>2018-01-10T06:43:28Z</time>
      </trkpt>
      <trkpt lat="42.28697" lon="2.62118">
        <ele>921.578</ele>
        <time>2018-01-10T06:43:42Z</time>
      </trkpt>
      <trkpt lat="42.28698" lon="2.62116">
        <ele>922.033</ele>
        <time>2018-01-10T06:43:44Z</time>
      </trkpt>
      <trkpt lat="42.28706" lon="2.62094">
        <ele>923.426</ele>
        <time>2018-01-10T06:44:02Z</time>
      </trkpt>
      <trkpt lat="42.28707" lon="2.62095">
        <ele>923.408</ele>
        <time>2018-01-10T06:44:04Z</time>
      </trkpt>
      <trkpt lat="42.2871" lon="2.62092">
        <ele>923.949</ele>
        <time>2018-01-10T06:44:16Z</time>
      </trkpt>
      <trkpt lat="42.28709" lon="2.6209">
        <ele>923.988</ele>
        <time>2018-01-10T06:44:45Z</time>
      </trkpt>
      <trkpt lat="42.2871" lon="2.62084">
        <ele>924.446</ele>
        <time>2018-01-10T06:45:00Z</time>
      </trkpt>
      <trkpt lat="42.28715" lon="2.62081">
        <ele>924.444</ele>
        <time>2018-01-10T06:45:12Z</time>
      </trkpt>
      <trkpt lat="42.28716" lon="2.62071">
        <ele>924.49</ele>
        <time>2018-01-10T06:45:18Z</time>
      </trkpt>
      <trkpt lat="42.28719" lon="2.62043">
        <ele>921.52</ele>
        <time>2018-01-10T06:45:34Z</time>
      </trkpt>
      <trkpt lat="42.28725" lon="2.62014">
        <ele>920.174</ele>
        <time>2018-01-10T06:45:50Z</time>
      </trkpt>
      <trkpt lat="42.28732" lon="2.61979">
        <ele>918.623</ele>
        <time>2018-01-10T06:46:08Z</time>
      </trkpt>
      <trkpt lat="42.28747" lon="2.61952">
        <ele>917.239</ele>
        <time>2018-01-10T06:46:25Z</time>
      </trkpt>
      <trkpt lat="42.28755" lon="2.61941">
        <ele>916.701</ele>
        <time>2018-01-10T06:46:34Z</time>
      </trkpt>
      <trkpt lat="42.28756" lon="2.61933">
        <ele>915.721</ele>
        <time>2018-01-10T06:46:38Z</time>
      </trkpt>
      <trkpt lat="42.28758" lon="2.61922">
        <ele>915.308</ele>
        <time>2018-01-10T06:46:43Z</time>
      </trkpt>
      <trkpt lat="42.28761" lon="2.61917">
        <ele>915.365</ele>
        <time>2018-01-10T06:46:46Z</time>
      </trkpt>
      <trkpt lat="42.28761" lon="2.61876">
        <ele>914.864</ele>
        <time>2018-01-10T06:47:06Z</time>
      </trkpt>
      <trkpt lat="42.28761" lon="2.61875">
        <ele>914.382</ele>
        <time>2018-01-10T06:47:07Z</time>
      </trkpt>
      <trkpt lat="42.28757" lon="2.61839">
        <ele>913.35</ele>
        <time>2018-01-10T06:47:25Z</time>
      </trkpt>
      <trkpt lat="42.28755" lon="2.61793">
        <ele>912.456</ele>
        <time>2018-01-10T06:47:46Z</time>
      </trkpt>
      <trkpt lat="42.28757" lon="2.61789">
        <ele>912.486</ele>
        <time>2018-01-10T06:47:49Z</time>
      </trkpt>
      <trkpt lat="42.28763" lon="2.61785">
        <ele>912.42</ele>
        <time>2018-01-10T06:47:55Z</time>
      </trkpt>
      <trkpt lat="42.2878" lon="2.6177">
        <ele>913.829</ele>
        <time>2018-01-10T06:48:10Z</time>
      </trkpt>
      <trkpt lat="42.28786" lon="2.61764">
        <ele>914.892</ele>
        <time>2018-01-10T06:48:15Z</time>
      </trkpt>
      <trkpt lat="42.28789" lon="2.61759">
        <ele>915.373</ele>
        <time>2018-01-10T06:48:19Z</time>
      </trkpt>
      <trkpt lat="42.28793" lon="2.61756">
        <ele>915.32</ele>
        <time>2018-01-10T06:48:22Z</time>
      </trkpt>
      <trkpt lat="42.28801" lon="2.61748">
        <ele>915.708</ele>
        <time>2018-01-10T06:48:30Z</time>
      </trkpt>
      <trkpt lat="42.28811" lon="2.61724">
        <ele>913.811</ele>
        <time>2018-01-10T06:48:45Z</time>
      </trkpt>
      <trkpt lat="42.28819" lon="2.61707">
        <ele>913.33</ele>
        <time>2018-01-10T06:48:58Z</time>
      </trkpt>
      <trkpt lat="42.2882" lon="2.61699">
        <ele>913.318</ele>
        <time>2018-01-10T06:49:12Z</time>
      </trkpt>
      <trkpt lat="42.28824" lon="2.61686">
        <ele>913.316</ele>
        <time>2018-01-10T06:49:19Z</time>
      </trkpt>
      <trkpt lat="42.28836" lon="2.61657">
        <ele>911.962</ele>
        <time>2018-01-10T06:49:35Z</time>
      </trkpt>
      <trkpt lat="42.2884" lon="2.61652">
        <ele>911.452</ele>
        <time>2018-01-10T06:49:39Z</time>
      </trkpt>
      <trkpt lat="42.28853" lon="2.61629">
        <ele>910.566</ele>
        <time>2018-01-10T06:49:50Z</time>
      </trkpt>
      <trkpt lat="42.28858" lon="2.61615">
        <ele>910.545</ele>
        <time>2018-01-10T06:49:58Z</time>
      </trkpt>
      <trkpt lat="42.28867" lon="2.61573">
        <ele>909.017</ele>
        <time>2018-01-10T06:50:15Z</time>
      </trkpt>
      <trkpt lat="42.28872" lon="2.61552">
        <ele>908.187</ele>
        <time>2018-01-10T06:50:25Z</time>
      </trkpt>
      <trkpt lat="42.28873" lon="2.61548">
        <ele>907.615</ele>
        <time>2018-01-10T06:50:27Z</time>
      </trkpt>
      <trkpt lat="42.28875" lon="2.61519">
        <ele>905.708</ele>
        <time>2018-01-10T06:50:40Z</time>
      </trkpt>
      <trkpt lat="42.28875" lon="2.61516">
        <ele>905.273</ele>
        <time>2018-01-10T06:50:42Z</time>
      </trkpt>
      <trkpt lat="42.28878" lon="2.61493">
        <ele>904.292</ele>
        <time>2018-01-10T06:50:53Z</time>
      </trkpt>
      <trkpt lat="42.28884" lon="2.61464">
        <ele>903.73</ele>
        <time>2018-01-10T06:51:08Z</time>
      </trkpt>
      <trkpt lat="42.28884" lon="2.61453">
        <ele>903.748</ele>
        <time>2018-01-10T06:51:14Z</time>
      </trkpt>
      <trkpt lat="42.28878" lon="2.61439">
        <ele>905.294</ele>
        <time>2018-01-10T06:51:21Z</time>
      </trkpt>
      <trkpt lat="42.28872" lon="2.61425">
        <ele>907.184</ele>
        <time>2018-01-10T06:51:29Z</time>
      </trkpt>
      <trkpt lat="42.28874" lon="2.61409">
        <ele>907.178</ele>
        <time>2018-01-10T06:51:38Z</time>
      </trkpt>
      <trkpt lat="42.28886" lon="2.61397">
        <ele>909.537</ele>
        <time>2018-01-10T06:51:53Z</time>
      </trkpt>
      <trkpt lat="42.28893" lon="2.6138">
        <ele>911.411</ele>
        <time>2018-01-10T06:52:07Z</time>
      </trkpt>
      <trkpt lat="42.28896" lon="2.61375">
        <ele>911.921</ele>
        <time>2018-01-10T06:52:11Z</time>
      </trkpt>
      <trkpt lat="42.28901" lon="2.61347">
        <ele>911.903</ele>
        <time>2018-01-10T06:52:24Z</time>
      </trkpt>
      <trkpt lat="42.28915" lon="2.6132">
        <ele>911.908</ele>
        <time>2018-01-10T06:52:39Z</time>
      </trkpt>
      <trkpt lat="42.28917" lon="2.61316">
        <ele>911.923</ele>
        <time>2018-01-10T06:52:42Z</time>
      </trkpt>
      <trkpt lat="42.2892" lon="2.61314">
        <ele>912.422</ele>
        <time>2018-01-10T06:52:44Z</time>
      </trkpt>
      <trkpt lat="42.28923" lon="2.61308">
        <ele>912.46</ele>
        <time>2018-01-10T06:52:48Z</time>
      </trkpt>
      <trkpt lat="42.28918" lon="2.61276">
        <ele>912.428</ele>
        <time>2018-01-10T06:53:02Z</time>
      </trkpt>
      <trkpt lat="42.28915" lon="2.61267">
        <ele>910.964</ele>
        <time>2018-01-10T06:53:06Z</time>
      </trkpt>
      <trkpt lat="42.28913" lon="2.61256">
        <ele>910.524</ele>
        <time>2018-01-10T06:53:12Z</time>
      </trkpt>
      <trkpt lat="42.28913" lon="2.61247">
        <ele>910.018</ele>
        <time>2018-01-10T06:53:16Z</time>
      </trkpt>
      <trkpt lat="42.28915" lon="2.61221">
        <ele>909.547</ele>
        <time>2018-01-10T06:53:31Z</time>
      </trkpt>
      <trkpt lat="42.28915" lon="2.61216">
        <ele>909.061</ele>
        <time>2018-01-10T06:53:33Z</time>
      </trkpt>
      <trkpt lat="42.28918" lon="2.61174">
        <ele>908.521</ele>
        <time>2018-01-10T06:53:50Z</time>
      </trkpt>
      <trkpt lat="42.2892" lon="2.6115">
        <ele>908.113</ele>
        <time>2018-01-10T06:54:03Z</time>
      </trkpt>
      <trkpt lat="42.28921" lon="2.61141">
        <ele>909.508</ele>
        <time>2018-01-10T06:54:10Z</time>
      </trkpt>
      <trkpt lat="42.28922" lon="2.61138">
        <ele>909.548</ele>
        <time>2018-01-10T06:54:12Z</time>
      </trkpt>
      <trkpt lat="42.28923" lon="2.6111">
        <ele>911.937</ele>
        <time>2018-01-10T06:54:25Z</time>
      </trkpt>
      <trkpt lat="42.28925" lon="2.61101">
        <ele>912.975</ele>
        <time>2018-01-10T06:54:30Z</time>
      </trkpt>
      <trkpt lat="42.28939" lon="2.61086">
        <ele>915.393</ele>
        <time>2018-01-10T06:54:43Z</time>
      </trkpt>
      <trkpt lat="42.28943" lon="2.61082">
        <ele>915.329</ele>
        <time>2018-01-10T06:54:47Z</time>
      </trkpt>
      <trkpt lat="42.2895" lon="2.61064">
        <ele>916.249</ele>
        <time>2018-01-10T06:55:00Z</time>
      </trkpt>
      <trkpt lat="42.28951" lon="2.61031">
        <ele>916.253</ele>
        <time>2018-01-10T06:55:15Z</time>
      </trkpt>
      <trkpt lat="42.2895" lon="2.61008">
        <ele>916.292</ele>
        <time>2018-01-10T06:55:27Z</time>
      </trkpt>
      <trkpt lat="42.2895" lon="2.60998">
        <ele>917.289</ele>
        <time>2018-01-10T06:55:34Z</time>
      </trkpt>
      <trkpt lat="42.28949" lon="2.60973">
        <ele>917.706</ele>
        <time>2018-01-10T06:55:48Z</time>
      </trkpt>
      <trkpt lat="42.28948" lon="2.60939">
        <ele>919.626</ele>
        <time>2018-01-10T06:56:03Z</time>
      </trkpt>
      <trkpt lat="42.28953" lon="2.60914">
        <ele>920.108</ele>
        <time>2018-01-10T06:56:18Z</time>
      </trkpt>
      <trkpt lat="42.28959" lon="2.60903">
        <ele>920.66</ele>
        <time>2018-01-10T06:56:29Z</time>
      </trkpt>
      <trkpt lat="42.28961" lon="2.60893">
        <ele>921.529</ele>
        <time>2018-01-10T06:56:34Z</time>
      </trkpt>
      <trkpt lat="42.28964" lon="2.60874">
        <ele>923.437</ele>
        <time>2018-01-10T06:56:45Z</time>
      </trkpt>
      <trkpt lat="42.28968" lon="2.60853">
        <ele>925.445</ele>
        <time>2018-01-10T06:56:59Z</time>
      </trkpt>
      <trkpt lat="42.2897" lon="2.60834">
        <ele>925.831</ele>
        <time>2018-01-10T06:57:08Z</time>
      </trkpt>
      <trkpt lat="42.2898" lon="2.60818">
        <ele>926.311</ele>
        <time>2018-01-10T06:57:20Z</time>
      </trkpt>
      <trkpt lat="42.28983" lon="2.60816">
        <ele>926.355</ele>
        <time>2018-01-10T06:57:23Z</time>
      </trkpt>
      <trkpt lat="42.28993" lon="2.60803">
        <ele>926.314</ele>
        <time>2018-01-10T06:57:35Z</time>
      </trkpt>
      <trkpt lat="42.29" lon="2.6079">
        <ele>925.492</ele>
        <time>2018-01-10T06:57:47Z</time>
      </trkpt>
      <trkpt lat="42.29005" lon="2.60779">
        <ele>925.473</ele>
        <time>2018-01-10T06:57:54Z</time>
      </trkpt>
      <trkpt lat="42.29014" lon="2.60759">
        <ele>925.42</ele>
        <time>2018-01-10T06:58:07Z</time>
      </trkpt>
      <trkpt lat="42.29023" lon="2.60744">
        <ele>924.908</ele>
        <time>2018-01-10T06:58:21Z</time>
      </trkpt>
      <trkpt lat="42.29029" lon="2.60728">
        <ele>924.921</ele>
        <time>2018-01-10T06:58:33Z</time>
      </trkpt>
      <trkpt lat="42.29037" lon="2.60719">
        <ele>924.98</ele>
        <time>2018-01-10T06:58:46Z</time>
      </trkpt>
      <trkpt lat="42.29046" lon="2.60701">
        <ele>924.938</ele>
        <time>2018-01-10T06:58:57Z</time>
      </trkpt>
      <trkpt lat="42.29059" lon="2.60693">
        <ele>924.926</ele>
        <time>2018-01-10T06:59:08Z</time>
      </trkpt>
      <trkpt lat="42.29067" lon="2.60674">
        <ele>924.482</ele>
        <time>2018-01-10T06:59:22Z</time>
      </trkpt>
      <trkpt lat="42.29069" lon="2.60648">
        <ele>923.952</ele>
        <time>2018-01-10T06:59:35Z</time>
      </trkpt>
      <trkpt lat="42.2907" lon="2.60628">
        <ele>921.536</ele>
        <time>2018-01-10T06:59:45Z</time>
      </trkpt>
      <trkpt lat="42.29076" lon="2.60612">
        <ele>920.685</ele>
        <time>2018-01-10T06:59:54Z</time>
      </trkpt>
      <trkpt lat="42.2908" lon="2.60601">
        <ele>920.133</ele>
        <time>2018-01-10T07:00:11Z</time>
      </trkpt>
      <trkpt lat="42.2908" lon="2.60594">
        <ele>920.123</ele>
        <time>2018-01-10T07:00:31Z</time>
      </trkpt>
      <trkpt lat="42.29084" lon="2.60584">
        <ele>917.715</ele>
        <time>2018-01-10T07:00:48Z</time>
      </trkpt>
      <trkpt lat="42.29094" lon="2.60571">
        <ele>916.708</ele>
        <time>2018-01-10T07:01:01Z</time>
      </trkpt>
      <trkpt lat="42.29104" lon="2.60556">
        <ele>915.335</ele>
        <time>2018-01-10T07:01:14Z</time>
      </trkpt>
      <trkpt lat="42.29118" lon="2.60547">
        <ele>916.264</ele>
        <time>2018-01-10T07:01:28Z</time>
      </trkpt>
      <trkpt lat="42.2913" lon="2.60535">
        <ele>916.262</ele>
        <time>2018-01-10T07:01:41Z</time>
      </trkpt>
      <trkpt lat="42.29145" lon="2.60527">
        <ele>916.73</ele>
        <time>2018-01-10T07:01:57Z</time>
      </trkpt>
      <trkpt lat="42.29146" lon="2.60527">
        <ele>916.766</ele>
        <time>2018-01-10T07:01:58Z</time>
      </trkpt>
      <trkpt lat="42.29156" lon="2.6051">
        <ele>918.616</ele>
        <time>2018-01-10T07:02:13Z</time>
      </trkpt>
      <trkpt lat="42.29163" lon="2.60491">
        <ele>920.17</ele>
        <time>2018-01-10T07:02:28Z</time>
      </trkpt>
      <trkpt lat="42.29165" lon="2.60479">
        <ele>921.589</ele>
        <time>2018-01-10T07:02:42Z</time>
      </trkpt>
      <trkpt lat="42.29169" lon="2.60464">
        <ele>923.423</ele>
        <time>2018-01-10T07:02:57Z</time>
      </trkpt>
      <trkpt lat="42.29173" lon="2.60447">
        <ele>925.883</ele>
        <time>2018-01-10T07:03:13Z</time>
      </trkpt>
      <trkpt lat="42.29174" lon="2.60427">
        <ele>927.811</ele>
        <time>2018-01-10T07:03:27Z</time>
      </trkpt>
      <trkpt lat="42.29174" lon="2.60407">
        <ele>930.608</ele>
        <time>2018-01-10T07:03:43Z</time>
      </trkpt>
      <trkpt lat="42.29174" lon="2.60398">
        <ele>933.534</ele>
        <time>2018-01-10T07:03:59Z</time>
      </trkpt>
      <trkpt lat="42.29176" lon="2.60388">
        <ele>935.933</ele>
        <time>2018-01-10T07:04:14Z</time>
      </trkpt>
      <trkpt lat="42.29177" lon="2.60368">
        <ele>938.391</ele>
        <time>2018-01-10T07:04:31Z</time>
      </trkpt>
      <trkpt lat="42.29183" lon="2.6036">
        <ele>941.289</ele>
        <time>2018-01-10T07:04:46Z</time>
      </trkpt>
      <trkpt lat="42.29186" lon="2.60353">
        <ele>944.635</ele>
        <time>2018-01-10T07:05:01Z</time>
      </trkpt>
      <trkpt lat="42.29187" lon="2.60345">
        <ele>946.595</ele>
        <time>2018-01-10T07:05:15Z</time>
      </trkpt>
      <trkpt lat="42.29192" lon="2.60336">
        <ele>949.999</ele>
        <time>2018-01-10T07:05:29Z</time>
      </trkpt>
      <trkpt lat="42.29199" lon="2.6033">
        <ele>952.838</ele>
        <time>2018-01-10T07:05:44Z</time>
      </trkpt>
      <trkpt lat="42.29202" lon="2.60319">
        <ele>955.293</ele>
        <time>2018-01-10T07:05:58Z</time>
      </trkpt>
      <trkpt lat="42.29208" lon="2.60315">
        <ele>958.065</ele>
        <time>2018-01-10T07:06:14Z</time>
      </trkpt>
      <trkpt lat="42.2921" lon="2.60317">
        <ele>958.021</ele>
        <time>2018-01-10T07:06:30Z</time>
      </trkpt>
      <trkpt lat="42.2921" lon="2.60317">
        <ele>958.008</ele>
        <time>2018-01-10T07:06:53Z</time>
      </trkpt>
      <trkpt lat="42.29211" lon="2.60318">
        <ele>958.051</ele>
        <time>2018-01-10T07:07:09Z</time>
      </trkpt>
      <trkpt lat="42.29209" lon="2.60318">
        <ele>958.54</ele>
        <time>2018-01-10T07:07:35Z</time>
      </trkpt>
      <trkpt lat="42.29208" lon="2.60319">
        <ele>958.568</ele>
        <time>2018-01-10T07:07:54Z</time>
      </trkpt>
      <trkpt lat="42.29208" lon="2.60324">
        <ele>959.016</ele>
        <time>2018-01-10T07:08:06Z</time>
      </trkpt>
      <trkpt lat="42.29209" lon="2.60328">
        <ele>959.042</ele>
        <time>2018-01-10T07:08:32Z</time>
      </trkpt>
      <trkpt lat="42.29209" lon="2.60326">
        <ele>959.092</ele>
        <time>2018-01-10T07:09:04Z</time>
      </trkpt>
      <trkpt lat="42.29211" lon="2.60324">
        <ele>959.586</ele>
        <time>2018-01-10T07:09:36Z</time>
      </trkpt>
      <trkpt lat="42.29211" lon="2.60326">
        <ele>959.565</ele>
        <time>2018-01-10T07:10:19Z</time>
      </trkpt>
      <trkpt lat="42.29209" lon="2.60324">
        <ele>959.572</ele>
        <time>2018-01-10T07:10:47Z</time>
      </trkpt>
      <trkpt lat="42.29211" lon="2.60327">
        <ele>959.513</ele>
        <time>2018-01-10T07:11:22Z</time>
      </trkpt>
      <trkpt lat="42.29209" lon="2.6032">
        <ele>958.514</ele>
        <time>2018-01-10T07:11:41Z</time>
      </trkpt>
      <trkpt lat="42.29209" lon="2.60317">
        <ele>958.008</ele>
        <time>2018-01-10T07:12:01Z</time>
      </trkpt>
      <trkpt lat="42.29213" lon="2.60318">
        <ele>958.019</ele>
        <time>2018-01-10T07:12:24Z</time>
      </trkpt>
      <trkpt lat="42.29219" lon="2.60318">
        <ele>954.788</ele>
        <time>2018-01-10T07:12:38Z</time>
      </trkpt>
      <trkpt lat="42.29219" lon="2.60314">
        <ele>951.876</ele>
        <time>2018-01-10T07:12:50Z</time>
      </trkpt>
      <trkpt lat="42.29225" lon="2.60313">
        <ele>948.474</ele>
        <time>2018-01-10T07:13:01Z</time>
      </trkpt>
      <trkpt lat="42.29228" lon="2.60318">
        <ele>946.04</ele>
        <time>2018-01-10T07:13:15Z</time>
      </trkpt>
      <trkpt lat="42.29233" lon="2.60317">
        <ele>944.65</ele>
        <time>2018-01-10T07:13:28Z</time>
      </trkpt>
      <trkpt lat="42.29232" lon="2.60312">
        <ele>944.694</ele>
        <time>2018-01-10T07:13:51Z</time>
      </trkpt>
      <trkpt lat="42.2923" lon="2.60312">
        <ele>944.663</ele>
        <time>2018-01-10T07:14:13Z</time>
      </trkpt>
      <trkpt lat="42.29232" lon="2.60315">
        <ele>944.693</ele>
        <time>2018-01-10T07:14:38Z</time>
      </trkpt>
      <trkpt lat="42.29228" lon="2.6031">
        <ele>941.265</ele>
        <time>2018-01-10T07:14:53Z</time>
      </trkpt>
      <trkpt lat="42.29224" lon="2.60299">
        <ele>938.321</ele>
        <time>2018-01-10T07:15:04Z</time>
      </trkpt>
      <trkpt lat="42.29224" lon="2.6029">
        <ele>935.008</ele>
        <time>2018-01-10T07:15:16Z</time>
      </trkpt>
      <trkpt lat="42.29223" lon="2.60281">
        <ele>931.611</ele>
        <time>2018-01-10T07:15:29Z</time>
      </trkpt>
      <trkpt lat="42.29228" lon="2.60278">
        <ele>928.28</ele>
        <time>2018-01-10T07:15:40Z</time>
      </trkpt>
      <trkpt lat="42.29224" lon="2.6027">
        <ele>925.418</ele>
        <time>2018-01-10T07:15:53Z</time>
      </trkpt>
      <trkpt lat="42.29219" lon="2.60258">
        <ele>922.076</ele>
        <time>2018-01-10T07:16:06Z</time>
      </trkpt>
      <trkpt lat="42.29222" lon="2.60253">
        <ele>919.122</ele>
        <time>2018-01-10T07:16:18Z</time>
      </trkpt>
      <trkpt lat="42.29233" lon="2.60254">
        <ele>916.232</ele>
        <time>2018-01-10T07:16:36Z</time>
      </trkpt>
      <trkpt lat="42.29234" lon="2.60257">
        <ele>912.916</ele>
        <time>2018-01-10T07:16:49Z</time>
      </trkpt>
      <trkpt lat="42.29235" lon="2.60254">
        <ele>910.015</ele>
        <time>2018-01-10T07:17:02Z</time>
      </trkpt>
      <trkpt lat="42.29238" lon="2.60252">
        <ele>906.624</ele>
        <time>2018-01-10T07:17:16Z</time>
      </trkpt>
      <trkpt lat="42.29246" lon="2.60254">
        <ele>903.704</ele>
        <time>2018-01-10T07:17:35Z</time>
      </trkpt>
      <trkpt lat="42.2925" lon="2.60258">
        <ele>900.814</ele>
        <time>2018-01-10T07:17:50Z</time>
      </trkpt>
      <trkpt lat="42.29253" lon="2.60257">
        <ele>898.908</ele>
        <time>2018-01-10T07:17:58Z</time>
      </trkpt>
      <trkpt lat="42.29255" lon="2.60254">
        <ele>897.054</ele>
        <time>2018-01-10T07:18:16Z</time>
      </trkpt>
      <trkpt lat="42.29254" lon="2.60255">
        <ele>898.983</ele>
        <time>2018-01-10T07:18:22Z</time>
      </trkpt>
      <trkpt lat="42.29252" lon="2.60256">
        <ele>897.561</ele>
        <time>2018-01-10T07:18:42Z</time>
      </trkpt>
      <trkpt lat="42.29255" lon="2.6026">
        <ele>896.589</ele>
        <time>2018-01-10T07:18:56Z</time>
      </trkpt>
      <trkpt lat="42.29258" lon="2.60272">
        <ele>893.275</ele>
        <time>2018-01-10T07:19:09Z</time>
      </trkpt>
      <trkpt lat="42.2926" lon="2.60278">
        <ele>889.835</ele>
        <time>2018-01-10T07:19:19Z</time>
      </trkpt>
      <trkpt lat="42.29258" lon="2.60289">
        <ele>886.999</ele>
        <time>2018-01-10T07:19:31Z</time>
      </trkpt>
      <trkpt lat="42.2926" lon="2.60292">
        <ele>883.588</ele>
        <time>2018-01-10T07:19:42Z</time>
      </trkpt>
      <trkpt lat="42.29267" lon="2.603">
        <ele>880.252</ele>
        <time>2018-01-10T07:19:55Z</time>
      </trkpt>
      <trkpt lat="42.29271" lon="2.60308">
        <ele>876.853</ele>
        <time>2018-01-10T07:20:07Z</time>
      </trkpt>
      <trkpt lat="42.29279" lon="2.60316">
        <ele>873.908</ele>
        <time>2018-01-10T07:20:21Z</time>
      </trkpt>
      <trkpt lat="42.29285" lon="2.60325">
        <ele>870.608</ele>
        <time>2018-01-10T07:20:32Z</time>
      </trkpt>
      <trkpt lat="42.29291" lon="2.60337">
        <ele>867.247</ele>
        <time>2018-01-10T07:20:44Z</time>
      </trkpt>
      <trkpt lat="42.29291" lon="2.60344">
        <ele>865.376</ele>
        <time>2018-01-10T07:20:56Z</time>
      </trkpt>
      <trkpt lat="42.29295" lon="2.60346">
        <ele>861.934</ele>
        <time>2018-01-10T07:21:11Z</time>
      </trkpt>
      <trkpt lat="42.293" lon="2.60351">
        <ele>860.032</ele>
        <time>2018-01-10T07:21:17Z</time>
      </trkpt>
      <trkpt lat="42.29304" lon="2.60361">
        <ele>856.628</ele>
        <time>2018-01-10T07:21:30Z</time>
      </trkpt>
      <trkpt lat="42.29309" lon="2.60366">
        <ele>852.888</ele>
        <time>2018-01-10T07:21:45Z</time>
      </trkpt>
      <trkpt lat="42.2931" lon="2.60377">
        <ele>850.992</ele>
        <time>2018-01-10T07:21:56Z</time>
      </trkpt>
      <trkpt lat="42.29316" lon="2.60394">
        <ele>846.581</ele>
        <time>2018-01-10T07:22:10Z</time>
      </trkpt>
      <trkpt lat="42.29321" lon="2.6041">
        <ele>845.135</ele>
        <time>2018-01-10T07:22:25Z</time>
      </trkpt>
      <trkpt lat="42.29321" lon="2.60414">
        <ele>844.186</ele>
        <time>2018-01-10T07:22:30Z</time>
      </trkpt>
      <trkpt lat="42.29331" lon="2.60422">
        <ele>842.714</ele>
        <time>2018-01-10T07:22:43Z</time>
      </trkpt>
      <trkpt lat="42.29337" lon="2.60429">
        <ele>840.308</ele>
        <time>2018-01-10T07:22:55Z</time>
      </trkpt>
      <trkpt lat="42.2934" lon="2.60449">
        <ele>839.365</ele>
        <time>2018-01-10T07:23:10Z</time>
      </trkpt>
      <trkpt lat="42.29343" lon="2.60455">
        <ele>838.834</ele>
        <time>2018-01-10T07:23:28Z</time>
      </trkpt>
      <trkpt lat="42.29345" lon="2.60456">
        <ele>838.442</ele>
        <time>2018-01-10T07:23:45Z</time>
      </trkpt>
      <trkpt lat="42.2935" lon="2.60465">
        <ele>837.49</ele>
        <time>2018-01-10T07:23:59Z</time>
      </trkpt>
      <trkpt lat="42.2935" lon="2.60469">
        <ele>837.476</ele>
        <time>2018-01-10T07:24:25Z</time>
      </trkpt>
      <trkpt lat="42.29359" lon="2.60479">
        <ele>836.466</ele>
        <time>2018-01-10T07:24:39Z</time>
      </trkpt>
      <trkpt lat="42.29361" lon="2.60496">
        <ele>837.91</ele>
        <time>2018-01-10T07:24:53Z</time>
      </trkpt>
      <trkpt lat="42.29364" lon="2.605">
        <ele>836.429</ele>
        <time>2018-01-10T07:24:56Z</time>
      </trkpt>
      <trkpt lat="42.29368" lon="2.60519">
        <ele>836.444</ele>
        <time>2018-01-10T07:25:10Z</time>
      </trkpt>
      <trkpt lat="42.29376" lon="2.60534">
        <ele>833.605</ele>
        <time>2018-01-10T07:25:25Z</time>
      </trkpt>
      <trkpt lat="42.29388" lon="2.60545">
        <ele>832.615</ele>
        <time>2018-01-10T07:25:44Z</time>
      </trkpt>
      <trkpt lat="42.29397" lon="2.60554">
        <ele>830.708</ele>
        <time>2018-01-10T07:25:53Z</time>
      </trkpt>
      <trkpt lat="42.29403" lon="2.60563">
        <ele>829.256</ele>
        <time>2018-01-10T07:26:03Z</time>
      </trkpt>
      <trkpt lat="42.29405" lon="2.60576">
        <ele>829.265</ele>
        <time>2018-01-10T07:26:16Z</time>
      </trkpt>
      <trkpt lat="42.29407" lon="2.6058">
        <ele>828.763</ele>
        <time>2018-01-10T07:26:21Z</time>
      </trkpt>
      <trkpt lat="42.29414" lon="2.60605">
        <ele>827.391</ele>
        <time>2018-01-10T07:26:33Z</time>
      </trkpt>
      <trkpt lat="42.29425" lon="2.6062">
        <ele>826.357</ele>
        <time>2018-01-10T07:26:48Z</time>
      </trkpt>
      <trkpt lat="42.29434" lon="2.60626">
        <ele>823.557</ele>
        <time>2018-01-10T07:27:02Z</time>
      </trkpt>
      <trkpt lat="42.29445" lon="2.60635">
        <ele>822.531</ele>
        <time>2018-01-10T07:27:15Z</time>
      </trkpt>
      <trkpt lat="42.29463" lon="2.60647">
        <ele>819.16</ele>
        <time>2018-01-10T07:27:28Z</time>
      </trkpt>
      <trkpt lat="42.29483" lon="2.60662">
        <ele>818.227</ele>
        <time>2018-01-10T07:27:43Z</time>
      </trkpt>
      <trkpt lat="42.2948" lon="2.60653">
        <ele>815.368</ele>
        <time>2018-01-10T07:27:59Z</time>
      </trkpt>
      <trkpt lat="42.29473" lon="2.60637">
        <ele>812.914</ele>
        <time>2018-01-10T07:28:12Z</time>
      </trkpt>
      <trkpt lat="42.29463" lon="2.60618">
        <ele>811.008</ele>
        <time>2018-01-10T07:28:26Z</time>
      </trkpt>
      <trkpt lat="42.29453" lon="2.60607">
        <ele>808.124</ele>
        <time>2018-01-10T07:28:35Z</time>
      </trkpt>
      <trkpt lat="42.29446" lon="2.60596">
        <ele>804.773</ele>
        <time>2018-01-10T07:28:46Z</time>
      </trkpt>
      <trkpt lat="42.29443" lon="2.60586">
        <ele>801.451</ele>
        <time>2018-01-10T07:28:55Z</time>
      </trkpt>
      <trkpt lat="42.29441" lon="2.60565">
        <ele>798.039</ele>
        <time>2018-01-10T07:29:06Z</time>
      </trkpt>
      <trkpt lat="42.29438" lon="2.60538">
        <ele>796.175</ele>
        <time>2018-01-10T07:29:22Z</time>
      </trkpt>
      <trkpt lat="42.29432" lon="2.60522">
        <ele>793.715</ele>
        <time>2018-01-10T07:29:35Z</time>
      </trkpt>
      <trkpt lat="42.29431" lon="2.60512">
        <ele>792.239</ele>
        <time>2018-01-10T07:29:42Z</time>
      </trkpt>
      <trkpt lat="42.29426" lon="2.60483">
        <ele>789.318</ele>
        <time>2018-01-10T07:29:57Z</time>
      </trkpt>
      <trkpt lat="42.29424" lon="2.60464">
        <ele>786.023</ele>
        <time>2018-01-10T07:30:10Z</time>
      </trkpt>
      <trkpt lat="42.29423" lon="2.60444">
        <ele>783.183</ele>
        <time>2018-01-10T07:30:23Z</time>
      </trkpt>
      <trkpt lat="42.29423" lon="2.60432">
        <ele>779.711</ele>
        <time>2018-01-10T07:30:31Z</time>
      </trkpt>
      <trkpt lat="42.2942" lon="2.60412">
        <ele>776.808</ele>
        <time>2018-01-10T07:30:41Z</time>
      </trkpt>
      <trkpt lat="42.29419" lon="2.60383">
        <ele>774.414</ele>
        <time>2018-01-10T07:30:56Z</time>
      </trkpt>
      <trkpt lat="42.29417" lon="2.60367">
        <ele>774.413</ele>
        <time>2018-01-10T07:31:02Z</time>
      </trkpt>
      <trkpt lat="42.29419" lon="2.60338">
        <ele>773.541</ele>
        <time>2018-01-10T07:31:17Z</time>
      </trkpt>
      <trkpt lat="42.29421" lon="2.60306">
        <ele>771.169</ele>
        <time>2018-01-10T07:31:35Z</time>
      </trkpt>
      <trkpt lat="42.29423" lon="2.60298">
        <ele>770.615</ele>
        <time>2018-01-10T07:31:50Z</time>
      </trkpt>
      <trkpt lat="42.29421" lon="2.60295">
        <ele>770.695</ele>
        <time>2018-01-10T07:32:19Z</time>
      </trkpt>
      <trkpt lat="42.29424" lon="2.60273">
        <ele>772.049</ele>
        <time>2018-01-10T07:32:34Z</time>
      </trkpt>
      <trkpt lat="42.29429" lon="2.60255">
        <ele>772.038</ele>
        <time>2018-01-10T07:32:50Z</time>
      </trkpt>
      <trkpt lat="42.29429" lon="2.60251">
        <ele>770.656</ele>
        <time>2018-01-10T07:32:52Z</time>
      </trkpt>
      <trkpt lat="42.29425" lon="2.60218">
        <ele>770.159</ele>
        <time>2018-01-10T07:33:08Z</time>
      </trkpt>
      <trkpt lat="42.29431" lon="2.60194">
        <ele>766.714</ele>
        <time>2018-01-10T07:33:21Z</time>
      </trkpt>
      <trkpt lat="42.2944" lon="2.60175">
        <ele>763.908</ele>
        <time>2018-01-10T07:33:34Z</time>
      </trkpt>
      <trkpt lat="42.29444" lon="2.60158">
        <ele>760.517</ele>
        <time>2018-01-10T07:33:44Z</time>
      </trkpt>
      <trkpt lat="42.29439" lon="2.60131">
        <ele>757.696</ele>
        <time>2018-01-10T07:33:59Z</time>
      </trkpt>
      <trkpt lat="42.2944" lon="2.60121">
        <ele>755.714</ele>
        <time>2018-01-10T07:34:05Z</time>
      </trkpt>
      <trkpt lat="42.29445" lon="2.60109">
        <ele>752.322</ele>
        <time>2018-01-10T07:34:15Z</time>
      </trkpt>
      <trkpt lat="42.29443" lon="2.60094">
        <ele>750.498</ele>
        <time>2018-01-10T07:34:28Z</time>
      </trkpt>
      <trkpt lat="42.29445" lon="2.60076">
        <ele>749.038</ele>
        <time>2018-01-10T07:34:42Z</time>
      </trkpt>
      <trkpt lat="42.29443" lon="2.60059">
        <ele>745.642</ele>
        <time>2018-01-10T07:34:53Z</time>
      </trkpt>
      <trkpt lat="42.29438" lon="2.60039">
        <ele>742.291</ele>
        <time>2018-01-10T07:35:04Z</time>
      </trkpt>
      <trkpt lat="42.2943" lon="2.60025">
        <ele>739.824</ele>
        <time>2018-01-10T07:35:13Z</time>
      </trkpt>
      <trkpt lat="42.29417" lon="2.60012">
        <ele>736.504</ele>
        <time>2018-01-10T07:35:26Z</time>
      </trkpt>
      <trkpt lat="42.29419" lon="2.60005">
        <ele>733.114</ele>
        <time>2018-01-10T07:35:38Z</time>
      </trkpt>
      <trkpt lat="42.29438" lon="2.60004">
        <ele>729.708</ele>
        <time>2018-01-10T07:35:52Z</time>
      </trkpt>
      <trkpt lat="42.29453" lon="2.59997">
        <ele>726.464</ele>
        <time>2018-01-10T07:36:04Z</time>
      </trkpt>
      <trkpt lat="42.29464" lon="2.59987">
        <ele>724.443</ele>
        <time>2018-01-10T07:36:18Z</time>
      </trkpt>
      <trkpt lat="42.29468" lon="2.5998">
        <ele>721.121</ele>
        <time>2018-01-10T07:36:29Z</time>
      </trkpt>
      <trkpt lat="42.29472" lon="2.59971">
        <ele>718.219</ele>
        <time>2018-01-10T07:36:38Z</time>
      </trkpt>
      <trkpt lat="42.29475" lon="2.59961">
        <ele>715.855</ele>
        <time>2018-01-10T07:36:45Z</time>
      </trkpt>
      <trkpt lat="42.29477" lon="2.59949">
        <ele>713.415</ele>
        <time>2018-01-10T07:36:51Z</time>
      </trkpt>
      <trkpt lat="42.29479" lon="2.59945">
        <ele>711.989</ele>
        <time>2018-01-10T07:36:54Z</time>
      </trkpt>
      <trkpt lat="42.29485" lon="2.59941">
        <ele>708.628</ele>
        <time>2018-01-10T07:37:04Z</time>
      </trkpt>
      <trkpt lat="42.29493" lon="2.59941">
        <ele>704.754</ele>
        <time>2018-01-10T07:37:12Z</time>
      </trkpt>
      <trkpt lat="42.29499" lon="2.59934">
        <ele>701.956</ele>
        <time>2018-01-10T07:37:23Z</time>
      </trkpt>
      <trkpt lat="42.29501" lon="2.59923">
        <ele>698.511</ele>
        <time>2018-01-10T07:37:41Z</time>
      </trkpt>
      <trkpt lat="42.29505" lon="2.59915">
        <ele>695.608</ele>
        <time>2018-01-10T07:37:48Z</time>
      </trkpt>
      <trkpt lat="42.2951" lon="2.59907">
        <ele>692.217</ele>
        <time>2018-01-10T07:37:56Z</time>
      </trkpt>
      <trkpt lat="42.29513" lon="2.59897">
        <ele>688.926</ele>
        <time>2018-01-10T07:38:05Z</time>
      </trkpt>
      <trkpt lat="42.29516" lon="2.59887">
        <ele>685.544</ele>
        <time>2018-01-10T07:38:16Z</time>
      </trkpt>
      <trkpt lat="42.29522" lon="2.5988">
        <ele>682.132</ele>
        <time>2018-01-10T07:38:26Z</time>
      </trkpt>
      <trkpt lat="42.29527" lon="2.59871">
        <ele>679.768</ele>
        <time>2018-01-10T07:38:33Z</time>
      </trkpt>
      <trkpt lat="42.2953" lon="2.59857">
        <ele>676.458</ele>
        <time>2018-01-10T07:38:44Z</time>
      </trkpt>
      <trkpt lat="42.29534" lon="2.59846">
        <ele>673.082</ele>
        <time>2018-01-10T07:38:53Z</time>
      </trkpt>
      <trkpt lat="42.29538" lon="2.59836">
        <ele>670.671</ele>
        <time>2018-01-10T07:39:01Z</time>
      </trkpt>
      <trkpt lat="42.29539" lon="2.59833">
        <ele>669.213</ele>
        <time>2018-01-10T07:39:04Z</time>
      </trkpt>
      <trkpt lat="42.29543" lon="2.59821">
        <ele>665.343</ele>
        <time>2018-01-10T07:39:14Z</time>
      </trkpt>
      <trkpt lat="42.29547" lon="2.59816">
        <ele>663.907</ele>
        <time>2018-01-10T07:39:19Z</time>
      </trkpt>
      <trkpt lat="42.29555" lon="2.59808">
        <ele>660.508</ele>
        <time>2018-01-10T07:39:27Z</time>
      </trkpt>
      <trkpt lat="42.29559" lon="2.59803">
        <ele>659.123</ele>
        <time>2018-01-10T07:39:32Z</time>
      </trkpt>
      <trkpt lat="42.2957" lon="2.59791">
        <ele>658.152</ele>
        <time>2018-01-10T07:39:49Z</time>
      </trkpt>
      <trkpt lat="42.29575" lon="2.59792">
        <ele>654.86</ele>
        <time>2018-01-10T07:39:59Z</time>
      </trkpt>
      <trkpt lat="42.29577" lon="2.59798">
        <ele>652.388</ele>
        <time>2018-01-10T07:40:12Z</time>
      </trkpt>
      <trkpt lat="42.29577" lon="2.59807">
        <ele>649.584</ele>
        <time>2018-01-10T07:40:24Z</time>
      </trkpt>
      <trkpt lat="42.2958" lon="2.59813">
        <ele>646.174</ele>
        <time>2018-01-10T07:40:31Z</time>
      </trkpt>
      <trkpt lat="42.29583" lon="2.59821">
        <ele>642.358</ele>
        <time>2018-01-10T07:40:40Z</time>
      </trkpt>
      <trkpt lat="42.29587" lon="2.59829">
        <ele>639.427</ele>
        <time>2018-01-10T07:40:49Z</time>
      </trkpt>
      <trkpt lat="42.29592" lon="2.59824">
        <ele>635.542</ele>
        <time>2018-01-10T07:40:58Z</time>
      </trkpt>
      <trkpt lat="42.29595" lon="2.59814">
        <ele>632.622</ele>
        <time>2018-01-10T07:41:07Z</time>
      </trkpt>
      <trkpt lat="42.29602" lon="2.59802">
        <ele>629.314</ele>
        <time>2018-01-10T07:41:17Z</time>
      </trkpt>
      <trkpt lat="42.29609" lon="2.5979">
        <ele>625.908</ele>
        <time>2018-01-10T07:41:27Z</time>
      </trkpt>
      <trkpt lat="42.29613" lon="2.5978">
        <ele>623.026</ele>
        <time>2018-01-10T07:41:35Z</time>
      </trkpt>
      <trkpt lat="42.29614" lon="2.59769">
        <ele>620.115</ele>
        <time>2018-01-10T07:41:50Z</time>
      </trkpt>
      <trkpt lat="42.29615" lon="2.59759">
        <ele>618.243</ele>
        <time>2018-01-10T07:41:56Z</time>
      </trkpt>
      <trkpt lat="42.29619" lon="2.59737">
        <ele>615.311</ele>
        <time>2018-01-10T07:42:11Z</time>
      </trkpt>
      <trkpt lat="42.2962" lon="2.59735">
        <ele>614.997</ele>
        <time>2018-01-10T07:42:13Z</time>
      </trkpt>
      <trkpt lat="42.29621" lon="2.59725">
        <ele>611.517</ele>
        <time>2018-01-10T07:42:20Z</time>
      </trkpt>
      <trkpt lat="42.29621" lon="2.59715">
        <ele>607.611</ele>
        <time>2018-01-10T07:42:27Z</time>
      </trkpt>
      <trkpt lat="42.2962" lon="2.597">
        <ele>604.38</ele>
        <time>2018-01-10T07:42:37Z</time>
      </trkpt>
      <trkpt lat="42.29621" lon="2.59691">
        <ele>601.479</ele>
        <time>2018-01-10T07:42:45Z</time>
      </trkpt>
      <trkpt lat="42.2962" lon="2.59681">
        <ele>598.005</ele>
        <time>2018-01-10T07:42:53Z</time>
      </trkpt>
      <trkpt lat="42.29619" lon="2.59671">
        <ele>595.125</ele>
        <time>2018-01-10T07:43:01Z</time>
      </trkpt>
      <trkpt lat="42.29616" lon="2.5966">
        <ele>591.808</ele>
        <time>2018-01-10T07:43:10Z</time>
      </trkpt>
      <trkpt lat="42.29615" lon="2.59659">
        <ele>591.839</ele>
        <time>2018-01-10T07:43:11Z</time>
      </trkpt>
      <trkpt lat="42.29611" lon="2.59652">
        <ele>588.448</ele>
        <time>2018-01-10T07:43:21Z</time>
      </trkpt>
      <trkpt lat="42.29606" lon="2.59641">
        <ele>585.116</ele>
        <time>2018-01-10T07:43:31Z</time>
      </trkpt>
      <trkpt lat="42.29605" lon="2.59639">
        <ele>584.684</ele>
        <time>2018-01-10T07:43:33Z</time>
      </trkpt>
      <trkpt lat="42.29607" lon="2.59636">
        <ele>583.16</ele>
        <time>2018-01-10T07:43:36Z</time>
      </trkpt>
      <trkpt lat="42.29612" lon="2.5963">
        <ele>579.81</ele>
        <time>2018-01-10T07:43:45Z</time>
      </trkpt>
      <trkpt lat="42.29616" lon="2.59619">
        <ele>576.494</ele>
        <time>2018-01-10T07:43:55Z</time>
      </trkpt>
      <trkpt lat="42.29623" lon="2.5961">
        <ele>573.033</ele>
        <time>2018-01-10T07:44:04Z</time>
      </trkpt>
      <trkpt lat="42.29625" lon="2.59598">
        <ele>570.249</ele>
        <time>2018-01-10T07:44:17Z</time>
      </trkpt>
      <trkpt lat="42.29623" lon="2.5958">
        <ele>566.802</ele>
        <time>2018-01-10T07:44:30Z</time>
      </trkpt>
      <trkpt lat="42.29623" lon="2.59569">
        <ele>562.922</ele>
        <time>2018-01-10T07:44:39Z</time>
      </trkpt>
      <trkpt lat="42.29623" lon="2.59567">
        <ele>562.908</ele>
        <time>2018-01-10T07:44:40Z</time>
      </trkpt>
      <trkpt lat="42.29624" lon="2.59553">
        <ele>559.656</ele>
        <time>2018-01-10T07:44:50Z</time>
      </trkpt>
      <trkpt lat="42.29623" lon="2.59542">
        <ele>556.235</ele>
        <time>2018-01-10T07:44:58Z</time>
      </trkpt>
      <trkpt lat="42.29622" lon="2.59532">
        <ele>553.383</ele>
        <time>2018-01-10T07:45:07Z</time>
      </trkpt>
      <trkpt lat="42.29627" lon="2.59516">
        <ele>552.911</ele>
        <time>2018-01-10T07:45:20Z</time>
      </trkpt>
      <trkpt lat="42.29636" lon="2.59514">
        <ele>550.417</ele>
        <time>2018-01-10T07:45:34Z</time>
      </trkpt>
      <trkpt lat="42.29637" lon="2.595">
        <ele>547.177</ele>
        <time>2018-01-10T07:45:46Z</time>
      </trkpt>
      <trkpt lat="42.29637" lon="2.59497">
        <ele>546.611</ele>
        <time>2018-01-10T07:45:47Z</time>
      </trkpt>
      <trkpt lat="42.29636" lon="2.59474">
        <ele>543.29</ele>
        <time>2018-01-10T07:46:00Z</time>
      </trkpt>
      <trkpt lat="42.29642" lon="2.59455">
        <ele>540.415</ele>
        <time>2018-01-10T07:46:11Z</time>
      </trkpt>
      <trkpt lat="42.29647" lon="2.59444">
        <ele>537.065</ele>
        <time>2018-01-10T07:46:20Z</time>
      </trkpt>
      <trkpt lat="42.29648" lon="2.59434">
        <ele>535.511</ele>
        <time>2018-01-10T07:46:27Z</time>
      </trkpt>
      <trkpt lat="42.2965" lon="2.59431">
        <ele>535.108</ele>
        <time>2018-01-10T07:46:29Z</time>
      </trkpt>
      <trkpt lat="42.29652" lon="2.59427">
        <ele>534.653</ele>
        <time>2018-01-10T07:46:31Z</time>
      </trkpt>
      <trkpt lat="42.29651" lon="2.59407">
        <ele>533.142</ele>
        <time>2018-01-10T07:46:48Z</time>
      </trkpt>
      <trkpt lat="42.29646" lon="2.59385">
        <ele>530.77</ele>
        <time>2018-01-10T07:47:02Z</time>
      </trkpt>
      <trkpt lat="42.29643" lon="2.59372">
        <ele>528.398</ele>
        <time>2018-01-10T07:47:14Z</time>
      </trkpt>
      <trkpt lat="42.29642" lon="2.59372">
        <ele>528.394</ele>
        <time>2018-01-10T07:47:39Z</time>
      </trkpt>
      <trkpt lat="42.29641" lon="2.59374">
        <ele>528.354</ele>
        <time>2018-01-10T07:47:43Z</time>
      </trkpt>
      <trkpt lat="42.29629" lon="2.59384">
        <ele>527.488</ele>
        <time>2018-01-10T07:47:57Z</time>
      </trkpt>
      <trkpt lat="42.29628" lon="2.5939">
        <ele>527.487</ele>
        <time>2018-01-10T07:48:01Z</time>
      </trkpt>
      <trkpt lat="42.29625" lon="2.59393">
        <ele>526.936</ele>
        <time>2018-01-10T07:48:16Z</time>
      </trkpt>
      <trkpt lat="42.29625" lon="2.59395">
        <ele>526.917</ele>
        <time>2018-01-10T07:48:42Z</time>
      </trkpt>
      <trkpt lat="42.29626" lon="2.59393">
        <ele>526.918</ele>
        <time>2018-01-10T07:48:44Z</time>
      </trkpt>
      <trkpt lat="42.29627" lon="2.59386">
        <ele>528.308</ele>
        <time>2018-01-10T07:48:48Z</time>
      </trkpt>
      <trkpt lat="42.29635" lon="2.59377">
        <ele>528.825</ele>
        <time>2018-01-10T07:49:02Z</time>
      </trkpt>
      <trkpt lat="42.29637" lon="2.59377">
        <ele>529.824</ele>
        <time>2018-01-10T07:49:22Z</time>
      </trkpt>
      <trkpt lat="42.29637" lon="2.59377">
        <ele>528.832</ele>
        <time>2018-01-10T07:49:25Z</time>
      </trkpt>
      <trkpt lat="42.29636" lon="2.59378">
        <ele>528.83</ele>
        <time>2018-01-10T07:49:38Z</time>
      </trkpt>
      <trkpt lat="42.29641" lon="2.59373">
        <ele>528.836</ele>
        <time>2018-01-10T07:49:56Z</time>
      </trkpt>
      <trkpt lat="42.29643" lon="2.59374">
        <ele>528.846</ele>
        <time>2018-01-10T07:50:11Z</time>
      </trkpt>
      <trkpt lat="42.29642" lon="2.59374">
        <ele>529.35</ele>
        <time>2018-01-10T07:50:42Z</time>
      </trkpt>
      <trkpt lat="42.2964" lon="2.59372">
        <ele>528.869</ele>
        <time>2018-01-10T07:50:56Z</time>
      </trkpt>
      <trkpt lat="42.2964" lon="2.59371">
        <ele>528.838</ele>
        <time>2018-01-10T07:51:10Z</time>
      </trkpt>
      <trkpt lat="42.29643" lon="2.59375">
        <ele>528.87</ele>
        <time>2018-01-10T07:51:26Z</time>
      </trkpt>
      <trkpt lat="42.29642" lon="2.59375">
        <ele>529.317</ele>
        <time>2018-01-10T07:51:48Z</time>
      </trkpt>
      <trkpt lat="42.2964" lon="2.59371">
        <ele>528.808</ele>
        <time>2018-01-10T07:52:24Z</time>
      </trkpt>
      <trkpt lat="42.29642" lon="2.59377">
        <ele>529.375</ele>
        <time>2018-01-10T07:52:45Z</time>
      </trkpt>
      <trkpt lat="42.29642" lon="2.59378">
        <ele>529.814</ele>
        <time>2018-01-10T07:53:24Z</time>
      </trkpt>
      <trkpt lat="42.29643" lon="2.59378">
        <ele>529.372</ele>
        <time>2018-01-10T07:53:48Z</time>
      </trkpt>
      <trkpt lat="42.29644" lon="2.59383">
        <ele>531.24</ele>
        <time>2018-01-10T07:54:13Z</time>
      </trkpt>
      <trkpt lat="42.29646" lon="2.59396">
        <ele>534.146</ele>
        <time>2018-01-10T07:54:25Z</time>
      </trkpt>
      <trkpt lat="42.2965" lon="2.59408">
        <ele>534.676</ele>
        <time>2018-01-10T07:54:32Z</time>
      </trkpt>
      <trkpt lat="42.29653" lon="2.59431">
        <ele>536.09</ele>
        <time>2018-01-10T07:54:46Z</time>
      </trkpt>
      <trkpt lat="42.29659" lon="2.59454">
        <ele>533.689</ele>
        <time>2018-01-10T07:55:01Z</time>
      </trkpt>
      <trkpt lat="42.29665" lon="2.59468">
        <ele>531.786</ele>
        <time>2018-01-10T07:55:09Z</time>
      </trkpt>
      <trkpt lat="42.29672" lon="2.5949">
        <ele>528.86</ele>
        <time>2018-01-10T07:55:23Z</time>
      </trkpt>
      <trkpt lat="42.29675" lon="2.59512">
        <ele>526.926</ele>
        <time>2018-01-10T07:55:37Z</time>
      </trkpt>
      <trkpt lat="42.29678" lon="2.5952">
        <ele>526.908</ele>
        <time>2018-01-10T07:55:42Z</time>
      </trkpt>
      <trkpt lat="42.29678" lon="2.59523">
        <ele>526.91</ele>
        <time>2018-01-10T07:55:44Z</time>
      </trkpt>
      <trkpt lat="42.29679" lon="2.5953">
        <ele>528.389</ele>
        <time>2018-01-10T07:55:47Z</time>
      </trkpt>
      <trkpt lat="42.29679" lon="2.59549">
        <ele>529.337</ele>
        <time>2018-01-10T07:55:57Z</time>
      </trkpt>
      <trkpt lat="42.29681" lon="2.59558">
        <ele>529.875</ele>
        <time>2018-01-10T07:56:05Z</time>
      </trkpt>
      <trkpt lat="42.29687" lon="2.59586">
        <ele>531.751</ele>
        <time>2018-01-10T07:56:18Z</time>
      </trkpt>
      <trkpt lat="42.29689" lon="2.59597">
        <ele>532.221</ele>
        <time>2018-01-10T07:56:23Z</time>
      </trkpt>
      <trkpt lat="42.29697" lon="2.59617">
        <ele>533.655</ele>
        <time>2018-01-10T07:56:35Z</time>
      </trkpt>
      <trkpt lat="42.29707" lon="2.59644">
        <ele>536.084</ele>
        <time>2018-01-10T07:56:51Z</time>
      </trkpt>
      <trkpt lat="42.2971" lon="2.59658">
        <ele>536.561</ele>
        <time>2018-01-10T07:57:00Z</time>
      </trkpt>
      <trkpt lat="42.29716" lon="2.59684">
        <ele>537.921</ele>
        <time>2018-01-10T07:57:14Z</time>
      </trkpt>
      <trkpt lat="42.29718" lon="2.59701">
        <ele>538.913</ele>
        <time>2018-01-10T07:57:27Z</time>
      </trkpt>
      <trkpt lat="42.29723" lon="2.59719">
        <ele>539.408</ele>
        <time>2018-01-10T07:57:39Z</time>
      </trkpt>
      <trkpt lat="42.29725" lon="2.59727">
        <ele>539.998</ele>
        <time>2018-01-10T07:57:44Z</time>
      </trkpt>
      <trkpt lat="42.29726" lon="2.59732">
        <ele>540.427</ele>
        <time>2018-01-10T07:57:47Z</time>
      </trkpt>
      <trkpt lat="42.29722" lon="2.5976">
        <ele>542.855</ele>
        <time>2018-01-10T07:58:01Z</time>
      </trkpt>
      <trkpt lat="42.29719" lon="2.59774">
        <ele>543.773</ele>
        <time>2018-01-10T07:58:11Z</time>
      </trkpt>
      <trkpt lat="42.29719" lon="2.59774">
        <ele>543.749</ele>
        <time>2018-01-10T07:58:12Z</time>
      </trkpt>
      <trkpt lat="42.29712" lon="2.59794">
        <ele>544.799</ele>
        <time>2018-01-10T07:58:25Z</time>
      </trkpt>
      <trkpt lat="42.29712" lon="2.59795">
        <ele>544.733</ele>
        <time>2018-01-10T07:58:26Z</time>
      </trkpt>
      <trkpt lat="42.29713" lon="2.59835">
        <ele>545.262</ele>
        <time>2018-01-10T07:58:40Z</time>
      </trkpt>
      <trkpt lat="42.29722" lon="2.59845">
        <ele>546.629</ele>
        <time>2018-01-10T07:58:48Z</time>
      </trkpt>
      <trkpt lat="42.29729" lon="2.59857">
        <ele>547.6</ele>
        <time>2018-01-10T07:58:56Z</time>
      </trkpt>
      <trkpt lat="42.29726" lon="2.59867">
        <ele>548.52</ele>
        <time>2018-01-10T07:59:02Z</time>
      </trkpt>
      <trkpt lat="42.29729" lon="2.59875">
        <ele>548.508</ele>
        <time>2018-01-10T07:59:07Z</time>
      </trkpt>
      <trkpt lat="42.29732" lon="2.59882">
        <ele>548.564</ele>
        <time>2018-01-10T07:59:11Z</time>
      </trkpt>
      <trkpt lat="42.29734" lon="2.59889">
        <ele>547.163</ele>
        <time>2018-01-10T07:59:14Z</time>
      </trkpt>
      <trkpt lat="42.29735" lon="2.59892">
        <ele>546.611</ele>
        <time>2018-01-10T07:59:16Z</time>
      </trkpt>
      <trkpt lat="42.29736" lon="2.59906">
        <ele>546.169</ele>
        <time>2018-01-10T07:59:21Z</time>
      </trkpt>
      <trkpt lat="42.29747" lon="2.59929">
        <ele>545.655</ele>
        <time>2018-01-10T07:59:34Z</time>
      </trkpt>
      <trkpt lat="42.2976" lon="2.59951">
        <ele>545.625</ele>
        <time>2018-01-10T07:59:47Z</time>
      </trkpt>
      <trkpt lat="42.29763" lon="2.59954">
        <ele>547.139</ele>
        <time>2018-01-10T07:59:49Z</time>
      </trkpt>
      <trkpt lat="42.2977" lon="2.59965">
        <ele>547.138</ele>
        <time>2018-01-10T07:59:55Z</time>
      </trkpt>
      <trkpt lat="42.29775" lon="2.59976">
        <ele>547.165</ele>
        <time>2018-01-10T08:00:02Z</time>
      </trkpt>
      <trkpt lat="42.29777" lon="2.59981">
        <ele>547.168</ele>
        <time>2018-01-10T08:00:05Z</time>
      </trkpt>
      <trkpt lat="42.29785" lon="2.59992">
        <ele>545.614</ele>
        <time>2018-01-10T08:00:12Z</time>
      </trkpt>
      <trkpt lat="42.29786" lon="2.59993">
        <ele>545.608</ele>
        <time>2018-01-10T08:00:13Z</time>
      </trkpt>
      <trkpt lat="42.29787" lon="2.59997">
        <ele>545.668</ele>
        <time>2018-01-10T08:00:16Z</time>
      </trkpt>
      <trkpt lat="42.29792" lon="2.60023">
        <ele>545.637</ele>
        <time>2018-01-10T08:00:30Z</time>
      </trkpt>
      <trkpt lat="42.29799" lon="2.60055">
        <ele>545.615</ele>
        <time>2018-01-10T08:00:44Z</time>
      </trkpt>
      <trkpt lat="42.29803" lon="2.60091">
        <ele>547.653</ele>
        <time>2018-01-10T08:00:59Z</time>
      </trkpt>
      <trkpt lat="42.29803" lon="2.601">
        <ele>548.029</ele>
        <time>2018-01-10T08:01:03Z</time>
      </trkpt>
      <trkpt lat="42.29802" lon="2.60103">
        <ele>548.519</ele>
        <time>2018-01-10T08:01:05Z</time>
      </trkpt>
      <trkpt lat="42.29801" lon="2.60132">
        <ele>550.453</ele>
        <time>2018-01-10T08:01:19Z</time>
      </trkpt>
      <trkpt lat="42.29802" lon="2.60136">
        <ele>550.472</ele>
        <time>2018-01-10T08:01:21Z</time>
      </trkpt>
      <trkpt lat="42.29802" lon="2.6016">
        <ele>552.985</ele>
        <time>2018-01-10T08:01:34Z</time>
      </trkpt>
      <trkpt lat="42.29804" lon="2.60163">
        <ele>552.989</ele>
        <time>2018-01-10T08:01:35Z</time>
      </trkpt>
      <trkpt lat="42.29806" lon="2.60179">
        <ele>554.317</ele>
        <time>2018-01-10T08:01:44Z</time>
      </trkpt>
      <trkpt lat="42.29805" lon="2.60205">
        <ele>556.208</ele>
        <time>2018-01-10T08:01:59Z</time>
      </trkpt>
      <trkpt lat="42.29806" lon="2.60227">
        <ele>556.79</ele>
        <time>2018-01-10T08:02:12Z</time>
      </trkpt>
      <trkpt lat="42.29804" lon="2.60254">
        <ele>554.819</ele>
        <time>2018-01-10T08:02:24Z</time>
      </trkpt>
      <trkpt lat="42.29805" lon="2.60261">
        <ele>554.857</ele>
        <time>2018-01-10T08:02:27Z</time>
      </trkpt>
      <trkpt lat="42.29819" lon="2.60279">
        <ele>554.845</ele>
        <time>2018-01-10T08:02:40Z</time>
      </trkpt>
      <trkpt lat="42.29837" lon="2.60283">
        <ele>558.181</ele>
        <time>2018-01-10T08:02:53Z</time>
      </trkpt>
      <trkpt lat="42.29854" lon="2.60293">
        <ele>560.591</ele>
        <time>2018-01-10T08:03:08Z</time>
      </trkpt>
      <trkpt lat="42.29873" lon="2.60302">
        <ele>563.475</ele>
        <time>2018-01-10T08:03:23Z</time>
      </trkpt>
      <trkpt lat="42.29892" lon="2.60316">
        <ele>565.894</ele>
        <time>2018-01-10T08:03:38Z</time>
      </trkpt>
      <trkpt lat="42.29898" lon="2.60332">
        <ele>567.837</ele>
        <time>2018-01-10T08:03:48Z</time>
      </trkpt>
      <trkpt lat="42.29901" lon="2.60354">
        <ele>570.249</ele>
        <time>2018-01-10T08:04:01Z</time>
      </trkpt>
      <trkpt lat="42.299" lon="2.60359">
        <ele>570.613</ele>
        <time>2018-01-10T08:04:04Z</time>
      </trkpt>
      <trkpt lat="42.29903" lon="2.60378">
        <ele>573.008</ele>
        <time>2018-01-10T08:04:17Z</time>
      </trkpt>
      <trkpt lat="42.29908" lon="2.60396">
        <ele>574.535</ele>
        <time>2018-01-10T08:04:28Z</time>
      </trkpt>
      <trkpt lat="42.29913" lon="2.60424">
        <ele>577.464</ele>
        <time>2018-01-10T08:04:44Z</time>
      </trkpt>
      <trkpt lat="42.2992" lon="2.60449">
        <ele>579.882</ele>
        <time>2018-01-10T08:04:59Z</time>
      </trkpt>
      <trkpt lat="42.29922" lon="2.6046">
        <ele>581.25</ele>
        <time>2018-01-10T08:05:06Z</time>
      </trkpt>
      <trkpt lat="42.29927" lon="2.60482">
        <ele>584.666</ele>
        <time>2018-01-10T08:05:22Z</time>
      </trkpt>
      <trkpt lat="42.29928" lon="2.60497">
        <ele>587.016</ele>
        <time>2018-01-10T08:05:31Z</time>
      </trkpt>
      <trkpt lat="42.29935" lon="2.60521">
        <ele>589.98</ele>
        <time>2018-01-10T08:05:46Z</time>
      </trkpt>
      <trkpt lat="42.2994" lon="2.60538">
        <ele>591.849</ele>
        <time>2018-01-10T08:05:58Z</time>
      </trkpt>
      <trkpt lat="42.2994" lon="2.60543">
        <ele>592.353</ele>
        <time>2018-01-10T08:06:01Z</time>
      </trkpt>
      <trkpt lat="42.29941" lon="2.60551">
        <ele>592.304</ele>
        <time>2018-01-10T08:06:04Z</time>
      </trkpt>
      <trkpt lat="42.29949" lon="2.6058">
        <ele>592.714</ele>
        <time>2018-01-10T08:06:19Z</time>
      </trkpt>
      <trkpt lat="42.2995" lon="2.60582">
        <ele>592.708</ele>
        <time>2018-01-10T08:06:20Z</time>
      </trkpt>
      <trkpt lat="42.29952" lon="2.60591">
        <ele>593.237</ele>
        <time>2018-01-10T08:06:25Z</time>
      </trkpt>
      <trkpt lat="42.29953" lon="2.60595">
        <ele>593.746</ele>
        <time>2018-01-10T08:06:27Z</time>
      </trkpt>
      <trkpt lat="42.29955" lon="2.60602">
        <ele>594.254</ele>
        <time>2018-01-10T08:06:31Z</time>
      </trkpt>
      <trkpt lat="42.29957" lon="2.60611">
        <ele>594.772</ele>
        <time>2018-01-10T08:06:37Z</time>
      </trkpt>
      <trkpt lat="42.29967" lon="2.60638">
        <ele>596.678</ele>
        <time>2018-01-10T08:06:53Z</time>
      </trkpt>
      <trkpt lat="42.29972" lon="2.6065">
        <ele>598.588</ele>
        <time>2018-01-10T08:07:02Z</time>
      </trkpt>
      <trkpt lat="42.29978" lon="2.6067">
        <ele>599.572</ele>
        <time>2018-01-10T08:07:16Z</time>
      </trkpt>
      <trkpt lat="42.29986" lon="2.60671">
        <ele>601.481</ele>
        <time>2018-01-10T08:07:26Z</time>
      </trkpt>
      <trkpt lat="42.29992" lon="2.60666">
        <ele>601.974</ele>
        <time>2018-01-10T08:07:31Z</time>
      </trkpt>
      <trkpt lat="42.3" lon="2.6066">
        <ele>602.456</ele>
        <time>2018-01-10T08:07:38Z</time>
      </trkpt>
      <trkpt lat="42.30002" lon="2.60663">
        <ele>603.821</ele>
        <time>2018-01-10T08:07:44Z</time>
      </trkpt>
      <trkpt lat="42.30004" lon="2.60683">
        <ele>606.208</ele>
        <time>2018-01-10T08:07:59Z</time>
      </trkpt>
      <trkpt lat="42.30009" lon="2.60708">
        <ele>608.699</ele>
        <time>2018-01-10T08:08:15Z</time>
      </trkpt>
      <trkpt lat="42.30014" lon="2.60709">
        <ele>608.628</ele>
        <time>2018-01-10T08:08:21Z</time>
      </trkpt>
      <trkpt lat="42.30023" lon="2.60731">
        <ele>609.126</ele>
        <time>2018-01-10T08:08:32Z</time>
      </trkpt>
      <trkpt lat="42.30029" lon="2.60755">
        <ele>609.164</ele>
        <time>2018-01-10T08:08:46Z</time>
      </trkpt>
      <trkpt lat="42.30031" lon="2.60779">
        <ele>610.06</ele>
        <time>2018-01-10T08:08:59Z</time>
      </trkpt>
      <trkpt lat="42.30037" lon="2.60794">
        <ele>610.07</ele>
        <time>2018-01-10T08:09:08Z</time>
      </trkpt>
      <trkpt lat="42.30037" lon="2.60798">
        <ele>610.034</ele>
        <time>2018-01-10T08:09:10Z</time>
      </trkpt>
      <trkpt lat="42.30032" lon="2.60809">
        <ele>610.593</ele>
        <time>2018-01-10T08:09:19Z</time>
      </trkpt>
      <trkpt lat="42.30018" lon="2.60829">
        <ele>613.447</ele>
        <time>2018-01-10T08:09:34Z</time>
      </trkpt>
      <trkpt lat="42.30008" lon="2.60854">
        <ele>616.329</ele>
        <time>2018-01-10T08:09:51Z</time>
      </trkpt>
      <trkpt lat="42.30008" lon="2.60876">
        <ele>617.721</ele>
        <time>2018-01-10T08:10:04Z</time>
      </trkpt>
      <trkpt lat="42.30008" lon="2.60884">
        <ele>618.208</ele>
        <time>2018-01-10T08:10:09Z</time>
      </trkpt>
      <trkpt lat="42.30009" lon="2.6089">
        <ele>618.756</ele>
        <time>2018-01-10T08:10:12Z</time>
      </trkpt>
      <trkpt lat="42.30009" lon="2.60901">
        <ele>619.265</ele>
        <time>2018-01-10T08:10:17Z</time>
      </trkpt>
      <trkpt lat="42.30008" lon="2.60907">
        <ele>619.253</ele>
        <time>2018-01-10T08:10:21Z</time>
      </trkpt>
      <trkpt lat="42.30005" lon="2.60935">
        <ele>620.671</ele>
        <time>2018-01-10T08:10:35Z</time>
      </trkpt>
      <trkpt lat="42.30005" lon="2.60949">
        <ele>620.697</ele>
        <time>2018-01-10T08:10:41Z</time>
      </trkpt>
      <trkpt lat="42.30007" lon="2.60957">
        <ele>620.617</ele>
        <time>2018-01-10T08:10:45Z</time>
      </trkpt>
      <trkpt lat="42.30009" lon="2.60969">
        <ele>619.771</ele>
        <time>2018-01-10T08:10:51Z</time>
      </trkpt>
      <trkpt lat="42.30013" lon="2.60976">
        <ele>619.27</ele>
        <time>2018-01-10T08:10:56Z</time>
      </trkpt>
      <trkpt lat="42.30015" lon="2.60983">
        <ele>618.759</ele>
        <time>2018-01-10T08:11:00Z</time>
      </trkpt>
      <trkpt lat="42.3002" lon="2.60995">
        <ele>618.203</ele>
        <time>2018-01-10T08:11:05Z</time>
      </trkpt>
      <trkpt lat="42.30021" lon="2.61002">
        <ele>617.723</ele>
        <time>2018-01-10T08:11:08Z</time>
      </trkpt>
      <trkpt lat="42.30027" lon="2.61019">
        <ele>616.808</ele>
        <time>2018-01-10T08:11:16Z</time>
      </trkpt>
      <trkpt lat="42.30034" lon="2.61048">
        <ele>615.857</ele>
        <time>2018-01-10T08:11:31Z</time>
      </trkpt>
      <trkpt lat="42.30041" lon="2.61067">
        <ele>615.836</ele>
        <time>2018-01-10T08:11:42Z</time>
      </trkpt>
      <trkpt lat="42.30049" lon="2.61082">
        <ele>615.364</ele>
        <time>2018-01-10T08:11:52Z</time>
      </trkpt>
      <trkpt lat="42.30057" lon="2.61103">
        <ele>615.312</ele>
        <time>2018-01-10T08:12:04Z</time>
      </trkpt>
      <trkpt lat="42.30058" lon="2.61108">
        <ele>615.358</ele>
        <time>2018-01-10T08:12:06Z</time>
      </trkpt>
      <trkpt lat="42.30066" lon="2.61131">
        <ele>614.448</ele>
        <time>2018-01-10T08:12:17Z</time>
      </trkpt>
      <trkpt lat="42.3007" lon="2.61137">
        <ele>614.432</ele>
        <time>2018-01-10T08:12:22Z</time>
      </trkpt>
      <trkpt lat="42.30092" lon="2.61157">
        <ele>611.521</ele>
        <time>2018-01-10T08:12:38Z</time>
      </trkpt>
      <trkpt lat="42.30111" lon="2.61173">
        <ele>608.612</ele>
        <time>2018-01-10T08:12:52Z</time>
      </trkpt>
      <trkpt lat="42.30121" lon="2.61181">
        <ele>607.232</ele>
        <time>2018-01-10T08:12:59Z</time>
      </trkpt>
      <trkpt lat="42.30139" lon="2.61194">
        <ele>604.305</ele>
        <time>2018-01-10T08:13:12Z</time>
      </trkpt>
      <trkpt lat="42.30144" lon="2.61211">
        <ele>601.408</ele>
        <time>2018-01-10T08:13:21Z</time>
      </trkpt>
      <trkpt lat="42.30145" lon="2.61215">
        <ele>600.463</ele>
        <time>2018-01-10T08:13:23Z</time>
      </trkpt>
      <trkpt lat="42.30147" lon="2.61222">
        <ele>599.532</ele>
        <time>2018-01-10T08:13:27Z</time>
      </trkpt>
      <trkpt lat="42.30149" lon="2.61234">
        <ele>598.53</ele>
        <time>2018-01-10T08:13:32Z</time>
      </trkpt>
      <trkpt lat="42.30155" lon="2.61264">
        <ele>595.148</ele>
        <time>2018-01-10T08:13:46Z</time>
      </trkpt>
      <trkpt lat="42.30159" lon="2.6128">
        <ele>593.744</ele>
        <time>2018-01-10T08:13:54Z</time>
      </trkpt>
      <trkpt lat="42.30173" lon="2.61274">
        <ele>593.784</ele>
        <time>2018-01-10T08:14:07Z</time>
      </trkpt>
      <trkpt lat="42.3018" lon="2.61269">
        <ele>593.718</ele>
        <time>2018-01-10T08:14:13Z</time>
      </trkpt>
      <trkpt lat="42.30197" lon="2.61253">
        <ele>592.727</ele>
        <time>2018-01-10T08:14:28Z</time>
      </trkpt>
      <trkpt lat="42.30201" lon="2.6125">
        <ele>592.738</ele>
        <time>2018-01-10T08:14:30Z</time>
      </trkpt>
      <trkpt lat="42.30208" lon="2.61227">
        <ele>591.87</ele>
        <time>2018-01-10T08:14:42Z</time>
      </trkpt>
      <trkpt lat="42.30212" lon="2.61218">
        <ele>591.817</ele>
        <time>2018-01-10T08:14:48Z</time>
      </trkpt>
      <trkpt lat="42.30213" lon="2.61216">
        <ele>591.808</ele>
        <time>2018-01-10T08:14:50Z</time>
      </trkpt>
      <trkpt lat="42.30218" lon="2.61206">
        <ele>591.865</ele>
        <time>2018-01-10T08:14:56Z</time>
      </trkpt>
      <trkpt lat="42.30223" lon="2.61193">
        <ele>591.364</ele>
        <time>2018-01-10T08:15:04Z</time>
      </trkpt>
      <trkpt lat="42.3023" lon="2.61196">
        <ele>592.742</ele>
        <time>2018-01-10T08:15:13Z</time>
      </trkpt>
      <trkpt lat="42.30235" lon="2.6122">
        <ele>594.77</ele>
        <time>2018-01-10T08:15:26Z</time>
      </trkpt>
      <trkpt lat="42.30242" lon="2.61245">
        <ele>595.176</ele>
        <time>2018-01-10T08:15:39Z</time>
      </trkpt>
      <trkpt lat="42.30247" lon="2.61271">
        <ele>596.676</ele>
        <time>2018-01-10T08:15:55Z</time>
      </trkpt>
      <trkpt lat="42.30248" lon="2.6128">
        <ele>597.12</ele>
        <time>2018-01-10T08:16:00Z</time>
      </trkpt>
      <trkpt lat="42.30249" lon="2.61283">
        <ele>597.119</ele>
        <time>2018-01-10T08:16:02Z</time>
      </trkpt>
      <trkpt lat="42.3025" lon="2.61297">
        <ele>598.539</ele>
        <time>2018-01-10T08:16:10Z</time>
      </trkpt>
      <trkpt lat="42.30249" lon="2.613">
        <ele>599.001</ele>
        <time>2018-01-10T08:16:11Z</time>
      </trkpt>
      <trkpt lat="42.30257" lon="2.61325">
        <ele>601.921</ele>
        <time>2018-01-10T08:16:26Z</time>
      </trkpt>
      <trkpt lat="42.3026" lon="2.61331">
        <ele>602.808</ele>
        <time>2018-01-10T08:16:30Z</time>
      </trkpt>
      <trkpt lat="42.30274" lon="2.61354">
        <ele>603.855</ele>
        <time>2018-01-10T08:16:47Z</time>
      </trkpt>
      <trkpt lat="42.30276" lon="2.61368">
        <ele>605.794</ele>
        <time>2018-01-10T08:16:57Z</time>
      </trkpt>
      <trkpt lat="42.30278" lon="2.61377">
        <ele>606.282</ele>
        <time>2018-01-10T08:17:03Z</time>
      </trkpt>
      <trkpt lat="42.30282" lon="2.61398">
        <ele>607.69</ele>
        <time>2018-01-10T08:17:16Z</time>
      </trkpt>
      <trkpt lat="42.30287" lon="2.61412">
        <ele>609.196</ele>
        <time>2018-01-10T08:17:25Z</time>
      </trkpt>
      <trkpt lat="42.30292" lon="2.61429">
        <ele>609.116</ele>
        <time>2018-01-10T08:17:39Z</time>
      </trkpt>
      <trkpt lat="42.303" lon="2.61438">
        <ele>611.54</ele>
        <time>2018-01-10T08:17:53Z</time>
      </trkpt>
      <trkpt lat="42.30306" lon="2.61455">
        <ele>613.459</ele>
        <time>2018-01-10T08:18:06Z</time>
      </trkpt>
      <trkpt lat="42.3031" lon="2.61472">
        <ele>616.399</ele>
        <time>2018-01-10T08:18:21Z</time>
      </trkpt>
      <trkpt lat="42.30314" lon="2.61491">
        <ele>618.707</ele>
        <time>2018-01-10T08:18:37Z</time>
      </trkpt>
      <trkpt lat="42.30314" lon="2.61505">
        <ele>621.127</ele>
        <time>2018-01-10T08:18:50Z</time>
      </trkpt>
      <trkpt lat="42.30318" lon="2.61523">
        <ele>623.508</ele>
        <time>2018-01-10T08:19:07Z</time>
      </trkpt>
      <trkpt lat="42.30316" lon="2.61542">
        <ele>626.431</ele>
        <time>2018-01-10T08:19:26Z</time>
      </trkpt>
      <trkpt lat="42.30317" lon="2.61558">
        <ele>628.86</ele>
        <time>2018-01-10T08:19:41Z</time>
      </trkpt>
      <trkpt lat="42.30323" lon="2.61568">
        <ele>632.628</ele>
        <time>2018-01-10T08:19:56Z</time>
      </trkpt>
      <trkpt lat="42.30321" lon="2.61584">
        <ele>634.676</ele>
        <time>2018-01-10T08:20:10Z</time>
      </trkpt>
      <trkpt lat="42.3032" lon="2.616">
        <ele>636.552</ele>
        <time>2018-01-10T08:20:25Z</time>
      </trkpt>
      <trkpt lat="42.30318" lon="2.61604">
        <ele>636.542</ele>
        <time>2018-01-10T08:20:29Z</time>
      </trkpt>
      <trkpt lat="42.30312" lon="2.61622">
        <ele>637.956</ele>
        <time>2018-01-10T08:20:45Z</time>
      </trkpt>
      <trkpt lat="42.30313" lon="2.61646">
        <ele>641.385</ele>
        <time>2018-01-10T08:21:02Z</time>
      </trkpt>
      <trkpt lat="42.30315" lon="2.61662">
        <ele>644.244</ele>
        <time>2018-01-10T08:21:16Z</time>
      </trkpt>
      <trkpt lat="42.30323" lon="2.61674">
        <ele>647.505</ele>
        <time>2018-01-10T08:21:32Z</time>
      </trkpt>
      <trkpt lat="42.30325" lon="2.6169">
        <ele>650.415</ele>
        <time>2018-01-10T08:21:48Z</time>
      </trkpt>
      <trkpt lat="42.30328" lon="2.61715">
        <ele>653.808</ele>
        <time>2018-01-10T08:22:06Z</time>
      </trkpt>
      <trkpt lat="42.30326" lon="2.61734">
        <ele>654.896</ele>
        <time>2018-01-10T08:22:23Z</time>
      </trkpt>
      <trkpt lat="42.30307" lon="2.61733">
        <ele>655.245</ele>
        <time>2018-01-10T08:22:38Z</time>
      </trkpt>
      <trkpt lat="42.303" lon="2.61745">
        <ele>657.643</ele>
        <time>2018-01-10T08:22:55Z</time>
      </trkpt>
      <trkpt lat="42.30289" lon="2.61759">
        <ele>661.041</ele>
        <time>2018-01-10T08:23:10Z</time>
      </trkpt>
      <trkpt lat="42.30278" lon="2.61772">
        <ele>663.957</ele>
        <time>2018-01-10T08:23:26Z</time>
      </trkpt>
      <trkpt lat="42.30264" lon="2.61786">
        <ele>667.217</ele>
        <time>2018-01-10T08:23:42Z</time>
      </trkpt>
      <trkpt lat="42.3025" lon="2.61794">
        <ele>669.781</ele>
        <time>2018-01-10T08:23:58Z</time>
      </trkpt>
      <trkpt lat="42.30239" lon="2.61797">
        <ele>673.02</ele>
        <time>2018-01-10T08:24:13Z</time>
      </trkpt>
      <trkpt lat="42.30228" lon="2.61801">
        <ele>675.465</ele>
        <time>2018-01-10T08:24:28Z</time>
      </trkpt>
      <trkpt lat="42.3022" lon="2.61812">
        <ele>678.368</ele>
        <time>2018-01-10T08:24:42Z</time>
      </trkpt>
      <trkpt lat="42.3021" lon="2.61826">
        <ele>681.214</ele>
        <time>2018-01-10T08:24:57Z</time>
      </trkpt>
      <trkpt lat="42.3021" lon="2.61845">
        <ele>684.108</ele>
        <time>2018-01-10T08:25:11Z</time>
      </trkpt>
      <trkpt lat="42.30216" lon="2.61858">
        <ele>687.068</ele>
        <time>2018-01-10T08:25:26Z</time>
      </trkpt>
      <trkpt lat="42.30229" lon="2.61867">
        <ele>689.427</ele>
        <time>2018-01-10T08:25:40Z</time>
      </trkpt>
      <trkpt lat="42.30231" lon="2.61872">
        <ele>692.745</ele>
        <time>2018-01-10T08:25:50Z</time>
      </trkpt>
      <trkpt lat="42.30235" lon="2.61881">
        <ele>695.633</ele>
        <time>2018-01-10T08:26:06Z</time>
      </trkpt>
      <trkpt lat="42.30244" lon="2.61884">
        <ele>698.569</ele>
        <time>2018-01-10T08:26:21Z</time>
      </trkpt>
      <trkpt lat="42.30248" lon="2.61888">
        <ele>701.919</ele>
        <time>2018-01-10T08:26:33Z</time>
      </trkpt>
      <trkpt lat="42.30255" lon="2.61898">
        <ele>704.763</ele>
        <time>2018-01-10T08:26:48Z</time>
      </trkpt>
      <trkpt lat="42.30266" lon="2.61904">
        <ele>708.192</ele>
        <time>2018-01-10T08:27:04Z</time>
      </trkpt>
      <trkpt lat="42.30271" lon="2.61914">
        <ele>711.092</ele>
        <time>2018-01-10T08:27:23Z</time>
      </trkpt>
      <trkpt lat="42.30278" lon="2.61917">
        <ele>712.973</ele>
        <time>2018-01-10T08:27:37Z</time>
      </trkpt>
      <trkpt lat="42.30284" lon="2.61922">
        <ele>716.32</ele>
        <time>2018-01-10T08:27:49Z</time>
      </trkpt>
      <trkpt lat="42.30292" lon="2.61928">
        <ele>719.608</ele>
        <time>2018-01-10T08:28:06Z</time>
      </trkpt>
      <trkpt lat="42.30299" lon="2.61934">
        <ele>723.011</ele>
        <time>2018-01-10T08:28:21Z</time>
      </trkpt>
      <trkpt lat="42.30302" lon="2.61942">
        <ele>724.94</ele>
        <time>2018-01-10T08:28:34Z</time>
      </trkpt>
      <trkpt lat="42.30315" lon="2.61946">
        <ele>727.868</ele>
        <time>2018-01-10T08:28:50Z</time>
      </trkpt>
      <trkpt lat="42.30327" lon="2.61951">
        <ele>730.756</ele>
        <time>2018-01-10T08:29:06Z</time>
      </trkpt>
      <trkpt lat="42.30336" lon="2.61959">
        <ele>734.182</ele>
        <time>2018-01-10T08:29:22Z</time>
      </trkpt>
      <trkpt lat="42.30347" lon="2.61965">
        <ele>737.452</ele>
        <time>2018-01-10T08:29:40Z</time>
      </trkpt>
      <trkpt lat="42.30358" lon="2.61973">
        <ele>740.356</ele>
        <time>2018-01-10T08:29:56Z</time>
      </trkpt>
      <trkpt lat="42.30369" lon="2.61981">
        <ele>743.765</ele>
        <time>2018-01-10T08:30:12Z</time>
      </trkpt>
      <trkpt lat="42.3038" lon="2.61989">
        <ele>747.058</ele>
        <time>2018-01-10T08:30:28Z</time>
      </trkpt>
      <trkpt lat="42.30391" lon="2.61998">
        <ele>750.452</ele>
        <time>2018-01-10T08:30:44Z</time>
      </trkpt>
      <trkpt lat="42.304" lon="2.62009">
        <ele>753.817</ele>
        <time>2018-01-10T08:31:01Z</time>
      </trkpt>
      <trkpt lat="42.3041" lon="2.62015">
        <ele>757.108</ele>
        <time>2018-01-10T08:31:17Z</time>
      </trkpt>
      <trkpt lat="42.30419" lon="2.62024">
        <ele>760.037</ele>
        <time>2018-01-10T08:31:31Z</time>
      </trkpt>
      <trkpt lat="42.30428" lon="2.62034">
        <ele>762.976</ele>
        <time>2018-01-10T08:31:47Z</time>
      </trkpt>
      <trkpt lat="42.30437" lon="2.62046">
        <ele>766.364</ele>
        <time>2018-01-10T08:32:01Z</time>
      </trkpt>
      <trkpt lat="42.30437" lon="2.62058">
        <ele>769.682</ele>
        <time>2018-01-10T08:32:19Z</time>
      </trkpt>
      <trkpt lat="42.30447" lon="2.6207">
        <ele>773.058</ele>
        <time>2018-01-10T08:32:34Z</time>
      </trkpt>
      <trkpt lat="42.30453" lon="2.6208">
        <ele>775.938</ele>
        <time>2018-01-10T08:32:47Z</time>
      </trkpt>
      <trkpt lat="42.30458" lon="2.62088">
        <ele>777.382</ele>
        <time>2018-01-10T08:33:00Z</time>
      </trkpt>
      <trkpt lat="42.30467" lon="2.62091">
        <ele>779.731</ele>
        <time>2018-01-10T08:33:19Z</time>
      </trkpt>
      <trkpt lat="42.30473" lon="2.62083">
        <ele>783.135</ele>
        <time>2018-01-10T08:33:34Z</time>
      </trkpt>
      <trkpt lat="42.30481" lon="2.62077">
        <ele>785.586</ele>
        <time>2018-01-10T08:33:48Z</time>
      </trkpt>
      <trkpt lat="42.30487" lon="2.6208">
        <ele>788.414</ele>
        <time>2018-01-10T08:34:00Z</time>
      </trkpt>
      <trkpt lat="42.30494" lon="2.62088">
        <ele>791.708</ele>
        <time>2018-01-10T08:34:15Z</time>
      </trkpt>
      <trkpt lat="42.30501" lon="2.62097">
        <ele>795.115</ele>
        <time>2018-01-10T08:34:30Z</time>
      </trkpt>
      <trkpt lat="42.30507" lon="2.62103">
        <ele>798.554</ele>
        <time>2018-01-10T08:34:46Z</time>
      </trkpt>
      <trkpt lat="42.30512" lon="2.62104">
        <ele>801.822</ele>
        <time>2018-01-10T08:34:57Z</time>
      </trkpt>
      <trkpt lat="42.30518" lon="2.62096">
        <ele>804.23</ele>
        <time>2018-01-10T08:35:16Z</time>
      </trkpt>
      <trkpt lat="42.30526" lon="2.6209">
        <ele>807.616</ele>
        <time>2018-01-10T08:35:35Z</time>
      </trkpt>
      <trkpt lat="42.30537" lon="2.62089">
        <ele>810.086</ele>
        <time>2018-01-10T08:35:51Z</time>
      </trkpt>
      <trkpt lat="42.30532" lon="2.62101">
        <ele>813.46</ele>
        <time>2018-01-10T08:36:08Z</time>
      </trkpt>
      <trkpt lat="42.30529" lon="2.62111">
        <ele>816.389</ele>
        <time>2018-01-10T08:36:23Z</time>
      </trkpt>
      <trkpt lat="42.30528" lon="2.62118">
        <ele>819.636</ele>
        <time>2018-01-10T08:36:34Z</time>
      </trkpt>
      <trkpt lat="42.30529" lon="2.62126">
        <ele>822.517</ele>
        <time>2018-01-10T08:36:47Z</time>
      </trkpt>
      <trkpt lat="42.30532" lon="2.62131">
        <ele>825.418</ele>
        <time>2018-01-10T08:37:01Z</time>
      </trkpt>
      <trkpt lat="42.30539" lon="2.62131">
        <ele>828.308</ele>
        <time>2018-01-10T08:37:16Z</time>
      </trkpt>
      <trkpt lat="42.30546" lon="2.62133">
        <ele>831.645</ele>
        <time>2018-01-10T08:37:31Z</time>
      </trkpt>
      <trkpt lat="42.30551" lon="2.6214">
        <ele>835.094</ele>
        <time>2018-01-10T08:37:47Z</time>
      </trkpt>
      <trkpt lat="42.30561" lon="2.62147">
        <ele>838.442</ele>
        <time>2018-01-10T08:38:03Z</time>
      </trkpt>
      <trkpt lat="42.30567" lon="2.62153">
        <ele>841.27</ele>
        <time>2018-01-10T08:38:16Z</time>
      </trkpt>
      <trkpt lat="42.30573" lon="2.62159">
        <ele>844.626</ele>
        <time>2018-01-10T08:38:29Z</time>
      </trkpt>
      <trkpt lat="42.30578" lon="2.62166">
        <ele>848.036</ele>
        <time>2018-01-10T08:38:42Z</time>
      </trkpt>
      <trkpt lat="42.30586" lon="2.62169">
        <ele>851.31</ele>
        <time>2018-01-10T08:38:56Z</time>
      </trkpt>
      <trkpt lat="42.3059" lon="2.62183">
        <ele>854.239</ele>
        <time>2018-01-10T08:39:09Z</time>
      </trkpt>
      <trkpt lat="42.30589" lon="2.62194">
        <ele>856.692</ele>
        <time>2018-01-10T08:39:22Z</time>
      </trkpt>
      <trkpt lat="42.3059" lon="2.62205">
        <ele>859.073</ele>
        <time>2018-01-10T08:39:36Z</time>
      </trkpt>
      <trkpt lat="42.30594" lon="2.62213">
        <ele>860.52</ele>
        <time>2018-01-10T08:39:49Z</time>
      </trkpt>
      <trkpt lat="42.30591" lon="2.62208">
        <ele>860.508</ele>
        <time>2018-01-10T08:40:13Z</time>
      </trkpt>
      <trkpt lat="42.3059" lon="2.6221">
        <ele>860.581</ele>
        <time>2018-01-10T08:40:38Z</time>
      </trkpt>
      <trkpt lat="42.30592" lon="2.62208">
        <ele>860.54</ele>
        <time>2018-01-10T08:40:56Z</time>
      </trkpt>
      <trkpt lat="42.30597" lon="2.62214">
        <ele>860.518</ele>
        <time>2018-01-10T08:41:20Z</time>
      </trkpt>
      <trkpt lat="42.30603" lon="2.62212">
        <ele>861.096</ele>
        <time>2018-01-10T08:41:31Z</time>
      </trkpt>
      <trkpt lat="42.30619" lon="2.62199">
        <ele>861.032</ele>
        <time>2018-01-10T08:41:47Z</time>
      </trkpt>
      <trkpt lat="42.30622" lon="2.62189">
        <ele>861.052</ele>
        <time>2018-01-10T08:42:01Z</time>
      </trkpt>
      <trkpt lat="42.30621" lon="2.62184">
        <ele>861.086</ele>
        <time>2018-01-10T08:42:17Z</time>
      </trkpt>
      <trkpt lat="42.30627" lon="2.62168">
        <ele>859.585</ele>
        <time>2018-01-10T08:42:27Z</time>
      </trkpt>
      <trkpt lat="42.30637" lon="2.62149">
        <ele>858.589</ele>
        <time>2018-01-10T08:42:41Z</time>
      </trkpt>
      <trkpt lat="42.3064" lon="2.62141">
        <ele>857.106</ele>
        <time>2018-01-10T08:42:47Z</time>
      </trkpt>
      <trkpt lat="42.30642" lon="2.62134">
        <ele>856.626</ele>
        <time>2018-01-10T08:42:50Z</time>
      </trkpt>
      <trkpt lat="42.30642" lon="2.6213">
        <ele>856.108</ele>
        <time>2018-01-10T08:42:53Z</time>
      </trkpt>
      <trkpt lat="42.3065" lon="2.62102">
        <ele>854.76</ele>
        <time>2018-01-10T08:43:08Z</time>
      </trkpt>
      <trkpt lat="42.30655" lon="2.62088">
        <ele>854.249</ele>
        <time>2018-01-10T08:43:18Z</time>
      </trkpt>
      <trkpt lat="42.30659" lon="2.6208">
        <ele>855.717</ele>
        <time>2018-01-10T08:43:24Z</time>
      </trkpt>
      <trkpt lat="42.30664" lon="2.62063">
        <ele>858.515</ele>
        <time>2018-01-10T08:43:37Z</time>
      </trkpt>
      <trkpt lat="42.30667" lon="2.62043">
        <ele>859.011</ele>
        <time>2018-01-10T08:43:51Z</time>
      </trkpt>
      <trkpt lat="42.30674" lon="2.62026">
        <ele>861.411</ele>
        <time>2018-01-10T08:44:07Z</time>
      </trkpt>
      <trkpt lat="42.30674" lon="2.62009">
        <ele>863.415</ele>
        <time>2018-01-10T08:44:19Z</time>
      </trkpt>
      <trkpt lat="42.30674" lon="2.61991">
        <ele>863.454</ele>
        <time>2018-01-10T08:44:33Z</time>
      </trkpt>
      <trkpt lat="42.30668" lon="2.61971">
        <ele>864.817</ele>
        <time>2018-01-10T08:44:47Z</time>
      </trkpt>
      <trkpt lat="42.30667" lon="2.6195">
        <ele>868.287</ele>
        <time>2018-01-10T08:45:03Z</time>
      </trkpt>
      <trkpt lat="42.30663" lon="2.61934">
        <ele>871.015</ele>
        <time>2018-01-10T08:45:17Z</time>
      </trkpt>
      <trkpt lat="42.30659" lon="2.61917">
        <ele>873.508</ele>
        <time>2018-01-10T08:45:32Z</time>
      </trkpt>
      <trkpt lat="42.30656" lon="2.61905">
        <ele>875.423</ele>
        <time>2018-01-10T08:45:44Z</time>
      </trkpt>
      <trkpt lat="42.3066" lon="2.61892">
        <ele>876.872</ele>
        <time>2018-01-10T08:45:59Z</time>
      </trkpt>
      <trkpt lat="42.30668" lon="2.61877">
        <ele>879.72</ele>
        <time>2018-01-10T08:46:16Z</time>
      </trkpt>
      <trkpt lat="42.30671" lon="2.61866">
        <ele>882.648</ele>
        <time>2018-01-10T08:46:31Z</time>
      </trkpt>
      <trkpt lat="42.30672" lon="2.61853">
        <ele>885.974</ele>
        <time>2018-01-10T08:46:49Z</time>
      </trkpt>
      <trkpt lat="42.30679" lon="2.61847">
        <ele>888.844</ele>
        <time>2018-01-10T08:47:05Z</time>
      </trkpt>
      <trkpt lat="42.3069" lon="2.6185">
        <ele>892.268</ele>
        <time>2018-01-10T08:47:21Z</time>
      </trkpt>
      <trkpt lat="42.30689" lon="2.61841">
        <ele>895.117</ele>
        <time>2018-01-10T08:47:37Z</time>
      </trkpt>
      <trkpt lat="42.30691" lon="2.61832">
        <ele>898.032</ele>
        <time>2018-01-10T08:47:52Z</time>
      </trkpt>
      <trkpt lat="42.30694" lon="2.61818">
        <ele>901.392</ele>
        <time>2018-01-10T08:48:09Z</time>
      </trkpt>
      <trkpt lat="42.30706" lon="2.61814">
        <ele>904.211</ele>
        <time>2018-01-10T08:48:28Z</time>
      </trkpt>
      <trkpt lat="42.30716" lon="2.61811">
        <ele>906.108</ele>
        <time>2018-01-10T08:48:45Z</time>
      </trkpt>
      <trkpt lat="42.3072" lon="2.61828">
        <ele>904.785</ele>
        <time>2018-01-10T08:48:59Z</time>
      </trkpt>
      <trkpt lat="42.30726" lon="2.61844">
        <ele>905.744</ele>
        <time>2018-01-10T08:49:13Z</time>
      </trkpt>
      <trkpt lat="42.30726" lon="2.61845">
        <ele>905.772</ele>
        <time>2018-01-10T08:49:14Z</time>
      </trkpt>
      <trkpt lat="42.30733" lon="2.61848">
        <ele>909.56</ele>
        <time>2018-01-10T08:49:28Z</time>
      </trkpt>
      <trkpt lat="42.3074" lon="2.61842">
        <ele>912.416</ele>
        <time>2018-01-10T08:49:46Z</time>
      </trkpt>
      <trkpt lat="42.30746" lon="2.61847">
        <ele>915.336</ele>
        <time>2018-01-10T08:50:03Z</time>
      </trkpt>
      <trkpt lat="42.30749" lon="2.6184">
        <ele>918.29</ele>
        <time>2018-01-10T08:50:17Z</time>
      </trkpt>
      <trkpt lat="42.30755" lon="2.61832">
        <ele>921.069</ele>
        <time>2018-01-10T08:50:32Z</time>
      </trkpt>
      <trkpt lat="42.30763" lon="2.61834">
        <ele>924.481</ele>
        <time>2018-01-10T08:50:48Z</time>
      </trkpt>
      <trkpt lat="42.30771" lon="2.61843">
        <ele>926.861</ele>
        <time>2018-01-10T08:51:03Z</time>
      </trkpt>
      <trkpt lat="42.30775" lon="2.61845">
        <ele>930.217</ele>
        <time>2018-01-10T08:51:18Z</time>
      </trkpt>
      <trkpt lat="42.30781" lon="2.61843">
        <ele>933.508</ele>
        <time>2018-01-10T08:51:31Z</time>
      </trkpt>
      <trkpt lat="42.30788" lon="2.6184">
        <ele>936.93</ele>
        <time>2018-01-10T08:51:47Z</time>
      </trkpt>
      <trkpt lat="42.30795" lon="2.61842">
        <ele>939.819</ele>
        <time>2018-01-10T08:52:03Z</time>
      </trkpt>
      <trkpt lat="42.30799" lon="2.61855">
        <ele>942.237</ele>
        <time>2018-01-10T08:52:19Z</time>
      </trkpt>
      <trkpt lat="42.30804" lon="2.6186">
        <ele>944.625</ele>
        <time>2018-01-10T08:52:34Z</time>
      </trkpt>
      <trkpt lat="42.30812" lon="2.61863">
        <ele>947.571</ele>
        <time>2018-01-10T08:52:50Z</time>
      </trkpt>
      <trkpt lat="42.30819" lon="2.61864">
        <ele>950.871</ele>
        <time>2018-01-10T08:53:05Z</time>
      </trkpt>
      <trkpt lat="42.30826" lon="2.6187">
        <ele>953.295</ele>
        <time>2018-01-10T08:53:19Z</time>
      </trkpt>
      <trkpt lat="42.30829" lon="2.61884">
        <ele>954.784</ele>
        <time>2018-01-10T08:53:32Z</time>
      </trkpt>
      <trkpt lat="42.30833" lon="2.61899">
        <ele>957.683</ele>
        <time>2018-01-10T08:53:49Z</time>
      </trkpt>
      <trkpt lat="42.30841" lon="2.61898">
        <ele>960.425</ele>
        <time>2018-01-10T08:54:04Z</time>
      </trkpt>
      <trkpt lat="42.3085" lon="2.61903">
        <ele>963.817</ele>
        <time>2018-01-10T08:54:19Z</time>
      </trkpt>
      <trkpt lat="42.30858" lon="2.61908">
        <ele>967.208</ele>
        <time>2018-01-10T08:54:36Z</time>
      </trkpt>
      <trkpt lat="42.30866" lon="2.61906">
        <ele>970.12</ele>
        <time>2018-01-10T08:54:52Z</time>
      </trkpt>
      <trkpt lat="42.30874" lon="2.61903">
        <ele>972.999</ele>
        <time>2018-01-10T08:55:05Z</time>
      </trkpt>
      <trkpt lat="42.30876" lon="2.61916">
        <ele>974.467</ele>
        <time>2018-01-10T08:55:19Z</time>
      </trkpt>
      <trkpt lat="42.30879" lon="2.61922">
        <ele>976.345</ele>
        <time>2018-01-10T08:55:32Z</time>
      </trkpt>
      <trkpt lat="42.30888" lon="2.61921">
        <ele>978.251</ele>
        <time>2018-01-10T08:55:44Z</time>
      </trkpt>
      <trkpt lat="42.30895" lon="2.61916">
        <ele>981.151</ele>
        <time>2018-01-10T08:55:57Z</time>
      </trkpt>
      <trkpt lat="42.30901" lon="2.61914">
        <ele>983.525</ele>
        <time>2018-01-10T08:56:09Z</time>
      </trkpt>
      <trkpt lat="42.3091" lon="2.61913">
        <ele>986.964</ele>
        <time>2018-01-10T08:56:25Z</time>
      </trkpt>
      <trkpt lat="42.30914" lon="2.61913">
        <ele>989.348</ele>
        <time>2018-01-10T08:56:41Z</time>
      </trkpt>
      <trkpt lat="42.30922" lon="2.61922">
        <ele>991.761</ele>
        <time>2018-01-10T08:56:56Z</time>
      </trkpt>
      <trkpt lat="42.30926" lon="2.61927">
        <ele>994.617</ele>
        <time>2018-01-10T08:57:09Z</time>
      </trkpt>
      <trkpt lat="42.30934" lon="2.61929">
        <ele>997.908</ele>
        <time>2018-01-10T08:57:25Z</time>
      </trkpt>
      <trkpt lat="42.3094" lon="2.61927">
        <ele>1000.826</ele>
        <time>2018-01-10T08:57:40Z</time>
      </trkpt>
      <trkpt lat="42.30947" lon="2.6193">
        <ele>1003.765</ele>
        <time>2018-01-10T08:57:56Z</time>
      </trkpt>
      <trkpt lat="42.3095" lon="2.61934">
        <ele>1006.683</ele>
        <time>2018-01-10T08:58:10Z</time>
      </trkpt>
      <trkpt lat="42.30959" lon="2.61939">
        <ele>1009.511</ele>
        <time>2018-01-10T08:58:25Z</time>
      </trkpt>
      <trkpt lat="42.30966" lon="2.61947">
        <ele>1012.857</ele>
        <time>2018-01-10T08:58:40Z</time>
      </trkpt>
      <trkpt lat="42.30973" lon="2.61942">
        <ele>1013.357</ele>
        <time>2018-01-10T08:58:54Z</time>
      </trkpt>
      <trkpt lat="42.30976" lon="2.61937">
        <ele>1012.471</ele>
        <time>2018-01-10T08:59:13Z</time>
      </trkpt>
      <trkpt lat="42.30975" lon="2.61936">
        <ele>1012.44</ele>
        <time>2018-01-10T08:59:39Z</time>
      </trkpt>
      <trkpt lat="42.30976" lon="2.61935">
        <ele>1012.434</ele>
        <time>2018-01-10T09:00:14Z</time>
      </trkpt>
      <trkpt lat="42.30975" lon="2.61939">
        <ele>1012.455</ele>
        <time>2018-01-10T09:00:28Z</time>
      </trkpt>
      <trkpt lat="42.30975" lon="2.6194">
        <ele>1012.41</ele>
        <time>2018-01-10T09:00:50Z</time>
      </trkpt>
      <trkpt lat="42.30974" lon="2.6194">
        <ele>1012.408</ele>
        <time>2018-01-10T09:01:28Z</time>
      </trkpt>
      <trkpt lat="42.30971" lon="2.61942">
        <ele>1012.485</ele>
        <time>2018-01-10T09:02:11Z</time>
      </trkpt>
      <trkpt lat="42.3097" lon="2.61949">
        <ele>1012.454</ele>
        <time>2018-01-10T09:02:25Z</time>
      </trkpt>
      <trkpt lat="42.30973" lon="2.61959">
        <ele>1015.742</ele>
        <time>2018-01-10T09:02:38Z</time>
      </trkpt>
      <trkpt lat="42.3098" lon="2.61966">
        <ele>1017.23</ele>
        <time>2018-01-10T09:02:50Z</time>
      </trkpt>
      <trkpt lat="42.30987" lon="2.61974">
        <ele>1019.656</ele>
        <time>2018-01-10T09:03:03Z</time>
      </trkpt>
      <trkpt lat="42.30987" lon="2.61986">
        <ele>1022.016</ele>
        <time>2018-01-10T09:03:17Z</time>
      </trkpt>
      <trkpt lat="42.3099" lon="2.62">
        <ele>1025.36</ele>
        <time>2018-01-10T09:03:30Z</time>
      </trkpt>
      <trkpt lat="42.30994" lon="2.62009">
        <ele>1027.769</ele>
        <time>2018-01-10T09:03:46Z</time>
      </trkpt>
      <trkpt lat="42.30998" lon="2.6202">
        <ele>1029.712</ele>
        <time>2018-01-10T09:04:00Z</time>
      </trkpt>
      <trkpt lat="42.30996" lon="2.62033">
        <ele>1032.132</ele>
        <time>2018-01-10T09:04:15Z</time>
      </trkpt>
      <trkpt lat="42.30999" lon="2.62044">
        <ele>1035.405</ele>
        <time>2018-01-10T09:04:29Z</time>
      </trkpt>
      <trkpt lat="42.31001" lon="2.62053">
        <ele>1036.908</ele>
        <time>2018-01-10T09:04:44Z</time>
      </trkpt>
      <trkpt lat="42.31002" lon="2.62056">
        <ele>1037.463</ele>
        <time>2018-01-10T09:05:12Z</time>
      </trkpt>
      <trkpt lat="42.31002" lon="2.62054">
        <ele>1037.482</ele>
        <time>2018-01-10T09:05:48Z</time>
      </trkpt>
      <trkpt lat="42.31002" lon="2.62057">
        <ele>1037.88</ele>
        <time>2018-01-10T09:06:14Z</time>
      </trkpt>
      <trkpt lat="42.31004" lon="2.62068">
        <ele>1041.288</ele>
        <time>2018-01-10T09:06:25Z</time>
      </trkpt>
      <trkpt lat="42.31004" lon="2.62078">
        <ele>1044.154</ele>
        <time>2018-01-10T09:06:36Z</time>
      </trkpt>
      <trkpt lat="42.31004" lon="2.6209">
        <ele>1047.464</ele>
        <time>2018-01-10T09:06:49Z</time>
      </trkpt>
      <trkpt lat="42.31007" lon="2.62099">
        <ele>1050.828</ele>
        <time>2018-01-10T09:07:01Z</time>
      </trkpt>
      <trkpt lat="42.31009" lon="2.62109">
        <ele>1054.217</ele>
        <time>2018-01-10T09:07:15Z</time>
      </trkpt>
      <trkpt lat="42.3101" lon="2.62117">
        <ele>1057.191</ele>
        <time>2018-01-10T09:07:27Z</time>
      </trkpt>
      <trkpt lat="42.31015" lon="2.62127">
        <ele>1059.981</ele>
        <time>2018-01-10T09:07:40Z</time>
      </trkpt>
      <trkpt lat="42.31018" lon="2.62138">
        <ele>1063.319</ele>
        <time>2018-01-10T09:07:55Z</time>
      </trkpt>
      <trkpt lat="42.3102" lon="2.62145">
        <ele>1065.208</ele>
        <time>2018-01-10T09:08:07Z</time>
      </trkpt>
      <trkpt lat="42.31019" lon="2.62153">
        <ele>1067.681</ele>
        <time>2018-01-10T09:08:23Z</time>
      </trkpt>
      <trkpt lat="42.31023" lon="2.62162">
        <ele>1070.53</ele>
        <time>2018-01-10T09:08:38Z</time>
      </trkpt>
      <trkpt lat="42.31026" lon="2.62168">
        <ele>1072.998</ele>
        <time>2018-01-10T09:08:52Z</time>
      </trkpt>
      <trkpt lat="42.3103" lon="2.62175">
        <ele>1074.856</ele>
        <time>2018-01-10T09:09:03Z</time>
      </trkpt>
      <trkpt lat="42.3103" lon="2.62186">
        <ele>1077.282</ele>
        <time>2018-01-10T09:09:17Z</time>
      </trkpt>
      <trkpt lat="42.31026" lon="2.62199">
        <ele>1079.742</ele>
        <time>2018-01-10T09:09:29Z</time>
      </trkpt>
      <trkpt lat="42.31026" lon="2.6221">
        <ele>1082.116</ele>
        <time>2018-01-10T09:09:41Z</time>
      </trkpt>
      <trkpt lat="42.31023" lon="2.62221">
        <ele>1085.935</ele>
        <time>2018-01-10T09:09:54Z</time>
      </trkpt>
      <trkpt lat="42.31024" lon="2.62234">
        <ele>1088.882</ele>
        <time>2018-01-10T09:10:09Z</time>
      </trkpt>
      <trkpt lat="42.31024" lon="2.62246">
        <ele>1092.243</ele>
        <time>2018-01-10T09:10:24Z</time>
      </trkpt>
      <trkpt lat="42.31024" lon="2.62258">
        <ele>1095.017</ele>
        <time>2018-01-10T09:10:39Z</time>
      </trkpt>
      <trkpt lat="42.31026" lon="2.62263">
        <ele>1097.908</ele>
        <time>2018-01-10T09:10:51Z</time>
      </trkpt>
      <trkpt lat="42.31025" lon="2.62275">
        <ele>1100.81</ele>
        <time>2018-01-10T09:11:05Z</time>
      </trkpt>
      <trkpt lat="42.31028" lon="2.6228">
        <ele>1103.719</ele>
        <time>2018-01-10T09:11:23Z</time>
      </trkpt>
      <trkpt lat="42.31035" lon="2.62288">
        <ele>1107.177</ele>
        <time>2018-01-10T09:11:36Z</time>
      </trkpt>
      <trkpt lat="42.31033" lon="2.62298">
        <ele>1110.435</ele>
        <time>2018-01-10T09:11:51Z</time>
      </trkpt>
      <trkpt lat="42.31031" lon="2.62307">
        <ele>1113.351</ele>
        <time>2018-01-10T09:12:08Z</time>
      </trkpt>
      <trkpt lat="42.3103" lon="2.62313">
        <ele>1115.721</ele>
        <time>2018-01-10T09:12:23Z</time>
      </trkpt>
      <trkpt lat="42.31029" lon="2.62319">
        <ele>1117.695</ele>
        <time>2018-01-10T09:12:41Z</time>
      </trkpt>
      <trkpt lat="42.31029" lon="2.62315">
        <ele>1116.734</ele>
        <time>2018-01-10T09:12:56Z</time>
      </trkpt>
      <trkpt lat="42.31035" lon="2.62307">
        <ele>1117.121</ele>
        <time>2018-01-10T09:13:09Z</time>
      </trkpt>
      <trkpt lat="42.31036" lon="2.62307">
        <ele>1117.141</ele>
        <time>2018-01-10T09:13:10Z</time>
      </trkpt>
      <trkpt lat="42.31042" lon="2.62307">
        <ele>1119.105</ele>
        <time>2018-01-10T09:13:25Z</time>
      </trkpt>
      <trkpt lat="42.31045" lon="2.62312">
        <ele>1122.008</ele>
        <time>2018-01-10T09:13:39Z</time>
      </trkpt>
      <trkpt lat="42.31048" lon="2.62318">
        <ele>1124.444</ele>
        <time>2018-01-10T09:13:56Z</time>
      </trkpt>
      <trkpt lat="42.31049" lon="2.62323">
        <ele>1127.733</ele>
        <time>2018-01-10T09:14:13Z</time>
      </trkpt>
      <trkpt lat="42.31055" lon="2.62328">
        <ele>1130.181</ele>
        <time>2018-01-10T09:14:28Z</time>
      </trkpt>
      <trkpt lat="42.31057" lon="2.62335">
        <ele>1133.559</ele>
        <time>2018-01-10T09:14:42Z</time>
      </trkpt>
      <trkpt lat="42.31056" lon="2.62341">
        <ele>1135.955</ele>
        <time>2018-01-10T09:14:57Z</time>
      </trkpt>
      <trkpt lat="42.31057" lon="2.62348">
        <ele>1137.885</ele>
        <time>2018-01-10T09:15:14Z</time>
      </trkpt>
      <trkpt lat="42.31057" lon="2.62355">
        <ele>1140.769</ele>
        <time>2018-01-10T09:15:28Z</time>
      </trkpt>
      <trkpt lat="42.31061" lon="2.62361">
        <ele>1143.658</ele>
        <time>2018-01-10T09:15:43Z</time>
      </trkpt>
      <trkpt lat="42.31065" lon="2.62366">
        <ele>1146.082</ele>
        <time>2018-01-10T09:15:58Z</time>
      </trkpt>
      <trkpt lat="42.31064" lon="2.62374">
        <ele>1148.443</ele>
        <time>2018-01-10T09:16:15Z</time>
      </trkpt>
      <trkpt lat="42.31065" lon="2.62377">
        <ele>1150.317</ele>
        <time>2018-01-10T09:16:27Z</time>
      </trkpt>
      <trkpt lat="42.31069" lon="2.62379">
        <ele>1152.708</ele>
        <time>2018-01-10T09:16:42Z</time>
      </trkpt>
      <trkpt lat="42.31074" lon="2.6238">
        <ele>1156.12</ele>
        <time>2018-01-10T09:16:58Z</time>
      </trkpt>
      <trkpt lat="42.31076" lon="2.62382">
        <ele>1157.569</ele>
        <time>2018-01-10T09:17:11Z</time>
      </trkpt>
      <trkpt lat="42.31084" lon="2.62382">
        <ele>1160.987</ele>
        <time>2018-01-10T09:17:29Z</time>
      </trkpt>
      <trkpt lat="42.31084" lon="2.62383">
        <ele>1160.925</ele>
        <time>2018-01-10T09:17:47Z</time>
      </trkpt>
      <trkpt lat="42.31084" lon="2.62383">
        <ele>1160.911</ele>
        <time>2018-01-10T09:18:14Z</time>
      </trkpt>
      <trkpt lat="42.31084" lon="2.62388">
        <ele>1162.871</ele>
        <time>2018-01-10T09:18:31Z</time>
      </trkpt>
      <trkpt lat="42.31086" lon="2.62391">
        <ele>1165.255</ele>
        <time>2018-01-10T09:18:44Z</time>
      </trkpt>
      <trkpt lat="42.31088" lon="2.62396">
        <ele>1166.794</ele>
        <time>2018-01-10T09:19:00Z</time>
      </trkpt>
      <trkpt lat="42.31087" lon="2.62407">
        <ele>1169.515</ele>
        <time>2018-01-10T09:19:15Z</time>
      </trkpt>
      <trkpt lat="42.31087" lon="2.62413">
        <ele>1172.465</ele>
        <time>2018-01-10T09:19:30Z</time>
      </trkpt>
      <trkpt lat="42.31091" lon="2.62413">
        <ele>1174.311</ele>
        <time>2018-01-10T09:19:43Z</time>
      </trkpt>
      <trkpt lat="42.31091" lon="2.62416">
        <ele>1176.308</ele>
        <time>2018-01-10T09:19:59Z</time>
      </trkpt>
      <trkpt lat="42.31088" lon="2.62425">
        <ele>1178.213</ele>
        <time>2018-01-10T09:20:12Z</time>
      </trkpt>
      <trkpt lat="42.31082" lon="2.62436">
        <ele>1180.152</ele>
        <time>2018-01-10T09:20:29Z</time>
      </trkpt>
      <trkpt lat="42.31083" lon="2.62442">
        <ele>1183.07</ele>
        <time>2018-01-10T09:20:42Z</time>
      </trkpt>
      <trkpt lat="42.3108" lon="2.62446">
        <ele>1184.468</ele>
        <time>2018-01-10T09:20:58Z</time>
      </trkpt>
      <trkpt lat="42.31079" lon="2.62449">
        <ele>1184.474</ele>
        <time>2018-01-10T09:21:30Z</time>
      </trkpt>
      <trkpt lat="42.31079" lon="2.62446">
        <ele>1185.494</ele>
        <time>2018-01-10T09:21:58Z</time>
      </trkpt>
      <trkpt lat="42.31085" lon="2.62451">
        <ele>1188.818</ele>
        <time>2018-01-10T09:22:10Z</time>
      </trkpt>
      <trkpt lat="42.31088" lon="2.62457">
        <ele>1192.187</ele>
        <time>2018-01-10T09:22:21Z</time>
      </trkpt>
      <trkpt lat="42.31096" lon="2.62457">
        <ele>1195.085</ele>
        <time>2018-01-10T09:22:34Z</time>
      </trkpt>
      <trkpt lat="42.31099" lon="2.62459">
        <ele>1196.989</ele>
        <time>2018-01-10T09:22:41Z</time>
      </trkpt>
      <trkpt lat="42.31106" lon="2.6246">
        <ele>1199.817</ele>
        <time>2018-01-10T09:22:55Z</time>
      </trkpt>
      <trkpt lat="42.31112" lon="2.62457">
        <ele>1201.708</ele>
        <time>2018-01-10T09:23:12Z</time>
      </trkpt>
      <trkpt lat="42.31119" lon="2.62456">
        <ele>1203.76</ele>
        <time>2018-01-10T09:23:23Z</time>
      </trkpt>
      <trkpt lat="42.31126" lon="2.62458">
        <ele>1206.149</ele>
        <time>2018-01-10T09:23:36Z</time>
      </trkpt>
      <trkpt lat="42.31128" lon="2.62461">
        <ele>1207.557</ele>
        <time>2018-01-10T09:23:51Z</time>
      </trkpt>
      <trkpt lat="42.31128" lon="2.62466">
        <ele>1210.965</ele>
        <time>2018-01-10T09:24:05Z</time>
      </trkpt>
      <trkpt lat="42.31127" lon="2.62472">
        <ele>1212.321</ele>
        <time>2018-01-10T09:24:20Z</time>
      </trkpt>
      <trkpt lat="42.31135" lon="2.62469">
        <ele>1213.861</ele>
        <time>2018-01-10T09:24:34Z</time>
      </trkpt>
      <trkpt lat="42.31138" lon="2.62466">
        <ele>1214.765</ele>
        <time>2018-01-10T09:24:50Z</time>
      </trkpt>
      <trkpt lat="42.31138" lon="2.62466">
        <ele>1214.794</ele>
        <time>2018-01-10T09:25:18Z</time>
      </trkpt>
      <trkpt lat="42.31143" lon="2.62467">
        <ele>1215.259</ele>
        <time>2018-01-10T09:25:31Z</time>
      </trkpt>
      <trkpt lat="42.31144" lon="2.62467">
        <ele>1215.703</ele>
        <time>2018-01-10T09:26:01Z</time>
      </trkpt>
      <trkpt lat="42.31153" lon="2.62472">
        <ele>1219.023</ele>
        <time>2018-01-10T09:26:13Z</time>
      </trkpt>
      <trkpt lat="42.31157" lon="2.62482">
        <ele>1221.408</ele>
        <time>2018-01-10T09:26:25Z</time>
      </trkpt>
      <trkpt lat="42.3116" lon="2.62483">
        <ele>1222.917</ele>
        <time>2018-01-10T09:26:37Z</time>
      </trkpt>
      <trkpt lat="42.31166" lon="2.62496">
        <ele>1226.346</ele>
        <time>2018-01-10T09:26:51Z</time>
      </trkpt>
      <trkpt lat="42.31175" lon="2.62506">
        <ele>1228.714</ele>
        <time>2018-01-10T09:27:05Z</time>
      </trkpt>
      <trkpt lat="42.31181" lon="2.62521">
        <ele>1231.572</ele>
        <time>2018-01-10T09:27:18Z</time>
      </trkpt>
      <trkpt lat="42.31184" lon="2.6253">
        <ele>1233.998</ele>
        <time>2018-01-10T09:27:29Z</time>
      </trkpt>
      <trkpt lat="42.3119" lon="2.62542">
        <ele>1236.338</ele>
        <time>2018-01-10T09:27:41Z</time>
      </trkpt>
      <trkpt lat="42.31193" lon="2.62555">
        <ele>1239.792</ele>
        <time>2018-01-10T09:27:56Z</time>
      </trkpt>
      <trkpt lat="42.31192" lon="2.62559">
        <ele>1242.121</ele>
        <time>2018-01-10T09:28:11Z</time>
      </trkpt>
      <trkpt lat="42.31194" lon="2.62564">
        <ele>1243.656</ele>
        <time>2018-01-10T09:28:40Z</time>
      </trkpt>
      <trkpt lat="42.31198" lon="2.62575">
        <ele>1246.059</ele>
        <time>2018-01-10T09:28:57Z</time>
      </trkpt>
      <trkpt lat="42.31201" lon="2.6258">
        <ele>1249.314</ele>
        <time>2018-01-10T09:29:16Z</time>
      </trkpt>
      <trkpt lat="42.31193" lon="2.62585">
        <ele>1252.208</ele>
        <time>2018-01-10T09:29:32Z</time>
      </trkpt>
      <trkpt lat="42.31191" lon="2.62594">
        <ele>1255.697</ele>
        <time>2018-01-10T09:29:43Z</time>
      </trkpt>
      <trkpt lat="42.31189" lon="2.62604">
        <ele>1258.946</ele>
        <time>2018-01-10T09:29:56Z</time>
      </trkpt>
      <trkpt lat="42.31186" lon="2.62617">
        <ele>1261.864</ele>
        <time>2018-01-10T09:30:10Z</time>
      </trkpt>
      <trkpt lat="42.31187" lon="2.6263">
        <ele>1265.262</ele>
        <time>2018-01-10T09:30:24Z</time>
      </trkpt>
      <trkpt lat="42.31187" lon="2.62643">
        <ele>1268.628</ele>
        <time>2018-01-10T09:30:36Z</time>
      </trkpt>
      <trkpt lat="42.3118" lon="2.62657">
        <ele>1270.598</ele>
        <time>2018-01-10T09:30:51Z</time>
      </trkpt>
      <trkpt lat="42.31181" lon="2.62671">
        <ele>1273.442</ele>
        <time>2018-01-10T09:31:03Z</time>
      </trkpt>
      <trkpt lat="42.31182" lon="2.62685">
        <ele>1276.721</ele>
        <time>2018-01-10T09:31:16Z</time>
      </trkpt>
      <trkpt lat="42.31182" lon="2.627">
        <ele>1279.146</ele>
        <time>2018-01-10T09:31:30Z</time>
      </trkpt>
      <trkpt lat="42.31186" lon="2.62716">
        <ele>1282.588</ele>
        <time>2018-01-10T09:31:45Z</time>
      </trkpt>
      <trkpt lat="42.31193" lon="2.62736">
        <ele>1284.916</ele>
        <time>2018-01-10T09:32:01Z</time>
      </trkpt>
      <trkpt lat="42.31194" lon="2.62743">
        <ele>1286.808</ele>
        <time>2018-01-10T09:32:08Z</time>
      </trkpt>
      <trkpt lat="42.31196" lon="2.62747">
        <ele>1287.356</ele>
        <time>2018-01-10T09:32:10Z</time>
      </trkpt>
      <trkpt lat="42.31193" lon="2.62757">
        <ele>1290.715</ele>
        <time>2018-01-10T09:32:23Z</time>
      </trkpt>
      <trkpt lat="42.31188" lon="2.6276">
        <ele>1292.613</ele>
        <time>2018-01-10T09:32:31Z</time>
      </trkpt>
      <trkpt lat="42.3118" lon="2.62765">
        <ele>1296.951</ele>
        <time>2018-01-10T09:32:45Z</time>
      </trkpt>
      <trkpt lat="42.31179" lon="2.62767">
        <ele>1297.417</ele>
        <time>2018-01-10T09:33:04Z</time>
      </trkpt>
      <trkpt lat="42.31179" lon="2.62767">
        <ele>1297.437</ele>
        <time>2018-01-10T09:33:22Z</time>
      </trkpt>
      <trkpt lat="42.31175" lon="2.62766">
        <ele>1295.921</ele>
        <time>2018-01-10T09:33:38Z</time>
      </trkpt>
      <trkpt lat="42.31166" lon="2.62768">
        <ele>1292.19</ele>
        <time>2018-01-10T09:33:50Z</time>
      </trkpt>
      <trkpt lat="42.31163" lon="2.62768">
        <ele>1291.636</ele>
        <time>2018-01-10T09:33:53Z</time>
      </trkpt>
      <trkpt lat="42.31147" lon="2.6277">
        <ele>1287.817</ele>
        <time>2018-01-10T09:34:06Z</time>
      </trkpt>
      <trkpt lat="42.3114" lon="2.62764">
        <ele>1285.418</ele>
        <time>2018-01-10T09:34:14Z</time>
      </trkpt>
      <trkpt lat="42.31135" lon="2.62768">
        <ele>1284.408</ele>
        <time>2018-01-10T09:34:23Z</time>
      </trkpt>
      <trkpt lat="42.31134" lon="2.62772">
        <ele>1284.425</ele>
        <time>2018-01-10T09:34:26Z</time>
      </trkpt>
      <trkpt lat="42.31132" lon="2.62777">
        <ele>1284.414</ele>
        <time>2018-01-10T09:34:30Z</time>
      </trkpt>
      <trkpt lat="42.31132" lon="2.62787">
        <ele>1284.412</ele>
        <time>2018-01-10T09:34:43Z</time>
      </trkpt>
      <trkpt lat="42.31132" lon="2.62788">
        <ele>1283.92</ele>
        <time>2018-01-10T09:35:07Z</time>
      </trkpt>
      <trkpt lat="42.31133" lon="2.62788">
        <ele>1284.466</ele>
        <time>2018-01-10T09:35:42Z</time>
      </trkpt>
      <trkpt lat="42.31131" lon="2.62799">
        <ele>1285.476</ele>
        <time>2018-01-10T09:36:05Z</time>
      </trkpt>
      <trkpt lat="42.31128" lon="2.62818">
        <ele>1285.91</ele>
        <time>2018-01-10T09:36:19Z</time>
      </trkpt>
      <trkpt lat="42.31127" lon="2.62842">
        <ele>1287.339</ele>
        <time>2018-01-10T09:36:33Z</time>
      </trkpt>
      <trkpt lat="42.3113" lon="2.6286">
        <ele>1289.767</ele>
        <time>2018-01-10T09:36:48Z</time>
      </trkpt>
      <trkpt lat="42.31132" lon="2.62879">
        <ele>1290.781</ele>
        <time>2018-01-10T09:37:02Z</time>
      </trkpt>
      <trkpt lat="42.31132" lon="2.62883">
        <ele>1289.219</ele>
        <time>2018-01-10T09:37:06Z</time>
      </trkpt>
      <trkpt lat="42.31133" lon="2.62885">
        <ele>1288.708</ele>
        <time>2018-01-10T09:37:08Z</time>
      </trkpt>
      <trkpt lat="42.31135" lon="2.6289">
        <ele>1287.868</ele>
        <time>2018-01-10T09:37:28Z</time>
      </trkpt>
      <trkpt lat="42.31139" lon="2.62902">
        <ele>1287.367</ele>
        <time>2018-01-10T09:37:49Z</time>
      </trkpt>
      <trkpt lat="42.31142" lon="2.62912">
        <ele>1284.955</ele>
        <time>2018-01-10T09:38:00Z</time>
      </trkpt>
      <trkpt lat="42.31142" lon="2.62913">
        <ele>1284.423</ele>
        <time>2018-01-10T09:38:01Z</time>
      </trkpt>
      <trkpt lat="42.31146" lon="2.62928">
        <ele>1283.519</ele>
        <time>2018-01-10T09:38:14Z</time>
      </trkpt>
      <trkpt lat="42.31148" lon="2.62936">
        <ele>1283.569</ele>
        <time>2018-01-10T09:38:20Z</time>
      </trkpt>
      <trkpt lat="42.31152" lon="2.62946">
        <ele>1283.043</ele>
        <time>2018-01-10T09:38:27Z</time>
      </trkpt>
      <trkpt lat="42.31153" lon="2.62949">
        <ele>1283.052</ele>
        <time>2018-01-10T09:38:29Z</time>
      </trkpt>
      <trkpt lat="42.3116" lon="2.62964">
        <ele>1283.085</ele>
        <time>2018-01-10T09:38:44Z</time>
      </trkpt>
      <trkpt lat="42.31166" lon="2.62969">
        <ele>1284.489</ele>
        <time>2018-01-10T09:38:54Z</time>
      </trkpt>
      <trkpt lat="42.31172" lon="2.62976">
        <ele>1287.817</ele>
        <time>2018-01-10T09:39:06Z</time>
      </trkpt>
      <trkpt lat="42.31176" lon="2.6298">
        <ele>1289.208</ele>
        <time>2018-01-10T09:39:13Z</time>
      </trkpt>
      <trkpt lat="42.31184" lon="2.62989">
        <ele>1292.67</ele>
        <time>2018-01-10T09:39:27Z</time>
      </trkpt>
      <trkpt lat="42.31193" lon="2.63001">
        <ele>1295.979</ele>
        <time>2018-01-10T09:39:43Z</time>
      </trkpt>
      <trkpt lat="42.31199" lon="2.63007">
        <ele>1298.877</ele>
        <time>2018-01-10T09:39:56Z</time>
      </trkpt>
      <trkpt lat="42.31205" lon="2.63023">
        <ele>1299.815</ele>
        <time>2018-01-10T09:40:09Z</time>
      </trkpt>
      <trkpt lat="42.31207" lon="2.63029">
        <ele>1300.331</ele>
        <time>2018-01-10T09:40:13Z</time>
      </trkpt>
      <trkpt lat="42.31215" lon="2.63045">
        <ele>1303.241</ele>
        <time>2018-01-10T09:40:29Z</time>
      </trkpt>
      <trkpt lat="42.31221" lon="2.63052">
        <ele>1307.095</ele>
        <time>2018-01-10T09:40:42Z</time>
      </trkpt>
      <trkpt lat="42.31226" lon="2.63061">
        <ele>1308.934</ele>
        <time>2018-01-10T09:40:56Z</time>
      </trkpt>
      <trkpt lat="42.31228" lon="2.63072">
        <ele>1310.918</ele>
        <time>2018-01-10T09:41:09Z</time>
      </trkpt>
      <trkpt lat="42.31229" lon="2.63074">
        <ele>1310.998</ele>
        <time>2018-01-10T09:41:11Z</time>
      </trkpt>
      <trkpt lat="42.31232" lon="2.63093">
        <ele>1313.717</ele>
        <time>2018-01-10T09:41:26Z</time>
      </trkpt>
      <trkpt lat="42.31235" lon="2.63097">
        <ele>1313.708</ele>
        <time>2018-01-10T09:41:31Z</time>
      </trkpt>
      <trkpt lat="42.31244" lon="2.63107">
        <ele>1315.263</ele>
        <time>2018-01-10T09:41:44Z</time>
      </trkpt>
      <trkpt lat="42.3125" lon="2.63112">
        <ele>1318.582</ele>
        <time>2018-01-10T09:41:57Z</time>
      </trkpt>
      <trkpt lat="42.31256" lon="2.63116">
        <ele>1321.99</ele>
        <time>2018-01-10T09:42:09Z</time>
      </trkpt>
      <trkpt lat="42.31265" lon="2.63124">
        <ele>1324.888</ele>
        <time>2018-01-10T09:42:24Z</time>
      </trkpt>
      <trkpt lat="42.31272" lon="2.63123">
        <ele>1327.724</ele>
        <time>2018-01-10T09:42:38Z</time>
      </trkpt>
      <trkpt lat="42.3128" lon="2.63125">
        <ele>1330.674</ele>
        <time>2018-01-10T09:42:52Z</time>
      </trkpt>
      <trkpt lat="42.31285" lon="2.6313">
        <ele>1333.468</ele>
        <time>2018-01-10T09:43:08Z</time>
      </trkpt>
      <trkpt lat="42.31283" lon="2.63132">
        <ele>1332.087</ele>
        <time>2018-01-10T09:43:21Z</time>
      </trkpt>
      <trkpt lat="42.31286" lon="2.63127">
        <ele>1333.053</ele>
        <time>2018-01-10T09:43:33Z</time>
      </trkpt>
      <trkpt lat="42.31285" lon="2.6313">
        <ele>1332.004</ele>
        <time>2018-01-10T09:43:47Z</time>
      </trkpt>
      <trkpt lat="42.31286" lon="2.63128">
        <ele>1332.014</ele>
        <time>2018-01-10T09:44:04Z</time>
      </trkpt>
      <trkpt lat="42.31287" lon="2.63127">
        <ele>1333.408</ele>
        <time>2018-01-10T09:44:20Z</time>
      </trkpt>
      <trkpt lat="42.31286" lon="2.63127">
        <ele>1333.437</ele>
        <time>2018-01-10T09:44:41Z</time>
      </trkpt>
      <trkpt lat="42.31286" lon="2.63129">
        <ele>1333.466</ele>
        <time>2018-01-10T09:45:12Z</time>
      </trkpt>
      <trkpt lat="42.31285" lon="2.63131">
        <ele>1333.434</ele>
        <time>2018-01-10T09:45:40Z</time>
      </trkpt>
      <trkpt lat="42.31283" lon="2.63134">
        <ele>1333.982</ele>
        <time>2018-01-10T09:46:12Z</time>
      </trkpt>
      <trkpt lat="42.31282" lon="2.63135">
        <ele>1333.988</ele>
        <time>2018-01-10T09:46:43Z</time>
      </trkpt>
      <trkpt lat="42.3128" lon="2.63138">
        <ele>1334.468</ele>
        <time>2018-01-10T09:47:13Z</time>
      </trkpt>
      <trkpt lat="42.31279" lon="2.63138">
        <ele>1334.412</ele>
        <time>2018-01-10T09:47:46Z</time>
      </trkpt>
      <trkpt lat="42.31278" lon="2.6314">
        <ele>1334.991</ele>
        <time>2018-01-10T09:48:16Z</time>
      </trkpt>
      <trkpt lat="42.31278" lon="2.63139">
        <ele>1335.437</ele>
        <time>2018-01-10T09:48:43Z</time>
      </trkpt>
      <trkpt lat="42.31282" lon="2.63136">
        <ele>1335.849</ele>
        <time>2018-01-10T09:49:23Z</time>
      </trkpt>
      <trkpt lat="42.31283" lon="2.63134">
        <ele>1335.813</ele>
        <time>2018-01-10T09:49:51Z</time>
      </trkpt>
      <trkpt lat="42.31284" lon="2.63133">
        <ele>1336.308</ele>
        <time>2018-01-10T09:50:23Z</time>
      </trkpt>
      <trkpt lat="42.31283" lon="2.63134">
        <ele>1336.365</ele>
        <time>2018-01-10T09:50:58Z</time>
      </trkpt>
      <trkpt lat="42.31284" lon="2.63133">
        <ele>1336.354</ele>
        <time>2018-01-10T09:51:30Z</time>
      </trkpt>
      <trkpt lat="42.31283" lon="2.63133">
        <ele>1336.812</ele>
        <time>2018-01-10T09:51:54Z</time>
      </trkpt>
      <trkpt lat="42.31284" lon="2.63133">
        <ele>1336.86</ele>
        <time>2018-01-10T09:52:23Z</time>
      </trkpt>
      <trkpt lat="42.31285" lon="2.6313">
        <ele>1336.896</ele>
        <time>2018-01-10T09:52:57Z</time>
      </trkpt>
      <trkpt lat="42.31285" lon="2.6313">
        <ele>1337.326</ele>
        <time>2018-01-10T09:53:22Z</time>
      </trkpt>
      <trkpt lat="42.31285" lon="2.63131">
        <ele>1337.38</ele>
        <time>2018-01-10T09:53:51Z</time>
      </trkpt>
      <trkpt lat="42.31286" lon="2.6313">
        <ele>1337.379</ele>
        <time>2018-01-10T09:54:19Z</time>
      </trkpt>
      <trkpt lat="42.31287" lon="2.6313">
        <ele>1337.376</ele>
        <time>2018-01-10T09:54:51Z</time>
      </trkpt>
      <trkpt lat="42.31287" lon="2.63129">
        <ele>1337.39</ele>
        <time>2018-01-10T09:55:29Z</time>
      </trkpt>
      <trkpt lat="42.31287" lon="2.6313">
        <ele>1337.319</ele>
        <time>2018-01-10T09:56:07Z</time>
      </trkpt>
      <trkpt lat="42.31287" lon="2.63127">
        <ele>1337.808</ele>
        <time>2018-01-10T09:56:36Z</time>
      </trkpt>
      <trkpt lat="42.31287" lon="2.63127">
        <ele>1337.829</ele>
        <time>2018-01-10T09:57:07Z</time>
      </trkpt>
      <trkpt lat="42.31285" lon="2.63131">
        <ele>1337.858</ele>
        <time>2018-01-10T09:57:34Z</time>
      </trkpt>
      <trkpt lat="42.31285" lon="2.63132">
        <ele>1337.376</ele>
        <time>2018-01-10T09:57:49Z</time>
      </trkpt>
      <trkpt lat="42.31286" lon="2.63133">
        <ele>1336.384</ele>
        <time>2018-01-10T09:57:54Z</time>
      </trkpt>
      <trkpt lat="42.31288" lon="2.63136">
        <ele>1334.44</ele>
        <time>2018-01-10T09:57:59Z</time>
      </trkpt>
      <trkpt lat="42.31296" lon="2.63142">
        <ele>1331.59</ele>
        <time>2018-01-10T09:58:09Z</time>
      </trkpt>
      <trkpt lat="42.31302" lon="2.63151">
        <ele>1328.274</ele>
        <time>2018-01-10T09:58:19Z</time>
      </trkpt>
      <trkpt lat="42.31306" lon="2.63157">
        <ele>1325.833</ele>
        <time>2018-01-10T09:58:25Z</time>
      </trkpt>
      <trkpt lat="42.31309" lon="2.63162">
        <ele>1323.898</ele>
        <time>2018-01-10T09:58:30Z</time>
      </trkpt>
      <trkpt lat="42.3133" lon="2.63172">
        <ele>1320.515</ele>
        <time>2018-01-10T09:58:46Z</time>
      </trkpt>
      <trkpt lat="42.31343" lon="2.63188">
        <ele>1318.526</ele>
        <time>2018-01-10T09:58:59Z</time>
      </trkpt>
      <trkpt lat="42.31352" lon="2.63202">
        <ele>1315.208</ele>
        <time>2018-01-10T09:59:12Z</time>
      </trkpt>
      <trkpt lat="42.31356" lon="2.63207">
        <ele>1313.391</ele>
        <time>2018-01-10T09:59:20Z</time>
      </trkpt>
      <trkpt lat="42.31362" lon="2.63213">
        <ele>1309.45</ele>
        <time>2018-01-10T09:59:29Z</time>
      </trkpt>
      <trkpt lat="42.31368" lon="2.63215">
        <ele>1306.018</ele>
        <time>2018-01-10T09:59:40Z</time>
      </trkpt>
      <trkpt lat="42.3137" lon="2.6322">
        <ele>1305.126</ele>
        <time>2018-01-10T09:59:44Z</time>
      </trkpt>
      <trkpt lat="42.31371" lon="2.63222">
        <ele>1304.172</ele>
        <time>2018-01-10T09:59:46Z</time>
      </trkpt>
      <trkpt lat="42.31381" lon="2.6323">
        <ele>1300.362</ele>
        <time>2018-01-10T09:59:57Z</time>
      </trkpt>
      <trkpt lat="42.31387" lon="2.63238">
        <ele>1296.986</ele>
        <time>2018-01-10T10:00:09Z</time>
      </trkpt>
      <trkpt lat="42.3139" lon="2.63241">
        <ele>1295.035</ele>
        <time>2018-01-10T10:00:17Z</time>
      </trkpt>
      <trkpt lat="42.31396" lon="2.63243">
        <ele>1292.117</ele>
        <time>2018-01-10T10:00:26Z</time>
      </trkpt>
      <trkpt lat="42.31399" lon="2.63245">
        <ele>1290.287</ele>
        <time>2018-01-10T10:00:31Z</time>
      </trkpt>
      <trkpt lat="42.31404" lon="2.63253">
        <ele>1286.815</ele>
        <time>2018-01-10T10:00:39Z</time>
      </trkpt>
      <trkpt lat="42.31408" lon="2.63259">
        <ele>1283.508</ele>
        <time>2018-01-10T10:00:49Z</time>
      </trkpt>
      <trkpt lat="42.3141" lon="2.6326">
        <ele>1281.543</ele>
        <time>2018-01-10T10:00:54Z</time>
      </trkpt>
      <trkpt lat="42.31414" lon="2.63264">
        <ele>1278.272</ele>
        <time>2018-01-10T10:01:03Z</time>
      </trkpt>
      <trkpt lat="42.31419" lon="2.63266">
        <ele>1274.88</ele>
        <time>2018-01-10T10:01:13Z</time>
      </trkpt>
      <trkpt lat="42.31422" lon="2.63269">
        <ele>1272.968</ele>
        <time>2018-01-10T10:01:18Z</time>
      </trkpt>
      <trkpt lat="42.31427" lon="2.63274">
        <ele>1269.534</ele>
        <time>2018-01-10T10:01:25Z</time>
      </trkpt>
      <trkpt lat="42.31433" lon="2.63281">
        <ele>1267.654</ele>
        <time>2018-01-10T10:01:43Z</time>
      </trkpt>
      <trkpt lat="42.31436" lon="2.63286">
        <ele>1264.788</ele>
        <time>2018-01-10T10:01:51Z</time>
      </trkpt>
      <trkpt lat="42.31441" lon="2.63287">
        <ele>1261.397</ele>
        <time>2018-01-10T10:02:02Z</time>
      </trkpt>
      <trkpt lat="42.31443" lon="2.63287">
        <ele>1259.963</ele>
        <time>2018-01-10T10:02:06Z</time>
      </trkpt>
      <trkpt lat="42.31448" lon="2.63281">
        <ele>1257.544</ele>
        <time>2018-01-10T10:02:18Z</time>
      </trkpt>
      <trkpt lat="42.3145" lon="2.63279">
        <ele>1257.518</ele>
        <time>2018-01-10T10:02:23Z</time>
      </trkpt>
      <trkpt lat="42.31457" lon="2.63276">
        <ele>1254.108</ele>
        <time>2018-01-10T10:02:35Z</time>
      </trkpt>
      <trkpt lat="42.31459" lon="2.63276">
        <ele>1253.248</ele>
        <time>2018-01-10T10:02:41Z</time>
      </trkpt>
      <trkpt lat="42.31464" lon="2.63269">
        <ele>1250.867</ele>
        <time>2018-01-10T10:02:54Z</time>
      </trkpt>
      <trkpt lat="42.31468" lon="2.63264">
        <ele>1247.955</ele>
        <time>2018-01-10T10:03:09Z</time>
      </trkpt>
      <trkpt lat="42.3147" lon="2.63269">
        <ele>1245.073</ele>
        <time>2018-01-10T10:03:15Z</time>
      </trkpt>
      <trkpt lat="42.3147" lon="2.63274">
        <ele>1243.649</ele>
        <time>2018-01-10T10:03:20Z</time>
      </trkpt>
      <trkpt lat="42.31472" lon="2.6328">
        <ele>1240.779</ele>
        <time>2018-01-10T10:03:28Z</time>
      </trkpt>
      <trkpt lat="42.31471" lon="2.63287">
        <ele>1238.373</ele>
        <time>2018-01-10T10:03:39Z</time>
      </trkpt>
      <trkpt lat="42.31476" lon="2.6329">
        <ele>1234.932</ele>
        <time>2018-01-10T10:03:48Z</time>
      </trkpt>
      <trkpt lat="42.31479" lon="2.63296">
        <ele>1232.064</ele>
        <time>2018-01-10T10:03:57Z</time>
      </trkpt>
      <trkpt lat="42.31482" lon="2.633">
        <ele>1229.106</ele>
        <time>2018-01-10T10:04:06Z</time>
      </trkpt>
      <trkpt lat="42.31485" lon="2.63305">
        <ele>1226.716</ele>
        <time>2018-01-10T10:04:12Z</time>
      </trkpt>
      <trkpt lat="42.31486" lon="2.63305">
        <ele>1225.808</ele>
        <time>2018-01-10T10:04:26Z</time>
      </trkpt>
      <trkpt lat="42.31488" lon="2.63304">
        <ele>1225.378</ele>
        <time>2018-01-10T10:04:57Z</time>
      </trkpt>
      <trkpt lat="42.31496" lon="2.63303">
        <ele>1222.477</ele>
        <time>2018-01-10T10:05:08Z</time>
      </trkpt>
      <trkpt lat="42.315" lon="2.63301">
        <ele>1220.015</ele>
        <time>2018-01-10T10:05:15Z</time>
      </trkpt>
      <trkpt lat="42.31506" lon="2.63312">
        <ele>1215.723</ele>
        <time>2018-01-10T10:05:24Z</time>
      </trkpt>
      <trkpt lat="42.31511" lon="2.63318">
        <ele>1212.329</ele>
        <time>2018-01-10T10:05:35Z</time>
      </trkpt>
      <trkpt lat="42.31515" lon="2.63321">
        <ele>1210.929</ele>
        <time>2018-01-10T10:05:39Z</time>
      </trkpt>
      <trkpt lat="42.31516" lon="2.63321">
        <ele>1209.973</ele>
        <time>2018-01-10T10:05:40Z</time>
      </trkpt>
      <trkpt lat="42.3152" lon="2.63321">
        <ele>1207.582</ele>
        <time>2018-01-10T10:05:47Z</time>
      </trkpt>
      <trkpt lat="42.31524" lon="2.63326">
        <ele>1204.125</ele>
        <time>2018-01-10T10:05:54Z</time>
      </trkpt>
      <trkpt lat="42.3153" lon="2.63331">
        <ele>1201.726</ele>
        <time>2018-01-10T10:06:00Z</time>
      </trkpt>
      <trkpt lat="42.31534" lon="2.63335">
        <ele>1200.808</ele>
        <time>2018-01-10T10:06:03Z</time>
      </trkpt>
      <trkpt lat="42.31539" lon="2.63341">
        <ele>1197.408</ele>
        <time>2018-01-10T10:06:12Z</time>
      </trkpt>
      <trkpt lat="42.31545" lon="2.63346">
        <ele>1195.044</ele>
        <time>2018-01-10T10:06:19Z</time>
      </trkpt>
      <trkpt lat="42.31555" lon="2.63354">
        <ele>1191.613</ele>
        <time>2018-01-10T10:06:27Z</time>
      </trkpt>
      <trkpt lat="42.31559" lon="2.63358">
        <ele>1190.221</ele>
        <time>2018-01-10T10:06:30Z</time>
      </trkpt>
      <trkpt lat="42.31563" lon="2.6336">
        <ele>1189.719</ele>
        <time>2018-01-10T10:06:32Z</time>
      </trkpt>
      <trkpt lat="42.31572" lon="2.63366">
        <ele>1188.365</ele>
        <time>2018-01-10T10:06:37Z</time>
      </trkpt>
      <trkpt lat="42.31593" lon="2.63368">
        <ele>1184.915</ele>
        <time>2018-01-10T10:06:50Z</time>
      </trkpt>
      <trkpt lat="42.31604" lon="2.6336">
        <ele>1184.069</ele>
        <time>2018-01-10T10:07:05Z</time>
      </trkpt>
      <trkpt lat="42.31606" lon="2.6336">
        <ele>1183.578</ele>
        <time>2018-01-10T10:07:33Z</time>
      </trkpt>
      <trkpt lat="42.31605" lon="2.63358">
        <ele>1183.585</ele>
        <time>2018-01-10T10:08:03Z</time>
      </trkpt>
      <trkpt lat="42.31611" lon="2.63335">
        <ele>1182.089</ele>
        <time>2018-01-10T10:08:16Z</time>
      </trkpt>
      <trkpt lat="42.31612" lon="2.63317">
        <ele>1180.617</ele>
        <time>2018-01-10T10:08:32Z</time>
      </trkpt>
      <trkpt lat="42.31611" lon="2.63312">
        <ele>1180.608</ele>
        <time>2018-01-10T10:08:55Z</time>
      </trkpt>
      <trkpt lat="42.31608" lon="2.63309">
        <ele>1180.12</ele>
        <time>2018-01-10T10:09:15Z</time>
      </trkpt>
      <trkpt lat="42.31604" lon="2.6329">
        <ele>1179.119</ele>
        <time>2018-01-10T10:09:26Z</time>
      </trkpt>
      <trkpt lat="42.31601" lon="2.63273">
        <ele>1177.717</ele>
        <time>2018-01-10T10:09:36Z</time>
      </trkpt>
      <trkpt lat="42.31599" lon="2.63253">
        <ele>1174.815</ele>
        <time>2018-01-10T10:09:46Z</time>
      </trkpt>
      <trkpt lat="42.31594" lon="2.63229">
        <ele>1172.421</ele>
        <time>2018-01-10T10:09:59Z</time>
      </trkpt>
      <trkpt lat="42.31592" lon="2.63224">
        <ele>1172.451</ele>
        <time>2018-01-10T10:10:02Z</time>
      </trkpt>
      <trkpt lat="42.31586" lon="2.63211">
        <ele>1171.035</ele>
        <time>2018-01-10T10:10:12Z</time>
      </trkpt>
      <trkpt lat="42.31581" lon="2.63202">
        <ele>1170.524</ele>
        <time>2018-01-10T10:10:16Z</time>
      </trkpt>
      <trkpt lat="42.3158" lon="2.63199">
        <ele>1170.542</ele>
        <time>2018-01-10T10:10:18Z</time>
      </trkpt>
      <trkpt lat="42.31577" lon="2.63191">
        <ele>1170.022</ele>
        <time>2018-01-10T10:10:25Z</time>
      </trkpt>
      <trkpt lat="42.31571" lon="2.63175">
        <ele>1168.114</ele>
        <time>2018-01-10T10:10:32Z</time>
      </trkpt>
      <trkpt lat="42.31569" lon="2.63151">
        <ele>1165.708</ele>
        <time>2018-01-10T10:10:41Z</time>
      </trkpt>
      <trkpt lat="42.31568" lon="2.63145">
        <ele>1165.236</ele>
        <time>2018-01-10T10:10:43Z</time>
      </trkpt>
      <trkpt lat="42.31568" lon="2.63112">
        <ele>1164.745</ele>
        <time>2018-01-10T10:10:57Z</time>
      </trkpt>
      <trkpt lat="42.31568" lon="2.6311">
        <ele>1164.783</ele>
        <time>2018-01-10T10:10:58Z</time>
      </trkpt>
      <trkpt lat="42.31568" lon="2.63102">
        <ele>1163.871</ele>
        <time>2018-01-10T10:11:03Z</time>
      </trkpt>
      <trkpt lat="42.31562" lon="2.63087">
        <ele>1163.397</ele>
        <time>2018-01-10T10:11:10Z</time>
      </trkpt>
      <trkpt lat="42.31557" lon="2.63079">
        <ele>1162.327</ele>
        <time>2018-01-10T10:11:15Z</time>
      </trkpt>
      <trkpt lat="42.31551" lon="2.63067">
        <ele>1161.871</ele>
        <time>2018-01-10T10:11:24Z</time>
      </trkpt>
      <trkpt lat="42.31542" lon="2.63051">
        <ele>1161.48</ele>
        <time>2018-01-10T10:11:32Z</time>
      </trkpt>
      <trkpt lat="42.31535" lon="2.63035">
        <ele>1160.477</ele>
        <time>2018-01-10T10:11:38Z</time>
      </trkpt>
      <trkpt lat="42.31533" lon="2.63012">
        <ele>1158.561</ele>
        <time>2018-01-10T10:11:50Z</time>
      </trkpt>
      <trkpt lat="42.31534" lon="2.63007">
        <ele>1158.027</ele>
        <time>2018-01-10T10:11:53Z</time>
      </trkpt>
      <trkpt lat="42.31535" lon="2.62999">
        <ele>1158.008</ele>
        <time>2018-01-10T10:11:56Z</time>
      </trkpt>
      <trkpt lat="42.31534" lon="2.62985">
        <ele>1157.059</ele>
        <time>2018-01-10T10:12:03Z</time>
      </trkpt>
      <trkpt lat="42.31537" lon="2.62957">
        <ele>1156.698</ele>
        <time>2018-01-10T10:12:16Z</time>
      </trkpt>
      <trkpt lat="42.31537" lon="2.62956">
        <ele>1156.666</ele>
        <time>2018-01-10T10:12:17Z</time>
      </trkpt>
      <trkpt lat="42.31528" lon="2.62922">
        <ele>1156.114</ele>
        <time>2018-01-10T10:12:32Z</time>
      </trkpt>
      <trkpt lat="42.31523" lon="2.62913">
        <ele>1156.11</ele>
        <time>2018-01-10T10:12:38Z</time>
      </trkpt>
      <trkpt lat="42.31508" lon="2.62891">
        <ele>1154.61</ele>
        <time>2018-01-10T10:12:52Z</time>
      </trkpt>
      <trkpt lat="42.31499" lon="2.62886">
        <ele>1154.224</ele>
        <time>2018-01-10T10:13:01Z</time>
      </trkpt>
      <trkpt lat="42.31484" lon="2.62874">
        <ele>1155.123</ele>
        <time>2018-01-10T10:13:13Z</time>
      </trkpt>
      <trkpt lat="42.31475" lon="2.62858">
        <ele>1153.788</ele>
        <time>2018-01-10T10:13:21Z</time>
      </trkpt>
      <trkpt lat="42.31458" lon="2.62834">
        <ele>1153.224</ele>
        <time>2018-01-10T10:13:38Z</time>
      </trkpt>
      <trkpt lat="42.31445" lon="2.62832">
        <ele>1151.826</ele>
        <time>2018-01-10T10:13:51Z</time>
      </trkpt>
      <trkpt lat="42.31426" lon="2.62823">
        <ele>1151.308</ele>
        <time>2018-01-10T10:14:05Z</time>
      </trkpt>
      <trkpt lat="42.31416" lon="2.6281">
        <ele>1151.38</ele>
        <time>2018-01-10T10:14:18Z</time>
      </trkpt>
      <trkpt lat="42.31417" lon="2.62806">
        <ele>1148.489</ele>
        <time>2018-01-10T10:14:31Z</time>
      </trkpt>
      <trkpt lat="42.31419" lon="2.62805">
        <ele>1147.417</ele>
        <time>2018-01-10T10:14:33Z</time>
      </trkpt>
      <trkpt lat="42.31422" lon="2.62804">
        <ele>1145.025</ele>
        <time>2018-01-10T10:14:42Z</time>
      </trkpt>
      <trkpt lat="42.31419" lon="2.6279">
        <ele>1142.111</ele>
        <time>2018-01-10T10:14:57Z</time>
      </trkpt>
      <trkpt lat="42.3142" lon="2.62782">
        <ele>1139.331</ele>
        <time>2018-01-10T10:15:09Z</time>
      </trkpt>
      <trkpt lat="42.31424" lon="2.62782">
        <ele>1135.955</ele>
        <time>2018-01-10T10:15:19Z</time>
      </trkpt>
      <trkpt lat="42.31425" lon="2.62777">
        <ele>1134.954</ele>
        <time>2018-01-10T10:15:26Z</time>
      </trkpt>
      <trkpt lat="42.31422" lon="2.6277">
        <ele>1132.015</ele>
        <time>2018-01-10T10:15:34Z</time>
      </trkpt>
      <trkpt lat="42.31413" lon="2.62758">
        <ele>1128.765</ele>
        <time>2018-01-10T10:15:47Z</time>
      </trkpt>
      <trkpt lat="42.31407" lon="2.62749">
        <ele>1127.211</ele>
        <time>2018-01-10T10:15:55Z</time>
      </trkpt>
      <trkpt lat="42.31399" lon="2.62738">
        <ele>1126.808</ele>
        <time>2018-01-10T10:16:10Z</time>
      </trkpt>
      <trkpt lat="42.31399" lon="2.62726">
        <ele>1124.843</ele>
        <time>2018-01-10T10:16:22Z</time>
      </trkpt>
      <trkpt lat="42.31398" lon="2.62722">
        <ele>1124.492</ele>
        <time>2018-01-10T10:16:25Z</time>
      </trkpt>
      <trkpt lat="42.31397" lon="2.62716">
        <ele>1122.45</ele>
        <time>2018-01-10T10:16:33Z</time>
      </trkpt>
      <trkpt lat="42.31396" lon="2.6271">
        <ele>1120.098</ele>
        <time>2018-01-10T10:16:43Z</time>
      </trkpt>
      <trkpt lat="42.31396" lon="2.62705">
        <ele>1119.544</ele>
        <time>2018-01-10T10:16:47Z</time>
      </trkpt>
      <trkpt lat="42.31395" lon="2.62698">
        <ele>1119.194</ele>
        <time>2018-01-10T10:16:52Z</time>
      </trkpt>
      <trkpt lat="42.31395" lon="2.62681">
        <ele>1115.258</ele>
        <time>2018-01-10T10:17:02Z</time>
      </trkpt>
      <trkpt lat="42.31395" lon="2.62668">
        <ele>1113.817</ele>
        <time>2018-01-10T10:17:17Z</time>
      </trkpt>
      <trkpt lat="42.31397" lon="2.62672">
        <ele>1111.427</ele>
        <time>2018-01-10T10:17:32Z</time>
      </trkpt>
      <trkpt lat="42.31399" lon="2.62678">
        <ele>1109.968</ele>
        <time>2018-01-10T10:17:48Z</time>
      </trkpt>
      <trkpt lat="42.31406" lon="2.62685">
        <ele>1108.014</ele>
        <time>2018-01-10T10:18:04Z</time>
      </trkpt>
      <trkpt lat="42.31409" lon="2.62678">
        <ele>1106.108</ele>
        <time>2018-01-10T10:18:19Z</time>
      </trkpt>
      <trkpt lat="42.31407" lon="2.62669">
        <ele>1103.254</ele>
        <time>2018-01-10T10:18:32Z</time>
      </trkpt>
      <trkpt lat="42.31403" lon="2.62664">
        <ele>1100.373</ele>
        <time>2018-01-10T10:18:46Z</time>
      </trkpt>
      <trkpt lat="42.31405" lon="2.62666">
        <ele>1097.041</ele>
        <time>2018-01-10T10:18:54Z</time>
      </trkpt>
      <trkpt lat="42.31406" lon="2.6266">
        <ele>1094.149</ele>
        <time>2018-01-10T10:19:04Z</time>
      </trkpt>
      <trkpt lat="42.31409" lon="2.62651">
        <ele>1091.295</ele>
        <time>2018-01-10T10:19:15Z</time>
      </trkpt>
      <trkpt lat="42.31411" lon="2.62643">
        <ele>1087.865</ele>
        <time>2018-01-10T10:19:26Z</time>
      </trkpt>
      <trkpt lat="42.31415" lon="2.62636">
        <ele>1085.949</ele>
        <time>2018-01-10T10:19:42Z</time>
      </trkpt>
      <trkpt lat="42.31421" lon="2.62628">
        <ele>1082.578</ele>
        <time>2018-01-10T10:19:49Z</time>
      </trkpt>
      <trkpt lat="42.31423" lon="2.62616">
        <ele>1079.263</ele>
        <time>2018-01-10T10:20:02Z</time>
      </trkpt>
      <trkpt lat="42.31422" lon="2.62609">
        <ele>1075.844</ele>
        <time>2018-01-10T10:20:12Z</time>
      </trkpt>
      <trkpt lat="42.31423" lon="2.62612">
        <ele>1074.818</ele>
        <time>2018-01-10T10:20:32Z</time>
      </trkpt>
      <trkpt lat="42.31422" lon="2.62609">
        <ele>1074.808</ele>
        <time>2018-01-10T10:20:59Z</time>
      </trkpt>
      <trkpt lat="42.31427" lon="2.62604">
        <ele>1072.028</ele>
        <time>2018-01-10T10:21:13Z</time>
      </trkpt>
      <trkpt lat="42.31427" lon="2.626">
        <ele>1070.087</ele>
        <time>2018-01-10T10:21:29Z</time>
      </trkpt>
      <trkpt lat="42.31428" lon="2.62592">
        <ele>1066.725</ele>
        <time>2018-01-10T10:21:41Z</time>
      </trkpt>
      <trkpt lat="42.3142" lon="2.62579">
        <ele>1063.833</ele>
        <time>2018-01-10T10:21:58Z</time>
      </trkpt>
      <trkpt lat="42.31413" lon="2.62569">
        <ele>1061.919</ele>
        <time>2018-01-10T10:22:14Z</time>
      </trkpt>
      <trkpt lat="42.31408" lon="2.62558">
        <ele>1061.929</ele>
        <time>2018-01-10T10:22:44Z</time>
      </trkpt>
      <trkpt lat="42.31407" lon="2.62546">
        <ele>1059.033</ele>
        <time>2018-01-10T10:22:57Z</time>
      </trkpt>
      <trkpt lat="42.31405" lon="2.62537">
        <ele>1057.182</ele>
        <time>2018-01-10T10:23:10Z</time>
      </trkpt>
      <trkpt lat="42.31397" lon="2.62525">
        <ele>1058.548</ele>
        <time>2018-01-10T10:23:25Z</time>
      </trkpt>
      <trkpt lat="42.31389" lon="2.62512">
        <ele>1060.461</ele>
        <time>2018-01-10T10:23:38Z</time>
      </trkpt>
      <trkpt lat="42.31386" lon="2.62489">
        <ele>1062.817</ele>
        <time>2018-01-10T10:23:52Z</time>
      </trkpt>
      <trkpt lat="42.31382" lon="2.62467">
        <ele>1063.808</ele>
        <time>2018-01-10T10:24:07Z</time>
      </trkpt>
      <trkpt lat="42.3138" lon="2.62451">
        <ele>1062.336</ele>
        <time>2018-01-10T10:24:13Z</time>
      </trkpt>
      <trkpt lat="42.31376" lon="2.62436">
        <ele>1059.955</ele>
        <time>2018-01-10T10:24:25Z</time>
      </trkpt>
      <trkpt lat="42.31373" lon="2.62423">
        <ele>1056.623</ele>
        <time>2018-01-10T10:24:34Z</time>
      </trkpt>
      <trkpt lat="42.31369" lon="2.62409">
        <ele>1053.791</ele>
        <time>2018-01-10T10:24:45Z</time>
      </trkpt>
      <trkpt lat="42.31367" lon="2.62406">
        <ele>1053.787</ele>
        <time>2018-01-10T10:24:46Z</time>
      </trkpt>
      <trkpt lat="42.31365" lon="2.62396">
        <ele>1051.847</ele>
        <time>2018-01-10T10:24:52Z</time>
      </trkpt>
      <trkpt lat="42.31363" lon="2.62373">
        <ele>1049.431</ele>
        <time>2018-01-10T10:25:05Z</time>
      </trkpt>
      <trkpt lat="42.31362" lon="2.62365">
        <ele>1047.96</ele>
        <time>2018-01-10T10:25:12Z</time>
      </trkpt>
      <trkpt lat="42.31358" lon="2.6235">
        <ele>1046.037</ele>
        <time>2018-01-10T10:25:23Z</time>
      </trkpt>
      <trkpt lat="42.31354" lon="2.62332">
        <ele>1045.049</ele>
        <time>2018-01-10T10:25:37Z</time>
      </trkpt>
      <trkpt lat="42.31351" lon="2.62313">
        <ele>1043.613</ele>
        <time>2018-01-10T10:25:49Z</time>
      </trkpt>
      <trkpt lat="42.31348" lon="2.62301">
        <ele>1041.708</ele>
        <time>2018-01-10T10:26:00Z</time>
      </trkpt>
      <trkpt lat="42.31349" lon="2.62291">
        <ele>1039.385</ele>
        <time>2018-01-10T10:26:09Z</time>
      </trkpt>
      <trkpt lat="42.31351" lon="2.62255">
        <ele>1037.474</ele>
        <time>2018-01-10T10:26:22Z</time>
      </trkpt>
      <trkpt lat="42.31339" lon="2.62245">
        <ele>1036.942</ele>
        <time>2018-01-10T10:26:36Z</time>
      </trkpt>
      <trkpt lat="42.31333" lon="2.62243">
        <ele>1034.03</ele>
        <time>2018-01-10T10:26:45Z</time>
      </trkpt>
      <trkpt lat="42.31327" lon="2.6224">
        <ele>1030.686</ele>
        <time>2018-01-10T10:26:52Z</time>
      </trkpt>
      <trkpt lat="42.31319" lon="2.6224">
        <ele>1027.356</ele>
        <time>2018-01-10T10:27:01Z</time>
      </trkpt>
      <trkpt lat="42.31311" lon="2.6224">
        <ele>1023.94</ele>
        <time>2018-01-10T10:27:08Z</time>
      </trkpt>
      <trkpt lat="42.31306" lon="2.62241">
        <ele>1022.959</ele>
        <time>2018-01-10T10:27:24Z</time>
      </trkpt>
      <trkpt lat="42.31299" lon="2.62241">
        <ele>1019.672</ele>
        <time>2018-01-10T10:27:36Z</time>
      </trkpt>
      <trkpt lat="42.31285" lon="2.62244">
        <ele>1016.213</ele>
        <time>2018-01-10T10:27:46Z</time>
      </trkpt>
      <trkpt lat="42.3127" lon="2.6224">
        <ele>1013.314</ele>
        <time>2018-01-10T10:27:59Z</time>
      </trkpt>
      <trkpt lat="42.31268" lon="2.62234">
        <ele>1012.408</ele>
        <time>2018-01-10T10:28:25Z</time>
      </trkpt>
      <trkpt lat="42.31261" lon="2.62235">
        <ele>1009.089</ele>
        <time>2018-01-10T10:28:35Z</time>
      </trkpt>
      <trkpt lat="42.31249" lon="2.62226">
        <ele>1006.148</ele>
        <time>2018-01-10T10:28:47Z</time>
      </trkpt>
      <trkpt lat="42.31248" lon="2.62216">
        <ele>1002.776</ele>
        <time>2018-01-10T10:28:58Z</time>
      </trkpt>
      <trkpt lat="42.31245" lon="2.62205">
        <ele>999.484</ele>
        <time>2018-01-10T10:29:08Z</time>
      </trkpt>
      <trkpt lat="42.3124" lon="2.62199">
        <ele>996.09</ele>
        <time>2018-01-10T10:29:19Z</time>
      </trkpt>
      <trkpt lat="42.31228" lon="2.62191">
        <ele>993.16</ele>
        <time>2018-01-10T10:29:33Z</time>
      </trkpt>
      <trkpt lat="42.31222" lon="2.6218">
        <ele>990.384</ele>
        <time>2018-01-10T10:29:42Z</time>
      </trkpt>
      <trkpt lat="42.31216" lon="2.62169">
        <ele>986.453</ele>
        <time>2018-01-10T10:29:52Z</time>
      </trkpt>
      <trkpt lat="42.31209" lon="2.62161">
        <ele>983.592</ele>
        <time>2018-01-10T10:30:01Z</time>
      </trkpt>
      <trkpt lat="42.31207" lon="2.62159">
        <ele>982.673</ele>
        <time>2018-01-10T10:30:03Z</time>
      </trkpt>
      <trkpt lat="42.31201" lon="2.62155">
        <ele>979.72</ele>
        <time>2018-01-10T10:30:11Z</time>
      </trkpt>
      <trkpt lat="42.31196" lon="2.6215">
        <ele>977.808</ele>
        <time>2018-01-10T10:30:22Z</time>
      </trkpt>
      <trkpt lat="42.31191" lon="2.62146">
        <ele>976.351</ele>
        <time>2018-01-10T10:30:41Z</time>
      </trkpt>
      <trkpt lat="42.31189" lon="2.6214">
        <ele>973.46</ele>
        <time>2018-01-10T10:30:49Z</time>
      </trkpt>
      <trkpt lat="42.31184" lon="2.62127">
        <ele>969.668</ele>
        <time>2018-01-10T10:30:57Z</time>
      </trkpt>
      <trkpt lat="42.31178" lon="2.6211">
        <ele>966.796</ele>
        <time>2018-01-10T10:31:08Z</time>
      </trkpt>
      <trkpt lat="42.31175" lon="2.621">
        <ele>964.332</ele>
        <time>2018-01-10T10:31:15Z</time>
      </trkpt>
      <trkpt lat="42.31173" lon="2.62086">
        <ele>961.422</ele>
        <time>2018-01-10T10:31:25Z</time>
      </trkpt>
      <trkpt lat="42.31168" lon="2.62075">
        <ele>958.056</ele>
        <time>2018-01-10T10:31:35Z</time>
      </trkpt>
      <trkpt lat="42.31163" lon="2.6206">
        <ele>954.745</ele>
        <time>2018-01-10T10:31:47Z</time>
      </trkpt>
      <trkpt lat="42.31158" lon="2.62048">
        <ele>952.331</ele>
        <time>2018-01-10T10:31:58Z</time>
      </trkpt>
      <trkpt lat="42.31153" lon="2.62041">
        <ele>949.461</ele>
        <time>2018-01-10T10:32:05Z</time>
      </trkpt>
      <trkpt lat="42.31144" lon="2.62027">
        <ele>946.007</ele>
        <time>2018-01-10T10:32:18Z</time>
      </trkpt>
      <trkpt lat="42.31136" lon="2.62011">
        <ele>946.008</ele>
        <time>2018-01-10T10:32:33Z</time>
      </trkpt>
      <trkpt lat="42.3113" lon="2.62">
        <ele>944.685</ele>
        <time>2018-01-10T10:32:47Z</time>
      </trkpt>
      <trkpt lat="42.31129" lon="2.61998">
        <ele>944.194</ele>
        <time>2018-01-10T10:32:49Z</time>
      </trkpt>
      <trkpt lat="42.31123" lon="2.61983">
        <ele>942.212</ele>
        <time>2018-01-10T10:33:04Z</time>
      </trkpt>
      <trkpt lat="42.31121" lon="2.61967">
        <ele>940.34</ele>
        <time>2018-01-10T10:33:20Z</time>
      </trkpt>
      <trkpt lat="42.31118" lon="2.61955">
        <ele>936.946</ele>
        <time>2018-01-10T10:33:30Z</time>
      </trkpt>
      <trkpt lat="42.31117" lon="2.61948">
        <ele>937.446</ele>
        <time>2018-01-10T10:33:49Z</time>
      </trkpt>
      <trkpt lat="42.31116" lon="2.61948">
        <ele>936.43</ele>
        <time>2018-01-10T10:34:05Z</time>
      </trkpt>
      <trkpt lat="42.31115" lon="2.61946">
        <ele>936.439</ele>
        <time>2018-01-10T10:34:20Z</time>
      </trkpt>
      <trkpt lat="42.31111" lon="2.6193">
        <ele>934.019</ele>
        <time>2018-01-10T10:34:31Z</time>
      </trkpt>
      <trkpt lat="42.31107" lon="2.61912">
        <ele>930.609</ele>
        <time>2018-01-10T10:34:42Z</time>
      </trkpt>
      <trkpt lat="42.31096" lon="2.61892">
        <ele>927.319</ele>
        <time>2018-01-10T10:34:54Z</time>
      </trkpt>
      <trkpt lat="42.31087" lon="2.61876">
        <ele>924.408</ele>
        <time>2018-01-10T10:35:06Z</time>
      </trkpt>
      <trkpt lat="42.31075" lon="2.61859">
        <ele>921.013</ele>
        <time>2018-01-10T10:35:19Z</time>
      </trkpt>
      <trkpt lat="42.31069" lon="2.61851">
        <ele>920.152</ele>
        <time>2018-01-10T10:35:24Z</time>
      </trkpt>
      <trkpt lat="42.31065" lon="2.61845">
        <ele>919.19</ele>
        <time>2018-01-10T10:35:29Z</time>
      </trkpt>
      <trkpt lat="42.31056" lon="2.61833">
        <ele>917.248</ele>
        <time>2018-01-10T10:35:39Z</time>
      </trkpt>
      <trkpt lat="42.31049" lon="2.61827">
        <ele>916.264</ele>
        <time>2018-01-10T10:35:44Z</time>
      </trkpt>
      <trkpt lat="42.31034" lon="2.61813">
        <ele>915.314</ele>
        <time>2018-01-10T10:35:57Z</time>
      </trkpt>
      <trkpt lat="42.31022" lon="2.61804">
        <ele>914.858</ele>
        <time>2018-01-10T10:36:07Z</time>
      </trkpt>
      <trkpt lat="42.3102" lon="2.61801">
        <ele>913.877</ele>
        <time>2018-01-10T10:36:10Z</time>
      </trkpt>
      <trkpt lat="42.31011" lon="2.6179">
        <ele>911.462</ele>
        <time>2018-01-10T10:36:21Z</time>
      </trkpt>
      <trkpt lat="42.31003" lon="2.61775">
        <ele>908.583</ele>
        <time>2018-01-10T10:36:32Z</time>
      </trkpt>
      <trkpt lat="42.31001" lon="2.61773">
        <ele>907.611</ele>
        <time>2018-01-10T10:36:34Z</time>
      </trkpt>
      <trkpt lat="42.30996" lon="2.6176">
        <ele>904.708</ele>
        <time>2018-01-10T10:36:44Z</time>
      </trkpt>
      <trkpt lat="42.30994" lon="2.61751">
        <ele>903.338</ele>
        <time>2018-01-10T10:36:50Z</time>
      </trkpt>
      <trkpt lat="42.30987" lon="2.6173">
        <ele>900.487</ele>
        <time>2018-01-10T10:37:01Z</time>
      </trkpt>
      <trkpt lat="42.30972" lon="2.61713">
        <ele>898.075</ele>
        <time>2018-01-10T10:37:13Z</time>
      </trkpt>
      <trkpt lat="42.30963" lon="2.61701">
        <ele>894.653</ele>
        <time>2018-01-10T10:37:25Z</time>
      </trkpt>
      <trkpt lat="42.30959" lon="2.61689">
        <ele>891.749</ele>
        <time>2018-01-10T10:37:35Z</time>
      </trkpt>
      <trkpt lat="42.30959" lon="2.61689">
        <ele>891.299</ele>
        <time>2018-01-10T10:37:36Z</time>
      </trkpt>
      <trkpt lat="42.30954" lon="2.61683">
        <ele>890.813</ele>
        <time>2018-01-10T10:37:40Z</time>
      </trkpt>
      <trkpt lat="42.30952" lon="2.61679">
        <ele>890.372</ele>
        <time>2018-01-10T10:37:42Z</time>
      </trkpt>
      <trkpt lat="42.30937" lon="2.61657">
        <ele>887.435</ele>
        <time>2018-01-10T10:37:54Z</time>
      </trkpt>
      <trkpt lat="42.3092" lon="2.61653">
        <ele>885.086</ele>
        <time>2018-01-10T10:38:05Z</time>
      </trkpt>
      <trkpt lat="42.30907" lon="2.6165">
        <ele>882.114</ele>
        <time>2018-01-10T10:38:16Z</time>
      </trkpt>
      <trkpt lat="42.30898" lon="2.61652">
        <ele>880.208</ele>
        <time>2018-01-10T10:38:29Z</time>
      </trkpt>
      <trkpt lat="42.30897" lon="2.61652">
        <ele>880.245</ele>
        <time>2018-01-10T10:38:30Z</time>
      </trkpt>
      <trkpt lat="42.3088" lon="2.61653">
        <ele>875.924</ele>
        <time>2018-01-10T10:38:42Z</time>
      </trkpt>
      <trkpt lat="42.30871" lon="2.61654">
        <ele>873.062</ele>
        <time>2018-01-10T10:38:54Z</time>
      </trkpt>
      <trkpt lat="42.30872" lon="2.6165">
        <ele>873.09</ele>
        <time>2018-01-10T10:39:02Z</time>
      </trkpt>
      <trkpt lat="42.30884" lon="2.6163">
        <ele>871.596</ele>
        <time>2018-01-10T10:39:16Z</time>
      </trkpt>
      <trkpt lat="42.30886" lon="2.61627">
        <ele>871.076</ele>
        <time>2018-01-10T10:39:18Z</time>
      </trkpt>
      <trkpt lat="42.30895" lon="2.61621">
        <ele>870.15</ele>
        <time>2018-01-10T10:39:32Z</time>
      </trkpt>
      <trkpt lat="42.30895" lon="2.6162">
        <ele>870.199</ele>
        <time>2018-01-10T10:39:38Z</time>
      </trkpt>
      <trkpt lat="42.30893" lon="2.61617">
        <ele>868.614</ele>
        <time>2018-01-10T10:39:42Z</time>
      </trkpt>
      <trkpt lat="42.30889" lon="2.61614">
        <ele>866.254</ele>
        <time>2018-01-10T10:39:55Z</time>
      </trkpt>
      <trkpt lat="42.30883" lon="2.61613">
        <ele>864.309</ele>
        <time>2018-01-10T10:40:11Z</time>
      </trkpt>
      <trkpt lat="42.30874" lon="2.61613">
        <ele>861.008</ele>
        <time>2018-01-10T10:40:19Z</time>
      </trkpt>
      <trkpt lat="42.30863" lon="2.61611">
        <ele>858.123</ele>
        <time>2018-01-10T10:40:30Z</time>
      </trkpt>
      <trkpt lat="42.30862" lon="2.61611">
        <ele>857.672</ele>
        <time>2018-01-10T10:40:31Z</time>
      </trkpt>
      <trkpt lat="42.30848" lon="2.61609">
        <ele>853.78</ele>
        <time>2018-01-10T10:40:43Z</time>
      </trkpt>
      <trkpt lat="42.30839" lon="2.61607">
        <ele>849.978</ele>
        <time>2018-01-10T10:40:52Z</time>
      </trkpt>
      <trkpt lat="42.30828" lon="2.61611">
        <ele>847.044</ele>
        <time>2018-01-10T10:41:03Z</time>
      </trkpt>
      <trkpt lat="42.30824" lon="2.61614">
        <ele>843.234</ele>
        <time>2018-01-10T10:41:13Z</time>
      </trkpt>
      <trkpt lat="42.30814" lon="2.61622">
        <ele>839.898</ele>
        <time>2018-01-10T10:41:25Z</time>
      </trkpt>
      <trkpt lat="42.30807" lon="2.61627">
        <ele>836.927</ele>
        <time>2018-01-10T10:41:33Z</time>
      </trkpt>
      <trkpt lat="42.30805" lon="2.61628">
        <ele>836.097</ele>
        <time>2018-01-10T10:41:35Z</time>
      </trkpt>
      <trkpt lat="42.30797" lon="2.61631">
        <ele>833.123</ele>
        <time>2018-01-10T10:41:44Z</time>
      </trkpt>
      <trkpt lat="42.30791" lon="2.61637">
        <ele>830.725</ele>
        <time>2018-01-10T10:41:51Z</time>
      </trkpt>
      <trkpt lat="42.30781" lon="2.61654">
        <ele>828.708</ele>
        <time>2018-01-10T10:42:05Z</time>
      </trkpt>
      <trkpt lat="42.30767" lon="2.6166">
        <ele>825.411</ele>
        <time>2018-01-10T10:42:16Z</time>
      </trkpt>
      <trkpt lat="42.30758" lon="2.61664">
        <ele>824.94</ele>
        <time>2018-01-10T10:42:23Z</time>
      </trkpt>
      <trkpt lat="42.3074" lon="2.6167">
        <ele>823.038</ele>
        <time>2018-01-10T10:42:37Z</time>
      </trkpt>
      <trkpt lat="42.30733" lon="2.61668">
        <ele>819.686</ele>
        <time>2018-01-10T10:42:44Z</time>
      </trkpt>
      <trkpt lat="42.30728" lon="2.61667">
        <ele>818.232</ele>
        <time>2018-01-10T10:42:48Z</time>
      </trkpt>
      <trkpt lat="42.30721" lon="2.61663">
        <ele>815.332</ele>
        <time>2018-01-10T10:42:55Z</time>
      </trkpt>
      <trkpt lat="42.30721" lon="2.6166">
        <ele>811.986</ele>
        <time>2018-01-10T10:43:03Z</time>
      </trkpt>
      <trkpt lat="42.30721" lon="2.61659">
        <ele>811.985</ele>
        <time>2018-01-10T10:43:04Z</time>
      </trkpt>
      <trkpt lat="42.30719" lon="2.61654">
        <ele>809.072</ele>
        <time>2018-01-10T10:43:11Z</time>
      </trkpt>
      <trkpt lat="42.30714" lon="2.61651">
        <ele>805.713</ele>
        <time>2018-01-10T10:43:17Z</time>
      </trkpt>
      <trkpt lat="42.30713" lon="2.6165">
        <ele>805.714</ele>
        <time>2018-01-10T10:43:18Z</time>
      </trkpt>
      <trkpt lat="42.30709" lon="2.61645">
        <ele>802.308</ele>
        <time>2018-01-10T10:43:28Z</time>
      </trkpt>
      <trkpt lat="42.30705" lon="2.61639">
        <ele>799.949</ele>
        <time>2018-01-10T10:43:47Z</time>
      </trkpt>
      <trkpt lat="42.30702" lon="2.61638">
        <ele>799.938</ele>
        <time>2018-01-10T10:44:12Z</time>
      </trkpt>
      <trkpt lat="42.30701" lon="2.61638">
        <ele>799.936</ele>
        <time>2018-01-10T10:44:33Z</time>
      </trkpt>
      <trkpt lat="42.30694" lon="2.61632">
        <ele>796.554</ele>
        <time>2018-01-10T10:44:49Z</time>
      </trkpt>
      <trkpt lat="42.30694" lon="2.61626">
        <ele>793.77</ele>
        <time>2018-01-10T10:45:01Z</time>
      </trkpt>
      <trkpt lat="42.30697" lon="2.61621">
        <ele>790.37</ele>
        <time>2018-01-10T10:45:08Z</time>
      </trkpt>
      <trkpt lat="42.30701" lon="2.61616">
        <ele>786.934</ele>
        <time>2018-01-10T10:45:15Z</time>
      </trkpt>
      <trkpt lat="42.30702" lon="2.61615">
        <ele>786.923</ele>
        <time>2018-01-10T10:45:16Z</time>
      </trkpt>
      <trkpt lat="42.307" lon="2.6161">
        <ele>783.644</ele>
        <time>2018-01-10T10:45:25Z</time>
      </trkpt>
      <trkpt lat="42.30694" lon="2.61607">
        <ele>780.205</ele>
        <time>2018-01-10T10:45:35Z</time>
      </trkpt>
      <trkpt lat="42.30683" lon="2.61598">
        <ele>776.815</ele>
        <time>2018-01-10T10:45:48Z</time>
      </trkpt>
      <trkpt lat="42.30677" lon="2.61593">
        <ele>773.508</ele>
        <time>2018-01-10T10:45:59Z</time>
      </trkpt>
      <trkpt lat="42.30671" lon="2.61581">
        <ele>770.176</ele>
        <time>2018-01-10T10:46:08Z</time>
      </trkpt>
      <trkpt lat="42.30663" lon="2.6157">
        <ele>767.745</ele>
        <time>2018-01-10T10:46:20Z</time>
      </trkpt>
      <trkpt lat="42.30656" lon="2.61558">
        <ele>764.353</ele>
        <time>2018-01-10T10:46:31Z</time>
      </trkpt>
      <trkpt lat="42.30655" lon="2.61553">
        <ele>763.491</ele>
        <time>2018-01-10T10:46:42Z</time>
      </trkpt>
      <trkpt lat="42.30654" lon="2.61552">
        <ele>762.917</ele>
        <time>2018-01-10T10:47:13Z</time>
      </trkpt>
      <trkpt lat="42.30656" lon="2.61548">
        <ele>760.537</ele>
        <time>2018-01-10T10:47:24Z</time>
      </trkpt>
      <trkpt lat="42.3066" lon="2.61543">
        <ele>757.691</ele>
        <time>2018-01-10T10:47:35Z</time>
      </trkpt>
      <trkpt lat="42.30659" lon="2.61534">
        <ele>754.26</ele>
        <time>2018-01-10T10:47:45Z</time>
      </trkpt>
      <trkpt lat="42.30656" lon="2.61523">
        <ele>751.481</ele>
        <time>2018-01-10T10:47:54Z</time>
      </trkpt>
      <trkpt lat="42.30646" lon="2.61518">
        <ele>749.061</ele>
        <time>2018-01-10T10:48:06Z</time>
      </trkpt>
      <trkpt lat="42.3063" lon="2.61511">
        <ele>746.617</ele>
        <time>2018-01-10T10:48:21Z</time>
      </trkpt>
      <trkpt lat="42.30619" lon="2.61502">
        <ele>742.708</ele>
        <time>2018-01-10T10:48:33Z</time>
      </trkpt>
      <trkpt lat="42.30617" lon="2.615">
        <ele>742.24</ele>
        <time>2018-01-10T10:48:35Z</time>
      </trkpt>
      <trkpt lat="42.30608" lon="2.61489">
        <ele>740.319</ele>
        <time>2018-01-10T10:48:52Z</time>
      </trkpt>
      <trkpt lat="42.30603" lon="2.61481">
        <ele>736.587</ele>
        <time>2018-01-10T10:49:02Z</time>
      </trkpt>
      <trkpt lat="42.30597" lon="2.61474">
        <ele>733.145</ele>
        <time>2018-01-10T10:49:14Z</time>
      </trkpt>
      <trkpt lat="42.30599" lon="2.61465">
        <ele>729.761</ele>
        <time>2018-01-10T10:49:25Z</time>
      </trkpt>
      <trkpt lat="42.306" lon="2.61463">
        <ele>728.861</ele>
        <time>2018-01-10T10:49:28Z</time>
      </trkpt>
      <trkpt lat="42.30594" lon="2.61451">
        <ele>725.485</ele>
        <time>2018-01-10T10:49:42Z</time>
      </trkpt>
      <trkpt lat="42.30589" lon="2.61444">
        <ele>723.074</ele>
        <time>2018-01-10T10:49:52Z</time>
      </trkpt>
      <trkpt lat="42.30585" lon="2.61436">
        <ele>719.659</ele>
        <time>2018-01-10T10:50:04Z</time>
      </trkpt>
      <trkpt lat="42.3058" lon="2.61427">
        <ele>716.803</ele>
        <time>2018-01-10T10:50:19Z</time>
      </trkpt>
      <trkpt lat="42.30573" lon="2.61423">
        <ele>716.323</ele>
        <time>2018-01-10T10:50:37Z</time>
      </trkpt>
      <trkpt lat="42.3057" lon="2.61421">
        <ele>712.908</ele>
        <time>2018-01-10T10:50:48Z</time>
      </trkpt>
      <trkpt lat="42.30565" lon="2.61417">
        <ele>709.557</ele>
        <time>2018-01-10T10:51:00Z</time>
      </trkpt>
      <trkpt lat="42.30563" lon="2.61416">
        <ele>708.626</ele>
        <time>2018-01-10T10:51:03Z</time>
      </trkpt>
      <trkpt lat="42.30561" lon="2.61415">
        <ele>707.134</ele>
        <time>2018-01-10T10:51:06Z</time>
      </trkpt>
      <trkpt lat="42.30555" lon="2.6141">
        <ele>703.852</ele>
        <time>2018-01-10T10:51:16Z</time>
      </trkpt>
      <trkpt lat="42.30549" lon="2.61402">
        <ele>700.438</ele>
        <time>2018-01-10T10:51:26Z</time>
      </trkpt>
      <trkpt lat="42.30545" lon="2.61396">
        <ele>697.088</ele>
        <time>2018-01-10T10:51:36Z</time>
      </trkpt>
      <trkpt lat="42.30539" lon="2.61388">
        <ele>694.222</ele>
        <time>2018-01-10T10:51:49Z</time>
      </trkpt>
      <trkpt lat="42.30536" lon="2.61383">
        <ele>690.861</ele>
        <time>2018-01-10T10:51:58Z</time>
      </trkpt>
      <trkpt lat="42.3053" lon="2.61374">
        <ele>688.464</ele>
        <time>2018-01-10T10:52:14Z</time>
      </trkpt>
      <trkpt lat="42.30525" lon="2.61368">
        <ele>685.006</ele>
        <time>2018-01-10T10:52:24Z</time>
      </trkpt>
      <trkpt lat="42.30514" lon="2.61355">
        <ele>681.216</ele>
        <time>2018-01-10T10:52:39Z</time>
      </trkpt>
      <trkpt lat="42.30508" lon="2.61347">
        <ele>677.808</ele>
        <time>2018-01-10T10:52:49Z</time>
      </trkpt>
      <trkpt lat="42.30498" lon="2.61331">
        <ele>675.448</ele>
        <time>2018-01-10T10:53:03Z</time>
      </trkpt>
      <trkpt lat="42.30487" lon="2.61311">
        <ele>674.547</ele>
        <time>2018-01-10T10:53:15Z</time>
      </trkpt>
      <trkpt lat="42.3048" lon="2.61316">
        <ele>672.575</ele>
        <time>2018-01-10T10:53:31Z</time>
      </trkpt>
      <trkpt lat="42.30477" lon="2.61321">
        <ele>669.763</ele>
        <time>2018-01-10T10:53:41Z</time>
      </trkpt>
      <trkpt lat="42.30472" lon="2.61322">
        <ele>666.379</ele>
        <time>2018-01-10T10:53:50Z</time>
      </trkpt>
      <trkpt lat="42.30472" lon="2.61321">
        <ele>665.839</ele>
        <time>2018-01-10T10:53:51Z</time>
      </trkpt>
      <trkpt lat="42.30471" lon="2.61321">
        <ele>662.483</ele>
        <time>2018-01-10T10:54:00Z</time>
      </trkpt>
      <trkpt lat="42.30465" lon="2.61314">
        <ele>659.152</ele>
        <time>2018-01-10T10:54:11Z</time>
      </trkpt>
      <trkpt lat="42.3046" lon="2.61312">
        <ele>656.221</ele>
        <time>2018-01-10T10:54:26Z</time>
      </trkpt>
      <trkpt lat="42.30459" lon="2.6131">
        <ele>654.841</ele>
        <time>2018-01-10T10:54:30Z</time>
      </trkpt>
      <trkpt lat="42.30456" lon="2.61304">
        <ele>651.905</ele>
        <time>2018-01-10T10:54:38Z</time>
      </trkpt>
      <trkpt lat="42.30454" lon="2.61297">
        <ele>648.508</ele>
        <time>2018-01-10T10:54:45Z</time>
      </trkpt>
      <trkpt lat="42.30449" lon="2.61289">
        <ele>645.134</ele>
        <time>2018-01-10T10:54:56Z</time>
      </trkpt>
      <trkpt lat="42.30447" lon="2.61286">
        <ele>643.283</ele>
        <time>2018-01-10T10:55:01Z</time>
      </trkpt>
      <trkpt lat="42.30442" lon="2.61282">
        <ele>639.811</ele>
        <time>2018-01-10T10:55:12Z</time>
      </trkpt>
      <trkpt lat="42.30438" lon="2.61277">
        <ele>637.989</ele>
        <time>2018-01-10T10:55:17Z</time>
      </trkpt>
      <trkpt lat="42.30435" lon="2.61266">
        <ele>634.685</ele>
        <time>2018-01-10T10:55:27Z</time>
      </trkpt>
      <trkpt lat="42.30434" lon="2.61253">
        <ele>631.785</ele>
        <time>2018-01-10T10:55:35Z</time>
      </trkpt>
      <trkpt lat="42.30434" lon="2.61237">
        <ele>628.359</ele>
        <time>2018-01-10T10:55:47Z</time>
      </trkpt>
      <trkpt lat="42.30433" lon="2.61233">
        <ele>625.968</ele>
        <time>2018-01-10T10:55:52Z</time>
      </trkpt>
      <trkpt lat="42.30435" lon="2.61222">
        <ele>622.555</ele>
        <time>2018-01-10T10:56:00Z</time>
      </trkpt>
      <trkpt lat="42.30431" lon="2.6121">
        <ele>619.207</ele>
        <time>2018-01-10T10:56:07Z</time>
      </trkpt>
      <trkpt lat="42.30429" lon="2.61209">
        <ele>619.217</ele>
        <time>2018-01-10T10:56:08Z</time>
      </trkpt>
      <trkpt lat="42.30421" lon="2.612">
        <ele>616.308</ele>
        <time>2018-01-10T10:56:18Z</time>
      </trkpt>
      <trkpt lat="42.3042" lon="2.61197">
        <ele>615.367</ele>
        <time>2018-01-10T10:56:20Z</time>
      </trkpt>
      <trkpt lat="42.30419" lon="2.6119">
        <ele>612.516</ele>
        <time>2018-01-10T10:56:26Z</time>
      </trkpt>
      <trkpt lat="42.30418" lon="2.61173">
        <ele>609.174</ele>
        <time>2018-01-10T10:56:37Z</time>
      </trkpt>
      <trkpt lat="42.30417" lon="2.61163">
        <ele>606.212</ele>
        <time>2018-01-10T10:56:47Z</time>
      </trkpt>
      <trkpt lat="42.30415" lon="2.61153">
        <ele>602.848</ele>
        <time>2018-01-10T10:56:56Z</time>
      </trkpt>
      <trkpt lat="42.30411" lon="2.61138">
        <ele>600.058</ele>
        <time>2018-01-10T10:57:05Z</time>
      </trkpt>
      <trkpt lat="42.30402" lon="2.61141">
        <ele>598.552</ele>
        <time>2018-01-10T10:57:14Z</time>
      </trkpt>
      <trkpt lat="42.30396" lon="2.6114">
        <ele>595.611</ele>
        <time>2018-01-10T10:57:25Z</time>
      </trkpt>
      <trkpt lat="42.30391" lon="2.61144">
        <ele>595.113</ele>
        <time>2018-01-10T10:57:30Z</time>
      </trkpt>
      <trkpt lat="42.30379" lon="2.61159">
        <ele>593.743</ele>
        <time>2018-01-10T10:57:41Z</time>
      </trkpt>
      <trkpt lat="42.30371" lon="2.61165">
        <ele>592.707</ele>
        <time>2018-01-10T10:57:55Z</time>
      </trkpt>
      <trkpt lat="42.30365" lon="2.61166">
        <ele>592.708</ele>
        <time>2018-01-10T10:58:07Z</time>
      </trkpt>
      <trkpt lat="42.30367" lon="2.61161">
        <ele>592.793</ele>
        <time>2018-01-10T10:58:20Z</time>
      </trkpt>
      <trkpt lat="42.30366" lon="2.61166">
        <ele>592.762</ele>
        <time>2018-01-10T10:58:32Z</time>
      </trkpt>
      <trkpt lat="42.30364" lon="2.61169">
        <ele>592.77</ele>
        <time>2018-01-10T10:58:35Z</time>
      </trkpt>
      <trkpt lat="42.30357" lon="2.61169">
        <ele>592.748</ele>
        <time>2018-01-10T10:58:41Z</time>
      </trkpt>
      <trkpt lat="42.30344" lon="2.6118">
        <ele>592.324</ele>
        <time>2018-01-10T10:58:54Z</time>
      </trkpt>
      <trkpt lat="42.30324" lon="2.61204">
        <ele>592.364</ele>
        <time>2018-01-10T10:59:09Z</time>
      </trkpt>
      <trkpt lat="42.30304" lon="2.61222">
        <ele>592.338</ele>
        <time>2018-01-10T10:59:25Z</time>
      </trkpt>
      <trkpt lat="42.30292" lon="2.61236">
        <ele>593.267</ele>
        <time>2018-01-10T10:59:36Z</time>
      </trkpt>
      <trkpt lat="42.30276" lon="2.6125">
        <ele>593.278</ele>
        <time>2018-01-10T10:59:47Z</time>
      </trkpt>
      <trkpt lat="42.30272" lon="2.61254">
        <ele>593.233</ele>
        <time>2018-01-10T10:59:51Z</time>
      </trkpt>
      <trkpt lat="42.3026" lon="2.61252">
        <ele>593.726</ele>
        <time>2018-01-10T11:00:02Z</time>
      </trkpt>
      <trkpt lat="42.30256" lon="2.61233">
        <ele>595.108</ele>
        <time>2018-01-10T11:00:13Z</time>
      </trkpt>
      <trkpt lat="42.30252" lon="2.61228">
        <ele>595.689</ele>
        <time>2018-01-10T11:00:17Z</time>
      </trkpt>
      <trkpt lat="42.30246" lon="2.61221">
        <ele>597.128</ele>
        <time>2018-01-10T11:00:24Z</time>
      </trkpt>
      <trkpt lat="42.3024" lon="2.61218">
        <ele>597.616</ele>
        <time>2018-01-10T11:00:28Z</time>
      </trkpt>
      <trkpt lat="42.30234" lon="2.61212">
        <ele>597.624</ele>
        <time>2018-01-10T11:00:33Z</time>
      </trkpt>
      <trkpt lat="42.3023" lon="2.61195">
        <ele>596.64</ele>
        <time>2018-01-10T11:00:42Z</time>
      </trkpt>
      <trkpt lat="42.3023" lon="2.6119">
        <ele>595.13</ele>
        <time>2018-01-10T11:00:46Z</time>
      </trkpt>
      <trkpt lat="42.30229" lon="2.61193">
        <ele>595.164</ele>
        <time>2018-01-10T11:01:00Z</time>
      </trkpt>
      <trkpt lat="42.30229" lon="2.61192">
        <ele>594.783</ele>
        <time>2018-01-10T11:01:19Z</time>
      </trkpt>
      <trkpt lat="42.30229" lon="2.61189">
        <ele>594.726</ele>
        <time>2018-01-10T11:01:37Z</time>
      </trkpt>
      <trkpt lat="42.30227" lon="2.6119">
        <ele>594.747</ele>
        <time>2018-01-10T11:01:39Z</time>
      </trkpt>
      <trkpt lat="42.30223" lon="2.61188">
        <ele>594.211</ele>
        <time>2018-01-10T11:01:54Z</time>
      </trkpt>
      <trkpt lat="42.30224" lon="2.61182">
        <ele>593.708</ele>
        <time>2018-01-10T11:01:59Z</time>
      </trkpt>
      <trkpt lat="42.3022" lon="2.6117">
        <ele>591.324</ele>
        <time>2018-01-10T11:02:06Z</time>
      </trkpt>
      <trkpt lat="42.30208" lon="2.61167">
        <ele>590.393</ele>
        <time>2018-01-10T11:02:14Z</time>
      </trkpt>
      <trkpt lat="42.30202" lon="2.61161">
        <ele>588.951</ele>
        <time>2018-01-10T11:02:19Z</time>
      </trkpt>
      <trkpt lat="42.30194" lon="2.61159">
        <ele>588.429</ele>
        <time>2018-01-10T11:02:26Z</time>
      </trkpt>
      <trkpt lat="42.30194" lon="2.61147">
        <ele>589.935</ele>
        <time>2018-01-10T11:02:34Z</time>
      </trkpt>
      <trkpt lat="42.30201" lon="2.61138">
        <ele>589.415</ele>
        <time>2018-01-10T11:02:40Z</time>
      </trkpt>
      <trkpt lat="42.30203" lon="2.61135">
        <ele>588.469</ele>
        <time>2018-01-10T11:02:42Z</time>
      </trkpt>
      <trkpt lat="42.30208" lon="2.61126">
        <ele>587.048</ele>
        <time>2018-01-10T11:02:48Z</time>
      </trkpt>
      <trkpt lat="42.30217" lon="2.61107">
        <ele>585.549</ele>
        <time>2018-01-10T11:03:01Z</time>
      </trkpt>
      <trkpt lat="42.30226" lon="2.61116">
        <ele>584.602</ele>
        <time>2018-01-10T11:03:14Z</time>
      </trkpt>
      <trkpt lat="42.30228" lon="2.61118">
        <ele>587.022</ele>
        <time>2018-01-10T11:03:23Z</time>
      </trkpt>
      <trkpt lat="42.30238" lon="2.61108">
        <ele>587.008</ele>
        <time>2018-01-10T11:03:31Z</time>
      </trkpt>
      <trkpt lat="42.30245" lon="2.61089">
        <ele>585.136</ele>
        <time>2018-01-10T11:03:41Z</time>
      </trkpt>
      <trkpt lat="42.30256" lon="2.61059">
        <ele>583.155</ele>
        <time>2018-01-10T11:03:55Z</time>
      </trkpt>
      <trkpt lat="42.30264" lon="2.61047">
        <ele>581.783</ele>
        <time>2018-01-10T11:04:02Z</time>
      </trkpt>
      <trkpt lat="42.30286" lon="2.61028">
        <ele>579.851</ele>
        <time>2018-01-10T11:04:20Z</time>
      </trkpt>
      <trkpt lat="42.3029" lon="2.61028">
        <ele>579.327</ele>
        <time>2018-01-10T11:04:24Z</time>
      </trkpt>
      <trkpt lat="42.303" lon="2.6101">
        <ele>577.877</ele>
        <time>2018-01-10T11:04:37Z</time>
      </trkpt>
      <trkpt lat="42.3031" lon="2.60979">
        <ele>576.951</ele>
        <time>2018-01-10T11:04:52Z</time>
      </trkpt>
      <trkpt lat="42.30326" lon="2.60953">
        <ele>575.09</ele>
        <time>2018-01-10T11:05:09Z</time>
      </trkpt>
      <trkpt lat="42.3033" lon="2.6094">
        <ele>573.075</ele>
        <time>2018-01-10T11:05:24Z</time>
      </trkpt>
      <trkpt lat="42.30346" lon="2.60943">
        <ele>571.628</ele>
        <time>2018-01-10T11:05:39Z</time>
      </trkpt>
      <trkpt lat="42.30354" lon="2.60944">
        <ele>571.62</ele>
        <time>2018-01-10T11:06:00Z</time>
      </trkpt>
      <trkpt lat="42.30362" lon="2.60941">
        <ele>571.608</ele>
        <time>2018-01-10T11:06:16Z</time>
      </trkpt>
      <trkpt lat="42.30362" lon="2.60942">
        <ele>571.649</ele>
        <time>2018-01-10T11:06:50Z</time>
      </trkpt>
      <trkpt lat="42.30367" lon="2.6093">
        <ele>571.128</ele>
        <time>2018-01-10T11:07:03Z</time>
      </trkpt>
      <trkpt lat="42.3038" lon="2.60907">
        <ele>573.526</ele>
        <time>2018-01-10T11:07:20Z</time>
      </trkpt>
      <trkpt lat="42.30383" lon="2.60886">
        <ele>575.964</ele>
        <time>2018-01-10T11:07:33Z</time>
      </trkpt>
      <trkpt lat="42.30381" lon="2.60871">
        <ele>577.82</ele>
        <time>2018-01-10T11:07:44Z</time>
      </trkpt>
      <trkpt lat="42.30378" lon="2.60848">
        <ele>580.23</ele>
        <time>2018-01-10T11:08:00Z</time>
      </trkpt>
      <trkpt lat="42.30377" lon="2.60844">
        <ele>580.264</ele>
        <time>2018-01-10T11:08:02Z</time>
      </trkpt>
      <trkpt lat="42.30376" lon="2.60831">
        <ele>580.733</ele>
        <time>2018-01-10T11:08:15Z</time>
      </trkpt>
      <trkpt lat="42.30376" lon="2.60827">
        <ele>581.218</ele>
        <time>2018-01-10T11:08:30Z</time>
      </trkpt>
      <trkpt lat="42.30375" lon="2.60823">
        <ele>581.298</ele>
        <time>2018-01-10T11:09:03Z</time>
      </trkpt>
      <trkpt lat="42.3038" lon="2.60822">
        <ele>581.217</ele>
        <time>2018-01-10T11:09:19Z</time>
      </trkpt>
      <trkpt lat="42.30374" lon="2.60821">
        <ele>579.808</ele>
        <time>2018-01-10T11:09:29Z</time>
      </trkpt>
      <trkpt lat="42.3037" lon="2.60802">
        <ele>578.353</ele>
        <time>2018-01-10T11:09:41Z</time>
      </trkpt>
      <trkpt lat="42.30362" lon="2.60781">
        <ele>576.982</ele>
        <time>2018-01-10T11:09:54Z</time>
      </trkpt>
      <trkpt lat="42.30359" lon="2.60767">
        <ele>576.45</ele>
        <time>2018-01-10T11:10:01Z</time>
      </trkpt>
      <trkpt lat="42.30356" lon="2.60754">
        <ele>575.458</ele>
        <time>2018-01-10T11:10:08Z</time>
      </trkpt>
      <trkpt lat="42.30349" lon="2.60733">
        <ele>575.064</ele>
        <time>2018-01-10T11:10:20Z</time>
      </trkpt>
      <trkpt lat="42.30342" lon="2.60709">
        <ele>575.014</ele>
        <time>2018-01-10T11:10:32Z</time>
      </trkpt>
      <trkpt lat="42.30333" lon="2.60689">
        <ele>575.068</ele>
        <time>2018-01-10T11:10:44Z</time>
      </trkpt>
      <trkpt lat="42.30328" lon="2.60668">
        <ele>575.057</ele>
        <time>2018-01-10T11:10:53Z</time>
      </trkpt>
      <trkpt lat="42.30322" lon="2.60648">
        <ele>576.417</ele>
        <time>2018-01-10T11:11:04Z</time>
      </trkpt>
      <trkpt lat="42.30317" lon="2.60623">
        <ele>576.487</ele>
        <time>2018-01-10T11:11:17Z</time>
      </trkpt>
      <trkpt lat="42.30311" lon="2.60594">
        <ele>574.015</ele>
        <time>2018-01-10T11:11:32Z</time>
      </trkpt>
      <trkpt lat="42.3031" lon="2.60591">
        <ele>573.008</ele>
        <time>2018-01-10T11:11:34Z</time>
      </trkpt>
      <trkpt lat="42.30312" lon="2.60578">
        <ele>572.613</ele>
        <time>2018-01-10T11:11:40Z</time>
      </trkpt>
      <trkpt lat="42.30318" lon="2.60546">
        <ele>573.012</ele>
        <time>2018-01-10T11:11:55Z</time>
      </trkpt>
      <trkpt lat="42.30318" lon="2.60543">
        <ele>573.06</ele>
        <time>2018-01-10T11:11:57Z</time>
      </trkpt>
      <trkpt lat="42.30319" lon="2.60516">
        <ele>571.188</ele>
        <time>2018-01-10T11:12:14Z</time>
      </trkpt>
      <trkpt lat="42.30315" lon="2.60499">
        <ele>570.254</ele>
        <time>2018-01-10T11:12:24Z</time>
      </trkpt>
      <trkpt lat="42.30309" lon="2.60479">
        <ele>568.714</ele>
        <time>2018-01-10T11:12:38Z</time>
      </trkpt>
      <trkpt lat="42.30303" lon="2.60455">
        <ele>566.848</ele>
        <time>2018-01-10T11:12:52Z</time>
      </trkpt>
      <trkpt lat="42.30296" lon="2.60443">
        <ele>565.327</ele>
        <time>2018-01-10T11:13:03Z</time>
      </trkpt>
      <trkpt lat="42.30293" lon="2.60441">
        <ele>564.434</ele>
        <time>2018-01-10T11:13:07Z</time>
      </trkpt>
      <trkpt lat="42.30285" lon="2.6043">
        <ele>562.055</ele>
        <time>2018-01-10T11:13:19Z</time>
      </trkpt>
      <trkpt lat="42.30284" lon="2.60413">
        <ele>560.11</ele>
        <time>2018-01-10T11:13:33Z</time>
      </trkpt>
      <trkpt lat="42.30287" lon="2.60401">
        <ele>559.608</ele>
        <time>2018-01-10T11:13:42Z</time>
      </trkpt>
      <trkpt lat="42.30292" lon="2.60381">
        <ele>556.275</ele>
        <time>2018-01-10T11:13:57Z</time>
      </trkpt>
      <trkpt lat="42.30294" lon="2.60375">
        <ele>555.774</ele>
        <time>2018-01-10T11:14:02Z</time>
      </trkpt>
      <trkpt lat="42.303" lon="2.60363">
        <ele>554.892</ele>
        <time>2018-01-10T11:14:13Z</time>
      </trkpt>
      <trkpt lat="42.30301" lon="2.60351">
        <ele>551.47</ele>
        <time>2018-01-10T11:14:25Z</time>
      </trkpt>
      <trkpt lat="42.30301" lon="2.60343">
        <ele>548.526</ele>
        <time>2018-01-10T11:14:33Z</time>
      </trkpt>
      <trkpt lat="42.30303" lon="2.60323">
        <ele>545.246</ele>
        <time>2018-01-10T11:14:46Z</time>
      </trkpt>
      <trkpt lat="42.30293" lon="2.60324">
        <ele>542.33</ele>
        <time>2018-01-10T11:14:58Z</time>
      </trkpt>
      <trkpt lat="42.3029" lon="2.60325">
        <ele>541.819</ele>
        <time>2018-01-10T11:15:01Z</time>
      </trkpt>
      <trkpt lat="42.30287" lon="2.60324">
        <ele>540.823</ele>
        <time>2018-01-10T11:15:06Z</time>
      </trkpt>
      <trkpt lat="42.30291" lon="2.60324">
        <ele>539.983</ele>
        <time>2018-01-10T11:15:10Z</time>
      </trkpt>
      <trkpt lat="42.30287" lon="2.60311">
        <ele>537.011</ele>
        <time>2018-01-10T11:15:23Z</time>
      </trkpt>
      <trkpt lat="42.30285" lon="2.60311">
        <ele>537.008</ele>
        <time>2018-01-10T11:15:24Z</time>
      </trkpt>
      <trkpt lat="42.30287" lon="2.60306">
        <ele>535.144</ele>
        <time>2018-01-10T11:15:35Z</time>
      </trkpt>
      <trkpt lat="42.30296" lon="2.60297">
        <ele>531.753</ele>
        <time>2018-01-10T11:15:48Z</time>
      </trkpt>
      <trkpt lat="42.30297" lon="2.60296">
        <ele>531.741</ele>
        <time>2018-01-10T11:15:50Z</time>
      </trkpt>
      <trkpt lat="42.30301" lon="2.60287">
        <ele>529.339</ele>
        <time>2018-01-10T11:15:59Z</time>
      </trkpt>
      <trkpt lat="42.30303" lon="2.60265">
        <ele>527.985</ele>
        <time>2018-01-10T11:16:12Z</time>
      </trkpt>
      <trkpt lat="42.30303" lon="2.60262">
        <ele>527.455</ele>
        <time>2018-01-10T11:16:14Z</time>
      </trkpt>
      <trkpt lat="42.30302" lon="2.60253">
        <ele>525.919</ele>
        <time>2018-01-10T11:16:19Z</time>
      </trkpt>
      <trkpt lat="42.30301" lon="2.60238">
        <ele>522.648</ele>
        <time>2018-01-10T11:16:29Z</time>
      </trkpt>
      <trkpt lat="42.30301" lon="2.60228">
        <ele>521.697</ele>
        <time>2018-01-10T11:16:39Z</time>
      </trkpt>
      <trkpt lat="42.30302" lon="2.60212">
        <ele>520.223</ele>
        <time>2018-01-10T11:16:55Z</time>
      </trkpt>
      <trkpt lat="42.30303" lon="2.60201">
        <ele>518.225</ele>
        <time>2018-01-10T11:17:07Z</time>
      </trkpt>
      <trkpt lat="42.30308" lon="2.6019">
        <ele>515.808</ele>
        <time>2018-01-10T11:17:20Z</time>
      </trkpt>
      <trkpt lat="42.30308" lon="2.60186">
        <ele>514.411</ele>
        <time>2018-01-10T11:17:25Z</time>
      </trkpt>
      <trkpt lat="42.30299" lon="2.60181">
        <ele>511.02</ele>
        <time>2018-01-10T11:17:38Z</time>
      </trkpt>
      <trkpt lat="42.30297" lon="2.60182">
        <ele>510.628</ele>
        <time>2018-01-10T11:17:42Z</time>
      </trkpt>
      <trkpt lat="42.30294" lon="2.60182">
        <ele>509.686</ele>
        <time>2018-01-10T11:17:44Z</time>
      </trkpt>
      <trkpt lat="42.30293" lon="2.60181">
        <ele>508.152</ele>
        <time>2018-01-10T11:17:50Z</time>
      </trkpt>
      <trkpt lat="42.30296" lon="2.60176">
        <ele>506.792</ele>
        <time>2018-01-10T11:17:57Z</time>
      </trkpt>
      <trkpt lat="42.30298" lon="2.60158">
        <ele>505.346</ele>
        <time>2018-01-10T11:18:10Z</time>
      </trkpt>
      <trkpt lat="42.30297" lon="2.60147">
        <ele>504.375</ele>
        <time>2018-01-10T11:18:24Z</time>
      </trkpt>
      <trkpt lat="42.30295" lon="2.60138">
        <ele>502.995</ele>
        <time>2018-01-10T11:18:32Z</time>
      </trkpt>
      <trkpt lat="42.30294" lon="2.60133">
        <ele>502.449</ele>
        <time>2018-01-10T11:18:34Z</time>
      </trkpt>
      <trkpt lat="42.30289" lon="2.60127">
        <ele>501.923</ele>
        <time>2018-01-10T11:18:38Z</time>
      </trkpt>
      <trkpt lat="42.30287" lon="2.60114">
        <ele>500.008</ele>
        <time>2018-01-10T11:18:48Z</time>
      </trkpt>
      <trkpt lat="42.30284" lon="2.60112">
        <ele>499.011</ele>
        <time>2018-01-10T11:18:50Z</time>
      </trkpt>
      <trkpt lat="42.30284" lon="2.60112">
        <ele>497.19</ele>
        <time>2018-01-10T11:19:01Z</time>
      </trkpt>
      <trkpt lat="42.30281" lon="2.60111">
        <ele>494.758</ele>
        <time>2018-01-10T11:19:11Z</time>
      </trkpt>
      <trkpt lat="42.3028" lon="2.60101">
        <ele>494.226</ele>
        <time>2018-01-10T11:19:21Z</time>
      </trkpt>
      <trkpt lat="42.30275" lon="2.60092">
        <ele>492.322</ele>
        <time>2018-01-10T11:19:32Z</time>
      </trkpt>
      <trkpt lat="42.30272" lon="2.60076">
        <ele>490.812</ele>
        <time>2018-01-10T11:19:42Z</time>
      </trkpt>
      <trkpt lat="42.30262" lon="2.60062">
        <ele>490.816</ele>
        <time>2018-01-10T11:19:56Z</time>
      </trkpt>
      <trkpt lat="42.30265" lon="2.60054">
        <ele>491.325</ele>
        <time>2018-01-10T11:20:16Z</time>
      </trkpt>
      <trkpt lat="42.30256" lon="2.60056">
        <ele>491.377</ele>
        <time>2018-01-10T11:20:45Z</time>
      </trkpt>
      <trkpt lat="42.3026" lon="2.60055">
        <ele>491.361</ele>
        <time>2018-01-10T11:21:12Z</time>
      </trkpt>
      <trkpt lat="42.30259" lon="2.60047">
        <ele>492.827</ele>
        <time>2018-01-10T11:21:26Z</time>
      </trkpt>
      <trkpt lat="42.30258" lon="2.60045">
        <ele>494.208</ele>
        <time>2018-01-10T11:21:28Z</time>
      </trkpt>
      <trkpt lat="42.30258" lon="2.60044">
        <ele>494.289</ele>
        <time>2018-01-10T11:21:29Z</time>
      </trkpt>
      <trkpt lat="42.30258" lon="2.60034">
        <ele>494.278</ele>
        <time>2018-01-10T11:21:35Z</time>
      </trkpt>
      <trkpt lat="42.30257" lon="2.60024">
        <ele>494.266</ele>
        <time>2018-01-10T11:21:44Z</time>
      </trkpt>
      <trkpt lat="42.30251" lon="2.60008">
        <ele>495.214</ele>
        <time>2018-01-10T11:21:56Z</time>
      </trkpt>
      <trkpt lat="42.30249" lon="2.59989">
        <ele>495.76</ele>
        <time>2018-01-10T11:22:11Z</time>
      </trkpt>
      <trkpt lat="42.30248" lon="2.59978">
        <ele>494.75</ele>
        <time>2018-01-10T11:22:18Z</time>
      </trkpt>
      <trkpt lat="42.30238" lon="2.59962">
        <ele>494.744</ele>
        <time>2018-01-10T11:22:29Z</time>
      </trkpt>
      <trkpt lat="42.30229" lon="2.59943">
        <ele>495.743</ele>
        <time>2018-01-10T11:22:42Z</time>
      </trkpt>
      <trkpt lat="42.3022" lon="2.59922">
        <ele>496.634</ele>
        <time>2018-01-10T11:22:56Z</time>
      </trkpt>
      <trkpt lat="42.30214" lon="2.59914">
        <ele>495.755</ele>
        <time>2018-01-10T11:23:02Z</time>
      </trkpt>
      <trkpt lat="42.30207" lon="2.59894">
        <ele>492.31</ele>
        <time>2018-01-10T11:23:15Z</time>
      </trkpt>
      <trkpt lat="42.30204" lon="2.59891">
        <ele>491.308</ele>
        <time>2018-01-10T11:23:18Z</time>
      </trkpt>
      <trkpt lat="42.30203" lon="2.59891">
        <ele>490.895</ele>
        <time>2018-01-10T11:23:19Z</time>
      </trkpt>
      <trkpt lat="42.30198" lon="2.59887">
        <ele>490.814</ele>
        <time>2018-01-10T11:23:21Z</time>
      </trkpt>
      <trkpt lat="42.30194" lon="2.59886">
        <ele>490.482</ele>
        <time>2018-01-10T11:23:23Z</time>
      </trkpt>
      <trkpt lat="42.30188" lon="2.59878">
        <ele>490.47</ele>
        <time>2018-01-10T11:23:28Z</time>
      </trkpt>
      <trkpt lat="42.30184" lon="2.59873">
        <ele>489.446</ele>
        <time>2018-01-10T11:23:32Z</time>
      </trkpt>
      <trkpt lat="42.3018" lon="2.59869">
        <ele>489.436</ele>
        <time>2018-01-10T11:23:36Z</time>
      </trkpt>
      <trkpt lat="42.30176" lon="2.59865">
        <ele>488.97</ele>
        <time>2018-01-10T11:23:38Z</time>
      </trkpt>
      <trkpt lat="42.30165" lon="2.59851">
        <ele>488.019</ele>
        <time>2018-01-10T11:23:48Z</time>
      </trkpt>
      <trkpt lat="42.30161" lon="2.59849">
        <ele>488.075</ele>
        <time>2018-01-10T11:23:51Z</time>
      </trkpt>
      <trkpt lat="42.30153" lon="2.59848">
        <ele>487.528</ele>
        <time>2018-01-10T11:23:56Z</time>
      </trkpt>
      <trkpt lat="42.30146" lon="2.59842">
        <ele>487.02</ele>
        <time>2018-01-10T11:24:02Z</time>
      </trkpt>
      <trkpt lat="42.30132" lon="2.59832">
        <ele>488.008</ele>
        <time>2018-01-10T11:24:15Z</time>
      </trkpt>
      <trkpt lat="42.30127" lon="2.59829">
        <ele>486.569</ele>
        <time>2018-01-10T11:24:19Z</time>
      </trkpt>
      <trkpt lat="42.30117" lon="2.59826">
        <ele>485.648</ele>
        <time>2018-01-10T11:24:25Z</time>
      </trkpt>
      <trkpt lat="42.301" lon="2.5981">
        <ele>483.626</ele>
        <time>2018-01-10T11:24:39Z</time>
      </trkpt>
      <trkpt lat="42.30092" lon="2.59803">
        <ele>482.774</ele>
        <time>2018-01-10T11:24:46Z</time>
      </trkpt>
      <trkpt lat="42.30086" lon="2.59798">
        <ele>482.28</ele>
        <time>2018-01-10T11:24:50Z</time>
      </trkpt>
      <trkpt lat="42.30079" lon="2.59791">
        <ele>481.74</ele>
        <time>2018-01-10T11:24:54Z</time>
      </trkpt>
      <trkpt lat="42.3007" lon="2.5978">
        <ele>480.854</ele>
        <time>2018-01-10T11:25:04Z</time>
      </trkpt>
      <trkpt lat="42.30057" lon="2.59767">
        <ele>480.843</ele>
        <time>2018-01-10T11:25:12Z</time>
      </trkpt>
      <trkpt lat="42.30042" lon="2.59753">
        <ele>479.393</ele>
        <time>2018-01-10T11:25:25Z</time>
      </trkpt>
      <trkpt lat="42.3003" lon="2.59746">
        <ele>478.865</ele>
        <time>2018-01-10T11:25:32Z</time>
      </trkpt>
      <trkpt lat="42.30026" lon="2.59741">
        <ele>478.821</ele>
        <time>2018-01-10T11:25:35Z</time>
      </trkpt>
      <trkpt lat="42.30025" lon="2.59738">
        <ele>478.808</ele>
        <time>2018-01-10T11:25:37Z</time>
      </trkpt>
      <trkpt lat="42.30014" lon="2.59726">
        <ele>476.441</ele>
        <time>2018-01-10T11:25:46Z</time>
      </trkpt>
      <trkpt lat="42.30006" lon="2.59708">
        <ele>473.56</ele>
        <time>2018-01-10T11:25:56Z</time>
      </trkpt>
      <trkpt lat="42.30005" lon="2.59704">
        <ele>472.668</ele>
        <time>2018-01-10T11:25:58Z</time>
      </trkpt>
      <trkpt lat="42.3" lon="2.59696">
        <ele>470.726</ele>
        <time>2018-01-10T11:26:03Z</time>
      </trkpt>
      <trkpt lat="42.29993" lon="2.59684">
        <ele>467.822</ele>
        <time>2018-01-10T11:26:14Z</time>
      </trkpt>
      <trkpt lat="42.29991" lon="2.59683">
        <ele>464.972</ele>
        <time>2018-01-10T11:26:24Z</time>
      </trkpt>
      <trkpt lat="42.29989" lon="2.5968">
        <ele>463.926</ele>
        <time>2018-01-10T11:26:28Z</time>
      </trkpt>
      <trkpt lat="42.29981" lon="2.59677">
        <ele>461.565</ele>
        <time>2018-01-10T11:26:39Z</time>
      </trkpt>
      <trkpt lat="42.29975" lon="2.59684">
        <ele>459.177</ele>
        <time>2018-01-10T11:26:46Z</time>
      </trkpt>
      <trkpt lat="42.29974" lon="2.59673">
        <ele>457.761</ele>
        <time>2018-01-10T11:27:00Z</time>
      </trkpt>
      <trkpt lat="42.29972" lon="2.59672">
        <ele>457.727</ele>
        <time>2018-01-10T11:27:09Z</time>
      </trkpt>
      <trkpt lat="42.29971" lon="2.59661">
        <ele>454.808</ele>
        <time>2018-01-10T11:27:19Z</time>
      </trkpt>
      <trkpt lat="42.29972" lon="2.59654">
        <ele>453.879</ele>
        <time>2018-01-10T11:27:24Z</time>
      </trkpt>
      <trkpt lat="42.29975" lon="2.59637">
        <ele>451.978</ele>
        <time>2018-01-10T11:27:38Z</time>
      </trkpt>
      <trkpt lat="42.29973" lon="2.59626">
        <ele>450.076</ele>
        <time>2018-01-10T11:27:45Z</time>
      </trkpt>
      <trkpt lat="42.2997" lon="2.5962">
        <ele>449.024</ele>
        <time>2018-01-10T11:27:57Z</time>
      </trkpt>
      <trkpt lat="42.2997" lon="2.59609">
        <ele>447.15</ele>
        <time>2018-01-10T11:28:05Z</time>
      </trkpt>
      <trkpt lat="42.29969" lon="2.59606">
        <ele>446.15</ele>
        <time>2018-01-10T11:28:07Z</time>
      </trkpt>
      <trkpt lat="42.29966" lon="2.59599">
        <ele>443.774</ele>
        <time>2018-01-10T11:28:13Z</time>
      </trkpt>
      <trkpt lat="42.29958" lon="2.59579">
        <ele>441.823</ele>
        <time>2018-01-10T11:28:25Z</time>
      </trkpt>
      <trkpt lat="42.29957" lon="2.59567">
        <ele>439.951</ele>
        <time>2018-01-10T11:28:33Z</time>
      </trkpt>
      <trkpt lat="42.29954" lon="2.59556">
        <ele>438.001</ele>
        <time>2018-01-10T11:28:41Z</time>
      </trkpt>
      <trkpt lat="42.29957" lon="2.59534">
        <ele>435.611</ele>
        <time>2018-01-10T11:28:55Z</time>
      </trkpt>
      <trkpt lat="42.29956" lon="2.59532">
        <ele>435.108</ele>
        <time>2018-01-10T11:28:57Z</time>
      </trkpt>
      <trkpt lat="42.29953" lon="2.5951">
        <ele>433.287</ele>
        <time>2018-01-10T11:29:10Z</time>
      </trkpt>
      <trkpt lat="42.29952" lon="2.59508">
        <ele>433.266</ele>
        <time>2018-01-10T11:29:11Z</time>
      </trkpt>
      <trkpt lat="42.29949" lon="2.59494">
        <ele>432.294</ele>
        <time>2018-01-10T11:29:18Z</time>
      </trkpt>
      <trkpt lat="42.29946" lon="2.59488">
        <ele>432.262</ele>
        <time>2018-01-10T11:29:21Z</time>
      </trkpt>
      <trkpt lat="42.29945" lon="2.59484">
        <ele>432.258</ele>
        <time>2018-01-10T11:29:23Z</time>
      </trkpt>
      <trkpt lat="42.29944" lon="2.59464">
        <ele>433.238</ele>
        <time>2018-01-10T11:29:37Z</time>
      </trkpt>
      <trkpt lat="42.29944" lon="2.59461">
        <ele>433.212</ele>
        <time>2018-01-10T11:29:39Z</time>
      </trkpt>
      <trkpt lat="42.29943" lon="2.59456">
        <ele>432.251</ele>
        <time>2018-01-10T11:29:41Z</time>
      </trkpt>
      <trkpt lat="42.29943" lon="2.5945">
        <ele>431.767</ele>
        <time>2018-01-10T11:29:44Z</time>
      </trkpt>
      <trkpt lat="42.29944" lon="2.59445">
        <ele>431.781</ele>
        <time>2018-01-10T11:29:47Z</time>
      </trkpt>
      <trkpt lat="42.29945" lon="2.59441">
        <ele>431.219</ele>
        <time>2018-01-10T11:29:49Z</time>
      </trkpt>
      <trkpt lat="42.29949" lon="2.59433">
        <ele>430.808</ele>
        <time>2018-01-10T11:29:54Z</time>
      </trkpt>
      <trkpt lat="42.2995" lon="2.5943">
        <ele>430.898</ele>
        <time>2018-01-10T11:29:56Z</time>
      </trkpt>
      <trkpt lat="42.29959" lon="2.59408">
        <ele>429.867</ele>
        <time>2018-01-10T11:30:10Z</time>
      </trkpt>
      <trkpt lat="42.29961" lon="2.59393">
        <ele>428.485</ele>
        <time>2018-01-10T11:30:25Z</time>
      </trkpt>
      <trkpt lat="42.29962" lon="2.59391">
        <ele>428.443</ele>
        <time>2018-01-10T11:30:27Z</time>
      </trkpt>
      <trkpt lat="42.29965" lon="2.5938">
        <ele>426.019</ele>
        <time>2018-01-10T11:30:35Z</time>
      </trkpt>
      <trkpt lat="42.29969" lon="2.59363">
        <ele>422.669</ele>
        <time>2018-01-10T11:30:47Z</time>
      </trkpt>
      <trkpt lat="42.29971" lon="2.59348">
        <ele>421.123</ele>
        <time>2018-01-10T11:30:57Z</time>
      </trkpt>
      <trkpt lat="42.29976" lon="2.5933">
        <ele>419.732</ele>
        <time>2018-01-10T11:31:07Z</time>
      </trkpt>
      <trkpt lat="42.2998" lon="2.59309">
        <ele>418.332</ele>
        <time>2018-01-10T11:31:18Z</time>
      </trkpt>
      <trkpt lat="42.2998" lon="2.59305">
        <ele>416.892</ele>
        <time>2018-01-10T11:31:21Z</time>
      </trkpt>
      <trkpt lat="42.29981" lon="2.59304">
        <ele>416.811</ele>
        <time>2018-01-10T11:31:22Z</time>
      </trkpt>
      <trkpt lat="42.29983" lon="2.59282">
        <ele>414.408</ele>
        <time>2018-01-10T11:31:35Z</time>
      </trkpt>
      <trkpt lat="42.29983" lon="2.5928">
        <ele>413.975</ele>
        <time>2018-01-10T11:31:36Z</time>
      </trkpt>
      <trkpt lat="42.29982" lon="2.59264">
        <ele>411.154</ele>
        <time>2018-01-10T11:31:46Z</time>
      </trkpt>
      <trkpt lat="42.29984" lon="2.5925">
        <ele>412.522</ele>
        <time>2018-01-10T11:31:55Z</time>
      </trkpt>
      <trkpt lat="42.29984" lon="2.59231">
        <ele>409.12</ele>
        <time>2018-01-10T11:32:07Z</time>
      </trkpt>
      <trkpt lat="42.29984" lon="2.59226">
        <ele>408.286</ele>
        <time>2018-01-10T11:32:11Z</time>
      </trkpt>
      <trkpt lat="42.29985" lon="2.59205">
        <ele>405.886</ele>
        <time>2018-01-10T11:32:24Z</time>
      </trkpt>
      <trkpt lat="42.29983" lon="2.59187">
        <ele>402.42</ele>
        <time>2018-01-10T11:32:35Z</time>
      </trkpt>
      <trkpt lat="42.29982" lon="2.5918">
        <ele>400.019</ele>
        <time>2018-01-10T11:32:48Z</time>
      </trkpt>
      <trkpt lat="42.29982" lon="2.59163">
        <ele>397.171</ele>
        <time>2018-01-10T11:33:02Z</time>
      </trkpt>
      <trkpt lat="42.29981" lon="2.59152">
        <ele>396.241</ele>
        <time>2018-01-10T11:33:12Z</time>
      </trkpt>
      <trkpt lat="42.29981" lon="2.59151">
        <ele>395.215</ele>
        <time>2018-01-10T11:33:13Z</time>
      </trkpt>
      <trkpt lat="42.29982" lon="2.5914">
        <ele>392.808</ele>
        <time>2018-01-10T11:33:23Z</time>
      </trkpt>
      <trkpt lat="42.29983" lon="2.59137">
        <ele>392.859</ele>
        <time>2018-01-10T11:33:45Z</time>
      </trkpt>
      <trkpt lat="42.29986" lon="2.59132">
        <ele>391.358</ele>
        <time>2018-01-10T11:33:51Z</time>
      </trkpt>
      <trkpt lat="42.2999" lon="2.59121">
        <ele>388.596</ele>
        <time>2018-01-10T11:34:02Z</time>
      </trkpt>
      <trkpt lat="42.29992" lon="2.59118">
        <ele>388.014</ele>
        <time>2018-01-10T11:34:04Z</time>
      </trkpt>
      <trkpt lat="42.29993" lon="2.59115">
        <ele>387.51</ele>
        <time>2018-01-10T11:34:06Z</time>
      </trkpt>
      <trkpt lat="42.29997" lon="2.59104">
        <ele>387.06</ele>
        <time>2018-01-10T11:34:10Z</time>
      </trkpt>
      <trkpt lat="42.29997" lon="2.59096">
        <ele>386.194</ele>
        <time>2018-01-10T11:34:13Z</time>
      </trkpt>
      <trkpt lat="42.29996" lon="2.59084">
        <ele>383.243</ele>
        <time>2018-01-10T11:34:24Z</time>
      </trkpt>
      <trkpt lat="42.29993" lon="2.59083">
        <ele>382.289</ele>
        <time>2018-01-10T11:34:28Z</time>
      </trkpt>
      <trkpt lat="42.29992" lon="2.59085">
        <ele>381.306</ele>
        <time>2018-01-10T11:34:30Z</time>
      </trkpt>
      <trkpt lat="42.29988" lon="2.59086">
        <ele>379.826</ele>
        <time>2018-01-10T11:34:40Z</time>
      </trkpt>
      <trkpt lat="42.29989" lon="2.59087">
        <ele>381.308</ele>
        <time>2018-01-10T11:34:54Z</time>
      </trkpt>
      <trkpt lat="42.29989" lon="2.5908">
        <ele>381.77</ele>
        <time>2018-01-10T11:35:04Z</time>
      </trkpt>
      <trkpt lat="42.29989" lon="2.59074">
        <ele>380.819</ele>
        <time>2018-01-10T11:35:08Z</time>
      </trkpt>
      <trkpt lat="42.29993" lon="2.5906">
        <ele>379.387</ele>
        <time>2018-01-10T11:35:18Z</time>
      </trkpt>
      <trkpt lat="42.29994" lon="2.59056">
        <ele>377.965</ele>
        <time>2018-01-10T11:35:22Z</time>
      </trkpt>
      <trkpt lat="42.29999" lon="2.59045">
        <ele>374.531</ele>
        <time>2018-01-10T11:35:33Z</time>
      </trkpt>
      <trkpt lat="42.29999" lon="2.59043">
        <ele>374.041</ele>
        <time>2018-01-10T11:35:34Z</time>
      </trkpt>
      <trkpt lat="42.29989" lon="2.59038">
        <ele>371.625</ele>
        <time>2018-01-10T11:35:42Z</time>
      </trkpt>
      <trkpt lat="42.29991" lon="2.59032">
        <ele>369.764</ele>
        <time>2018-01-10T11:35:49Z</time>
      </trkpt>
      <trkpt lat="42.29998" lon="2.59023">
        <ele>367.888</ele>
        <time>2018-01-10T11:35:54Z</time>
      </trkpt>
      <trkpt lat="42.29996" lon="2.59021">
        <ele>367.324</ele>
        <time>2018-01-10T11:36:04Z</time>
      </trkpt>
      <trkpt lat="42.29998" lon="2.5901">
        <ele>366.826</ele>
        <time>2018-01-10T11:36:24Z</time>
      </trkpt>
      <trkpt lat="42.29999" lon="2.59006">
        <ele>366.408</ele>
        <time>2018-01-10T11:36:52Z</time>
      </trkpt>
      <trkpt lat="42.3" lon="2.59001">
        <ele>366.48</ele>
        <time>2018-01-10T11:36:54Z</time>
      </trkpt>
      <trkpt lat="42.30003" lon="2.58983">
        <ele>364.959</ele>
        <time>2018-01-10T11:37:02Z</time>
      </trkpt>
      <trkpt lat="42.30019" lon="2.58974">
        <ele>362.067</ele>
        <time>2018-01-10T11:37:15Z</time>
      </trkpt>
      <trkpt lat="42.30023" lon="2.58973">
        <ele>360.685</ele>
        <time>2018-01-10T11:37:18Z</time>
      </trkpt>
      <trkpt lat="42.30033" lon="2.58963">
        <ele>358.281</ele>
        <time>2018-01-10T11:37:28Z</time>
      </trkpt>
      <trkpt lat="42.30035" lon="2.58953">
        <ele>357.261</ele>
        <time>2018-01-10T11:37:43Z</time>
      </trkpt>
      <trkpt lat="42.30039" lon="2.58952">
        <ele>357.225</ele>
        <time>2018-01-10T11:37:48Z</time>
      </trkpt>
      <trkpt lat="42.30062" lon="2.58953">
        <ele>357.274</ele>
        <time>2018-01-10T11:38:04Z</time>
      </trkpt>
      <trkpt lat="42.30067" lon="2.5895">
        <ele>357.278</ele>
        <time>2018-01-10T11:38:08Z</time>
      </trkpt>
      <trkpt lat="42.30091" lon="2.5894">
        <ele>358.733</ele>
        <time>2018-01-10T11:38:26Z</time>
      </trkpt>
      <trkpt lat="42.30102" lon="2.58938">
        <ele>358.726</ele>
        <time>2018-01-10T11:38:34Z</time>
      </trkpt>
      <trkpt lat="42.30115" lon="2.58932">
        <ele>358.708</ele>
        <time>2018-01-10T11:38:42Z</time>
      </trkpt>
      <trkpt lat="42.30138" lon="2.58922">
        <ele>358.779</ele>
        <time>2018-01-10T11:38:56Z</time>
      </trkpt>
      <trkpt lat="42.3015" lon="2.58921">
        <ele>359.668</ele>
        <time>2018-01-10T11:39:07Z</time>
      </trkpt>
      <trkpt lat="42.30169" lon="2.58915">
        <ele>360.626</ele>
        <time>2018-01-10T11:39:25Z</time>
      </trkpt>
      <trkpt lat="42.30169" lon="2.58913">
        <ele>359.144</ele>
        <time>2018-01-10T11:39:27Z</time>
      </trkpt>
      <trkpt lat="42.30177" lon="2.58903">
        <ele>360.16</ele>
        <time>2018-01-10T11:39:42Z</time>
      </trkpt>
      <trkpt lat="42.30198" lon="2.58916">
        <ele>361.11</ele>
        <time>2018-01-10T11:39:59Z</time>
      </trkpt>
      <trkpt lat="42.30206" lon="2.58916">
        <ele>364.024</ele>
        <time>2018-01-10T11:40:15Z</time>
      </trkpt>
      <trkpt lat="42.30214" lon="2.58914">
        <ele>365.993</ele>
        <time>2018-01-10T11:40:32Z</time>
      </trkpt>
      <trkpt lat="42.30238" lon="2.5891">
        <ele>366.426</ele>
        <time>2018-01-10T11:40:50Z</time>
      </trkpt>
      <trkpt lat="42.30254" lon="2.58912">
        <ele>366.447</ele>
        <time>2018-01-10T11:41:07Z</time>
      </trkpt>
      <trkpt lat="42.30269" lon="2.58921">
        <ele>368.311</ele>
        <time>2018-01-10T11:41:22Z</time>
      </trkpt>
      <trkpt lat="42.30281" lon="2.58911">
        <ele>369.708</ele>
        <time>2018-01-10T11:41:30Z</time>
      </trkpt>
      <trkpt lat="42.30295" lon="2.58902">
        <ele>372.154</ele>
        <time>2018-01-10T11:41:45Z</time>
      </trkpt>
      <trkpt lat="42.303" lon="2.58886">
        <ele>372.613</ele>
        <time>2018-01-10T11:42:00Z</time>
      </trkpt>
      <trkpt lat="42.30302" lon="2.58886">
        <ele>372.611</ele>
        <time>2018-01-10T11:42:02Z</time>
      </trkpt>
      <trkpt lat="42.30306" lon="2.58886">
        <ele>372.679</ele>
        <time>2018-01-10T11:42:06Z</time>
      </trkpt>
      <trkpt lat="42.30325" lon="2.58892">
        <ele>370.795</ele>
        <time>2018-01-10T11:42:25Z</time>
      </trkpt>
      <trkpt lat="42.30358" lon="2.58906">
        <ele>369.745</ele>
        <time>2018-01-10T11:42:48Z</time>
      </trkpt>
      <trkpt lat="42.30361" lon="2.58908">
        <ele>371.279</ele>
        <time>2018-01-10T11:42:53Z</time>
      </trkpt>
      <trkpt lat="42.30379" lon="2.58926">
        <ele>373.148</ele>
        <time>2018-01-10T11:43:12Z</time>
      </trkpt>
      <trkpt lat="42.30395" lon="2.58942">
        <ele>369.717</ele>
        <time>2018-01-10T11:43:30Z</time>
      </trkpt>
      <trkpt lat="42.30408" lon="2.58956">
        <ele>371.287</ele>
        <time>2018-01-10T11:43:45Z</time>
      </trkpt>
      <trkpt lat="42.30409" lon="2.58956">
        <ele>371.215</ele>
        <time>2018-01-10T11:43:46Z</time>
      </trkpt>
      <trkpt lat="42.3042" lon="2.5896">
        <ele>373.108</ele>
        <time>2018-01-10T11:44:04Z</time>
      </trkpt>
      <trkpt lat="42.30443" lon="2.58963">
        <ele>371.243</ele>
        <time>2018-01-10T11:44:22Z</time>
      </trkpt>
      <trkpt lat="42.30446" lon="2.58965">
        <ele>372.672</ele>
        <time>2018-01-10T11:44:25Z</time>
      </trkpt>
      <trkpt lat="42.30451" lon="2.58972">
        <ele>375.56</ele>
        <time>2018-01-10T11:44:36Z</time>
      </trkpt>
      <trkpt lat="42.30457" lon="2.58984">
        <ele>378.988</ele>
        <time>2018-01-10T11:44:51Z</time>
      </trkpt>
      <trkpt lat="42.30474" lon="2.58981">
        <ele>382.254</ele>
        <time>2018-01-10T11:45:06Z</time>
      </trkpt>
      <trkpt lat="42.30484" lon="2.58989">
        <ele>382.234</ele>
        <time>2018-01-10T11:45:22Z</time>
      </trkpt>
      <trkpt lat="42.30486" lon="2.58993">
        <ele>380.828</ele>
        <time>2018-01-10T11:45:25Z</time>
      </trkpt>
      <trkpt lat="42.30514" lon="2.58976">
        <ele>380.827</ele>
        <time>2018-01-10T11:45:42Z</time>
      </trkpt>
      <trkpt lat="42.30512" lon="2.58983">
        <ele>380.894</ele>
        <time>2018-01-10T11:46:05Z</time>
      </trkpt>
      <trkpt lat="42.30522" lon="2.58989">
        <ele>380.357</ele>
        <time>2018-01-10T11:46:24Z</time>
      </trkpt>
      <trkpt lat="42.30532" lon="2.58982">
        <ele>379.822</ele>
        <time>2018-01-10T11:46:32Z</time>
      </trkpt>
      <trkpt lat="42.3055" lon="2.5897">
        <ele>380.808</ele>
        <time>2018-01-10T11:46:42Z</time>
      </trkpt>
      <trkpt lat="42.30567" lon="2.58967">
        <ele>384.141</ele>
        <time>2018-01-10T11:46:56Z</time>
      </trkpt>
      <trkpt lat="42.30584" lon="2.5897">
        <ele>386.55</ele>
        <time>2018-01-10T11:47:11Z</time>
      </trkpt>
      <trkpt lat="42.306" lon="2.58983">
        <ele>387.548</ele>
        <time>2018-01-10T11:47:27Z</time>
      </trkpt>
      <trkpt lat="42.30607" lon="2.5898">
        <ele>388.586</ele>
        <time>2018-01-10T11:47:39Z</time>
      </trkpt>
      <trkpt lat="42.30627" lon="2.58983">
        <ele>391.342</ele>
        <time>2018-01-10T11:47:54Z</time>
      </trkpt>
      <trkpt lat="42.30642" lon="2.58979">
        <ele>394.262</ele>
        <time>2018-01-10T11:48:09Z</time>
      </trkpt>
      <trkpt lat="42.30656" lon="2.58982">
        <ele>397.186</ele>
        <time>2018-01-10T11:48:23Z</time>
      </trkpt>
      <trkpt lat="42.30673" lon="2.58978">
        <ele>398.625</ele>
        <time>2018-01-10T11:48:38Z</time>
      </trkpt>
      <trkpt lat="42.30686" lon="2.58979">
        <ele>400.098</ele>
        <time>2018-01-10T11:48:53Z</time>
      </trkpt>
      <trkpt lat="42.30697" lon="2.58981">
        <ele>401.015</ele>
        <time>2018-01-10T11:49:12Z</time>
      </trkpt>
      <trkpt lat="42.30699" lon="2.5898">
        <ele>399.526</ele>
        <time>2018-01-10T11:49:14Z</time>
      </trkpt>
      <trkpt lat="42.30707" lon="2.58976">
        <ele>396.208</ele>
        <time>2018-01-10T11:49:23Z</time>
      </trkpt>
      <trkpt lat="42.30722" lon="2.5897">
        <ele>394.281</ele>
        <time>2018-01-10T11:49:38Z</time>
      </trkpt>
      <trkpt lat="42.30736" lon="2.58967">
        <ele>395.72</ele>
        <time>2018-01-10T11:49:48Z</time>
      </trkpt>
      <trkpt lat="42.30752" lon="2.58966">
        <ele>397.188</ele>
        <time>2018-01-10T11:50:04Z</time>
      </trkpt>
      <trkpt lat="42.30773" lon="2.58967">
        <ele>398.686</ele>
        <time>2018-01-10T11:50:18Z</time>
      </trkpt>
      <trkpt lat="42.30792" lon="2.58968">
        <ele>399.062</ele>
        <time>2018-01-10T11:50:37Z</time>
      </trkpt>
      <trkpt lat="42.30794" lon="2.58968">
        <ele>399.082</ele>
        <time>2018-01-10T11:50:38Z</time>
      </trkpt>
      <trkpt lat="42.30811" lon="2.5897">
        <ele>400.526</ele>
        <time>2018-01-10T11:50:52Z</time>
      </trkpt>
      <trkpt lat="42.30831" lon="2.58976">
        <ele>401.415</ele>
        <time>2018-01-10T11:51:05Z</time>
      </trkpt>
      <trkpt lat="42.3084" lon="2.58976">
        <ele>400.046</ele>
        <time>2018-01-10T11:51:10Z</time>
      </trkpt>
      <trkpt lat="42.30843" lon="2.58976">
        <ele>400.088</ele>
        <time>2018-01-10T11:51:12Z</time>
      </trkpt>
      <trkpt lat="42.30857" lon="2.5897">
        <ele>398.616</ele>
        <time>2018-01-10T11:51:22Z</time>
      </trkpt>
      <trkpt lat="42.30874" lon="2.58956">
        <ele>398.608</ele>
        <time>2018-01-10T11:51:36Z</time>
      </trkpt>
      <trkpt lat="42.30885" lon="2.58942">
        <ele>398.666</ele>
        <time>2018-01-10T11:51:49Z</time>
      </trkpt>
      <trkpt lat="42.30897" lon="2.58928">
        <ele>397.115</ele>
        <time>2018-01-10T11:52:02Z</time>
      </trkpt>
      <trkpt lat="42.30911" lon="2.58908">
        <ele>397.653</ele>
        <time>2018-01-10T11:52:16Z</time>
      </trkpt>
      <trkpt lat="42.30925" lon="2.58895">
        <ele>401.031</ele>
        <time>2018-01-10T11:52:31Z</time>
      </trkpt>
      <trkpt lat="42.30932" lon="2.58897">
        <ele>403.827</ele>
        <time>2018-01-10T11:52:43Z</time>
      </trkpt>
      <trkpt lat="42.30942" lon="2.58898">
        <ele>406.757</ele>
        <time>2018-01-10T11:52:59Z</time>
      </trkpt>
      <trkpt lat="42.30946" lon="2.58904">
        <ele>405.371</ele>
        <time>2018-01-10T11:53:05Z</time>
      </trkpt>
      <trkpt lat="42.30963" lon="2.58905">
        <ele>401.95</ele>
        <time>2018-01-10T11:53:19Z</time>
      </trkpt>
      <trkpt lat="42.30979" lon="2.58907">
        <ele>398.673</ele>
        <time>2018-01-10T11:53:31Z</time>
      </trkpt>
      <trkpt lat="42.30994" lon="2.58902">
        <ele>398.185</ele>
        <time>2018-01-10T11:53:44Z</time>
      </trkpt>
      <trkpt lat="42.30998" lon="2.58896">
        <ele>397.113</ele>
        <time>2018-01-10T11:53:49Z</time>
      </trkpt>
      <trkpt lat="42.31014" lon="2.58877">
        <ele>395.208</ele>
        <time>2018-01-10T11:54:06Z</time>
      </trkpt>
      <trkpt lat="42.31013" lon="2.5886">
        <ele>395.249</ele>
        <time>2018-01-10T11:54:23Z</time>
      </trkpt>
      <trkpt lat="42.31016" lon="2.58855">
        <ele>395.258</ele>
        <time>2018-01-10T11:54:37Z</time>
      </trkpt>
      <trkpt lat="42.31014" lon="2.58868">
        <ele>395.296</ele>
        <time>2018-01-10T11:54:54Z</time>
      </trkpt>
      <trkpt lat="42.31015" lon="2.58876">
        <ele>395.774</ele>
        <time>2018-01-10T11:55:10Z</time>
      </trkpt>
      <trkpt lat="42.31023" lon="2.58882">
        <ele>396.66</ele>
        <time>2018-01-10T11:55:22Z</time>
      </trkpt>
      <trkpt lat="42.31037" lon="2.58879">
        <ele>399.04</ele>
        <time>2018-01-10T11:55:37Z</time>
      </trkpt>
      <trkpt lat="42.3104" lon="2.58884">
        <ele>399.574</ele>
        <time>2018-01-10T11:55:55Z</time>
      </trkpt>
      <trkpt lat="42.31053" lon="2.58875">
        <ele>398.613</ele>
        <time>2018-01-10T11:56:07Z</time>
      </trkpt>
      <trkpt lat="42.31064" lon="2.58876">
        <ele>398.164</ele>
        <time>2018-01-10T11:56:19Z</time>
      </trkpt>
      <trkpt lat="42.31067" lon="2.58878">
        <ele>399.506</ele>
        <time>2018-01-10T11:56:23Z</time>
      </trkpt>
      <trkpt lat="42.31073" lon="2.58887">
        <ele>400.516</ele>
        <time>2018-01-10T11:56:38Z</time>
      </trkpt>
      <trkpt lat="42.31077" lon="2.58889">
        <ele>400.508</ele>
        <time>2018-01-10T11:56:52Z</time>
      </trkpt>
      <trkpt lat="42.31089" lon="2.58892">
        <ele>401.478</ele>
        <time>2018-01-10T11:57:05Z</time>
      </trkpt>
      <trkpt lat="42.31104" lon="2.58898">
        <ele>403.867</ele>
        <time>2018-01-10T11:57:20Z</time>
      </trkpt>
      <trkpt lat="42.31127" lon="2.58893">
        <ele>405.865</ele>
        <time>2018-01-10T11:57:37Z</time>
      </trkpt>
      <trkpt lat="42.31143" lon="2.5889">
        <ele>407.763</ele>
        <time>2018-01-10T11:57:51Z</time>
      </trkpt>
      <trkpt lat="42.31164" lon="2.58881">
        <ele>408.249</ele>
        <time>2018-01-10T11:58:04Z</time>
      </trkpt>
      <trkpt lat="42.31181" lon="2.58879">
        <ele>406.749</ele>
        <time>2018-01-10T11:58:17Z</time>
      </trkpt>
      <trkpt lat="42.31193" lon="2.58888">
        <ele>405.883</ele>
        <time>2018-01-10T11:58:30Z</time>
      </trkpt>
      <trkpt lat="42.31201" lon="2.58887">
        <ele>405.322</ele>
        <time>2018-01-10T11:58:45Z</time>
      </trkpt>
      <trkpt lat="42.31208" lon="2.5889">
        <ele>405.317</ele>
        <time>2018-01-10T11:58:59Z</time>
      </trkpt>
      <trkpt lat="42.31213" lon="2.58891">
        <ele>405.387</ele>
        <time>2018-01-10T11:59:16Z</time>
      </trkpt>
      <trkpt lat="42.31216" lon="2.58888">
        <ele>406.215</ele>
        <time>2018-01-10T11:59:34Z</time>
      </trkpt>
      <trkpt lat="42.31233" lon="2.58889">
        <ele>407.708</ele>
        <time>2018-01-10T11:59:48Z</time>
      </trkpt>
      <trkpt lat="42.31249" lon="2.58897">
        <ele>409.133</ele>
        <time>2018-01-10T12:00:02Z</time>
      </trkpt>
      <trkpt lat="42.3126" lon="2.58909">
        <ele>409.672</ele>
        <time>2018-01-10T12:00:15Z</time>
      </trkpt>
      <trkpt lat="42.31267" lon="2.58916">
        <ele>409.64</ele>
        <time>2018-01-10T12:00:22Z</time>
      </trkpt>
      <trkpt lat="42.31286" lon="2.58935">
        <ele>410.198</ele>
        <time>2018-01-10T12:00:36Z</time>
      </trkpt>
      <trkpt lat="42.31293" lon="2.58955">
        <ele>411.154</ele>
        <time>2018-01-10T12:00:51Z</time>
      </trkpt>
      <trkpt lat="42.31302" lon="2.58974">
        <ele>413.084</ele>
        <time>2018-01-10T12:01:03Z</time>
      </trkpt>
      <trkpt lat="42.31305" lon="2.58996">
        <ele>415.438</ele>
        <time>2018-01-10T12:01:17Z</time>
      </trkpt>
      <trkpt lat="42.31313" lon="2.59012">
        <ele>418.337</ele>
        <time>2018-01-10T12:01:31Z</time>
      </trkpt>
      <trkpt lat="42.31319" lon="2.59021">
        <ele>419.241</ele>
        <time>2018-01-10T12:01:39Z</time>
      </trkpt>
      <trkpt lat="42.31328" lon="2.59032">
        <ele>422.181</ele>
        <time>2018-01-10T12:01:54Z</time>
      </trkpt>
      <trkpt lat="42.31341" lon="2.59041">
        <ele>425.509</ele>
        <time>2018-01-10T12:02:10Z</time>
      </trkpt>
      <trkpt lat="42.31349" lon="2.59041">
        <ele>427.908</ele>
        <time>2018-01-10T12:02:27Z</time>
      </trkpt>
      <trkpt lat="42.31354" lon="2.59036">
        <ele>428.876</ele>
        <time>2018-01-10T12:02:42Z</time>
      </trkpt>
      <trkpt lat="42.31365" lon="2.59037">
        <ele>430.865</ele>
        <time>2018-01-10T12:02:57Z</time>
      </trkpt>
      <trkpt lat="42.31375" lon="2.59037">
        <ele>433.283</ele>
        <time>2018-01-10T12:03:07Z</time>
      </trkpt>
      <trkpt lat="42.31391" lon="2.59029">
        <ele>435.191</ele>
        <time>2018-01-10T12:03:25Z</time>
      </trkpt>
      <trkpt lat="42.31405" lon="2.59023">
        <ele>435.667</ele>
        <time>2018-01-10T12:03:37Z</time>
      </trkpt>
      <trkpt lat="42.31407" lon="2.59024">
        <ele>434.127</ele>
        <time>2018-01-10T12:03:38Z</time>
      </trkpt>
      <trkpt lat="42.31414" lon="2.59013">
        <ele>434.171</ele>
        <time>2018-01-10T12:03:43Z</time>
      </trkpt>
      <trkpt lat="42.31416" lon="2.59011">
        <ele>433.61</ele>
        <time>2018-01-10T12:03:45Z</time>
      </trkpt>
      <trkpt lat="42.3142" lon="2.59007">
        <ele>433.643</ele>
        <time>2018-01-10T12:03:48Z</time>
      </trkpt>
      <trkpt lat="42.31429" lon="2.58992">
        <ele>432.764</ele>
        <time>2018-01-10T12:03:56Z</time>
      </trkpt>
      <trkpt lat="42.31435" lon="2.58985">
        <ele>432.21</ele>
        <time>2018-01-10T12:04:02Z</time>
      </trkpt>
      <trkpt lat="42.31436" lon="2.5898">
        <ele>432.208</ele>
        <time>2018-01-10T12:04:04Z</time>
      </trkpt>
      <trkpt lat="42.3144" lon="2.58955">
        <ele>429.316</ele>
        <time>2018-01-10T12:04:18Z</time>
      </trkpt>
      <trkpt lat="42.31441" lon="2.58948">
        <ele>428.435</ele>
        <time>2018-01-10T12:04:21Z</time>
      </trkpt>
      <trkpt lat="42.31447" lon="2.58921">
        <ele>427.993</ele>
        <time>2018-01-10T12:04:34Z</time>
      </trkpt>
      <trkpt lat="42.31449" lon="2.58918">
        <ele>429.331</ele>
        <time>2018-01-10T12:04:36Z</time>
      </trkpt>
      <trkpt lat="42.31453" lon="2.58899">
        <ele>429.817</ele>
        <time>2018-01-10T12:04:47Z</time>
      </trkpt>
      <trkpt lat="42.31453" lon="2.58894">
        <ele>430.337</ele>
        <time>2018-01-10T12:04:50Z</time>
      </trkpt>
      <trkpt lat="42.31456" lon="2.58887">
        <ele>430.341</ele>
        <time>2018-01-10T12:04:54Z</time>
      </trkpt>
      <trkpt lat="42.31456" lon="2.58869">
        <ele>431.27</ele>
        <time>2018-01-10T12:05:02Z</time>
      </trkpt>
      <trkpt lat="42.31457" lon="2.58863">
        <ele>431.721</ele>
        <time>2018-01-10T12:05:05Z</time>
      </trkpt>
      <trkpt lat="42.31454" lon="2.58851">
        <ele>431.241</ele>
        <time>2018-01-10T12:05:14Z</time>
      </trkpt>
      <trkpt lat="42.3145" lon="2.58837">
        <ele>429.805</ele>
        <time>2018-01-10T12:05:24Z</time>
      </trkpt>
      <trkpt lat="42.31454" lon="2.58815">
        <ele>429.308</ele>
        <time>2018-01-10T12:05:39Z</time>
      </trkpt>
      <trkpt lat="42.31462" lon="2.58798">
        <ele>432.294</ele>
        <time>2018-01-10T12:05:53Z</time>
      </trkpt>
      <trkpt lat="42.31465" lon="2.58809">
        <ele>433.633</ele>
        <time>2018-01-10T12:06:06Z</time>
      </trkpt>
      <trkpt lat="42.3148" lon="2.58814">
        <ele>433.651</ele>
        <time>2018-01-10T12:06:20Z</time>
      </trkpt>
      <trkpt lat="42.31499" lon="2.58828">
        <ele>433.619</ele>
        <time>2018-01-10T12:06:34Z</time>
      </trkpt>
      <trkpt lat="42.31525" lon="2.58836">
        <ele>434.155</ele>
        <time>2018-01-10T12:06:50Z</time>
      </trkpt>
      <trkpt lat="42.31537" lon="2.58844">
        <ele>435.165</ele>
        <time>2018-01-10T12:06:59Z</time>
      </trkpt>
      <trkpt lat="42.31558" lon="2.58852">
        <ele>435.689</ele>
        <time>2018-01-10T12:07:13Z</time>
      </trkpt>
      <trkpt lat="42.31567" lon="2.58865">
        <ele>437.058</ele>
        <time>2018-01-10T12:07:24Z</time>
      </trkpt>
      <trkpt lat="42.3158" lon="2.58883">
        <ele>439.454</ele>
        <time>2018-01-10T12:07:40Z</time>
      </trkpt>
      <trkpt lat="42.31595" lon="2.58892">
        <ele>440.456</ele>
        <time>2018-01-10T12:07:53Z</time>
      </trkpt>
      <trkpt lat="42.31609" lon="2.58896">
        <ele>442.811</ele>
        <time>2018-01-10T12:08:06Z</time>
      </trkpt>
      <trkpt lat="42.31624" lon="2.58891">
        <ele>443.308</ele>
        <time>2018-01-10T12:08:19Z</time>
      </trkpt>
      <trkpt lat="42.31629" lon="2.5889">
        <ele>443.777</ele>
        <time>2018-01-10T12:08:22Z</time>
      </trkpt>
      <trkpt lat="42.31649" lon="2.58884">
        <ele>445.236</ele>
        <time>2018-01-10T12:08:37Z</time>
      </trkpt>
      <trkpt lat="42.31663" lon="2.58885">
        <ele>447.174</ele>
        <time>2018-01-10T12:08:52Z</time>
      </trkpt>
      <trkpt lat="42.31673" lon="2.58884">
        <ele>448.522</ele>
        <time>2018-01-10T12:09:01Z</time>
      </trkpt>
      <trkpt lat="42.31676" lon="2.58885">
        <ele>447.118</ele>
        <time>2018-01-10T12:09:04Z</time>
      </trkpt>
      <trkpt lat="42.31686" lon="2.58885">
        <ele>443.398</ele>
        <time>2018-01-10T12:09:13Z</time>
      </trkpt>
      <trkpt lat="42.31696" lon="2.58874">
        <ele>439.922</ele>
        <time>2018-01-10T12:09:25Z</time>
      </trkpt>
      <trkpt lat="42.31709" lon="2.58858">
        <ele>438.531</ele>
        <time>2018-01-10T12:09:40Z</time>
      </trkpt>
      <trkpt lat="42.3171" lon="2.58856">
        <ele>438.566</ele>
        <time>2018-01-10T12:09:42Z</time>
      </trkpt>
      <trkpt lat="42.31717" lon="2.58846">
        <ele>437.029</ele>
        <time>2018-01-10T12:09:49Z</time>
      </trkpt>
      <trkpt lat="42.31721" lon="2.58813">
        <ele>437.021</ele>
        <time>2018-01-10T12:10:02Z</time>
      </trkpt>
      <trkpt lat="42.31714" lon="2.58804">
        <ele>435.608</ele>
        <time>2018-01-10T12:10:08Z</time>
      </trkpt>
      <trkpt lat="42.3171" lon="2.58789">
        <ele>435.688</ele>
        <time>2018-01-10T12:10:23Z</time>
      </trkpt>
      <trkpt lat="42.31706" lon="2.58789">
        <ele>437.037</ele>
        <time>2018-01-10T12:10:28Z</time>
      </trkpt>
      <trkpt lat="42.31696" lon="2.58783">
        <ele>439.985</ele>
        <time>2018-01-10T12:10:42Z</time>
      </trkpt>
      <trkpt lat="42.31689" lon="2.58778">
        <ele>442.363</ele>
        <time>2018-01-10T12:10:57Z</time>
      </trkpt>
      <trkpt lat="42.31688" lon="2.5878">
        <ele>442.339</ele>
        <time>2018-01-10T12:10:58Z</time>
      </trkpt>
      <trkpt lat="42.31686" lon="2.5879">
        <ele>443.769</ele>
        <time>2018-01-10T12:11:13Z</time>
      </trkpt>
      <trkpt lat="42.31684" lon="2.58783">
        <ele>444.253</ele>
        <time>2018-01-10T12:11:44Z</time>
      </trkpt>
      <trkpt lat="42.31689" lon="2.58778">
        <ele>444.212</ele>
        <time>2018-01-10T12:12:10Z</time>
      </trkpt>
      <trkpt lat="42.31689" lon="2.5878">
        <ele>444.738</ele>
        <time>2018-01-10T12:12:47Z</time>
      </trkpt>
      <trkpt lat="42.31683" lon="2.58782">
        <ele>444.77</ele>
        <time>2018-01-10T12:13:08Z</time>
      </trkpt>
      <trkpt lat="42.31684" lon="2.5878">
        <ele>443.317</ele>
        <time>2018-01-10T12:13:25Z</time>
      </trkpt>
      <trkpt lat="42.31685" lon="2.58769">
        <ele>441.808</ele>
        <time>2018-01-10T12:13:37Z</time>
      </trkpt>
      <trkpt lat="42.31683" lon="2.58766">
        <ele>442.355</ele>
        <time>2018-01-10T12:13:40Z</time>
      </trkpt>
      <trkpt lat="42.31684" lon="2.58757">
        <ele>443.354</ele>
        <time>2018-01-10T12:13:46Z</time>
      </trkpt>
      <trkpt lat="42.31684" lon="2.58756">
        <ele>443.732</ele>
        <time>2018-01-10T12:13:47Z</time>
      </trkpt>
      <trkpt lat="42.31684" lon="2.58749">
        <ele>443.72</ele>
        <time>2018-01-10T12:13:51Z</time>
      </trkpt>
      <trkpt lat="42.31679" lon="2.58736">
        <ele>445.786</ele>
        <time>2018-01-10T12:14:06Z</time>
      </trkpt>
      <trkpt lat="42.31686" lon="2.5872">
        <ele>448.186</ele>
        <time>2018-01-10T12:14:22Z</time>
      </trkpt>
      <trkpt lat="42.31698" lon="2.58716">
        <ele>450.51</ele>
        <time>2018-01-10T12:14:36Z</time>
      </trkpt>
      <trkpt lat="42.31706" lon="2.58702">
        <ele>453.429</ele>
        <time>2018-01-10T12:14:52Z</time>
      </trkpt>
      <trkpt lat="42.31709" lon="2.58692">
        <ele>456.722</ele>
        <time>2018-01-10T12:15:04Z</time>
      </trkpt>
      <trkpt lat="42.3171" lon="2.58681">
        <ele>460.162</ele>
        <time>2018-01-10T12:15:19Z</time>
      </trkpt>
      <trkpt lat="42.31707" lon="2.58671">
        <ele>463.408</ele>
        <time>2018-01-10T12:15:33Z</time>
      </trkpt>
      <trkpt lat="42.31707" lon="2.58654">
        <ele>466.308</ele>
        <time>2018-01-10T12:15:49Z</time>
      </trkpt>
      <trkpt lat="42.31703" lon="2.58646">
        <ele>468.334</ele>
        <time>2018-01-10T12:16:03Z</time>
      </trkpt>
      <trkpt lat="42.31702" lon="2.58628">
        <ele>471.133</ele>
        <time>2018-01-10T12:16:21Z</time>
      </trkpt>
      <trkpt lat="42.31701" lon="2.58611">
        <ele>473.141</ele>
        <time>2018-01-10T12:16:35Z</time>
      </trkpt>
      <trkpt lat="42.31709" lon="2.5859">
        <ele>475.519</ele>
        <time>2018-01-10T12:16:50Z</time>
      </trkpt>
      <trkpt lat="42.31718" lon="2.58572">
        <ele>477.925</ele>
        <time>2018-01-10T12:17:05Z</time>
      </trkpt>
      <trkpt lat="42.31712" lon="2.58564">
        <ele>479.845</ele>
        <time>2018-01-10T12:17:24Z</time>
      </trkpt>
      <trkpt lat="42.31709" lon="2.58556">
        <ele>482.719</ele>
        <time>2018-01-10T12:17:40Z</time>
      </trkpt>
      <trkpt lat="42.31704" lon="2.58546">
        <ele>484.628</ele>
        <time>2018-01-10T12:17:53Z</time>
      </trkpt>
      <trkpt lat="42.31697" lon="2.58536">
        <ele>487.085</ele>
        <time>2018-01-10T12:18:09Z</time>
      </trkpt>
      <trkpt lat="42.31699" lon="2.58524">
        <ele>489.989</ele>
        <time>2018-01-10T12:18:21Z</time>
      </trkpt>
      <trkpt lat="42.31695" lon="2.58506">
        <ele>491.317</ele>
        <time>2018-01-10T12:18:36Z</time>
      </trkpt>
      <trkpt lat="42.31698" lon="2.58504">
        <ele>491.808</ele>
        <time>2018-01-10T12:18:49Z</time>
      </trkpt>
      <trkpt lat="42.31702" lon="2.58499">
        <ele>493.24</ele>
        <time>2018-01-10T12:19:04Z</time>
      </trkpt>
      <trkpt lat="42.31702" lon="2.58507">
        <ele>493.289</ele>
        <time>2018-01-10T12:19:18Z</time>
      </trkpt>
      <trkpt lat="42.317" lon="2.58514">
        <ele>490.497</ele>
        <time>2018-01-10T12:19:29Z</time>
      </trkpt>
      <trkpt lat="42.31702" lon="2.58516">
        <ele>490.475</ele>
        <time>2018-01-10T12:19:31Z</time>
      </trkpt>
      <trkpt lat="42.31711" lon="2.58505">
        <ele>491.891</ele>
        <time>2018-01-10T12:19:44Z</time>
      </trkpt>
      <trkpt lat="42.31706" lon="2.58496">
        <ele>494.291</ele>
        <time>2018-01-10T12:19:58Z</time>
      </trkpt>
      <trkpt lat="42.31708" lon="2.58478">
        <ele>497.685</ele>
        <time>2018-01-10T12:20:14Z</time>
      </trkpt>
      <trkpt lat="42.31711" lon="2.58462">
        <ele>500.924</ele>
        <time>2018-01-10T12:20:31Z</time>
      </trkpt>
      <trkpt lat="42.31718" lon="2.58453">
        <ele>504.383</ele>
        <time>2018-01-10T12:20:47Z</time>
      </trkpt>
      <trkpt lat="42.31715" lon="2.5844">
        <ele>507.225</ele>
        <time>2018-01-10T12:21:04Z</time>
      </trkpt>
      <trkpt lat="42.31713" lon="2.58423">
        <ele>510.117</ele>
        <time>2018-01-10T12:21:20Z</time>
      </trkpt>
      <trkpt lat="42.31713" lon="2.58418">
        <ele>511.008</ele>
        <time>2018-01-10T12:21:34Z</time>
      </trkpt>
      <trkpt lat="42.31718" lon="2.58409">
        <ele>513.44</ele>
        <time>2018-01-10T12:21:51Z</time>
      </trkpt>
      <trkpt lat="42.31726" lon="2.58398">
        <ele>516.889</ele>
        <time>2018-01-10T12:22:06Z</time>
      </trkpt>
      <trkpt lat="42.31731" lon="2.58384">
        <ele>520.297</ele>
        <time>2018-01-10T12:22:23Z</time>
      </trkpt>
      <trkpt lat="42.31731" lon="2.58363">
        <ele>523.095</ele>
        <time>2018-01-10T12:22:40Z</time>
      </trkpt>
      <trkpt lat="42.3173" lon="2.58342">
        <ele>526.491</ele>
        <time>2018-01-10T12:22:58Z</time>
      </trkpt>
      <trkpt lat="42.31725" lon="2.58326">
        <ele>529.391</ele>
        <time>2018-01-10T12:23:16Z</time>
      </trkpt>
      <trkpt lat="42.31722" lon="2.58303">
        <ele>531.245</ele>
        <time>2018-01-10T12:23:33Z</time>
      </trkpt>
      <trkpt lat="42.31715" lon="2.58288">
        <ele>533.114</ele>
        <time>2018-01-10T12:23:49Z</time>
      </trkpt>
      <trkpt lat="42.31713" lon="2.5827">
        <ele>534.174</ele>
        <time>2018-01-10T12:24:08Z</time>
      </trkpt>
      <trkpt lat="42.31712" lon="2.58252">
        <ele>536.056</ele>
        <time>2018-01-10T12:24:24Z</time>
      </trkpt>
      <trkpt lat="42.31713" lon="2.58247">
        <ele>537.521</ele>
        <time>2018-01-10T12:24:38Z</time>
      </trkpt>
      <trkpt lat="42.31711" lon="2.58231">
        <ele>538.408</ele>
        <time>2018-01-10T12:24:54Z</time>
      </trkpt>
      <trkpt lat="42.31715" lon="2.58225">
        <ele>541.889</ele>
        <time>2018-01-10T12:25:11Z</time>
      </trkpt>
      <trkpt lat="42.31721" lon="2.58224">
        <ele>544.778</ele>
        <time>2018-01-10T12:25:24Z</time>
      </trkpt>
      <trkpt lat="42.31726" lon="2.5823">
        <ele>547.146</ele>
        <time>2018-01-10T12:25:38Z</time>
      </trkpt>
      <trkpt lat="42.3173" lon="2.5822">
        <ele>549.514</ele>
        <time>2018-01-10T12:25:52Z</time>
      </trkpt>
      <trkpt lat="42.31729" lon="2.58196">
        <ele>552.42</ele>
        <time>2018-01-10T12:26:10Z</time>
      </trkpt>
      <trkpt lat="42.31734" lon="2.58178">
        <ele>552.97</ele>
        <time>2018-01-10T12:26:24Z</time>
      </trkpt>
      <trkpt lat="42.31738" lon="2.58154">
        <ele>552.974</ele>
        <time>2018-01-10T12:26:41Z</time>
      </trkpt>
      <trkpt lat="42.31735" lon="2.5813">
        <ele>555.713</ele>
        <time>2018-01-10T12:27:00Z</time>
      </trkpt>
      <trkpt lat="42.31731" lon="2.58111">
        <ele>559.167</ele>
        <time>2018-01-10T12:27:18Z</time>
      </trkpt>
      <trkpt lat="42.31736" lon="2.581">
        <ele>562.581</ele>
        <time>2018-01-10T12:27:33Z</time>
      </trkpt>
      <trkpt lat="42.31736" lon="2.5809">
        <ele>566.319</ele>
        <time>2018-01-10T12:27:47Z</time>
      </trkpt>
      <trkpt lat="42.31735" lon="2.58081">
        <ele>569.208</ele>
        <time>2018-01-10T12:28:01Z</time>
      </trkpt>
      <trkpt lat="42.31735" lon="2.58073">
        <ele>572.638</ele>
        <time>2018-01-10T12:28:12Z</time>
      </trkpt>
      <trkpt lat="42.31732" lon="2.5806">
        <ele>575.457</ele>
        <time>2018-01-10T12:28:31Z</time>
      </trkpt>
      <trkpt lat="42.31733" lon="2.58052">
        <ele>578.835</ele>
        <time>2018-01-10T12:28:47Z</time>
      </trkpt>
      <trkpt lat="42.31735" lon="2.58042">
        <ele>582.223</ele>
        <time>2018-01-10T12:29:02Z</time>
      </trkpt>
      <trkpt lat="42.31737" lon="2.58033">
        <ele>585.519</ele>
        <time>2018-01-10T12:29:19Z</time>
      </trkpt>
      <trkpt lat="42.31736" lon="2.58018">
        <ele>588.449</ele>
        <time>2018-01-10T12:29:39Z</time>
      </trkpt>
      <trkpt lat="42.31735" lon="2.58001">
        <ele>591.333</ele>
        <time>2018-01-10T12:29:59Z</time>
      </trkpt>
      <trkpt lat="42.31732" lon="2.57983">
        <ele>594.732</ele>
        <time>2018-01-10T12:30:17Z</time>
      </trkpt>
      <trkpt lat="42.31732" lon="2.57961">
        <ele>596.611</ele>
        <time>2018-01-10T12:30:38Z</time>
      </trkpt>
      <trkpt lat="42.31733" lon="2.57954">
        <ele>599.521</ele>
        <time>2018-01-10T12:30:51Z</time>
      </trkpt>
      <trkpt lat="42.31734" lon="2.57939">
        <ele>602.803</ele>
        <time>2018-01-10T12:31:12Z</time>
      </trkpt>
      <trkpt lat="42.31735" lon="2.57923">
        <ele>605.708</ele>
        <time>2018-01-10T12:31:31Z</time>
      </trkpt>
      <trkpt lat="42.3174" lon="2.57906">
        <ele>608.623</ele>
        <time>2018-01-10T12:31:49Z</time>
      </trkpt>
      <trkpt lat="42.31743" lon="2.57888">
        <ele>611.552</ele>
        <time>2018-01-10T12:32:09Z</time>
      </trkpt>
      <trkpt lat="42.31745" lon="2.57869">
        <ele>614.46</ele>
        <time>2018-01-10T12:32:29Z</time>
      </trkpt>
      <trkpt lat="42.31749" lon="2.57855">
        <ele>617.738</ele>
        <time>2018-01-10T12:32:47Z</time>
      </trkpt>
      <trkpt lat="42.31753" lon="2.57843">
        <ele>620.674</ele>
        <time>2018-01-10T12:33:03Z</time>
      </trkpt>
      <trkpt lat="42.31756" lon="2.57832">
        <ele>624.044</ele>
        <time>2018-01-10T12:33:20Z</time>
      </trkpt>
      <trkpt lat="42.31757" lon="2.57815">
        <ele>627.448</ele>
        <time>2018-01-10T12:33:40Z</time>
      </trkpt>
      <trkpt lat="42.31761" lon="2.57802">
        <ele>630.217</ele>
        <time>2018-01-10T12:34:04Z</time>
      </trkpt>
      <trkpt lat="42.31766" lon="2.57793">
        <ele>634.142</ele>
        <time>2018-01-10T12:34:20Z</time>
      </trkpt>
      <trkpt lat="42.31763" lon="2.57778">
        <ele>635.522</ele>
        <time>2018-01-10T12:34:42Z</time>
      </trkpt>
      <trkpt lat="42.31766" lon="2.57768">
        <ele>637.914</ele>
        <time>2018-01-10T12:34:59Z</time>
      </trkpt>
      <trkpt lat="42.31771" lon="2.57754">
        <ele>640.308</ele>
        <time>2018-01-10T12:35:16Z</time>
      </trkpt>
      <trkpt lat="42.3177" lon="2.57737">
        <ele>643.766</ele>
        <time>2018-01-10T12:35:31Z</time>
      </trkpt>
      <trkpt lat="42.31774" lon="2.57721">
        <ele>647.175</ele>
        <time>2018-01-10T12:35:49Z</time>
      </trkpt>
      <trkpt lat="42.31777" lon="2.57698">
        <ele>648.573</ele>
        <time>2018-01-10T12:36:09Z</time>
      </trkpt>
      <trkpt lat="42.3178" lon="2.57678">
        <ele>651.441</ele>
        <time>2018-01-10T12:36:29Z</time>
      </trkpt>
      <trkpt lat="42.31779" lon="2.57662">
        <ele>653.877</ele>
        <time>2018-01-10T12:36:49Z</time>
      </trkpt>
      <trkpt lat="42.31779" lon="2.57646">
        <ele>657.267</ele>
        <time>2018-01-10T12:37:07Z</time>
      </trkpt>
      <trkpt lat="42.31779" lon="2.57632">
        <ele>659.181</ele>
        <time>2018-01-10T12:37:24Z</time>
      </trkpt>
      <trkpt lat="42.3178" lon="2.57614">
        <ele>662.46</ele>
        <time>2018-01-10T12:37:43Z</time>
      </trkpt>
      <trkpt lat="42.31783" lon="2.57603">
        <ele>663.494</ele>
        <time>2018-01-10T12:38:01Z</time>
      </trkpt>
      <trkpt lat="42.31785" lon="2.57591">
        <ele>666.857</ele>
        <time>2018-01-10T12:38:17Z</time>
      </trkpt>
      <trkpt lat="42.31784" lon="2.57573">
        <ele>669.722</ele>
        <time>2018-01-10T12:38:35Z</time>
      </trkpt>
      <trkpt lat="42.31787" lon="2.57568">
        <ele>673.008</ele>
        <time>2018-01-10T12:38:50Z</time>
      </trkpt>
      <trkpt lat="42.31789" lon="2.57557">
        <ele>676.431</ele>
        <time>2018-01-10T12:39:04Z</time>
      </trkpt>
      <trkpt lat="42.31793" lon="2.57547">
        <ele>679.35</ele>
        <time>2018-01-10T12:39:19Z</time>
      </trkpt>
      <trkpt lat="42.31802" lon="2.57523">
        <ele>682.668</ele>
        <time>2018-01-10T12:39:38Z</time>
      </trkpt>
      <trkpt lat="42.31809" lon="2.57497">
        <ele>686.016</ele>
        <time>2018-01-10T12:39:55Z</time>
      </trkpt>
      <trkpt lat="42.31811" lon="2.57483">
        <ele>686.022</ele>
        <time>2018-01-10T12:40:10Z</time>
      </trkpt>
      <trkpt lat="42.31816" lon="2.57465">
        <ele>689.432</ele>
        <time>2018-01-10T12:40:27Z</time>
      </trkpt>
      <trkpt lat="42.31818" lon="2.57457">
        <ele>693.266</ele>
        <time>2018-01-10T12:40:41Z</time>
      </trkpt>
      <trkpt lat="42.31819" lon="2.57427">
        <ele>696.635</ele>
        <time>2018-01-10T12:40:57Z</time>
      </trkpt>
      <trkpt lat="42.31822" lon="2.57409">
        <ele>699.941</ele>
        <time>2018-01-10T12:41:14Z</time>
      </trkpt>
      <trkpt lat="42.31822" lon="2.57395">
        <ele>703.381</ele>
        <time>2018-01-10T12:41:32Z</time>
      </trkpt>
      <trkpt lat="42.31825" lon="2.57382">
        <ele>706.709</ele>
        <time>2018-01-10T12:41:47Z</time>
      </trkpt>
      <trkpt lat="42.31829" lon="2.57371">
        <ele>710.008</ele>
        <time>2018-01-10T12:42:04Z</time>
      </trkpt>
      <trkpt lat="42.31828" lon="2.57354">
        <ele>712.936</ele>
        <time>2018-01-10T12:42:20Z</time>
      </trkpt>
      <trkpt lat="42.3183" lon="2.57333">
        <ele>716.315</ele>
        <time>2018-01-10T12:42:39Z</time>
      </trkpt>
      <trkpt lat="42.31832" lon="2.57322">
        <ele>719.283</ele>
        <time>2018-01-10T12:42:53Z</time>
      </trkpt>
      <trkpt lat="42.31835" lon="2.57305">
        <ele>722.551</ele>
        <time>2018-01-10T12:43:10Z</time>
      </trkpt>
      <trkpt lat="42.31836" lon="2.57291">
        <ele>724.477</ele>
        <time>2018-01-10T12:43:26Z</time>
      </trkpt>
      <trkpt lat="42.31838" lon="2.57278">
        <ele>727.867</ele>
        <time>2018-01-10T12:43:41Z</time>
      </trkpt>
      <trkpt lat="42.31844" lon="2.57267">
        <ele>731.291</ele>
        <time>2018-01-10T12:44:00Z</time>
      </trkpt>
      <trkpt lat="42.31847" lon="2.57256">
        <ele>734.18</ele>
        <time>2018-01-10T12:44:25Z</time>
      </trkpt>
      <trkpt lat="42.31851" lon="2.57253">
        <ele>736.923</ele>
        <time>2018-01-10T12:44:38Z</time>
      </trkpt>
      <trkpt lat="42.3185" lon="2.57254">
        <ele>737.983</ele>
        <time>2018-01-10T12:44:56Z</time>
      </trkpt>
      <trkpt lat="42.3185" lon="2.5728">
        <ele>740.811</ele>
        <time>2018-01-10T12:45:13Z</time>
      </trkpt>
      <trkpt lat="42.31854" lon="2.57279">
        <ele>744.208</ele>
        <time>2018-01-10T12:45:28Z</time>
      </trkpt>
      <trkpt lat="42.31853" lon="2.57261">
        <ele>747.544</ele>
        <time>2018-01-10T12:45:46Z</time>
      </trkpt>
      <trkpt lat="42.31855" lon="2.57243">
        <ele>750.963</ele>
        <time>2018-01-10T12:46:00Z</time>
      </trkpt>
      <trkpt lat="42.31858" lon="2.57221">
        <ele>754.251</ele>
        <time>2018-01-10T12:46:17Z</time>
      </trkpt>
      <trkpt lat="42.31852" lon="2.57202">
        <ele>755.759</ele>
        <time>2018-01-10T12:46:35Z</time>
      </trkpt>
      <trkpt lat="42.31846" lon="2.57192">
        <ele>759.115</ele>
        <time>2018-01-10T12:46:51Z</time>
      </trkpt>
      <trkpt lat="42.31825" lon="2.57297">
        <ele>758.625</ele>
        <time>2018-01-10T12:47:26Z</time>
      </trkpt>
      <trkpt lat="42.31827" lon="2.57293">
        <ele>760.579</ele>
        <time>2018-01-10T12:47:42Z</time>
      </trkpt>
      <trkpt lat="42.31829" lon="2.57273">
        <ele>763.418</ele>
        <time>2018-01-10T12:48:01Z</time>
      </trkpt>
      <trkpt lat="42.31828" lon="2.57253">
        <ele>762.972</ele>
        <time>2018-01-10T12:48:18Z</time>
      </trkpt>
      <trkpt lat="42.31821" lon="2.57237">
        <ele>764.313</ele>
        <time>2018-01-10T12:48:33Z</time>
      </trkpt>
      <trkpt lat="42.31817" lon="2.57214">
        <ele>766.314</ele>
        <time>2018-01-10T12:48:50Z</time>
      </trkpt>
      <trkpt lat="42.31813" lon="2.57196">
        <ele>768.708</ele>
        <time>2018-01-10T12:49:06Z</time>
      </trkpt>
      <trkpt lat="42.31804" lon="2.57179">
        <ele>769.639</ele>
        <time>2018-01-10T12:49:21Z</time>
      </trkpt>
      <trkpt lat="42.31792" lon="2.57171">
        <ele>770.658</ele>
        <time>2018-01-10T12:49:37Z</time>
      </trkpt>
      <trkpt lat="42.31781" lon="2.57148">
        <ele>770.696</ele>
        <time>2018-01-10T12:49:53Z</time>
      </trkpt>
      <trkpt lat="42.31768" lon="2.57132">
        <ele>773.094</ele>
        <time>2018-01-10T12:50:11Z</time>
      </trkpt>
      <trkpt lat="42.31761" lon="2.57128">
        <ele>774.92</ele>
        <time>2018-01-10T12:50:24Z</time>
      </trkpt>
      <trkpt lat="42.31763" lon="2.5712">
        <ele>777.82</ele>
        <time>2018-01-10T12:50:37Z</time>
      </trkpt>
      <trkpt lat="42.31761" lon="2.57113">
        <ele>781.234</ele>
        <time>2018-01-10T12:50:51Z</time>
      </trkpt>
      <trkpt lat="42.31761" lon="2.57105">
        <ele>784.553</ele>
        <time>2018-01-10T12:51:04Z</time>
      </trkpt>
      <trkpt lat="42.31758" lon="2.57096">
        <ele>787.418</ele>
        <time>2018-01-10T12:51:19Z</time>
      </trkpt>
      <trkpt lat="42.31755" lon="2.5709">
        <ele>790.898</ele>
        <time>2018-01-10T12:51:34Z</time>
      </trkpt>
      <trkpt lat="42.31751" lon="2.5708">
        <ele>792.717</ele>
        <time>2018-01-10T12:51:49Z</time>
      </trkpt>
      <trkpt lat="42.31747" lon="2.57067">
        <ele>795.608</ele>
        <time>2018-01-10T12:52:11Z</time>
      </trkpt>
      <trkpt lat="42.31737" lon="2.57057">
        <ele>798.543</ele>
        <time>2018-01-10T12:52:29Z</time>
      </trkpt>
      <trkpt lat="42.31731" lon="2.5705">
        <ele>801.482</ele>
        <time>2018-01-10T12:52:42Z</time>
      </trkpt>
      <trkpt lat="42.31732" lon="2.57036">
        <ele>804.73</ele>
        <time>2018-01-10T12:52:54Z</time>
      </trkpt>
      <trkpt lat="42.31738" lon="2.5703">
        <ele>807.658</ele>
        <time>2018-01-10T12:53:14Z</time>
      </trkpt>
      <trkpt lat="42.31743" lon="2.57031">
        <ele>809.514</ele>
        <time>2018-01-10T12:53:21Z</time>
      </trkpt>
      <trkpt lat="42.31749" lon="2.57034">
        <ele>811.424</ele>
        <time>2018-01-10T12:53:35Z</time>
      </trkpt>
      <trkpt lat="42.3175" lon="2.57033">
        <ele>814.818</ele>
        <time>2018-01-10T12:53:51Z</time>
      </trkpt>
      <trkpt lat="42.31751" lon="2.57028">
        <ele>816.327</ele>
        <time>2018-01-10T12:54:12Z</time>
      </trkpt>
      <trkpt lat="42.31749" lon="2.5703">
        <ele>817.254</ele>
        <time>2018-01-10T12:54:30Z</time>
      </trkpt>
      <trkpt lat="42.31748" lon="2.5703">
        <ele>815.856</ele>
        <time>2018-01-10T12:54:32Z</time>
      </trkpt>
      <trkpt lat="42.31746" lon="2.57029">
        <ele>817.211</ele>
        <time>2018-01-10T12:54:40Z</time>
      </trkpt>
      <trkpt lat="42.31743" lon="2.57023">
        <ele>819.608</ele>
        <time>2018-01-10T12:54:55Z</time>
      </trkpt>
      <trkpt lat="42.3174" lon="2.57023">
        <ele>818.297</ele>
        <time>2018-01-10T12:55:04Z</time>
      </trkpt>
      <trkpt lat="42.31741" lon="2.57028">
        <ele>818.266</ele>
        <time>2018-01-10T12:55:21Z</time>
      </trkpt>
      <trkpt lat="42.31742" lon="2.5703">
        <ele>819.634</ele>
        <time>2018-01-10T12:55:24Z</time>
      </trkpt>
      <trkpt lat="42.31744" lon="2.57034">
        <ele>818.282</ele>
        <time>2018-01-10T12:55:30Z</time>
      </trkpt>
      <trkpt lat="42.31747" lon="2.57041">
        <ele>815.818</ele>
        <time>2018-01-10T12:55:44Z</time>
      </trkpt>
      <trkpt lat="42.3175" lon="2.57039">
        <ele>816.788</ele>
        <time>2018-01-10T12:56:01Z</time>
      </trkpt>
      <trkpt lat="42.31755" lon="2.57043">
        <ele>820.152</ele>
        <time>2018-01-10T12:56:13Z</time>
      </trkpt>
      <trkpt lat="42.31756" lon="2.57053">
        <ele>823.591</ele>
        <time>2018-01-10T12:56:28Z</time>
      </trkpt>
      <trkpt lat="42.31761" lon="2.57058">
        <ele>826.827</ele>
        <time>2018-01-10T12:56:41Z</time>
      </trkpt>
      <trkpt lat="42.31764" lon="2.57064">
        <ele>829.268</ele>
        <time>2018-01-10T12:56:57Z</time>
      </trkpt>
      <trkpt lat="42.31768" lon="2.57062">
        <ele>830.714</ele>
        <time>2018-01-10T12:57:11Z</time>
      </trkpt>
      <trkpt lat="42.31774" lon="2.57068">
        <ele>831.208</ele>
        <time>2018-01-10T12:57:29Z</time>
      </trkpt>
      <trkpt lat="42.31779" lon="2.5707">
        <ele>829.744</ele>
        <time>2018-01-10T12:57:36Z</time>
      </trkpt>
      <trkpt lat="42.31785" lon="2.5707">
        <ele>829.723</ele>
        <time>2018-01-10T12:57:50Z</time>
      </trkpt>
      <trkpt lat="42.31788" lon="2.57075">
        <ele>831.211</ele>
        <time>2018-01-10T12:57:55Z</time>
      </trkpt>
      <trkpt lat="42.3179" lon="2.57088">
        <ele>834.039</ele>
        <time>2018-01-10T12:58:12Z</time>
      </trkpt>
      <trkpt lat="42.31796" lon="2.57101">
        <ele>836.985</ele>
        <time>2018-01-10T12:58:27Z</time>
      </trkpt>
      <trkpt lat="42.318" lon="2.57112">
        <ele>840.335</ele>
        <time>2018-01-10T12:58:40Z</time>
      </trkpt>
      <trkpt lat="42.318" lon="2.57105">
        <ele>843.639</ele>
        <time>2018-01-10T12:58:57Z</time>
      </trkpt>
      <trkpt lat="42.31801" lon="2.57098">
        <ele>846.528</ele>
        <time>2018-01-10T12:59:08Z</time>
      </trkpt>
      <trkpt lat="42.31803" lon="2.57094">
        <ele>849.969</ele>
        <time>2018-01-10T12:59:21Z</time>
      </trkpt>
      <trkpt lat="42.31809" lon="2.57095">
        <ele>853.304</ele>
        <time>2018-01-10T12:59:37Z</time>
      </trkpt>
      <trkpt lat="42.31811" lon="2.57102">
        <ele>857.124</ele>
        <time>2018-01-10T12:59:51Z</time>
      </trkpt>
      <trkpt lat="42.31813" lon="2.57109">
        <ele>860.008</ele>
        <time>2018-01-10T13:00:07Z</time>
      </trkpt>
      <trkpt lat="42.31814" lon="2.5712">
        <ele>861.458</ele>
        <time>2018-01-10T13:00:20Z</time>
      </trkpt>
      <trkpt lat="42.31817" lon="2.57119">
        <ele>863.837</ele>
        <time>2018-01-10T13:00:34Z</time>
      </trkpt>
      <trkpt lat="42.31821" lon="2.57113">
        <ele>867.235</ele>
        <time>2018-01-10T13:00:51Z</time>
      </trkpt>
      <trkpt lat="42.31821" lon="2.57107">
        <ele>870.653</ele>
        <time>2018-01-10T13:01:06Z</time>
      </trkpt>
      <trkpt lat="42.31827" lon="2.57103">
        <ele>873.589</ele>
        <time>2018-01-10T13:01:18Z</time>
      </trkpt>
      <trkpt lat="42.31827" lon="2.57093">
        <ele>876.869</ele>
        <time>2018-01-10T13:01:31Z</time>
      </trkpt>
      <trkpt lat="42.31831" lon="2.57085">
        <ele>879.733</ele>
        <time>2018-01-10T13:01:47Z</time>
      </trkpt>
      <trkpt lat="42.31834" lon="2.57089">
        <ele>883.152</ele>
        <time>2018-01-10T13:01:59Z</time>
      </trkpt>
      <trkpt lat="42.31836" lon="2.5709">
        <ele>884.591</ele>
        <time>2018-01-10T13:02:17Z</time>
      </trkpt>
      <trkpt lat="42.31838" lon="2.5709">
        <ele>887.981</ele>
        <time>2018-01-10T13:02:30Z</time>
      </trkpt>
      <trkpt lat="42.31843" lon="2.57095">
        <ele>891.219</ele>
        <time>2018-01-10T13:02:46Z</time>
      </trkpt>
      <trkpt lat="42.31844" lon="2.57103">
        <ele>894.608</ele>
        <time>2018-01-10T13:03:00Z</time>
      </trkpt>
      <trkpt lat="42.31846" lon="2.57103">
        <ele>895.621</ele>
        <time>2018-01-10T13:03:18Z</time>
      </trkpt>
      <trkpt lat="42.3185" lon="2.57101">
        <ele>897.03</ele>
        <time>2018-01-10T13:03:41Z</time>
      </trkpt>
      <trkpt lat="42.31861" lon="2.57102">
        <ele>900.438</ele>
        <time>2018-01-10T13:03:54Z</time>
      </trkpt>
      <trkpt lat="42.3187" lon="2.57109">
        <ele>901.856</ele>
        <time>2018-01-10T13:04:10Z</time>
      </trkpt>
      <trkpt lat="42.31878" lon="2.57111">
        <ele>905.252</ele>
        <time>2018-01-10T13:04:25Z</time>
      </trkpt>
      <trkpt lat="42.31888" lon="2.5711">
        <ele>906.672</ele>
        <time>2018-01-10T13:04:37Z</time>
      </trkpt>
      <trkpt lat="42.31903" lon="2.57109">
        <ele>907.186</ele>
        <time>2018-01-10T13:04:52Z</time>
      </trkpt>
      <trkpt lat="42.31919" lon="2.57108">
        <ele>908.515</ele>
        <time>2018-01-10T13:05:07Z</time>
      </trkpt>
      <trkpt lat="42.3193" lon="2.57104">
        <ele>911.489</ele>
        <time>2018-01-10T13:05:23Z</time>
      </trkpt>
      <trkpt lat="42.31942" lon="2.57103">
        <ele>914.806</ele>
        <time>2018-01-10T13:05:38Z</time>
      </trkpt>
      <trkpt lat="42.31951" lon="2.57107">
        <ele>917.226</ele>
        <time>2018-01-10T13:05:57Z</time>
      </trkpt>
      <trkpt lat="42.31956" lon="2.57109">
        <ele>919.108</ele>
        <time>2018-01-10T13:06:14Z</time>
      </trkpt>
      <trkpt lat="42.31962" lon="2.57115">
        <ele>922.55</ele>
        <time>2018-01-10T13:06:30Z</time>
      </trkpt>
      <trkpt lat="42.31969" lon="2.5712">
        <ele>925.869</ele>
        <time>2018-01-10T13:06:46Z</time>
      </trkpt>
      <trkpt lat="42.31976" lon="2.57126">
        <ele>928.777</ele>
        <time>2018-01-10T13:07:02Z</time>
      </trkpt>
      <trkpt lat="42.3197" lon="2.57109">
        <ele>932.155</ele>
        <time>2018-01-10T13:07:22Z</time>
      </trkpt>
      <trkpt lat="42.31957" lon="2.57106">
        <ele>934.081</ele>
        <time>2018-01-10T13:07:37Z</time>
      </trkpt>
      <trkpt lat="42.31952" lon="2.57095">
        <ele>937.421</ele>
        <time>2018-01-10T13:07:55Z</time>
      </trkpt>
      <trkpt lat="42.31942" lon="2.57088">
        <ele>940.765</ele>
        <time>2018-01-10T13:08:13Z</time>
      </trkpt>
      <trkpt lat="42.31928" lon="2.57077">
        <ele>942.734</ele>
        <time>2018-01-10T13:08:29Z</time>
      </trkpt>
      <trkpt lat="42.31913" lon="2.57069">
        <ele>945.582</ele>
        <time>2018-01-10T13:08:45Z</time>
      </trkpt>
      <trkpt lat="42.31903" lon="2.57053">
        <ele>947.543</ele>
        <time>2018-01-10T13:09:04Z</time>
      </trkpt>
      <trkpt lat="42.31899" lon="2.5703">
        <ele>949.417</ele>
        <time>2018-01-10T13:09:19Z</time>
      </trkpt>
      <trkpt lat="42.319" lon="2.5703">
        <ele>951.308</ele>
        <time>2018-01-10T13:09:42Z</time>
      </trkpt>
      <trkpt lat="42.31909" lon="2.57045">
        <ele>955.27</ele>
        <time>2018-01-10T13:09:57Z</time>
      </trkpt>
      <trkpt lat="42.3192" lon="2.57045">
        <ele>958.059</ele>
        <time>2018-01-10T13:10:13Z</time>
      </trkpt>
      <trkpt lat="42.31928" lon="2.57038">
        <ele>960.957</ele>
        <time>2018-01-10T13:10:27Z</time>
      </trkpt>
      <trkpt lat="42.31925" lon="2.57026">
        <ele>963.855</ele>
        <time>2018-01-10T13:10:45Z</time>
      </trkpt>
      <trkpt lat="42.31926" lon="2.57008">
        <ele>965.791</ele>
        <time>2018-01-10T13:11:01Z</time>
      </trkpt>
      <trkpt lat="42.31927" lon="2.56984">
        <ele>968.691</ele>
        <time>2018-01-10T13:11:18Z</time>
      </trkpt>
      <trkpt lat="42.31927" lon="2.56962">
        <ele>972.035</ele>
        <time>2018-01-10T13:11:37Z</time>
      </trkpt>
      <trkpt lat="42.31926" lon="2.56944">
        <ele>974.464</ele>
        <time>2018-01-10T13:11:59Z</time>
      </trkpt>
      <trkpt lat="42.31922" lon="2.56934">
        <ele>973.945</ele>
        <time>2018-01-10T13:12:17Z</time>
      </trkpt>
      <trkpt lat="42.31905" lon="2.56916">
        <ele>971.547</ele>
        <time>2018-01-10T13:12:36Z</time>
      </trkpt>
      <trkpt lat="42.31887" lon="2.56908">
        <ele>972.011</ele>
        <time>2018-01-10T13:12:51Z</time>
      </trkpt>
      <trkpt lat="42.31886" lon="2.56907">
        <ele>972.008</ele>
        <time>2018-01-10T13:12:52Z</time>
      </trkpt>
      <trkpt lat="42.31869" lon="2.56901">
        <ele>974.446</ele>
        <time>2018-01-10T13:13:08Z</time>
      </trkpt>
      <trkpt lat="42.31864" lon="2.56901">
        <ele>972.965</ele>
        <time>2018-01-10T13:13:31Z</time>
      </trkpt>
      <trkpt lat="42.31865" lon="2.56901">
        <ele>969.653</ele>
        <time>2018-01-10T13:13:41Z</time>
      </trkpt>
      <trkpt lat="42.31864" lon="2.56901">
        <ele>977.881</ele>
        <time>2018-01-10T13:13:42Z</time>
      </trkpt>
      <trkpt lat="42.31864" lon="2.569">
        <ele>974.997</ele>
        <time>2018-01-10T13:13:43Z</time>
      </trkpt>
      <trkpt lat="42.31864" lon="2.569">
        <ele>973.437</ele>
        <time>2018-01-10T13:13:45Z</time>
      </trkpt>
      <trkpt lat="42.31863" lon="2.56901">
        <ele>973.481</ele>
        <time>2018-01-10T13:14:15Z</time>
      </trkpt>
      <trkpt lat="42.31855" lon="2.56912">
        <ele>973.45</ele>
        <time>2018-01-10T13:14:47Z</time>
      </trkpt>
      <trkpt lat="42.31862" lon="2.56908">
        <ele>975.897</ele>
        <time>2018-01-10T13:15:14Z</time>
      </trkpt>
      <trkpt lat="42.31865" lon="2.56901">
        <ele>979.223</ele>
        <time>2018-01-10T13:15:28Z</time>
      </trkpt>
      <trkpt lat="42.31875" lon="2.569">
        <ele>982.625</ele>
        <time>2018-01-10T13:15:43Z</time>
      </trkpt>
      <trkpt lat="42.31878" lon="2.56894">
        <ele>984.008</ele>
        <time>2018-01-10T13:16:02Z</time>
      </trkpt>
      <trkpt lat="42.31879" lon="2.56888">
        <ele>986.991</ele>
        <time>2018-01-10T13:16:17Z</time>
      </trkpt>
      <trkpt lat="42.31883" lon="2.56884">
        <ele>990.36</ele>
        <time>2018-01-10T13:16:30Z</time>
      </trkpt>
      <trkpt lat="42.31888" lon="2.56884">
        <ele>993.118</ele>
        <time>2018-01-10T13:16:47Z</time>
      </trkpt>
      <trkpt lat="42.31888" lon="2.56881">
        <ele>996.516</ele>
        <time>2018-01-10T13:17:00Z</time>
      </trkpt>
      <trkpt lat="42.31892" lon="2.56881">
        <ele>998.472</ele>
        <time>2018-01-10T13:17:16Z</time>
      </trkpt>
      <trkpt lat="42.31896" lon="2.56877">
        <ele>1002.342</ele>
        <time>2018-01-10T13:17:31Z</time>
      </trkpt>
      <trkpt lat="42.31893" lon="2.56869">
        <ele>1004.736</ele>
        <time>2018-01-10T13:17:49Z</time>
      </trkpt>
      <trkpt lat="42.3188" lon="2.56868">
        <ele>1006.665</ele>
        <time>2018-01-10T13:18:04Z</time>
      </trkpt>
      <trkpt lat="42.3187" lon="2.56871">
        <ele>1007.625</ele>
        <time>2018-01-10T13:18:16Z</time>
      </trkpt>
      <trkpt lat="42.31859" lon="2.56875">
        <ele>1009.526</ele>
        <time>2018-01-10T13:18:30Z</time>
      </trkpt>
      <trkpt lat="42.31851" lon="2.56869">
        <ele>1011.408</ele>
        <time>2018-01-10T13:18:43Z</time>
      </trkpt>
      <trkpt lat="42.31856" lon="2.56861">
        <ele>1013.808</ele>
        <time>2018-01-10T13:18:56Z</time>
      </trkpt>
      <trkpt lat="42.31855" lon="2.56852">
        <ele>1015.294</ele>
        <time>2018-01-10T13:19:19Z</time>
      </trkpt>
      <trkpt lat="42.31859" lon="2.56847">
        <ele>1018.663</ele>
        <time>2018-01-10T13:19:29Z</time>
      </trkpt>
      <trkpt lat="42.31859" lon="2.56833">
        <ele>1021.591</ele>
        <time>2018-01-10T13:19:44Z</time>
      </trkpt>
      <trkpt lat="42.31859" lon="2.56819">
        <ele>1022.999</ele>
        <time>2018-01-10T13:19:58Z</time>
      </trkpt>
      <trkpt lat="42.31863" lon="2.56807">
        <ele>1025.885</ele>
        <time>2018-01-10T13:20:17Z</time>
      </trkpt>
      <trkpt lat="42.3186" lon="2.56796">
        <ele>1029.215</ele>
        <time>2018-01-10T13:20:33Z</time>
      </trkpt>
      <trkpt lat="42.31858" lon="2.56777">
        <ele>1032.519</ele>
        <time>2018-01-10T13:20:51Z</time>
      </trkpt>
      <trkpt lat="42.31858" lon="2.56768">
        <ele>1035.438</ele>
        <time>2018-01-10T13:21:04Z</time>
      </trkpt>
      <trkpt lat="42.31863" lon="2.56761">
        <ele>1038.873</ele>
        <time>2018-01-10T13:21:15Z</time>
      </trkpt>
      <trkpt lat="42.31872" lon="2.56764">
        <ele>1041.285</ele>
        <time>2018-01-10T13:21:29Z</time>
      </trkpt>
      <trkpt lat="42.3188" lon="2.56767">
        <ele>1044.613</ele>
        <time>2018-01-10T13:21:48Z</time>
      </trkpt>
      <trkpt lat="42.31881" lon="2.56755">
        <ele>1047.408</ele>
        <time>2018-01-10T13:22:07Z</time>
      </trkpt>
      <trkpt lat="42.31885" lon="2.56753">
        <ele>1050.339</ele>
        <time>2018-01-10T13:22:22Z</time>
      </trkpt>
      <trkpt lat="42.31893" lon="2.56753">
        <ele>1053.798</ele>
        <time>2018-01-10T13:22:35Z</time>
      </trkpt>
      <trkpt lat="42.31896" lon="2.56749">
        <ele>1055.636</ele>
        <time>2018-01-10T13:22:54Z</time>
      </trkpt>
      <trkpt lat="42.31897" lon="2.56743">
        <ele>1058.574</ele>
        <time>2018-01-10T13:23:14Z</time>
      </trkpt>
      <trkpt lat="42.31903" lon="2.5675">
        <ele>1060.97</ele>
        <time>2018-01-10T13:23:26Z</time>
      </trkpt>
      <trkpt lat="42.3191" lon="2.56748">
        <ele>1064.31</ele>
        <time>2018-01-10T13:23:42Z</time>
      </trkpt>
      <trkpt lat="42.31913" lon="2.56748">
        <ele>1067.244</ele>
        <time>2018-01-10T13:23:56Z</time>
      </trkpt>
      <trkpt lat="42.31917" lon="2.5675">
        <ele>1071.043</ele>
        <time>2018-01-10T13:24:10Z</time>
      </trkpt>
      <trkpt lat="42.31925" lon="2.56753">
        <ele>1072.913</ele>
        <time>2018-01-10T13:24:29Z</time>
      </trkpt>
      <trkpt lat="42.31927" lon="2.56754">
        <ele>1076.343</ele>
        <time>2018-01-10T13:24:50Z</time>
      </trkpt>
      <trkpt lat="42.3193" lon="2.56752">
        <ele>1079.207</ele>
        <time>2018-01-10T13:25:12Z</time>
      </trkpt>
      <trkpt lat="42.31933" lon="2.56746">
        <ele>1082.508</ele>
        <time>2018-01-10T13:25:27Z</time>
      </trkpt>
      <trkpt lat="42.31935" lon="2.56748">
        <ele>1084.543</ele>
        <time>2018-01-10T13:25:46Z</time>
      </trkpt>
      <trkpt lat="42.31935" lon="2.56752">
        <ele>1087.892</ele>
        <time>2018-01-10T13:26:02Z</time>
      </trkpt>
      <trkpt lat="42.31937" lon="2.5674">
        <ele>1091.21</ele>
        <time>2018-01-10T13:26:21Z</time>
      </trkpt>
      <trkpt lat="42.31937" lon="2.56737">
        <ele>1092.288</ele>
        <time>2018-01-10T13:26:45Z</time>
      </trkpt>
      <trkpt lat="42.31942" lon="2.56726">
        <ele>1095.064</ele>
        <time>2018-01-10T13:27:00Z</time>
      </trkpt>
      <trkpt lat="42.31945" lon="2.56718">
        <ele>1098.444</ele>
        <time>2018-01-10T13:27:10Z</time>
      </trkpt>
      <trkpt lat="42.31953" lon="2.56714">
        <ele>1101.888</ele>
        <time>2018-01-10T13:27:23Z</time>
      </trkpt>
      <trkpt lat="42.31954" lon="2.56715">
        <ele>1102.247</ele>
        <time>2018-01-10T13:27:25Z</time>
      </trkpt>
      <trkpt lat="42.31959" lon="2.5671">
        <ele>1104.269</ele>
        <time>2018-01-10T13:27:40Z</time>
      </trkpt>
      <trkpt lat="42.31961" lon="2.56716">
        <ele>1104.204</ele>
        <time>2018-01-10T13:28:06Z</time>
      </trkpt>
      <trkpt lat="42.31961" lon="2.56705">
        <ele>1105.124</ele>
        <time>2018-01-10T13:28:21Z</time>
      </trkpt>
      <trkpt lat="42.31959" lon="2.56685">
        <ele>1108.008</ele>
        <time>2018-01-10T13:28:37Z</time>
      </trkpt>
      <trkpt lat="42.31959" lon="2.5667">
        <ele>1111.428</ele>
        <time>2018-01-10T13:28:53Z</time>
      </trkpt>
      <trkpt lat="42.31957" lon="2.56658">
        <ele>1114.757</ele>
        <time>2018-01-10T13:29:07Z</time>
      </trkpt>
      <trkpt lat="42.31956" lon="2.5664">
        <ele>1117.615</ele>
        <time>2018-01-10T13:29:26Z</time>
      </trkpt>
      <trkpt lat="42.31955" lon="2.56627">
        <ele>1120.533</ele>
        <time>2018-01-10T13:29:39Z</time>
      </trkpt>
      <trkpt lat="42.31951" lon="2.56615">
        <ele>1123.459</ele>
        <time>2018-01-10T13:29:54Z</time>
      </trkpt>
      <trkpt lat="42.31953" lon="2.56603">
        <ele>1126.879</ele>
        <time>2018-01-10T13:30:11Z</time>
      </trkpt>
      <trkpt lat="42.31955" lon="2.56593">
        <ele>1130.123</ele>
        <time>2018-01-10T13:30:27Z</time>
      </trkpt>
      <trkpt lat="42.31959" lon="2.56584">
        <ele>1133.072</ele>
        <time>2018-01-10T13:30:45Z</time>
      </trkpt>
      <trkpt lat="42.31955" lon="2.5658">
        <ele>1136.464</ele>
        <time>2018-01-10T13:31:02Z</time>
      </trkpt>
      <trkpt lat="42.31946" lon="2.56579">
        <ele>1139.306</ele>
        <time>2018-01-10T13:31:19Z</time>
      </trkpt>
      <trkpt lat="42.31939" lon="2.56572">
        <ele>1142.116</ele>
        <time>2018-01-10T13:31:36Z</time>
      </trkpt>
      <trkpt lat="42.31946" lon="2.56566">
        <ele>1145.008</ele>
        <time>2018-01-10T13:31:55Z</time>
      </trkpt>
      <trkpt lat="42.31939" lon="2.56557">
        <ele>1148.418</ele>
        <time>2018-01-10T13:32:12Z</time>
      </trkpt>
      <trkpt lat="42.31944" lon="2.56549">
        <ele>1151.397</ele>
        <time>2018-01-10T13:32:25Z</time>
      </trkpt>
      <trkpt lat="42.31955" lon="2.56538">
        <ele>1154.655</ele>
        <time>2018-01-10T13:32:44Z</time>
      </trkpt>
      <trkpt lat="42.31962" lon="2.56532">
        <ele>1157.043</ele>
        <time>2018-01-10T13:33:04Z</time>
      </trkpt>
      <trkpt lat="42.31969" lon="2.56524">
        <ele>1159.479</ele>
        <time>2018-01-10T13:33:22Z</time>
      </trkpt>
      <trkpt lat="42.31968" lon="2.56523">
        <ele>1160.419</ele>
        <time>2018-01-10T13:33:42Z</time>
      </trkpt>
      <trkpt lat="42.31963" lon="2.56525">
        <ele>1159.913</ele>
        <time>2018-01-10T13:34:04Z</time>
      </trkpt>
      <trkpt lat="42.31959" lon="2.56524">
        <ele>1161.452</ele>
        <time>2018-01-10T13:34:19Z</time>
      </trkpt>
      <trkpt lat="42.31952" lon="2.56517">
        <ele>1164.298</ele>
        <time>2018-01-10T13:34:33Z</time>
      </trkpt>
      <trkpt lat="42.31947" lon="2.56509">
        <ele>1166.715</ele>
        <time>2018-01-10T13:34:50Z</time>
      </trkpt>
      <trkpt lat="42.31943" lon="2.56503">
        <ele>1170.026</ele>
        <time>2018-01-10T13:35:02Z</time>
      </trkpt>
      <trkpt lat="42.3194" lon="2.56495">
        <ele>1173.408</ele>
        <time>2018-01-10T13:35:16Z</time>
      </trkpt>
      <trkpt lat="42.3194" lon="2.56487">
        <ele>1176.331</ele>
        <time>2018-01-10T13:35:32Z</time>
      </trkpt>
      <trkpt lat="42.31943" lon="2.5648">
        <ele>1179.64</ele>
        <time>2018-01-10T13:35:47Z</time>
      </trkpt>
      <trkpt lat="42.31944" lon="2.56468">
        <ele>1183.088</ele>
        <time>2018-01-10T13:36:02Z</time>
      </trkpt>
      <trkpt lat="42.31945" lon="2.56465">
        <ele>1184.936</ele>
        <time>2018-01-10T13:36:20Z</time>
      </trkpt>
      <trkpt lat="42.31941" lon="2.5646">
        <ele>1187.872</ele>
        <time>2018-01-10T13:36:35Z</time>
      </trkpt>
      <trkpt lat="42.31932" lon="2.56453">
        <ele>1191.262</ele>
        <time>2018-01-10T13:36:53Z</time>
      </trkpt>
      <trkpt lat="42.31935" lon="2.56442">
        <ele>1194.536</ele>
        <time>2018-01-10T13:37:07Z</time>
      </trkpt>
      <trkpt lat="42.31934" lon="2.56435">
        <ele>1197.415</ele>
        <time>2018-01-10T13:37:22Z</time>
      </trkpt>
      <trkpt lat="42.31932" lon="2.56426">
        <ele>1200.846</ele>
        <time>2018-01-10T13:37:41Z</time>
      </trkpt>
      <trkpt lat="42.31934" lon="2.56415">
        <ele>1203.788</ele>
        <time>2018-01-10T13:37:54Z</time>
      </trkpt>
      <trkpt lat="42.31934" lon="2.56401">
        <ele>1207.016</ele>
        <time>2018-01-10T13:38:12Z</time>
      </trkpt>
      <trkpt lat="42.3193" lon="2.56392">
        <ele>1209.908</ele>
        <time>2018-01-10T13:38:30Z</time>
      </trkpt>
      <trkpt lat="42.31933" lon="2.56381">
        <ele>1212.336</ele>
        <time>2018-01-10T13:38:46Z</time>
      </trkpt>
      <trkpt lat="42.31931" lon="2.56373">
        <ele>1215.765</ele>
        <time>2018-01-10T13:38:58Z</time>
      </trkpt>
      <trkpt lat="42.31931" lon="2.56357">
        <ele>1219.053</ele>
        <time>2018-01-10T13:39:14Z</time>
      </trkpt>
      <trkpt lat="42.31935" lon="2.56345">
        <ele>1221.971</ele>
        <time>2018-01-10T13:39:27Z</time>
      </trkpt>
      <trkpt lat="42.31939" lon="2.56335">
        <ele>1224.897</ele>
        <time>2018-01-10T13:39:42Z</time>
      </trkpt>
      <trkpt lat="42.31935" lon="2.5633">
        <ele>1226.787</ele>
        <time>2018-01-10T13:40:05Z</time>
      </trkpt>
      <trkpt lat="42.31936" lon="2.56323">
        <ele>1230.171</ele>
        <time>2018-01-10T13:40:17Z</time>
      </trkpt>
      <trkpt lat="42.31939" lon="2.5631">
        <ele>1232.04</ele>
        <time>2018-01-10T13:40:33Z</time>
      </trkpt>
      <trkpt lat="42.31939" lon="2.56294">
        <ele>1235.498</ele>
        <time>2018-01-10T13:40:47Z</time>
      </trkpt>
      <trkpt lat="42.31935" lon="2.56269">
        <ele>1236.815</ele>
        <time>2018-01-10T13:41:07Z</time>
      </trkpt>
      <trkpt lat="42.31944" lon="2.56268">
        <ele>1239.226</ele>
        <time>2018-01-10T13:41:30Z</time>
      </trkpt>
      <trkpt lat="42.31948" lon="2.56262">
        <ele>1241.208</ele>
        <time>2018-01-10T13:41:46Z</time>
      </trkpt>
      <trkpt lat="42.31945" lon="2.56257">
        <ele>1244.581</ele>
        <time>2018-01-10T13:41:58Z</time>
      </trkpt>
      <trkpt lat="42.31943" lon="2.56253">
        <ele>1247.45</ele>
        <time>2018-01-10T13:42:10Z</time>
      </trkpt>
      <trkpt lat="42.31934" lon="2.56248">
        <ele>1250.868</ele>
        <time>2018-01-10T13:42:25Z</time>
      </trkpt>
      <trkpt lat="42.31928" lon="2.56232">
        <ele>1253.796</ele>
        <time>2018-01-10T13:42:41Z</time>
      </trkpt>
      <trkpt lat="42.31926" lon="2.56233">
        <ele>1254.142</ele>
        <time>2018-01-10T13:42:57Z</time>
      </trkpt>
      <trkpt lat="42.31925" lon="2.56236">
        <ele>1254.162</ele>
        <time>2018-01-10T13:43:26Z</time>
      </trkpt>
      <trkpt lat="42.31923" lon="2.56237">
        <ele>1254.156</ele>
        <time>2018-01-10T13:43:51Z</time>
      </trkpt>
      <trkpt lat="42.31921" lon="2.5624">
        <ele>1254.175</ele>
        <time>2018-01-10T13:44:24Z</time>
      </trkpt>
      <trkpt lat="42.31916" lon="2.56239">
        <ele>1254.647</ele>
        <time>2018-01-10T13:44:48Z</time>
      </trkpt>
      <trkpt lat="42.31912" lon="2.56243">
        <ele>1256.529</ele>
        <time>2018-01-10T13:45:07Z</time>
      </trkpt>
      <trkpt lat="42.31905" lon="2.56246">
        <ele>1259.921</ele>
        <time>2018-01-10T13:45:22Z</time>
      </trkpt>
      <trkpt lat="42.319" lon="2.5625">
        <ele>1263.308</ele>
        <time>2018-01-10T13:45:34Z</time>
      </trkpt>
      <trkpt lat="42.31892" lon="2.56263">
        <ele>1266.156</ele>
        <time>2018-01-10T13:45:50Z</time>
      </trkpt>
      <trkpt lat="42.31885" lon="2.56272">
        <ele>1268.155</ele>
        <time>2018-01-10T13:46:04Z</time>
      </trkpt>
      <trkpt lat="42.31876" lon="2.56278">
        <ele>1270.563</ele>
        <time>2018-01-10T13:46:17Z</time>
      </trkpt>
      <trkpt lat="42.31864" lon="2.56283">
        <ele>1273.881</ele>
        <time>2018-01-10T13:46:30Z</time>
      </trkpt>
      <trkpt lat="42.31858" lon="2.56284">
        <ele>1275.327</ele>
        <time>2018-01-10T13:46:46Z</time>
      </trkpt>
      <trkpt lat="42.31847" lon="2.5628">
        <ele>1277.717</ele>
        <time>2018-01-10T13:47:03Z</time>
      </trkpt>
      <trkpt lat="42.31839" lon="2.56283">
        <ele>1281.011</ele>
        <time>2018-01-10T13:47:16Z</time>
      </trkpt>
      <trkpt lat="42.31831" lon="2.5628">
        <ele>1283.99</ele>
        <time>2018-01-10T13:47:29Z</time>
      </trkpt>
      <trkpt lat="42.31826" lon="2.56283">
        <ele>1286.869</ele>
        <time>2018-01-10T13:47:42Z</time>
      </trkpt>
      <trkpt lat="42.31818" lon="2.56291">
        <ele>1289.704</ele>
        <time>2018-01-10T13:47:58Z</time>
      </trkpt>
      <trkpt lat="42.31811" lon="2.56298">
        <ele>1292.624</ele>
        <time>2018-01-10T13:48:13Z</time>
      </trkpt>
      <trkpt lat="42.31804" lon="2.56303">
        <ele>1295.508</ele>
        <time>2018-01-10T13:48:29Z</time>
      </trkpt>
      <trkpt lat="42.318" lon="2.563">
        <ele>1297.928</ele>
        <time>2018-01-10T13:48:51Z</time>
      </trkpt>
      <trkpt lat="42.31795" lon="2.56299">
        <ele>1300.837</ele>
        <time>2018-01-10T13:49:07Z</time>
      </trkpt>
      <trkpt lat="42.31794" lon="2.56292">
        <ele>1303.695</ele>
        <time>2018-01-10T13:49:18Z</time>
      </trkpt>
      <trkpt lat="42.31791" lon="2.56283">
        <ele>1306.033</ele>
        <time>2018-01-10T13:49:31Z</time>
      </trkpt>
      <trkpt lat="42.3179" lon="2.56282">
        <ele>1306.519</ele>
        <time>2018-01-10T13:49:54Z</time>
      </trkpt>
      <trkpt lat="42.31792" lon="2.5628">
        <ele>1306.529</ele>
        <time>2018-01-10T13:50:21Z</time>
      </trkpt>
      <trkpt lat="42.3179" lon="2.5627">
        <ele>1308.943</ele>
        <time>2018-01-10T13:50:35Z</time>
      </trkpt>
      <trkpt lat="42.31784" lon="2.5626">
        <ele>1311.362</ele>
        <time>2018-01-10T13:50:50Z</time>
      </trkpt>
      <trkpt lat="42.31776" lon="2.56246">
        <ele>1314.277</ele>
        <time>2018-01-10T13:51:04Z</time>
      </trkpt>
      <trkpt lat="42.31775" lon="2.56243">
        <ele>1314.761</ele>
        <time>2018-01-10T13:51:07Z</time>
      </trkpt>
      <trkpt lat="42.31774" lon="2.56232">
        <ele>1315.227</ele>
        <time>2018-01-10T13:51:23Z</time>
      </trkpt>
      <trkpt lat="42.31773" lon="2.56222">
        <ele>1316.108</ele>
        <time>2018-01-10T13:51:38Z</time>
      </trkpt>
      <trkpt lat="42.31772" lon="2.56219">
        <ele>1316.689</ele>
        <time>2018-01-10T13:51:55Z</time>
      </trkpt>
      <trkpt lat="42.31773" lon="2.56218">
        <ele>1316.688</ele>
        <time>2018-01-10T13:52:17Z</time>
      </trkpt>
      <trkpt lat="42.31774" lon="2.56218">
        <ele>1317.686</ele>
        <time>2018-01-10T13:52:35Z</time>
      </trkpt>
      <trkpt lat="42.31773" lon="2.56219">
        <ele>1317.644</ele>
        <time>2018-01-10T13:52:50Z</time>
      </trkpt>
      <trkpt lat="42.31772" lon="2.56217">
        <ele>1317.61</ele>
        <time>2018-01-10T13:53:09Z</time>
      </trkpt>
      <trkpt lat="42.31773" lon="2.56218">
        <ele>1317.64</ele>
        <time>2018-01-10T13:53:28Z</time>
      </trkpt>
      <trkpt lat="42.31773" lon="2.56219">
        <ele>1317.614</ele>
        <time>2018-01-10T13:53:49Z</time>
      </trkpt>
      <trkpt lat="42.31773" lon="2.56223">
        <ele>1317.633</ele>
        <time>2018-01-10T13:53:52Z</time>
      </trkpt>
      <trkpt lat="42.31774" lon="2.56228">
        <ele>1316.165</ele>
        <time>2018-01-10T13:53:56Z</time>
      </trkpt>
      <trkpt lat="42.31774" lon="2.56233">
        <ele>1315.768</ele>
        <time>2018-01-10T13:54:12Z</time>
      </trkpt>
      <trkpt lat="42.31773" lon="2.56232">
        <ele>1315.214</ele>
        <time>2018-01-10T13:54:36Z</time>
      </trkpt>
      <trkpt lat="42.31773" lon="2.56232">
        <ele>1315.208</ele>
        <time>2018-01-10T13:55:01Z</time>
      </trkpt>
      <trkpt lat="42.31774" lon="2.56232">
        <ele>1314.738</ele>
        <time>2018-01-10T13:55:31Z</time>
      </trkpt>
      <trkpt lat="42.31774" lon="2.5623">
        <ele>1315.297</ele>
        <time>2018-01-10T13:56:02Z</time>
      </trkpt>
      <trkpt lat="42.31774" lon="2.5623">
        <ele>1315.215</ele>
        <time>2018-01-10T13:56:30Z</time>
      </trkpt>
      <trkpt lat="42.31774" lon="2.56232">
        <ele>1315.753</ele>
        <time>2018-01-10T13:56:56Z</time>
      </trkpt>
      <trkpt lat="42.31774" lon="2.56232">
        <ele>1315.789</ele>
        <time>2018-01-10T13:57:22Z</time>
      </trkpt>
      <trkpt lat="42.31775" lon="2.56234">
        <ele>1316.199</ele>
        <time>2018-01-10T13:57:50Z</time>
      </trkpt>
      <trkpt lat="42.31777" lon="2.56233">
        <ele>1317.163</ele>
        <time>2018-01-10T13:58:07Z</time>
      </trkpt>
      <trkpt lat="42.31776" lon="2.5623">
        <ele>1317.632</ele>
        <time>2018-01-10T13:58:26Z</time>
      </trkpt>
      <trkpt lat="42.31776" lon="2.56228">
        <ele>1318.168</ele>
        <time>2018-01-10T13:58:28Z</time>
      </trkpt>
      <trkpt lat="42.31776" lon="2.56209">
        <ele>1319.042</ele>
        <time>2018-01-10T13:58:45Z</time>
      </trkpt>
      <trkpt lat="42.31777" lon="2.56207">
        <ele>1317.626</ele>
        <time>2018-01-10T13:58:48Z</time>
      </trkpt>
      <trkpt lat="42.31783" lon="2.56203">
        <ele>1314.208</ele>
        <time>2018-01-10T13:58:58Z</time>
      </trkpt>
      <trkpt lat="42.31785" lon="2.56195">
        <ele>1310.928</ele>
        <time>2018-01-10T13:59:11Z</time>
      </trkpt>
      <trkpt lat="42.31789" lon="2.56187">
        <ele>1308.087</ele>
        <time>2018-01-10T13:59:23Z</time>
      </trkpt>
      <trkpt lat="42.31789" lon="2.56185">
        <ele>1306.545</ele>
        <time>2018-01-10T13:59:26Z</time>
      </trkpt>
      <trkpt lat="42.31793" lon="2.56179">
        <ele>1303.633</ele>
        <time>2018-01-10T13:59:39Z</time>
      </trkpt>
      <trkpt lat="42.31793" lon="2.5617">
        <ele>1300.349</ele>
        <time>2018-01-10T13:59:50Z</time>
      </trkpt>
      <trkpt lat="42.31792" lon="2.5616">
        <ele>1297.979</ele>
        <time>2018-01-10T14:00:03Z</time>
      </trkpt>
      <trkpt lat="42.31789" lon="2.56162">
        <ele>1294.053</ele>
        <time>2018-01-10T14:00:21Z</time>
      </trkpt>
      <trkpt lat="42.31783" lon="2.5617">
        <ele>1293.182</ele>
        <time>2018-01-10T14:00:38Z</time>
      </trkpt>
      <trkpt lat="42.31777" lon="2.56171">
        <ele>1290.227</ele>
        <time>2018-01-10T14:01:00Z</time>
      </trkpt>
      <trkpt lat="42.31771" lon="2.56173">
        <ele>1288.368</ele>
        <time>2018-01-10T14:01:13Z</time>
      </trkpt>
      <trkpt lat="42.31762" lon="2.56174">
        <ele>1285.414</ele>
        <time>2018-01-10T14:01:27Z</time>
      </trkpt>
      <trkpt lat="42.31748" lon="2.56178">
        <ele>1283.908</ele>
        <time>2018-01-10T14:01:44Z</time>
      </trkpt>
      <trkpt lat="42.3174" lon="2.56186">
        <ele>1281.564</ele>
        <time>2018-01-10T14:01:58Z</time>
      </trkpt>
      <trkpt lat="42.31734" lon="2.56188">
        <ele>1278.263</ele>
        <time>2018-01-10T14:02:05Z</time>
      </trkpt>
      <trkpt lat="42.31725" lon="2.56187">
        <ele>1276.261</ele>
        <time>2018-01-10T14:02:19Z</time>
      </trkpt>
      <trkpt lat="42.31715" lon="2.56197">
        <ele>1275.399</ele>
        <time>2018-01-10T14:02:34Z</time>
      </trkpt>
      <trkpt lat="42.31709" lon="2.56193">
        <ele>1276.775</ele>
        <time>2018-01-10T14:02:44Z</time>
      </trkpt>
      <trkpt lat="42.31704" lon="2.56193">
        <ele>1279.635</ele>
        <time>2018-01-10T14:02:57Z</time>
      </trkpt>
      <trkpt lat="42.31701" lon="2.56193">
        <ele>1278.239</ele>
        <time>2018-01-10T14:03:06Z</time>
      </trkpt>
      <trkpt lat="42.31696" lon="2.56193">
        <ele>1274.858</ele>
        <time>2018-01-10T14:03:16Z</time>
      </trkpt>
      <trkpt lat="42.31696" lon="2.56193">
        <ele>1274.876</ele>
        <time>2018-01-10T14:03:17Z</time>
      </trkpt>
      <trkpt lat="42.3169" lon="2.56189">
        <ele>1271.09</ele>
        <time>2018-01-10T14:03:26Z</time>
      </trkpt>
      <trkpt lat="42.3169" lon="2.56188">
        <ele>1271.019</ele>
        <time>2018-01-10T14:03:27Z</time>
      </trkpt>
      <trkpt lat="42.31684" lon="2.56188">
        <ele>1269.508</ele>
        <time>2018-01-10T14:03:33Z</time>
      </trkpt>
      <trkpt lat="42.31668" lon="2.56183">
        <ele>1269.529</ele>
        <time>2018-01-10T14:03:48Z</time>
      </trkpt>
      <trkpt lat="42.31667" lon="2.56173">
        <ele>1269.588</ele>
        <time>2018-01-10T14:04:13Z</time>
      </trkpt>
      <trkpt lat="42.31666" lon="2.56163">
        <ele>1271.066</ele>
        <time>2018-01-10T14:04:20Z</time>
      </trkpt>
      <trkpt lat="42.31667" lon="2.56146">
        <ele>1270.084</ele>
        <time>2018-01-10T14:04:34Z</time>
      </trkpt>
      <trkpt lat="42.3167" lon="2.56127">
        <ele>1269.57</ele>
        <time>2018-01-10T14:04:48Z</time>
      </trkpt>
      <trkpt lat="42.31669" lon="2.56114">
        <ele>1269.01</ele>
        <time>2018-01-10T14:05:00Z</time>
      </trkpt>
      <trkpt lat="42.31666" lon="2.56099">
        <ele>1270.044</ele>
        <time>2018-01-10T14:05:20Z</time>
      </trkpt>
      <trkpt lat="42.31659" lon="2.56083">
        <ele>1271.913</ele>
        <time>2018-01-10T14:05:36Z</time>
      </trkpt>
      <trkpt lat="42.31652" lon="2.56073">
        <ele>1272.977</ele>
        <time>2018-01-10T14:05:53Z</time>
      </trkpt>
      <trkpt lat="42.3165" lon="2.56071">
        <ele>1272.961</ele>
        <time>2018-01-10T14:06:08Z</time>
      </trkpt>
      <trkpt lat="42.31643" lon="2.56071">
        <ele>1272.927</ele>
        <time>2018-01-10T14:06:22Z</time>
      </trkpt>
      <trkpt lat="42.31633" lon="2.56069">
        <ele>1272.908</ele>
        <time>2018-01-10T14:06:35Z</time>
      </trkpt>
      <trkpt lat="42.31628" lon="2.56069">
        <ele>1272.949</ele>
        <time>2018-01-10T14:06:57Z</time>
      </trkpt>
      <trkpt lat="42.3162" lon="2.56072">
        <ele>1273.838</ele>
        <time>2018-01-10T14:07:12Z</time>
      </trkpt>
      <trkpt lat="42.31619" lon="2.5607">
        <ele>1274.326</ele>
        <time>2018-01-10T14:07:22Z</time>
      </trkpt>
      <trkpt lat="42.31623" lon="2.56067">
        <ele>1272.414</ele>
        <time>2018-01-10T14:07:35Z</time>
      </trkpt>
      <trkpt lat="42.31628" lon="2.56062">
        <ele>1271.03</ele>
        <time>2018-01-10T14:07:50Z</time>
      </trkpt>
      <trkpt lat="42.31627" lon="2.56059">
        <ele>1270.06</ele>
        <time>2018-01-10T14:07:55Z</time>
      </trkpt>
      <trkpt lat="42.31612" lon="2.56057">
        <ele>1268.174</ele>
        <time>2018-01-10T14:08:04Z</time>
      </trkpt>
      <trkpt lat="42.31611" lon="2.56056">
        <ele>1268.173</ele>
        <time>2018-01-10T14:08:05Z</time>
      </trkpt>
      <trkpt lat="42.31599" lon="2.56061">
        <ele>1267.155</ele>
        <time>2018-01-10T14:08:13Z</time>
      </trkpt>
      <trkpt lat="42.31587" lon="2.56066">
        <ele>1267.107</ele>
        <time>2018-01-10T14:08:23Z</time>
      </trkpt>
      <trkpt lat="42.3158" lon="2.56067">
        <ele>1267.117</ele>
        <time>2018-01-10T14:08:30Z</time>
      </trkpt>
      <trkpt lat="42.31575" lon="2.56069">
        <ele>1267.108</ele>
        <time>2018-01-10T14:08:36Z</time>
      </trkpt>
      <trkpt lat="42.3157" lon="2.56074">
        <ele>1267.177</ele>
        <time>2018-01-10T14:08:41Z</time>
      </trkpt>
      <trkpt lat="42.31562" lon="2.56082">
        <ele>1269.046</ele>
        <time>2018-01-10T14:08:47Z</time>
      </trkpt>
      <trkpt lat="42.31555" lon="2.56089">
        <ele>1269.064</ele>
        <time>2018-01-10T14:08:52Z</time>
      </trkpt>
      <trkpt lat="42.31552" lon="2.56095">
        <ele>1269.072</ele>
        <time>2018-01-10T14:08:57Z</time>
      </trkpt>
      <trkpt lat="42.31539" lon="2.56116">
        <ele>1269.048</ele>
        <time>2018-01-10T14:09:10Z</time>
      </trkpt>
      <trkpt lat="42.31527" lon="2.56137">
        <ele>1269.098</ele>
        <time>2018-01-10T14:09:20Z</time>
      </trkpt>
      <trkpt lat="42.31518" lon="2.56152">
        <ele>1268.132</ele>
        <time>2018-01-10T14:09:30Z</time>
      </trkpt>
      <trkpt lat="42.31515" lon="2.56152">
        <ele>1267.191</ele>
        <time>2018-01-10T14:09:38Z</time>
      </trkpt>
      <trkpt lat="42.31511" lon="2.56174">
        <ele>1266.127</ele>
        <time>2018-01-10T14:09:45Z</time>
      </trkpt>
      <trkpt lat="42.31509" lon="2.56184">
        <ele>1264.768</ele>
        <time>2018-01-10T14:09:55Z</time>
      </trkpt>
      <trkpt lat="42.31508" lon="2.56192">
        <ele>1264.214</ele>
        <time>2018-01-10T14:09:59Z</time>
      </trkpt>
      <trkpt lat="42.31508" lon="2.56213">
        <ele>1262.808</ele>
        <time>2018-01-10T14:10:07Z</time>
      </trkpt>
      <trkpt lat="42.31509" lon="2.56241">
        <ele>1258.914</ele>
        <time>2018-01-10T14:10:17Z</time>
      </trkpt>
      <trkpt lat="42.31508" lon="2.56247">
        <ele>1258.063</ele>
        <time>2018-01-10T14:10:22Z</time>
      </trkpt>
      <trkpt lat="42.31509" lon="2.56251">
        <ele>1258.021</ele>
        <time>2018-01-10T14:10:24Z</time>
      </trkpt>
      <trkpt lat="42.3151" lon="2.56284">
        <ele>1256.549</ele>
        <time>2018-01-10T14:10:33Z</time>
      </trkpt>
      <trkpt lat="42.31507" lon="2.56295">
        <ele>1255.195</ele>
        <time>2018-01-10T14:10:40Z</time>
      </trkpt>
      <trkpt lat="42.31506" lon="2.56299">
        <ele>1254.655</ele>
        <time>2018-01-10T14:10:42Z</time>
      </trkpt>
      <trkpt lat="42.31503" lon="2.56302">
        <ele>1254.159</ele>
        <time>2018-01-10T14:10:49Z</time>
      </trkpt>
      <trkpt lat="42.31501" lon="2.5631">
        <ele>1254.158</ele>
        <time>2018-01-10T14:10:53Z</time>
      </trkpt>
      <trkpt lat="42.31493" lon="2.56339">
        <ele>1250.851</ele>
        <time>2018-01-10T14:11:08Z</time>
      </trkpt>
      <trkpt lat="42.31492" lon="2.56344">
        <ele>1249.301</ele>
        <time>2018-01-10T14:11:16Z</time>
      </trkpt>
      <trkpt lat="42.3149" lon="2.56346">
        <ele>1248.811</ele>
        <time>2018-01-10T14:11:18Z</time>
      </trkpt>
      <trkpt lat="42.31484" lon="2.56353">
        <ele>1245.508</ele>
        <time>2018-01-10T14:11:23Z</time>
      </trkpt>
      <trkpt lat="42.31483" lon="2.56353">
        <ele>1245.517</ele>
        <time>2018-01-10T14:11:24Z</time>
      </trkpt>
      <trkpt lat="42.31479" lon="2.56357">
        <ele>1244.526</ele>
        <time>2018-01-10T14:11:27Z</time>
      </trkpt>
      <trkpt lat="42.31469" lon="2.56358">
        <ele>1240.764</ele>
        <time>2018-01-10T14:11:36Z</time>
      </trkpt>
      <trkpt lat="42.31455" lon="2.56371">
        <ele>1239.762</ele>
        <time>2018-01-10T14:11:42Z</time>
      </trkpt>
      <trkpt lat="42.31449" lon="2.5638">
        <ele>1238.358</ele>
        <time>2018-01-10T14:11:51Z</time>
      </trkpt>
      <trkpt lat="42.31437" lon="2.56404">
        <ele>1238.378</ele>
        <time>2018-01-10T14:12:05Z</time>
      </trkpt>
      <trkpt lat="42.31426" lon="2.56429">
        <ele>1238.392</ele>
        <time>2018-01-10T14:12:18Z</time>
      </trkpt>
      <trkpt lat="42.31424" lon="2.56434">
        <ele>1238.311</ele>
        <time>2018-01-10T14:12:21Z</time>
      </trkpt>
      <trkpt lat="42.31424" lon="2.56439">
        <ele>1238.352</ele>
        <time>2018-01-10T14:12:23Z</time>
      </trkpt>
      <trkpt lat="42.31421" lon="2.56449">
        <ele>1237.853</ele>
        <time>2018-01-10T14:12:28Z</time>
      </trkpt>
      <trkpt lat="42.31419" lon="2.56455">
        <ele>1237.808</ele>
        <time>2018-01-10T14:12:31Z</time>
      </trkpt>
      <trkpt lat="42.31414" lon="2.56475">
        <ele>1236.308</ele>
        <time>2018-01-10T14:12:43Z</time>
      </trkpt>
      <trkpt lat="42.31409" lon="2.56477">
        <ele>1233.527</ele>
        <time>2018-01-10T14:12:54Z</time>
      </trkpt>
      <trkpt lat="42.31399" lon="2.56474">
        <ele>1230.166</ele>
        <time>2018-01-10T14:13:04Z</time>
      </trkpt>
      <trkpt lat="42.31398" lon="2.56473">
        <ele>1229.114</ele>
        <time>2018-01-10T14:13:06Z</time>
      </trkpt>
      <trkpt lat="42.31391" lon="2.56469">
        <ele>1227.732</ele>
        <time>2018-01-10T14:13:19Z</time>
      </trkpt>
      <trkpt lat="42.31383" lon="2.56473">
        <ele>1224.388</ele>
        <time>2018-01-10T14:13:36Z</time>
      </trkpt>
      <trkpt lat="42.31372" lon="2.56484">
        <ele>1221.958</ele>
        <time>2018-01-10T14:13:47Z</time>
      </trkpt>
      <trkpt lat="42.31353" lon="2.56501">
        <ele>1219.022</ele>
        <time>2018-01-10T14:14:01Z</time>
      </trkpt>
      <trkpt lat="42.31344" lon="2.5651">
        <ele>1215.741</ele>
        <time>2018-01-10T14:14:13Z</time>
      </trkpt>
      <trkpt lat="42.31336" lon="2.56516">
        <ele>1212.847</ele>
        <time>2018-01-10T14:14:23Z</time>
      </trkpt>
      <trkpt lat="42.3132" lon="2.56523">
        <ele>1209.929</ele>
        <time>2018-01-10T14:14:38Z</time>
      </trkpt>
      <trkpt lat="42.31315" lon="2.56519">
        <ele>1209.421</ele>
        <time>2018-01-10T14:14:59Z</time>
      </trkpt>
      <trkpt lat="42.31311" lon="2.56517">
        <ele>1208.008</ele>
        <time>2018-01-10T14:15:03Z</time>
      </trkpt>
      <trkpt lat="42.31302" lon="2.56521">
        <ele>1205.626</ele>
        <time>2018-01-10T14:15:10Z</time>
      </trkpt>
      <trkpt lat="42.31279" lon="2.56531">
        <ele>1204.185</ele>
        <time>2018-01-10T14:15:24Z</time>
      </trkpt>
      <trkpt lat="42.31257" lon="2.56547">
        <ele>1203.273</ele>
        <time>2018-01-10T14:15:37Z</time>
      </trkpt>
      <trkpt lat="42.31234" lon="2.56562">
        <ele>1203.261</ele>
        <time>2018-01-10T14:15:51Z</time>
      </trkpt>
      <trkpt lat="42.31231" lon="2.56564">
        <ele>1203.237</ele>
        <time>2018-01-10T14:15:54Z</time>
      </trkpt>
      <trkpt lat="42.31224" lon="2.5657">
        <ele>1203.287</ele>
        <time>2018-01-10T14:15:58Z</time>
      </trkpt>
      <trkpt lat="42.31216" lon="2.56574">
        <ele>1203.211</ele>
        <time>2018-01-10T14:16:03Z</time>
      </trkpt>
      <trkpt lat="42.31196" lon="2.56586">
        <ele>1202.71</ele>
        <time>2018-01-10T14:16:18Z</time>
      </trkpt>
      <trkpt lat="42.31191" lon="2.5659">
        <ele>1200.328</ele>
        <time>2018-01-10T14:16:22Z</time>
      </trkpt>
      <trkpt lat="42.31181" lon="2.56593">
        <ele>1197.989</ele>
        <time>2018-01-10T14:16:31Z</time>
      </trkpt>
      <trkpt lat="42.3118" lon="2.56596">
        <ele>1197.417</ele>
        <time>2018-01-10T14:16:34Z</time>
      </trkpt>
      <trkpt lat="42.31174" lon="2.56607">
        <ele>1194.008</ele>
        <time>2018-01-10T14:16:47Z</time>
      </trkpt>
      <trkpt lat="42.31168" lon="2.56616">
        <ele>1190.714</ele>
        <time>2018-01-10T14:16:58Z</time>
      </trkpt>
      <trkpt lat="42.31164" lon="2.56617">
        <ele>1187.353</ele>
        <time>2018-01-10T14:17:09Z</time>
      </trkpt>
      <trkpt lat="42.31164" lon="2.56633">
        <ele>1185.971</ele>
        <time>2018-01-10T14:17:22Z</time>
      </trkpt>
      <trkpt lat="42.31159" lon="2.56639">
        <ele>1182.549</ele>
        <time>2018-01-10T14:17:35Z</time>
      </trkpt>
      <trkpt lat="42.31156" lon="2.5664">
        <ele>1179.175</ele>
        <time>2018-01-10T14:17:54Z</time>
      </trkpt>
      <trkpt lat="42.31152" lon="2.56642">
        <ele>1176.765</ele>
        <time>2018-01-10T14:18:05Z</time>
      </trkpt>
      <trkpt lat="42.31148" lon="2.56633">
        <ele>1173.429</ele>
        <time>2018-01-10T14:18:14Z</time>
      </trkpt>
      <trkpt lat="42.3114" lon="2.56628">
        <ele>1170.088</ele>
        <time>2018-01-10T14:18:21Z</time>
      </trkpt>
      <trkpt lat="42.31135" lon="2.56626">
        <ele>1168.646</ele>
        <time>2018-01-10T14:18:42Z</time>
      </trkpt>
      <trkpt lat="42.31131" lon="2.56626">
        <ele>1165.288</ele>
        <time>2018-01-10T14:18:49Z</time>
      </trkpt>
      <trkpt lat="42.31123" lon="2.56625">
        <ele>1162.316</ele>
        <time>2018-01-10T14:18:58Z</time>
      </trkpt>
      <trkpt lat="42.31115" lon="2.56623">
        <ele>1159.008</ele>
        <time>2018-01-10T14:19:07Z</time>
      </trkpt>
      <trkpt lat="42.31113" lon="2.56621">
        <ele>1158.586</ele>
        <time>2018-01-10T14:19:09Z</time>
      </trkpt>
      <trkpt lat="42.31108" lon="2.5662">
        <ele>1155.175</ele>
        <time>2018-01-10T14:19:17Z</time>
      </trkpt>
      <trkpt lat="42.31107" lon="2.56627">
        <ele>1154.273</ele>
        <time>2018-01-10T14:19:21Z</time>
      </trkpt>
      <trkpt lat="42.31111" lon="2.56638">
        <ele>1151.321</ele>
        <time>2018-01-10T14:19:35Z</time>
      </trkpt>
      <trkpt lat="42.31124" lon="2.56647">
        <ele>1148.957</ele>
        <time>2018-01-10T14:19:51Z</time>
      </trkpt>
      <trkpt lat="42.31128" lon="2.56646">
        <ele>1145.577</ele>
        <time>2018-01-10T14:20:03Z</time>
      </trkpt>
      <trkpt lat="42.31122" lon="2.56647">
        <ele>1142.661</ele>
        <time>2018-01-10T14:20:16Z</time>
      </trkpt>
      <trkpt lat="42.31114" lon="2.56654">
        <ele>1139.32</ele>
        <time>2018-01-10T14:20:30Z</time>
      </trkpt>
      <trkpt lat="42.31109" lon="2.56657">
        <ele>1136.937</ele>
        <time>2018-01-10T14:20:38Z</time>
      </trkpt>
      <trkpt lat="42.31106" lon="2.56664">
        <ele>1136.949</ele>
        <time>2018-01-10T14:20:58Z</time>
      </trkpt>
      <trkpt lat="42.31101" lon="2.56665">
        <ele>1133.013</ele>
        <time>2018-01-10T14:21:14Z</time>
      </trkpt>
      <trkpt lat="42.31091" lon="2.56673">
        <ele>1129.608</ele>
        <time>2018-01-10T14:21:30Z</time>
      </trkpt>
      <trkpt lat="42.31086" lon="2.56681">
        <ele>1127.735</ele>
        <time>2018-01-10T14:21:46Z</time>
      </trkpt>
      <trkpt lat="42.31088" lon="2.56686">
        <ele>1127.214</ele>
        <time>2018-01-10T14:22:09Z</time>
      </trkpt>
      <trkpt lat="42.31079" lon="2.56691">
        <ele>1124.432</ele>
        <time>2018-01-10T14:22:25Z</time>
      </trkpt>
      <trkpt lat="42.31069" lon="2.56698">
        <ele>1121.09</ele>
        <time>2018-01-10T14:22:38Z</time>
      </trkpt>
      <trkpt lat="42.31059" lon="2.56701">
        <ele>1117.646</ele>
        <time>2018-01-10T14:22:53Z</time>
      </trkpt>
      <trkpt lat="42.31053" lon="2.56701">
        <ele>1114.356</ele>
        <time>2018-01-10T14:23:03Z</time>
      </trkpt>
      <trkpt lat="42.31045" lon="2.56703">
        <ele>1111.47</ele>
        <time>2018-01-10T14:23:12Z</time>
      </trkpt>
      <trkpt lat="42.31036" lon="2.56707">
        <ele>1108.079</ele>
        <time>2018-01-10T14:23:23Z</time>
      </trkpt>
      <trkpt lat="42.31021" lon="2.56715">
        <ele>1105.693</ele>
        <time>2018-01-10T14:23:39Z</time>
      </trkpt>
      <trkpt lat="42.31015" lon="2.56715">
        <ele>1102.765</ele>
        <time>2018-01-10T14:23:48Z</time>
      </trkpt>
      <trkpt lat="42.31" lon="2.5672">
        <ele>1099.421</ele>
        <time>2018-01-10T14:24:02Z</time>
      </trkpt>
      <trkpt lat="42.3099" lon="2.56721">
        <ele>1096.008</ele>
        <time>2018-01-10T14:24:14Z</time>
      </trkpt>
      <trkpt lat="42.30968" lon="2.56729">
        <ele>1093.191</ele>
        <time>2018-01-10T14:24:31Z</time>
      </trkpt>
      <trkpt lat="42.30954" lon="2.56733">
        <ele>1090.25</ele>
        <time>2018-01-10T14:24:42Z</time>
      </trkpt>
      <trkpt lat="42.30952" lon="2.56733">
        <ele>1090.248</ele>
        <time>2018-01-10T14:24:43Z</time>
      </trkpt>
      <trkpt lat="42.30937" lon="2.56733">
        <ele>1087.846</ele>
        <time>2018-01-10T14:24:56Z</time>
      </trkpt>
      <trkpt lat="42.30921" lon="2.56739">
        <ele>1084.582</ele>
        <time>2018-01-10T14:25:11Z</time>
      </trkpt>
      <trkpt lat="42.30913" lon="2.56741">
        <ele>1083.552</ele>
        <time>2018-01-10T14:25:17Z</time>
      </trkpt>
      <trkpt lat="42.30898" lon="2.5674">
        <ele>1080.656</ele>
        <time>2018-01-10T14:25:27Z</time>
      </trkpt>
      <trkpt lat="42.30877" lon="2.56738">
        <ele>1077.715</ele>
        <time>2018-01-10T14:25:43Z</time>
      </trkpt>
      <trkpt lat="42.30876" lon="2.56738">
        <ele>1077.722</ele>
        <time>2018-01-10T14:25:44Z</time>
      </trkpt>
      <trkpt lat="42.30859" lon="2.56733">
        <ele>1073.962</ele>
        <time>2018-01-10T14:25:57Z</time>
      </trkpt>
      <trkpt lat="42.30848" lon="2.5673">
        <ele>1073.408</ele>
        <time>2018-01-10T14:26:10Z</time>
      </trkpt>
      <trkpt lat="42.3084" lon="2.56722">
        <ele>1071.508</ele>
        <time>2018-01-10T14:26:32Z</time>
      </trkpt>
      <trkpt lat="42.30832" lon="2.56721">
        <ele>1068.174</ele>
        <time>2018-01-10T14:26:44Z</time>
      </trkpt>
      <trkpt lat="42.30818" lon="2.56717">
        <ele>1065.253</ele>
        <time>2018-01-10T14:26:55Z</time>
      </trkpt>
      <trkpt lat="42.30804" lon="2.56712">
        <ele>1061.951</ele>
        <time>2018-01-10T14:27:05Z</time>
      </trkpt>
      <trkpt lat="42.30794" lon="2.56712">
        <ele>1060.949</ele>
        <time>2018-01-10T14:27:14Z</time>
      </trkpt>
      <trkpt lat="42.30773" lon="2.56714">
        <ele>1058.065</ele>
        <time>2018-01-10T14:27:28Z</time>
      </trkpt>
      <trkpt lat="42.30761" lon="2.56717">
        <ele>1056.145</ele>
        <time>2018-01-10T14:27:37Z</time>
      </trkpt>
      <trkpt lat="42.30743" lon="2.56723">
        <ele>1054.299</ele>
        <time>2018-01-10T14:27:52Z</time>
      </trkpt>
      <trkpt lat="42.30734" lon="2.56717">
        <ele>1053.738</ele>
        <time>2018-01-10T14:27:59Z</time>
      </trkpt>
      <trkpt lat="42.30731" lon="2.56716">
        <ele>1053.786</ele>
        <time>2018-01-10T14:28:01Z</time>
      </trkpt>
      <trkpt lat="42.30717" lon="2.5671">
        <ele>1052.36</ele>
        <time>2018-01-10T14:28:14Z</time>
      </trkpt>
      <trkpt lat="42.30714" lon="2.56706">
        <ele>1051.326</ele>
        <time>2018-01-10T14:28:17Z</time>
      </trkpt>
      <trkpt lat="42.30705" lon="2.56698">
        <ele>1049.908</ele>
        <time>2018-01-10T14:28:26Z</time>
      </trkpt>
      <trkpt lat="42.30689" lon="2.56702">
        <ele>1049.43</ele>
        <time>2018-01-10T14:28:42Z</time>
      </trkpt>
      <trkpt lat="42.30677" lon="2.56707">
        <ele>1047.499</ele>
        <time>2018-01-10T14:28:56Z</time>
      </trkpt>
      <trkpt lat="42.30663" lon="2.56706">
        <ele>1045.517</ele>
        <time>2018-01-10T14:29:09Z</time>
      </trkpt>
      <trkpt lat="42.30657" lon="2.56711">
        <ele>1043.695</ele>
        <time>2018-01-10T14:29:26Z</time>
      </trkpt>
      <trkpt lat="42.30656" lon="2.5673">
        <ele>1040.291</ele>
        <time>2018-01-10T14:29:41Z</time>
      </trkpt>
      <trkpt lat="42.30652" lon="2.56752">
        <ele>1037.481</ele>
        <time>2018-01-10T14:29:56Z</time>
      </trkpt>
      <trkpt lat="42.30641" lon="2.56748">
        <ele>1034.535</ele>
        <time>2018-01-10T14:30:13Z</time>
      </trkpt>
      <trkpt lat="42.30635" lon="2.56745">
        <ele>1031.144</ele>
        <time>2018-01-10T14:30:26Z</time>
      </trkpt>
      <trkpt lat="42.30631" lon="2.56746">
        <ele>1029.746</ele>
        <time>2018-01-10T14:30:36Z</time>
      </trkpt>
      <trkpt lat="42.30622" lon="2.56749">
        <ele>1026.388</ele>
        <time>2018-01-10T14:30:48Z</time>
      </trkpt>
      <trkpt lat="42.30611" lon="2.56738">
        <ele>1023.416</ele>
        <time>2018-01-10T14:31:08Z</time>
      </trkpt>
      <trkpt lat="42.30605" lon="2.56724">
        <ele>1020.108</ele>
        <time>2018-01-10T14:31:21Z</time>
      </trkpt>
      <trkpt lat="42.30602" lon="2.56714">
        <ele>1018.616</ele>
        <time>2018-01-10T14:31:28Z</time>
      </trkpt>
      <trkpt lat="42.306" lon="2.56681">
        <ele>1015.715</ele>
        <time>2018-01-10T14:31:43Z</time>
      </trkpt>
      <trkpt lat="42.30606" lon="2.56654">
        <ele>1015.223</ele>
        <time>2018-01-10T14:31:59Z</time>
      </trkpt>
      <trkpt lat="42.3061" lon="2.56641">
        <ele>1011.991</ele>
        <time>2018-01-10T14:32:10Z</time>
      </trkpt>
      <trkpt lat="42.30615" lon="2.56617">
        <ele>1010.947</ele>
        <time>2018-01-10T14:32:24Z</time>
      </trkpt>
      <trkpt lat="42.30622" lon="2.56602">
        <ele>1008.097</ele>
        <time>2018-01-10T14:32:38Z</time>
      </trkpt>
      <trkpt lat="42.30627" lon="2.56583">
        <ele>1004.731</ele>
        <time>2018-01-10T14:32:48Z</time>
      </trkpt>
      <trkpt lat="42.30632" lon="2.56573">
        <ele>1003.75</ele>
        <time>2018-01-10T14:32:54Z</time>
      </trkpt>
      <trkpt lat="42.30642" lon="2.56559">
        <ele>1002.712</ele>
        <time>2018-01-10T14:33:02Z</time>
      </trkpt>
      <trkpt lat="42.30652" lon="2.56547">
        <ele>1001.832</ele>
        <time>2018-01-10T14:33:16Z</time>
      </trkpt>
      <trkpt lat="42.3066" lon="2.56547">
        <ele>1001.805</ele>
        <time>2018-01-10T14:33:35Z</time>
      </trkpt>
      <trkpt lat="42.30672" lon="2.56553">
        <ele>1001.808</ele>
        <time>2018-01-10T14:33:43Z</time>
      </trkpt>
      <trkpt lat="42.30693" lon="2.56555">
        <ele>1000.893</ele>
        <time>2018-01-10T14:33:58Z</time>
      </trkpt>
      <trkpt lat="42.30704" lon="2.56549">
        <ele>997.582</ele>
        <time>2018-01-10T14:34:06Z</time>
      </trkpt>
      <trkpt lat="42.30712" lon="2.56547">
        <ele>997.51</ele>
        <time>2018-01-10T14:34:10Z</time>
      </trkpt>
      <trkpt lat="42.3073" lon="2.56556">
        <ele>995.198</ele>
        <time>2018-01-10T14:34:24Z</time>
      </trkpt>
      <trkpt lat="42.30736" lon="2.56561">
        <ele>992.294</ele>
        <time>2018-01-10T14:34:35Z</time>
      </trkpt>
      <trkpt lat="42.3074" lon="2.56554">
        <ele>988.884</ele>
        <time>2018-01-10T14:34:45Z</time>
      </trkpt>
      <trkpt lat="42.30748" lon="2.56548">
        <ele>984.588</ele>
        <time>2018-01-10T14:34:55Z</time>
      </trkpt>
      <trkpt lat="42.30747" lon="2.56536">
        <ele>981.147</ele>
        <time>2018-01-10T14:35:04Z</time>
      </trkpt>
      <trkpt lat="42.30739" lon="2.5652">
        <ele>978.285</ele>
        <time>2018-01-10T14:35:18Z</time>
      </trkpt>
      <trkpt lat="42.30731" lon="2.56509">
        <ele>975.389</ele>
        <time>2018-01-10T14:35:28Z</time>
      </trkpt>
      <trkpt lat="42.30717" lon="2.56501">
        <ele>972.917</ele>
        <time>2018-01-10T14:35:43Z</time>
      </trkpt>
      <trkpt lat="42.30704" lon="2.56496">
        <ele>972.008</ele>
        <time>2018-01-10T14:35:54Z</time>
      </trkpt>
      <trkpt lat="42.30697" lon="2.56496">
        <ele>972.09</ele>
        <time>2018-01-10T14:36:00Z</time>
      </trkpt>
      <trkpt lat="42.30675" lon="2.56486">
        <ele>969.669</ele>
        <time>2018-01-10T14:36:18Z</time>
      </trkpt>
      <trkpt lat="42.30653" lon="2.56476">
        <ele>967.727</ele>
        <time>2018-01-10T14:36:33Z</time>
      </trkpt>
      <trkpt lat="42.3064" lon="2.56476">
        <ele>965.735</ele>
        <time>2018-01-10T14:36:46Z</time>
      </trkpt>
      <trkpt lat="42.30623" lon="2.56477">
        <ele>965.381</ele>
        <time>2018-01-10T14:36:58Z</time>
      </trkpt>
      <trkpt lat="42.30609" lon="2.56484">
        <ele>964.871</ele>
        <time>2018-01-10T14:37:12Z</time>
      </trkpt>
      <trkpt lat="42.30605" lon="2.56498">
        <ele>966.225</ele>
        <time>2018-01-10T14:37:27Z</time>
      </trkpt>
      <trkpt lat="42.30604" lon="2.56508">
        <ele>967.214</ele>
        <time>2018-01-10T14:37:34Z</time>
      </trkpt>
      <trkpt lat="42.30599" lon="2.56531">
        <ele>970.162</ele>
        <time>2018-01-10T14:37:48Z</time>
      </trkpt>
      <trkpt lat="42.30594" lon="2.56549">
        <ele>970.583</ele>
        <time>2018-01-10T14:37:59Z</time>
      </trkpt>
      <trkpt lat="42.30587" lon="2.56568">
        <ele>969.611</ele>
        <time>2018-01-10T14:38:12Z</time>
      </trkpt>
      <trkpt lat="42.3058" lon="2.56577">
        <ele>966.208</ele>
        <time>2018-01-10T14:38:19Z</time>
      </trkpt>
      <trkpt lat="42.30568" lon="2.56591">
        <ele>962.938</ele>
        <time>2018-01-10T14:38:28Z</time>
      </trkpt>
      <trkpt lat="42.30559" lon="2.56604">
        <ele>959.597</ele>
        <time>2018-01-10T14:38:38Z</time>
      </trkpt>
      <trkpt lat="42.30549" lon="2.56622">
        <ele>956.185</ele>
        <time>2018-01-10T14:38:53Z</time>
      </trkpt>
      <trkpt lat="42.30548" lon="2.56623">
        <ele>956.173</ele>
        <time>2018-01-10T14:38:54Z</time>
      </trkpt>
      <trkpt lat="42.30536" lon="2.56636">
        <ele>952.329</ele>
        <time>2018-01-10T14:39:04Z</time>
      </trkpt>
      <trkpt lat="42.30535" lon="2.56637">
        <ele>952.369</ele>
        <time>2018-01-10T14:39:05Z</time>
      </trkpt>
      <trkpt lat="42.30532" lon="2.56637">
        <ele>950.823</ele>
        <time>2018-01-10T14:39:07Z</time>
      </trkpt>
      <trkpt lat="42.30524" lon="2.56639">
        <ele>948.962</ele>
        <time>2018-01-10T14:39:12Z</time>
      </trkpt>
      <trkpt lat="42.30512" lon="2.56642">
        <ele>946.522</ele>
        <time>2018-01-10T14:39:18Z</time>
      </trkpt>
      <trkpt lat="42.305" lon="2.56646">
        <ele>943.162</ele>
        <time>2018-01-10T14:39:25Z</time>
      </trkpt>
      <trkpt lat="42.30497" lon="2.56648">
        <ele>942.708</ele>
        <time>2018-01-10T14:39:27Z</time>
      </trkpt>
      <trkpt lat="42.30489" lon="2.56649">
        <ele>939.808</ele>
        <time>2018-01-10T14:39:32Z</time>
      </trkpt>
      <trkpt lat="42.30478" lon="2.56652">
        <ele>936.424</ele>
        <time>2018-01-10T14:39:40Z</time>
      </trkpt>
      <trkpt lat="42.30469" lon="2.56655">
        <ele>934.023</ele>
        <time>2018-01-10T14:39:50Z</time>
      </trkpt>
      <trkpt lat="42.30471" lon="2.56647">
        <ele>932.151</ele>
        <time>2018-01-10T14:39:55Z</time>
      </trkpt>
      <trkpt lat="42.30476" lon="2.56638">
        <ele>931.619</ele>
        <time>2018-01-10T14:40:00Z</time>
      </trkpt>
      <trkpt lat="42.30487" lon="2.56629">
        <ele>930.255</ele>
        <time>2018-01-10T14:40:08Z</time>
      </trkpt>
      <trkpt lat="42.30489" lon="2.56628">
        <ele>930.265</ele>
        <time>2018-01-10T14:40:09Z</time>
      </trkpt>
      <trkpt lat="42.30506" lon="2.56613">
        <ele>929.299</ele>
        <time>2018-01-10T14:40:22Z</time>
      </trkpt>
      <trkpt lat="42.30508" lon="2.56611">
        <ele>929.278</ele>
        <time>2018-01-10T14:40:24Z</time>
      </trkpt>
      <trkpt lat="42.30521" lon="2.56593">
        <ele>928.756</ele>
        <time>2018-01-10T14:40:36Z</time>
      </trkpt>
      <trkpt lat="42.30526" lon="2.56573">
        <ele>925.859</ele>
        <time>2018-01-10T14:40:45Z</time>
      </trkpt>
      <trkpt lat="42.3053" lon="2.56546">
        <ele>923.914</ele>
        <time>2018-01-10T14:40:55Z</time>
      </trkpt>
      <trkpt lat="42.30537" lon="2.56515">
        <ele>921.508</ele>
        <time>2018-01-10T14:41:09Z</time>
      </trkpt>
      <trkpt lat="42.30539" lon="2.56485">
        <ele>918.647</ele>
        <time>2018-01-10T14:41:22Z</time>
      </trkpt>
      <trkpt lat="42.30539" lon="2.56476">
        <ele>916.786</ele>
        <time>2018-01-10T14:41:26Z</time>
      </trkpt>
      <trkpt lat="42.3054" lon="2.56454">
        <ele>914.854</ele>
        <time>2018-01-10T14:41:36Z</time>
      </trkpt>
      <trkpt lat="42.30546" lon="2.56421">
        <ele>911.972</ele>
        <time>2018-01-10T14:41:51Z</time>
      </trkpt>
      <trkpt lat="42.30552" lon="2.56399">
        <ele>909.538</ele>
        <time>2018-01-10T14:42:03Z</time>
      </trkpt>
      <trkpt lat="42.30551" lon="2.56385">
        <ele>906.618</ele>
        <time>2018-01-10T14:42:11Z</time>
      </trkpt>
      <trkpt lat="42.30548" lon="2.56385">
        <ele>905.792</ele>
        <time>2018-01-10T14:42:14Z</time>
      </trkpt>
      <trkpt lat="42.30541" lon="2.56392">
        <ele>903.791</ele>
        <time>2018-01-10T14:42:20Z</time>
      </trkpt>
      <trkpt lat="42.30529" lon="2.56427">
        <ele>902.379</ele>
        <time>2018-01-10T14:42:36Z</time>
      </trkpt>
      <trkpt lat="42.3052" lon="2.56445">
        <ele>899.905</ele>
        <time>2018-01-10T14:42:45Z</time>
      </trkpt>
      <trkpt lat="42.30519" lon="2.56452">
        <ele>899.425</ele>
        <time>2018-01-10T14:42:48Z</time>
      </trkpt>
      <trkpt lat="42.3051" lon="2.56482">
        <ele>897.508</ele>
        <time>2018-01-10T14:43:03Z</time>
      </trkpt>
      <trkpt lat="42.30508" lon="2.56487">
        <ele>897.539</ele>
        <time>2018-01-10T14:43:05Z</time>
      </trkpt>
      <trkpt lat="42.30504" lon="2.56494">
        <ele>897.068</ele>
        <time>2018-01-10T14:43:09Z</time>
      </trkpt>
      <trkpt lat="42.30502" lon="2.56501">
        <ele>897.076</ele>
        <time>2018-01-10T14:43:12Z</time>
      </trkpt>
      <trkpt lat="42.30493" lon="2.56519">
        <ele>893.694</ele>
        <time>2018-01-10T14:43:23Z</time>
      </trkpt>
      <trkpt lat="42.30476" lon="2.56539">
        <ele>891.75</ele>
        <time>2018-01-10T14:43:36Z</time>
      </trkpt>
      <trkpt lat="42.30475" lon="2.56541">
        <ele>891.76</ele>
        <time>2018-01-10T14:43:37Z</time>
      </trkpt>
      <trkpt lat="42.30464" lon="2.56551">
        <ele>890.834</ele>
        <time>2018-01-10T14:43:45Z</time>
      </trkpt>
      <trkpt lat="42.30444" lon="2.5657">
        <ele>888.823</ele>
        <time>2018-01-10T14:43:58Z</time>
      </trkpt>
      <trkpt lat="42.30437" lon="2.56576">
        <ele>886.465</ele>
        <time>2018-01-10T14:44:06Z</time>
      </trkpt>
      <trkpt lat="42.30429" lon="2.56582">
        <ele>885.568</ele>
        <time>2018-01-10T14:44:11Z</time>
      </trkpt>
      <trkpt lat="42.30423" lon="2.56586">
        <ele>885.014</ele>
        <time>2018-01-10T14:44:15Z</time>
      </trkpt>
      <trkpt lat="42.30403" lon="2.56602">
        <ele>883.108</ele>
        <time>2018-01-10T14:44:31Z</time>
      </trkpt>
      <trkpt lat="42.30385" lon="2.56628">
        <ele>880.718</ele>
        <time>2018-01-10T14:44:45Z</time>
      </trkpt>
      <trkpt lat="42.30376" lon="2.56647">
        <ele>877.827</ele>
        <time>2018-01-10T14:44:56Z</time>
      </trkpt>
      <trkpt lat="42.30364" lon="2.56671">
        <ele>874.965</ele>
        <time>2018-01-10T14:45:10Z</time>
      </trkpt>
      <trkpt lat="42.30357" lon="2.56682">
        <ele>873.583</ele>
        <time>2018-01-10T14:45:16Z</time>
      </trkpt>
      <trkpt lat="42.30341" lon="2.56709">
        <ele>871.039</ele>
        <time>2018-01-10T14:45:31Z</time>
      </trkpt>
      <trkpt lat="42.30331" lon="2.56717">
        <ele>869.199</ele>
        <time>2018-01-10T14:45:37Z</time>
      </trkpt>
      <trkpt lat="42.30319" lon="2.56734">
        <ele>865.883</ele>
        <time>2018-01-10T14:45:49Z</time>
      </trkpt>
      <trkpt lat="42.30313" lon="2.56738">
        <ele>864.372</ele>
        <time>2018-01-10T14:45:53Z</time>
      </trkpt>
      <trkpt lat="42.30309" lon="2.56733">
        <ele>863.811</ele>
        <time>2018-01-10T14:45:57Z</time>
      </trkpt>
      <trkpt lat="42.30306" lon="2.56719">
        <ele>862.421</ele>
        <time>2018-01-10T14:46:04Z</time>
      </trkpt>
      <trkpt lat="42.30305" lon="2.56715">
        <ele>861.403</ele>
        <time>2018-01-10T14:46:06Z</time>
      </trkpt>
      <trkpt lat="42.30303" lon="2.56709">
        <ele>860.508</ele>
        <time>2018-01-10T14:46:09Z</time>
      </trkpt>
      <trkpt lat="42.30299" lon="2.56678">
        <ele>858.123</ele>
        <time>2018-01-10T14:46:22Z</time>
      </trkpt>
      <trkpt lat="42.303" lon="2.56675">
        <ele>857.622</ele>
        <time>2018-01-10T14:46:24Z</time>
      </trkpt>
      <trkpt lat="42.30298" lon="2.56662">
        <ele>855.22</ele>
        <time>2018-01-10T14:46:32Z</time>
      </trkpt>
      <trkpt lat="42.30293" lon="2.56653">
        <ele>854.728</ele>
        <time>2018-01-10T14:46:39Z</time>
      </trkpt>
      <trkpt lat="42.30291" lon="2.5665">
        <ele>852.864</ele>
        <time>2018-01-10T14:46:42Z</time>
      </trkpt>
      <trkpt lat="42.30289" lon="2.5665">
        <ele>852.824</ele>
        <time>2018-01-10T14:46:47Z</time>
      </trkpt>
      <trkpt lat="42.30285" lon="2.56646">
        <ele>850.478</ele>
        <time>2018-01-10T14:46:50Z</time>
      </trkpt>
      <trkpt lat="42.30277" lon="2.56644">
        <ele>849.987</ele>
        <time>2018-01-10T14:46:56Z</time>
      </trkpt>
      <trkpt lat="42.30268" lon="2.56647">
        <ele>848.967</ele>
        <time>2018-01-10T14:47:02Z</time>
      </trkpt>
      <trkpt lat="42.30265" lon="2.56648">
        <ele>848.081</ele>
        <time>2018-01-10T14:47:05Z</time>
      </trkpt>
      <trkpt lat="42.30259" lon="2.5666">
        <ele>848.019</ele>
        <time>2018-01-10T14:47:11Z</time>
      </trkpt>
      <trkpt lat="42.30259" lon="2.56663">
        <ele>848.008</ele>
        <time>2018-01-10T14:47:19Z</time>
      </trkpt>
      <trkpt lat="42.30258" lon="2.56659">
        <ele>848.038</ele>
        <time>2018-01-10T14:47:35Z</time>
      </trkpt>
      <trkpt lat="42.30259" lon="2.56647">
        <ele>848.097</ele>
        <time>2018-01-10T14:47:49Z</time>
      </trkpt>
      <trkpt lat="42.30259" lon="2.56648">
        <ele>848.095</ele>
        <time>2018-01-10T14:48:04Z</time>
      </trkpt>
      <trkpt lat="42.3026" lon="2.56655">
        <ele>848.083</ele>
        <time>2018-01-10T14:48:28Z</time>
      </trkpt>
      <trkpt lat="42.30261" lon="2.56651">
        <ele>847.549</ele>
        <time>2018-01-10T14:48:32Z</time>
      </trkpt>
      <trkpt lat="42.30267" lon="2.56661">
        <ele>848.559</ele>
        <time>2018-01-10T14:48:46Z</time>
      </trkpt>
      <trkpt lat="42.30269" lon="2.56674">
        <ele>848.973</ele>
        <time>2018-01-10T14:48:59Z</time>
      </trkpt>
      <trkpt lat="42.30276" lon="2.56682">
        <ele>850.932</ele>
        <time>2018-01-10T14:49:10Z</time>
      </trkpt>
      <trkpt lat="42.3028" lon="2.56693">
        <ele>851.863</ele>
        <time>2018-01-10T14:49:22Z</time>
      </trkpt>
      <trkpt lat="42.3028" lon="2.56694">
        <ele>852.344</ele>
        <time>2018-01-10T14:49:34Z</time>
      </trkpt>
      <trkpt lat="42.30282" lon="2.56688">
        <ele>852.318</ele>
        <time>2018-01-10T14:49:42Z</time>
      </trkpt>
      <trkpt lat="42.30283" lon="2.5668">
        <ele>852.308</ele>
        <time>2018-01-10T14:49:48Z</time>
      </trkpt>
      <trkpt lat="42.30286" lon="2.56678">
        <ele>853.328</ele>
        <time>2018-01-10T14:49:53Z</time>
      </trkpt>
      <trkpt lat="42.30286" lon="2.56694">
        <ele>853.357</ele>
        <time>2018-01-10T14:50:04Z</time>
      </trkpt>
      <trkpt lat="42.30285" lon="2.56699">
        <ele>853.785</ele>
        <time>2018-01-10T14:50:08Z</time>
      </trkpt>
      <trkpt lat="42.30288" lon="2.56701">
        <ele>854.773</ele>
        <time>2018-01-10T14:50:13Z</time>
      </trkpt>
      <trkpt lat="42.30293" lon="2.56703">
        <ele>857.669</ele>
        <time>2018-01-10T14:50:26Z</time>
      </trkpt>
      <trkpt lat="42.30298" lon="2.56703">
        <ele>858.569</ele>
        <time>2018-01-10T14:50:31Z</time>
      </trkpt>
      <trkpt lat="42.30304" lon="2.56715">
        <ele>860.523</ele>
        <time>2018-01-10T14:50:41Z</time>
      </trkpt>
      <trkpt lat="42.30305" lon="2.5672">
        <ele>861.022</ele>
        <time>2018-01-10T14:50:44Z</time>
      </trkpt>
      <trkpt lat="42.30307" lon="2.56734">
        <ele>862.984</ele>
        <time>2018-01-10T14:50:57Z</time>
      </trkpt>
      <trkpt lat="42.30306" lon="2.56754">
        <ele>861.407</ele>
        <time>2018-01-10T14:51:11Z</time>
      </trkpt>
      <trkpt lat="42.30306" lon="2.56755">
        <ele>861.417</ele>
        <time>2018-01-10T14:51:12Z</time>
      </trkpt>
      <trkpt lat="42.30299" lon="2.5676">
        <ele>860.008</ele>
        <time>2018-01-10T14:51:25Z</time>
      </trkpt>
      <trkpt lat="42.30293" lon="2.56762">
        <ele>858.13</ele>
        <time>2018-01-10T14:51:34Z</time>
      </trkpt>
      <trkpt lat="42.3029" lon="2.56768">
        <ele>856.649</ele>
        <time>2018-01-10T14:51:38Z</time>
      </trkpt>
      <trkpt lat="42.30285" lon="2.56781">
        <ele>854.227</ele>
        <time>2018-01-10T14:51:53Z</time>
      </trkpt>
      <trkpt lat="42.3028" lon="2.56792">
        <ele>851.835</ele>
        <time>2018-01-10T14:52:05Z</time>
      </trkpt>
      <trkpt lat="42.30274" lon="2.56795">
        <ele>849.931</ele>
        <time>2018-01-10T14:52:17Z</time>
      </trkpt>
      <trkpt lat="42.30272" lon="2.56798">
        <ele>849.421</ele>
        <time>2018-01-10T14:52:23Z</time>
      </trkpt>
      <trkpt lat="42.30265" lon="2.56794">
        <ele>846.535</ele>
        <time>2018-01-10T14:52:36Z</time>
      </trkpt>
      <trkpt lat="42.30261" lon="2.56794">
        <ele>844.114</ele>
        <time>2018-01-10T14:52:51Z</time>
      </trkpt>
      <trkpt lat="42.30258" lon="2.56809">
        <ele>842.794</ele>
        <time>2018-01-10T14:53:06Z</time>
      </trkpt>
      <trkpt lat="42.3025" lon="2.56824">
        <ele>839.857</ele>
        <time>2018-01-10T14:53:22Z</time>
      </trkpt>
      <trkpt lat="42.30242" lon="2.56828">
        <ele>836.922</ele>
        <time>2018-01-10T14:53:35Z</time>
      </trkpt>
      <trkpt lat="42.30235" lon="2.56835">
        <ele>834.508</ele>
        <time>2018-01-10T14:53:48Z</time>
      </trkpt>
      <trkpt lat="42.3023" lon="2.56839">
        <ele>832.621</ele>
        <time>2018-01-10T14:53:55Z</time>
      </trkpt>
      <trkpt lat="42.30222" lon="2.56852">
        <ele>829.78</ele>
        <time>2018-01-10T14:54:13Z</time>
      </trkpt>
      <trkpt lat="42.3022" lon="2.56855">
        <ele>827.878</ele>
        <time>2018-01-10T14:54:17Z</time>
      </trkpt>
      <trkpt lat="42.30213" lon="2.56868">
        <ele>824.976</ele>
        <time>2018-01-10T14:54:32Z</time>
      </trkpt>
      <trkpt lat="42.30207" lon="2.56869">
        <ele>823.582</ele>
        <time>2018-01-10T14:54:39Z</time>
      </trkpt>
      <trkpt lat="42.30205" lon="2.56876">
        <ele>822.522</ele>
        <time>2018-01-10T14:54:50Z</time>
      </trkpt>
      <trkpt lat="42.30203" lon="2.56874">
        <ele>822.516</ele>
        <time>2018-01-10T14:55:04Z</time>
      </trkpt>
      <trkpt lat="42.30203" lon="2.56872">
        <ele>823.955</ele>
        <time>2018-01-10T14:55:11Z</time>
      </trkpt>
      <trkpt lat="42.30204" lon="2.56869">
        <ele>823.986</ele>
        <time>2018-01-10T14:55:16Z</time>
      </trkpt>
      <trkpt lat="42.30199" lon="2.56854">
        <ele>823.96</ele>
        <time>2018-01-10T14:55:25Z</time>
      </trkpt>
      <trkpt lat="42.30197" lon="2.56845">
        <ele>823.926</ele>
        <time>2018-01-10T14:55:31Z</time>
      </trkpt>
      <trkpt lat="42.30203" lon="2.56863">
        <ele>823.908</ele>
        <time>2018-01-10T14:55:43Z</time>
      </trkpt>
      <trkpt lat="42.30202" lon="2.56874">
        <ele>821.17</ele>
        <time>2018-01-10T14:55:54Z</time>
      </trkpt>
      <trkpt lat="42.30196" lon="2.56875">
        <ele>821.159</ele>
        <time>2018-01-10T14:56:05Z</time>
      </trkpt>
      <trkpt lat="42.30194" lon="2.56881">
        <ele>820.177</ele>
        <time>2018-01-10T14:56:21Z</time>
      </trkpt>
      <trkpt lat="42.3019" lon="2.56881">
        <ele>818.795</ele>
        <time>2018-01-10T14:56:38Z</time>
      </trkpt>
      <trkpt lat="42.30184" lon="2.56864">
        <ele>818.741</ele>
        <time>2018-01-10T14:56:49Z</time>
      </trkpt>
      <trkpt lat="42.3018" lon="2.56859">
        <ele>817.731</ele>
        <time>2018-01-10T14:57:04Z</time>
      </trkpt>
      <trkpt lat="42.30184" lon="2.56862">
        <ele>819.125</ele>
        <time>2018-01-10T14:57:19Z</time>
      </trkpt>
      <trkpt lat="42.30183" lon="2.56871">
        <ele>816.324</ele>
        <time>2018-01-10T14:57:33Z</time>
      </trkpt>
      <trkpt lat="42.30185" lon="2.56883">
        <ele>815.826</ele>
        <time>2018-01-10T14:57:46Z</time>
      </trkpt>
      <trkpt lat="42.30185" lon="2.5688">
        <ele>815.347</ele>
        <time>2018-01-10T14:57:58Z</time>
      </trkpt>
      <trkpt lat="42.30177" lon="2.56877">
        <ele>812.411</ele>
        <time>2018-01-10T14:58:10Z</time>
      </trkpt>
      <trkpt lat="42.30179" lon="2.56885">
        <ele>811.008</ele>
        <time>2018-01-10T14:58:18Z</time>
      </trkpt>
      <trkpt lat="42.30177" lon="2.56903">
        <ele>809.044</ele>
        <time>2018-01-10T14:58:31Z</time>
      </trkpt>
      <trkpt lat="42.30177" lon="2.56905">
        <ele>808.683</ele>
        <time>2018-01-10T14:58:32Z</time>
      </trkpt>
      <trkpt lat="42.30173" lon="2.56915">
        <ele>807.141</ele>
        <time>2018-01-10T14:58:38Z</time>
      </trkpt>
      <trkpt lat="42.30169" lon="2.56924">
        <ele>806.299</ele>
        <time>2018-01-10T14:58:44Z</time>
      </trkpt>
      <trkpt lat="42.30165" lon="2.56935">
        <ele>804.235</ele>
        <time>2018-01-10T14:58:51Z</time>
      </trkpt>
      <trkpt lat="42.30161" lon="2.56949">
        <ele>801.855</ele>
        <time>2018-01-10T14:59:03Z</time>
      </trkpt>
      <trkpt lat="42.30159" lon="2.56956">
        <ele>798.989</ele>
        <time>2018-01-10T14:59:14Z</time>
      </trkpt>
      <trkpt lat="42.30154" lon="2.5696">
        <ele>795.628</ele>
        <time>2018-01-10T14:59:21Z</time>
      </trkpt>
      <trkpt lat="42.3015" lon="2.56977">
        <ele>792.274</ele>
        <time>2018-01-10T14:59:32Z</time>
      </trkpt>
      <trkpt lat="42.30143" lon="2.57001">
        <ele>788.956</ele>
        <time>2018-01-10T14:59:44Z</time>
      </trkpt>
      <trkpt lat="42.30132" lon="2.57035">
        <ele>786.021</ele>
        <time>2018-01-10T14:59:58Z</time>
      </trkpt>
      <trkpt lat="42.30131" lon="2.57051">
        <ele>783.608</ele>
        <time>2018-01-10T15:00:07Z</time>
      </trkpt>
      <trkpt lat="42.30128" lon="2.57065">
        <ele>780.249</ele>
        <time>2018-01-10T15:00:17Z</time>
      </trkpt>
      <trkpt lat="42.30126" lon="2.57071">
        <ele>779.718</ele>
        <time>2018-01-10T15:00:21Z</time>
      </trkpt>
      <trkpt lat="42.30133" lon="2.57101">
        <ele>779.266</ele>
        <time>2018-01-10T15:00:35Z</time>
      </trkpt>
      <trkpt lat="42.30134" lon="2.5712">
        <ele>778.824</ele>
        <time>2018-01-10T15:00:47Z</time>
      </trkpt>
      <trkpt lat="42.30136" lon="2.57126">
        <ele>778.39</ele>
        <time>2018-01-10T15:00:51Z</time>
      </trkpt>
      <trkpt lat="42.30138" lon="2.57137">
        <ele>778.34</ele>
        <time>2018-01-10T15:00:58Z</time>
      </trkpt>
      <trkpt lat="42.30146" lon="2.57154">
        <ele>778.344</ele>
        <time>2018-01-10T15:01:11Z</time>
      </trkpt>
      <trkpt lat="42.30148" lon="2.57161">
        <ele>778.333</ele>
        <time>2018-01-10T15:01:15Z</time>
      </trkpt>
      <trkpt lat="42.30142" lon="2.57182">
        <ele>776.867</ele>
        <time>2018-01-10T15:01:29Z</time>
      </trkpt>
      <trkpt lat="42.30136" lon="2.57183">
        <ele>773.581</ele>
        <time>2018-01-10T15:01:40Z</time>
      </trkpt>
      <trkpt lat="42.30133" lon="2.57192">
        <ele>772.019</ele>
        <time>2018-01-10T15:01:45Z</time>
      </trkpt>
      <trkpt lat="42.30129" lon="2.57214">
        <ele>770.108</ele>
        <time>2018-01-10T15:01:59Z</time>
      </trkpt>
      <trkpt lat="42.30127" lon="2.57215">
        <ele>769.698</ele>
        <time>2018-01-10T15:02:01Z</time>
      </trkpt>
      <trkpt lat="42.30126" lon="2.57225">
        <ele>767.737</ele>
        <time>2018-01-10T15:02:13Z</time>
      </trkpt>
      <trkpt lat="42.30127" lon="2.57229">
        <ele>767.785</ele>
        <time>2018-01-10T15:02:36Z</time>
      </trkpt>
      <trkpt lat="42.30124" lon="2.57227">
        <ele>767.783</ele>
        <time>2018-01-10T15:02:51Z</time>
      </trkpt>
      <trkpt lat="42.30126" lon="2.57219">
        <ele>770.199</ele>
        <time>2018-01-10T15:03:04Z</time>
      </trkpt>
      <trkpt lat="42.3013" lon="2.57226">
        <ele>770.129</ele>
        <time>2018-01-10T15:03:18Z</time>
      </trkpt>
      <trkpt lat="42.30127" lon="2.57221">
        <ele>770.143</ele>
        <time>2018-01-10T15:03:29Z</time>
      </trkpt>
      <trkpt lat="42.30119" lon="2.57224">
        <ele>767.242</ele>
        <time>2018-01-10T15:03:51Z</time>
      </trkpt>
      <trkpt lat="42.30113" lon="2.57235">
        <ele>767.231</ele>
        <time>2018-01-10T15:04:01Z</time>
      </trkpt>
      <trkpt lat="42.30106" lon="2.57237">
        <ele>765.861</ele>
        <time>2018-01-10T15:04:06Z</time>
      </trkpt>
      <trkpt lat="42.30085" lon="2.57242">
        <ele>764.807</ele>
        <time>2018-01-10T15:04:21Z</time>
      </trkpt>
      <trkpt lat="42.30083" lon="2.57253">
        <ele>764.808</ele>
        <time>2018-01-10T15:04:37Z</time>
      </trkpt>
      <trkpt lat="42.30081" lon="2.57253">
        <ele>766.775</ele>
        <time>2018-01-10T15:05:01Z</time>
      </trkpt>
      <trkpt lat="42.30078" lon="2.57253">
        <ele>766.724</ele>
        <time>2018-01-10T15:05:06Z</time>
      </trkpt>
      <trkpt lat="42.30074" lon="2.57251">
        <ele>766.772</ele>
        <time>2018-01-10T15:05:09Z</time>
      </trkpt>
      <trkpt lat="42.30066" lon="2.5725">
        <ele>766.79</ele>
        <time>2018-01-10T15:05:15Z</time>
      </trkpt>
      <trkpt lat="42.30053" lon="2.57245">
        <ele>764.826</ele>
        <time>2018-01-10T15:05:25Z</time>
      </trkpt>
      <trkpt lat="42.30051" lon="2.57243">
        <ele>763.416</ele>
        <time>2018-01-10T15:05:27Z</time>
      </trkpt>
      <trkpt lat="42.30041" lon="2.57243">
        <ele>761.53</ele>
        <time>2018-01-10T15:05:35Z</time>
      </trkpt>
      <trkpt lat="42.30036" lon="2.57243">
        <ele>760.579</ele>
        <time>2018-01-10T15:05:48Z</time>
      </trkpt>
      <trkpt lat="42.30032" lon="2.57242">
        <ele>760.082</ele>
        <time>2018-01-10T15:05:52Z</time>
      </trkpt>
      <trkpt lat="42.30018" lon="2.57234">
        <ele>758.143</ele>
        <time>2018-01-10T15:06:06Z</time>
      </trkpt>
      <trkpt lat="42.30015" lon="2.57231">
        <ele>757.117</ele>
        <time>2018-01-10T15:06:08Z</time>
      </trkpt>
      <trkpt lat="42.29999" lon="2.57235">
        <ele>754.708</ele>
        <time>2018-01-10T15:06:19Z</time>
      </trkpt>
      <trkpt lat="42.29986" lon="2.57235">
        <ele>752.88</ele>
        <time>2018-01-10T15:06:32Z</time>
      </trkpt>
      <trkpt lat="42.29966" lon="2.57241">
        <ele>750.959</ele>
        <time>2018-01-10T15:06:45Z</time>
      </trkpt>
      <trkpt lat="42.29964" lon="2.57242">
        <ele>752.387</ele>
        <time>2018-01-10T15:06:47Z</time>
      </trkpt>
      <trkpt lat="42.29951" lon="2.57244">
        <ele>755.225</ele>
        <time>2018-01-10T15:06:59Z</time>
      </trkpt>
      <trkpt lat="42.29938" lon="2.57242">
        <ele>758.121</ele>
        <time>2018-01-10T15:07:13Z</time>
      </trkpt>
      <trkpt lat="42.29924" lon="2.5724">
        <ele>760.081</ele>
        <time>2018-01-10T15:07:28Z</time>
      </trkpt>
      <trkpt lat="42.29914" lon="2.57233">
        <ele>763.455</ele>
        <time>2018-01-10T15:07:44Z</time>
      </trkpt>
      <trkpt lat="42.29906" lon="2.57228">
        <ele>766.354</ele>
        <time>2018-01-10T15:07:59Z</time>
      </trkpt>
      <trkpt lat="42.29901" lon="2.57232">
        <ele>769.647</ele>
        <time>2018-01-10T15:08:14Z</time>
      </trkpt>
      <trkpt lat="42.29892" lon="2.57233">
        <ele>773.029</ele>
        <time>2018-01-10T15:08:28Z</time>
      </trkpt>
      <trkpt lat="42.29892" lon="2.57244">
        <ele>776.421</ele>
        <time>2018-01-10T15:08:46Z</time>
      </trkpt>
      <trkpt lat="42.29884" lon="2.57245">
        <ele>779.708</ele>
        <time>2018-01-10T15:09:03Z</time>
      </trkpt>
      <trkpt lat="42.29875" lon="2.57243">
        <ele>782.646</ele>
        <time>2018-01-10T15:09:17Z</time>
      </trkpt>
      <trkpt lat="42.29866" lon="2.57243">
        <ele>786.075</ele>
        <time>2018-01-10T15:09:33Z</time>
      </trkpt>
      <trkpt lat="42.29854" lon="2.57238">
        <ele>789.353</ele>
        <time>2018-01-10T15:09:50Z</time>
      </trkpt>
      <trkpt lat="42.29845" lon="2.57242">
        <ele>792.741</ele>
        <time>2018-01-10T15:10:06Z</time>
      </trkpt>
      <trkpt lat="42.29838" lon="2.5725">
        <ele>795.677</ele>
        <time>2018-01-10T15:10:21Z</time>
      </trkpt>
      <trkpt lat="42.29823" lon="2.57261">
        <ele>797.577</ele>
        <time>2018-01-10T15:10:40Z</time>
      </trkpt>
      <trkpt lat="42.29812" lon="2.57272">
        <ele>800.941</ele>
        <time>2018-01-10T15:10:56Z</time>
      </trkpt>
      <trkpt lat="42.298" lon="2.57283">
        <ele>802.85</ele>
        <time>2018-01-10T15:11:15Z</time>
      </trkpt>
      <trkpt lat="42.29784" lon="2.57299">
        <ele>805.212</ele>
        <time>2018-01-10T15:11:33Z</time>
      </trkpt>
      <trkpt lat="42.29772" lon="2.57309">
        <ele>808.132</ele>
        <time>2018-01-10T15:11:48Z</time>
      </trkpt>
      <trkpt lat="42.29757" lon="2.57315">
        <ele>810.505</ele>
        <time>2018-01-10T15:12:05Z</time>
      </trkpt>
      <trkpt lat="42.29744" lon="2.57321">
        <ele>813.408</ele>
        <time>2018-01-10T15:12:22Z</time>
      </trkpt>
      <trkpt lat="42.2974" lon="2.57327">
        <ele>816.383</ele>
        <time>2018-01-10T15:12:33Z</time>
      </trkpt>
      <trkpt lat="42.29731" lon="2.57333">
        <ele>819.672</ele>
        <time>2018-01-10T15:12:49Z</time>
      </trkpt>
      <trkpt lat="42.29719" lon="2.57339">
        <ele>822.53</ele>
        <time>2018-01-10T15:13:06Z</time>
      </trkpt>
      <trkpt lat="42.29714" lon="2.57338">
        <ele>825.458</ele>
        <time>2018-01-10T15:13:26Z</time>
      </trkpt>
      <trkpt lat="42.29706" lon="2.57344">
        <ele>828.374</ele>
        <time>2018-01-10T15:13:38Z</time>
      </trkpt>
      <trkpt lat="42.29702" lon="2.57346">
        <ele>831.634</ele>
        <time>2018-01-10T15:13:50Z</time>
      </trkpt>
      <trkpt lat="42.29692" lon="2.57352">
        <ele>835.088</ele>
        <time>2018-01-10T15:14:04Z</time>
      </trkpt>
      <trkpt lat="42.29689" lon="2.57355">
        <ele>838.497</ele>
        <time>2018-01-10T15:14:19Z</time>
      </trkpt>
      <trkpt lat="42.29683" lon="2.5736">
        <ele>841.787</ele>
        <time>2018-01-10T15:14:33Z</time>
      </trkpt>
      <trkpt lat="42.29682" lon="2.57368">
        <ele>844.642</ele>
        <time>2018-01-10T15:14:46Z</time>
      </trkpt>
      <trkpt lat="42.29679" lon="2.57376">
        <ele>847.526</ele>
        <time>2018-01-10T15:14:58Z</time>
      </trkpt>
      <trkpt lat="42.29674" lon="2.57381">
        <ele>850.908</ele>
        <time>2018-01-10T15:15:12Z</time>
      </trkpt>
      <trkpt lat="42.29669" lon="2.57384">
        <ele>854.29</ele>
        <time>2018-01-10T15:15:25Z</time>
      </trkpt>
      <trkpt lat="42.29664" lon="2.57386">
        <ele>857.639</ele>
        <time>2018-01-10T15:15:40Z</time>
      </trkpt>
      <trkpt lat="42.29665" lon="2.57394">
        <ele>861.097</ele>
        <time>2018-01-10T15:15:55Z</time>
      </trkpt>
      <trkpt lat="42.29661" lon="2.57402">
        <ele>863.855</ele>
        <time>2018-01-10T15:16:09Z</time>
      </trkpt>
      <trkpt lat="42.29653" lon="2.57409">
        <ele>867.711</ele>
        <time>2018-01-10T15:16:27Z</time>
      </trkpt>
      <trkpt lat="42.29651" lon="2.57411">
        <ele>868.611</ele>
        <time>2018-01-10T15:17:01Z</time>
      </trkpt>
      <trkpt lat="42.29647" lon="2.57402">
        <ele>871.555</ele>
        <time>2018-01-10T15:17:17Z</time>
      </trkpt>
      <trkpt lat="42.29641" lon="2.57395">
        <ele>874.944</ele>
        <time>2018-01-10T15:17:33Z</time>
      </trkpt>
      <trkpt lat="42.29638" lon="2.57395">
        <ele>878.369</ele>
        <time>2018-01-10T15:17:47Z</time>
      </trkpt>
      <trkpt lat="42.2963" lon="2.57387">
        <ele>881.604</ele>
        <time>2018-01-10T15:18:03Z</time>
      </trkpt>
      <trkpt lat="42.29623" lon="2.57386">
        <ele>885.024</ele>
        <time>2018-01-10T15:18:17Z</time>
      </trkpt>
      <trkpt lat="42.29616" lon="2.57379">
        <ele>888.408</ele>
        <time>2018-01-10T15:18:33Z</time>
      </trkpt>
      <trkpt lat="42.29613" lon="2.57369">
        <ele>891.288</ele>
        <time>2018-01-10T15:18:50Z</time>
      </trkpt>
      <trkpt lat="42.29609" lon="2.57363">
        <ele>894.187</ele>
        <time>2018-01-10T15:19:04Z</time>
      </trkpt>
      <trkpt lat="42.29604" lon="2.57363">
        <ele>897.555</ele>
        <time>2018-01-10T15:19:19Z</time>
      </trkpt>
      <trkpt lat="42.29599" lon="2.57354">
        <ele>900.443</ele>
        <time>2018-01-10T15:19:36Z</time>
      </trkpt>
      <trkpt lat="42.29597" lon="2.57349">
        <ele>901.879</ele>
        <time>2018-01-10T15:19:56Z</time>
      </trkpt>
      <trkpt lat="42.29589" lon="2.57347">
        <ele>904.769</ele>
        <time>2018-01-10T15:20:19Z</time>
      </trkpt>
      <trkpt lat="42.29586" lon="2.57344">
        <ele>908.113</ele>
        <time>2018-01-10T15:20:32Z</time>
      </trkpt>
      <trkpt lat="42.2958" lon="2.57344">
        <ele>910.982</ele>
        <time>2018-01-10T15:20:44Z</time>
      </trkpt>
      <trkpt lat="42.29575" lon="2.57346">
        <ele>914.319</ele>
        <time>2018-01-10T15:21:02Z</time>
      </trkpt>
      <trkpt lat="42.29573" lon="2.57341">
        <ele>917.709</ele>
        <time>2018-01-10T15:21:20Z</time>
      </trkpt>
      <trkpt lat="42.29568" lon="2.57342">
        <ele>920.619</ele>
        <time>2018-01-10T15:21:34Z</time>
      </trkpt>
      <trkpt lat="42.29565" lon="2.57339">
        <ele>922.508</ele>
        <time>2018-01-10T15:21:51Z</time>
      </trkpt>
      <trkpt lat="42.29563" lon="2.57334">
        <ele>924.993</ele>
        <time>2018-01-10T15:22:08Z</time>
      </trkpt>
      <trkpt lat="42.29563" lon="2.57329">
        <ele>926.832</ele>
        <time>2018-01-10T15:22:28Z</time>
      </trkpt>
      <trkpt lat="42.29562" lon="2.57326">
        <ele>927.37</ele>
        <time>2018-01-10T15:22:52Z</time>
      </trkpt>
      <trkpt lat="42.2956" lon="2.57327">
        <ele>929.288</ele>
        <time>2018-01-10T15:23:09Z</time>
      </trkpt>
      <trkpt lat="42.2956" lon="2.57324">
        <ele>931.154</ele>
        <time>2018-01-10T15:23:30Z</time>
      </trkpt>
      <trkpt lat="42.29558" lon="2.57322">
        <ele>932.184</ele>
        <time>2018-01-10T15:23:55Z</time>
      </trkpt>
      <trkpt lat="42.29556" lon="2.57328">
        <ele>935.558</ele>
        <time>2018-01-10T15:24:14Z</time>
      </trkpt>
      <trkpt lat="42.29552" lon="2.57329">
        <ele>938.387</ele>
        <time>2018-01-10T15:24:33Z</time>
      </trkpt>
      <trkpt lat="42.29548" lon="2.57324">
        <ele>941.268</ele>
        <time>2018-01-10T15:24:48Z</time>
      </trkpt>
      <trkpt lat="42.29544" lon="2.57329">
        <ele>944.142</ele>
        <time>2018-01-10T15:25:02Z</time>
      </trkpt>
      <trkpt lat="42.29539" lon="2.57332">
        <ele>947.526</ele>
        <time>2018-01-10T15:25:15Z</time>
      </trkpt>
      <trkpt lat="42.29536" lon="2.57335">
        <ele>950.408</ele>
        <time>2018-01-10T15:25:32Z</time>
      </trkpt>
      <trkpt lat="42.29531" lon="2.57338">
        <ele>953.798</ele>
        <time>2018-01-10T15:25:47Z</time>
      </trkpt>
      <trkpt lat="42.29526" lon="2.57338">
        <ele>957.177</ele>
        <time>2018-01-10T15:26:03Z</time>
      </trkpt>
      <trkpt lat="42.29523" lon="2.57327">
        <ele>960.475</ele>
        <time>2018-01-10T15:26:21Z</time>
      </trkpt>
      <trkpt lat="42.29519" lon="2.5732">
        <ele>963.843</ele>
        <time>2018-01-10T15:26:38Z</time>
      </trkpt>
      <trkpt lat="42.29514" lon="2.57312">
        <ele>965.349</ele>
        <time>2018-01-10T15:26:59Z</time>
      </trkpt>
      <trkpt lat="42.29512" lon="2.57307">
        <ele>967.239</ele>
        <time>2018-01-10T15:27:23Z</time>
      </trkpt>
      <trkpt lat="42.29508" lon="2.57297">
        <ele>970.563</ele>
        <time>2018-01-10T15:27:38Z</time>
      </trkpt>
      <trkpt lat="42.29509" lon="2.57291">
        <ele>971.572</ele>
        <time>2018-01-10T15:27:49Z</time>
      </trkpt>
      <trkpt lat="42.29506" lon="2.57288">
        <ele>972.523</ele>
        <time>2018-01-10T15:28:10Z</time>
      </trkpt>
      <trkpt lat="42.29503" lon="2.57282">
        <ele>973.983</ele>
        <time>2018-01-10T15:28:40Z</time>
      </trkpt>
      <trkpt lat="42.29501" lon="2.57272">
        <ele>975.811</ele>
        <time>2018-01-10T15:28:54Z</time>
      </trkpt>
      <trkpt lat="42.29496" lon="2.5726">
        <ele>978.708</ele>
        <time>2018-01-10T15:29:11Z</time>
      </trkpt>
      <trkpt lat="42.29494" lon="2.57253">
        <ele>980.264</ele>
        <time>2018-01-10T15:29:26Z</time>
      </trkpt>
      <trkpt lat="42.29492" lon="2.57248">
        <ele>980.263</ele>
        <time>2018-01-10T15:29:59Z</time>
      </trkpt>
      <trkpt lat="42.29494" lon="2.57249">
        <ele>980.211</ele>
        <time>2018-01-10T15:30:35Z</time>
      </trkpt>
      <trkpt lat="42.29494" lon="2.57258">
        <ele>978.749</ele>
        <time>2018-01-10T15:30:51Z</time>
      </trkpt>
      <trkpt lat="42.29501" lon="2.5727">
        <ele>975.885</ele>
        <time>2018-01-10T15:31:05Z</time>
      </trkpt>
      <trkpt lat="42.29503" lon="2.57281">
        <ele>973.965</ele>
        <time>2018-01-10T15:31:17Z</time>
      </trkpt>
      <trkpt lat="42.29507" lon="2.5729">
        <ele>971.029</ele>
        <time>2018-01-10T15:31:29Z</time>
      </trkpt>
      <trkpt lat="42.29501" lon="2.57297">
        <ele>972.058</ele>
        <time>2018-01-10T15:31:42Z</time>
      </trkpt>
      <trkpt lat="42.29498" lon="2.57305">
        <ele>972.549</ele>
        <time>2018-01-10T15:31:57Z</time>
      </trkpt>
      <trkpt lat="42.29498" lon="2.57311">
        <ele>971.002</ele>
        <time>2018-01-10T15:32:16Z</time>
      </trkpt>
      <trkpt lat="42.29499" lon="2.57321">
        <ele>968.622</ele>
        <time>2018-01-10T15:32:33Z</time>
      </trkpt>
      <trkpt lat="42.29496" lon="2.5733">
        <ele>968.108</ele>
        <time>2018-01-10T15:32:48Z</time>
      </trkpt>
      <trkpt lat="42.29494" lon="2.57336">
        <ele>967.776</ele>
        <time>2018-01-10T15:33:07Z</time>
      </trkpt>
      <trkpt lat="42.29497" lon="2.57347">
        <ele>965.735</ele>
        <time>2018-01-10T15:33:23Z</time>
      </trkpt>
      <trkpt lat="42.29497" lon="2.57355">
        <ele>964.823</ele>
        <time>2018-01-10T15:33:35Z</time>
      </trkpt>
      <trkpt lat="42.29496" lon="2.57366">
        <ele>963.331</ele>
        <time>2018-01-10T15:33:47Z</time>
      </trkpt>
      <trkpt lat="42.295" lon="2.57378">
        <ele>962.927</ele>
        <time>2018-01-10T15:34:06Z</time>
      </trkpt>
      <trkpt lat="42.29501" lon="2.5739">
        <ele>961.477</ele>
        <time>2018-01-10T15:34:23Z</time>
      </trkpt>
      <trkpt lat="42.29504" lon="2.57398">
        <ele>959.061</ele>
        <time>2018-01-10T15:34:36Z</time>
      </trkpt>
      <trkpt lat="42.29506" lon="2.57408">
        <ele>957.69</ele>
        <time>2018-01-10T15:34:53Z</time>
      </trkpt>
      <trkpt lat="42.29508" lon="2.57416">
        <ele>955.223</ele>
        <time>2018-01-10T15:35:12Z</time>
      </trkpt>
      <trkpt lat="42.29511" lon="2.57421">
        <ele>952.383</ele>
        <time>2018-01-10T15:35:24Z</time>
      </trkpt>
      <trkpt lat="42.2951" lon="2.5743">
        <ele>949.411</ele>
        <time>2018-01-10T15:35:35Z</time>
      </trkpt>
      <trkpt lat="42.29515" lon="2.5744">
        <ele>946.508</ele>
        <time>2018-01-10T15:35:46Z</time>
      </trkpt>
      <trkpt lat="42.29519" lon="2.57449">
        <ele>943.614</ele>
        <time>2018-01-10T15:36:00Z</time>
      </trkpt>
      <trkpt lat="42.2952" lon="2.57452">
        <ele>941.743</ele>
        <time>2018-01-10T15:36:27Z</time>
      </trkpt>
      <trkpt lat="42.29527" lon="2.57455">
        <ele>938.381</ele>
        <time>2018-01-10T15:36:39Z</time>
      </trkpt>
      <trkpt lat="42.29529" lon="2.57462">
        <ele>935.589</ele>
        <time>2018-01-10T15:36:51Z</time>
      </trkpt>
      <trkpt lat="42.29528" lon="2.57463">
        <ele>935.055</ele>
        <time>2018-01-10T15:37:10Z</time>
      </trkpt>
      <trkpt lat="42.29528" lon="2.5747">
        <ele>932.125</ele>
        <time>2018-01-10T15:37:21Z</time>
      </trkpt>
      <trkpt lat="42.29529" lon="2.57479">
        <ele>928.779</ele>
        <time>2018-01-10T15:37:30Z</time>
      </trkpt>
      <trkpt lat="42.29526" lon="2.57487">
        <ele>925.478</ele>
        <time>2018-01-10T15:37:40Z</time>
      </trkpt>
      <trkpt lat="42.29523" lon="2.57501">
        <ele>922.077</ele>
        <time>2018-01-10T15:37:51Z</time>
      </trkpt>
      <trkpt lat="42.29515" lon="2.57513">
        <ele>920.161</ele>
        <time>2018-01-10T15:38:07Z</time>
      </trkpt>
      <trkpt lat="42.29511" lon="2.57523">
        <ele>917.727</ele>
        <time>2018-01-10T15:38:36Z</time>
      </trkpt>
      <trkpt lat="42.29506" lon="2.57532">
        <ele>915.708</ele>
        <time>2018-01-10T15:38:47Z</time>
      </trkpt>
      <trkpt lat="42.29495" lon="2.57541">
        <ele>914.829</ele>
        <time>2018-01-10T15:38:59Z</time>
      </trkpt>
      <trkpt lat="42.29483" lon="2.57552">
        <ele>914.318</ele>
        <time>2018-01-10T15:39:14Z</time>
      </trkpt>
      <trkpt lat="42.2948" lon="2.57555">
        <ele>912.916</ele>
        <time>2018-01-10T15:39:17Z</time>
      </trkpt>
      <trkpt lat="42.29472" lon="2.57569">
        <ele>910.954</ele>
        <time>2018-01-10T15:39:32Z</time>
      </trkpt>
      <trkpt lat="42.29466" lon="2.57581">
        <ele>907.65</ele>
        <time>2018-01-10T15:39:43Z</time>
      </trkpt>
      <trkpt lat="42.2946" lon="2.57599">
        <ele>904.72</ele>
        <time>2018-01-10T15:40:00Z</time>
      </trkpt>
      <trkpt lat="42.29455" lon="2.57611">
        <ele>901.334</ele>
        <time>2018-01-10T15:40:13Z</time>
      </trkpt>
      <trkpt lat="42.29451" lon="2.57618">
        <ele>901.343</ele>
        <time>2018-01-10T15:40:27Z</time>
      </trkpt>
      <trkpt lat="42.29445" lon="2.57625">
        <ele>899.936</ele>
        <time>2018-01-10T15:40:55Z</time>
      </trkpt>
      <trkpt lat="42.29442" lon="2.57635">
        <ele>896.517</ele>
        <time>2018-01-10T15:41:08Z</time>
      </trkpt>
      <trkpt lat="42.29446" lon="2.57643">
        <ele>893.618</ele>
        <time>2018-01-10T15:41:20Z</time>
      </trkpt>
      <trkpt lat="42.29442" lon="2.57659">
        <ele>890.308</ele>
        <time>2018-01-10T15:41:35Z</time>
      </trkpt>
      <trkpt lat="42.29438" lon="2.57678">
        <ele>886.935</ele>
        <time>2018-01-10T15:41:51Z</time>
      </trkpt>
      <trkpt lat="42.29436" lon="2.57699">
        <ele>883.554</ele>
        <time>2018-01-10T15:42:07Z</time>
      </trkpt>
      <trkpt lat="42.29441" lon="2.57709">
        <ele>881.682</ele>
        <time>2018-01-10T15:42:21Z</time>
      </trkpt>
      <trkpt lat="42.29438" lon="2.57722">
        <ele>879.72</ele>
        <time>2018-01-10T15:42:44Z</time>
      </trkpt>
      <trkpt lat="42.29435" lon="2.57741">
        <ele>876.396</ele>
        <time>2018-01-10T15:43:01Z</time>
      </trkpt>
      <trkpt lat="42.29431" lon="2.57754">
        <ele>875.446</ele>
        <time>2018-01-10T15:43:14Z</time>
      </trkpt>
      <trkpt lat="42.29425" lon="2.57767">
        <ele>873.91</ele>
        <time>2018-01-10T15:43:28Z</time>
      </trkpt>
      <trkpt lat="42.29418" lon="2.57782">
        <ele>871.579</ele>
        <time>2018-01-10T15:43:44Z</time>
      </trkpt>
      <trkpt lat="42.29422" lon="2.5779">
        <ele>871.544</ele>
        <time>2018-01-10T15:44:06Z</time>
      </trkpt>
      <trkpt lat="42.29428" lon="2.57801">
        <ele>870.605</ele>
        <time>2018-01-10T15:44:18Z</time>
      </trkpt>
      <trkpt lat="42.2943" lon="2.57819">
        <ele>868.615</ele>
        <time>2018-01-10T15:44:33Z</time>
      </trkpt>
      <trkpt lat="42.29425" lon="2.57838">
        <ele>867.708</ele>
        <time>2018-01-10T15:44:53Z</time>
      </trkpt>
      <trkpt lat="42.29422" lon="2.57843">
        <ele>867.726</ele>
        <time>2018-01-10T15:45:35Z</time>
      </trkpt>
      <trkpt lat="42.29415" lon="2.57842">
        <ele>867.275</ele>
        <time>2018-01-10T15:45:58Z</time>
      </trkpt>
      <trkpt lat="42.29403" lon="2.5784">
        <ele>864.313</ele>
        <time>2018-01-10T15:46:14Z</time>
      </trkpt>
      <trkpt lat="42.29395" lon="2.57844">
        <ele>861.981</ele>
        <time>2018-01-10T15:46:29Z</time>
      </trkpt>
      <trkpt lat="42.29388" lon="2.57838">
        <ele>858.117</ele>
        <time>2018-01-10T15:46:42Z</time>
      </trkpt>
      <trkpt lat="42.29381" lon="2.57833">
        <ele>855.247</ele>
        <time>2018-01-10T15:46:54Z</time>
      </trkpt>
      <trkpt lat="42.29375" lon="2.57832">
        <ele>851.841</ele>
        <time>2018-01-10T15:47:07Z</time>
      </trkpt>
      <trkpt lat="42.29368" lon="2.57826">
        <ele>848.52</ele>
        <time>2018-01-10T15:47:22Z</time>
      </trkpt>
      <trkpt lat="42.2936" lon="2.57817">
        <ele>845.656</ele>
        <time>2018-01-10T15:47:35Z</time>
      </trkpt>
      <trkpt lat="42.29353" lon="2.5781">
        <ele>842.759</ele>
        <time>2018-01-10T15:47:46Z</time>
      </trkpt>
      <trkpt lat="42.29345" lon="2.57802">
        <ele>840.314</ele>
        <time>2018-01-10T15:47:59Z</time>
      </trkpt>
      <trkpt lat="42.29335" lon="2.57798">
        <ele>836.908</ele>
        <time>2018-01-10T15:48:13Z</time>
      </trkpt>
      <trkpt lat="42.29329" lon="2.57796">
        <ele>836.447</ele>
        <time>2018-01-10T15:48:29Z</time>
      </trkpt>
      <trkpt lat="42.29324" lon="2.57788">
        <ele>833.646</ele>
        <time>2018-01-10T15:48:43Z</time>
      </trkpt>
      <trkpt lat="42.29317" lon="2.57782">
        <ele>831.684</ele>
        <time>2018-01-10T15:48:53Z</time>
      </trkpt>
      <trkpt lat="42.29309" lon="2.57774">
        <ele>829.212</ele>
        <time>2018-01-10T15:49:05Z</time>
      </trkpt>
      <trkpt lat="42.29305" lon="2.57764">
        <ele>826.888</ele>
        <time>2018-01-10T15:49:18Z</time>
      </trkpt>
      <trkpt lat="42.293" lon="2.57754">
        <ele>825.448</ele>
        <time>2018-01-10T15:49:33Z</time>
      </trkpt>
      <trkpt lat="42.29294" lon="2.57746">
        <ele>823.062</ele>
        <time>2018-01-10T15:49:55Z</time>
      </trkpt>
      <trkpt lat="42.29292" lon="2.57742">
        <ele>821.581</ele>
        <time>2018-01-10T15:50:11Z</time>
      </trkpt>
      <trkpt lat="42.29288" lon="2.57756">
        <ele>819.196</ele>
        <time>2018-01-10T15:50:24Z</time>
      </trkpt>
      <trkpt lat="42.29281" lon="2.57754">
        <ele>816.331</ele>
        <time>2018-01-10T15:50:33Z</time>
      </trkpt>
      <trkpt lat="42.29275" lon="2.57752">
        <ele>815.824</ele>
        <time>2018-01-10T15:50:39Z</time>
      </trkpt>
      <trkpt lat="42.29273" lon="2.57735">
        <ele>813.808</ele>
        <time>2018-01-10T15:50:50Z</time>
      </trkpt>
      <trkpt lat="42.2927" lon="2.57718">
        <ele>811.091</ele>
        <time>2018-01-10T15:51:02Z</time>
      </trkpt>
      <trkpt lat="42.29266" lon="2.57704">
        <ele>808.16</ele>
        <time>2018-01-10T15:51:12Z</time>
      </trkpt>
      <trkpt lat="42.29264" lon="2.57694">
        <ele>804.778</ele>
        <time>2018-01-10T15:51:22Z</time>
      </trkpt>
      <trkpt lat="42.29262" lon="2.57682">
        <ele>801.436</ele>
        <time>2018-01-10T15:51:31Z</time>
      </trkpt>
      <trkpt lat="42.29253" lon="2.57673">
        <ele>799.472</ele>
        <time>2018-01-10T15:51:43Z</time>
      </trkpt>
      <trkpt lat="42.2925" lon="2.57665">
        <ele>796.172</ele>
        <time>2018-01-10T15:51:53Z</time>
      </trkpt>
      <trkpt lat="42.29243" lon="2.57656">
        <ele>792.256</ele>
        <time>2018-01-10T15:52:04Z</time>
      </trkpt>
      <trkpt lat="42.29238" lon="2.5764">
        <ele>789.315</ele>
        <time>2018-01-10T15:52:16Z</time>
      </trkpt>
      <trkpt lat="42.29236" lon="2.57627">
        <ele>786.972</ele>
        <time>2018-01-10T15:52:30Z</time>
      </trkpt>
      <trkpt lat="42.29235" lon="2.57616">
        <ele>783.613</ele>
        <time>2018-01-10T15:52:40Z</time>
      </trkpt>
      <trkpt lat="42.29232" lon="2.57613">
        <ele>782.614</ele>
        <time>2018-01-10T15:52:43Z</time>
      </trkpt>
      <trkpt lat="42.2923" lon="2.57602">
        <ele>780.708</ele>
        <time>2018-01-10T15:52:56Z</time>
      </trkpt>
      <trkpt lat="42.29221" lon="2.57605">
        <ele>778.849</ele>
        <time>2018-01-10T15:53:10Z</time>
      </trkpt>
      <trkpt lat="42.29221" lon="2.57617">
        <ele>778.338</ele>
        <time>2018-01-10T15:53:26Z</time>
      </trkpt>
      <trkpt lat="42.29223" lon="2.57625">
        <ele>777.356</ele>
        <time>2018-01-10T15:53:38Z</time>
      </trkpt>
      <trkpt lat="42.29224" lon="2.57652">
        <ele>775.914</ele>
        <time>2018-01-10T15:53:52Z</time>
      </trkpt>
      <trkpt lat="42.29223" lon="2.57671">
        <ele>772.52</ele>
        <time>2018-01-10T15:54:04Z</time>
      </trkpt>
      <trkpt lat="42.29221" lon="2.57685">
        <ele>769.16</ele>
        <time>2018-01-10T15:54:15Z</time>
      </trkpt>
      <trkpt lat="42.29221" lon="2.57697">
        <ele>766.764</ele>
        <time>2018-01-10T15:54:30Z</time>
      </trkpt>
      <trkpt lat="42.29224" lon="2.57712">
        <ele>763.943</ele>
        <time>2018-01-10T15:54:44Z</time>
      </trkpt>
      <trkpt lat="42.29227" lon="2.57729">
        <ele>761.973</ele>
        <time>2018-01-10T15:54:56Z</time>
      </trkpt>
      <trkpt lat="42.29218" lon="2.5773">
        <ele>758.685</ele>
        <time>2018-01-10T15:55:11Z</time>
      </trkpt>
      <trkpt lat="42.29213" lon="2.57738">
        <ele>756.613</ele>
        <time>2018-01-10T15:55:26Z</time>
      </trkpt>
      <trkpt lat="42.29205" lon="2.57741">
        <ele>753.308</ele>
        <time>2018-01-10T15:55:34Z</time>
      </trkpt>
      <trkpt lat="42.292" lon="2.57741">
        <ele>750.429</ele>
        <time>2018-01-10T15:55:40Z</time>
      </trkpt>
      <trkpt lat="42.29198" lon="2.57742">
        <ele>750.498</ele>
        <time>2018-01-10T15:55:41Z</time>
      </trkpt>
      <trkpt lat="42.29189" lon="2.5775">
        <ele>747.056</ele>
        <time>2018-01-10T15:55:54Z</time>
      </trkpt>
      <trkpt lat="42.29183" lon="2.57756">
        <ele>745.194</ele>
        <time>2018-01-10T15:56:01Z</time>
      </trkpt>
      <trkpt lat="42.29166" lon="2.57767">
        <ele>743.76</ele>
        <time>2018-01-10T15:56:16Z</time>
      </trkpt>
      <trkpt lat="42.29148" lon="2.57772">
        <ele>742.25</ele>
        <time>2018-01-10T15:56:32Z</time>
      </trkpt>
      <trkpt lat="42.29143" lon="2.57773">
        <ele>741.384</ele>
        <time>2018-01-10T15:56:37Z</time>
      </trkpt>
      <trkpt lat="42.2913" lon="2.57774">
        <ele>740.873</ele>
        <time>2018-01-10T15:56:51Z</time>
      </trkpt>
      <trkpt lat="42.29128" lon="2.57764">
        <ele>738.912</ele>
        <time>2018-01-10T15:56:59Z</time>
      </trkpt>
      <trkpt lat="42.29137" lon="2.57747">
        <ele>736.532</ele>
        <time>2018-01-10T15:57:15Z</time>
      </trkpt>
      <trkpt lat="42.29137" lon="2.57743">
        <ele>733.105</ele>
        <time>2018-01-10T15:57:21Z</time>
      </trkpt>
      <trkpt lat="42.29135" lon="2.57741">
        <ele>732.108</ele>
        <time>2018-01-10T15:57:24Z</time>
      </trkpt>
      <trkpt lat="42.29131" lon="2.57733">
        <ele>729.383</ele>
        <time>2018-01-10T15:57:31Z</time>
      </trkpt>
      <trkpt lat="42.29131" lon="2.57723">
        <ele>724.932</ele>
        <time>2018-01-10T15:57:40Z</time>
      </trkpt>
      <trkpt lat="42.2913" lon="2.57717">
        <ele>723.52</ele>
        <time>2018-01-10T15:57:45Z</time>
      </trkpt>
      <trkpt lat="42.29128" lon="2.57711">
        <ele>720.168</ele>
        <time>2018-01-10T15:57:53Z</time>
      </trkpt>
      <trkpt lat="42.29122" lon="2.57697">
        <ele>717.264</ele>
        <time>2018-01-10T15:58:02Z</time>
      </trkpt>
      <trkpt lat="42.29117" lon="2.57686">
        <ele>713.424</ele>
        <time>2018-01-10T15:58:10Z</time>
      </trkpt>
      <trkpt lat="42.2911" lon="2.57674">
        <ele>711.018</ele>
        <time>2018-01-10T15:58:20Z</time>
      </trkpt>
      <trkpt lat="42.2911" lon="2.57673">
        <ele>710.077</ele>
        <time>2018-01-10T15:58:21Z</time>
      </trkpt>
      <trkpt lat="42.29103" lon="2.57661">
        <ele>707.163</ele>
        <time>2018-01-10T15:58:30Z</time>
      </trkpt>
      <trkpt lat="42.29101" lon="2.57659">
        <ele>706.244</ele>
        <time>2018-01-10T15:58:32Z</time>
      </trkpt>
      <trkpt lat="42.29098" lon="2.57652">
        <ele>705.218</ele>
        <time>2018-01-10T15:58:47Z</time>
      </trkpt>
      <trkpt lat="42.29091" lon="2.57644">
        <ele>701.908</ele>
        <time>2018-01-10T15:59:08Z</time>
      </trkpt>
      <trkpt lat="42.29091" lon="2.57639">
        <ele>700.488</ele>
        <time>2018-01-10T15:59:13Z</time>
      </trkpt>
      <trkpt lat="42.29093" lon="2.5763">
        <ele>697.047</ele>
        <time>2018-01-10T15:59:22Z</time>
      </trkpt>
      <trkpt lat="42.29093" lon="2.57622">
        <ele>694.635</ele>
        <time>2018-01-10T15:59:35Z</time>
      </trkpt>
      <trkpt lat="42.2909" lon="2.57613">
        <ele>690.893</ele>
        <time>2018-01-10T15:59:43Z</time>
      </trkpt>
      <trkpt lat="42.29089" lon="2.57607">
        <ele>688.469</ele>
        <time>2018-01-10T15:59:52Z</time>
      </trkpt>
      <trkpt lat="42.29085" lon="2.57602">
        <ele>686.019</ele>
        <time>2018-01-10T15:59:57Z</time>
      </trkpt>
      <trkpt lat="42.29079" lon="2.57593">
        <ele>682.613</ele>
        <time>2018-01-10T16:00:09Z</time>
      </trkpt>
      <trkpt lat="42.29078" lon="2.57592">
        <ele>682.632</ele>
        <time>2018-01-10T16:00:10Z</time>
      </trkpt>
      <trkpt lat="42.29069" lon="2.57578">
        <ele>682.168</ele>
        <time>2018-01-10T16:00:23Z</time>
      </trkpt>
      <trkpt lat="42.29061" lon="2.57566">
        <ele>682.142</ele>
        <time>2018-01-10T16:00:38Z</time>
      </trkpt>
      <trkpt lat="42.29057" lon="2.57552">
        <ele>679.326</ele>
        <time>2018-01-10T16:00:52Z</time>
      </trkpt>
      <trkpt lat="42.29055" lon="2.57543">
        <ele>676.408</ele>
        <time>2018-01-10T16:01:04Z</time>
      </trkpt>
      <trkpt lat="42.29048" lon="2.57534">
        <ele>674.058</ele>
        <time>2018-01-10T16:01:17Z</time>
      </trkpt>
      <trkpt lat="42.29041" lon="2.57522">
        <ele>670.627</ele>
        <time>2018-01-10T16:01:31Z</time>
      </trkpt>
      <trkpt lat="42.29037" lon="2.57509">
        <ele>668.755</ele>
        <time>2018-01-10T16:01:41Z</time>
      </trkpt>
      <trkpt lat="42.2903" lon="2.57487">
        <ele>668.243</ele>
        <time>2018-01-10T16:01:59Z</time>
      </trkpt>
      <trkpt lat="42.29026" lon="2.57473">
        <ele>665.859</ele>
        <time>2018-01-10T16:02:12Z</time>
      </trkpt>
      <trkpt lat="42.2902" lon="2.57458">
        <ele>662.449</ele>
        <time>2018-01-10T16:02:21Z</time>
      </trkpt>
      <trkpt lat="42.29012" lon="2.57443">
        <ele>659.663</ele>
        <time>2018-01-10T16:02:32Z</time>
      </trkpt>
      <trkpt lat="42.29012" lon="2.57439">
        <ele>658.132</ele>
        <time>2018-01-10T16:02:36Z</time>
      </trkpt>
      <trkpt lat="42.29009" lon="2.57431">
        <ele>654.868</ele>
        <time>2018-01-10T16:02:45Z</time>
      </trkpt>
      <trkpt lat="42.29004" lon="2.57414">
        <ele>651.942</ele>
        <time>2018-01-10T16:02:57Z</time>
      </trkpt>
      <trkpt lat="42.29003" lon="2.57409">
        <ele>649.026</ele>
        <time>2018-01-10T16:03:05Z</time>
      </trkpt>
      <trkpt lat="42.28999" lon="2.57397">
        <ele>647.108</ele>
        <time>2018-01-10T16:03:17Z</time>
      </trkpt>
      <trkpt lat="42.28998" lon="2.57381">
        <ele>646.658</ele>
        <time>2018-01-10T16:03:41Z</time>
      </trkpt>
      <trkpt lat="42.28997" lon="2.57373">
        <ele>643.777</ele>
        <time>2018-01-10T16:03:49Z</time>
      </trkpt>
      <trkpt lat="42.28994" lon="2.57362">
        <ele>640.845</ele>
        <time>2018-01-10T16:04:00Z</time>
      </trkpt>
      <trkpt lat="42.28992" lon="2.57348">
        <ele>637.473</ele>
        <time>2018-01-10T16:04:12Z</time>
      </trkpt>
      <trkpt lat="42.2899" lon="2.57344">
        <ele>637.079</ele>
        <time>2018-01-10T16:04:14Z</time>
      </trkpt>
      <trkpt lat="42.28982" lon="2.57328">
        <ele>634.199</ele>
        <time>2018-01-10T16:04:24Z</time>
      </trkpt>
      <trkpt lat="42.2898" lon="2.57325">
        <ele>634.183</ele>
        <time>2018-01-10T16:04:26Z</time>
      </trkpt>
      <trkpt lat="42.28974" lon="2.57317">
        <ele>633.182</ele>
        <time>2018-01-10T16:04:32Z</time>
      </trkpt>
      <trkpt lat="42.28965" lon="2.57307">
        <ele>633.647</ele>
        <time>2018-01-10T16:04:40Z</time>
      </trkpt>
      <trkpt lat="42.28957" lon="2.57296">
        <ele>633.629</ele>
        <time>2018-01-10T16:04:47Z</time>
      </trkpt>
      <trkpt lat="42.2895" lon="2.57287">
        <ele>631.721</ele>
        <time>2018-01-10T16:04:59Z</time>
      </trkpt>
      <trkpt lat="42.28941" lon="2.5728">
        <ele>628.808</ele>
        <time>2018-01-10T16:05:12Z</time>
      </trkpt>
      <trkpt lat="42.28944" lon="2.57273">
        <ele>625.926</ele>
        <time>2018-01-10T16:05:24Z</time>
      </trkpt>
      <trkpt lat="42.28943" lon="2.5727">
        <ele>623.015</ele>
        <time>2018-01-10T16:05:34Z</time>
      </trkpt>
      <trkpt lat="42.28938" lon="2.57263">
        <ele>623.033</ele>
        <time>2018-01-10T16:05:38Z</time>
      </trkpt>
      <trkpt lat="42.28919" lon="2.57243">
        <ele>622.151</ele>
        <time>2018-01-10T16:05:55Z</time>
      </trkpt>
      <trkpt lat="42.28914" lon="2.57234">
        <ele>618.737</ele>
        <time>2018-01-10T16:06:04Z</time>
      </trkpt>
      <trkpt lat="42.28912" lon="2.57229">
        <ele>617.397</ele>
        <time>2018-01-10T16:06:10Z</time>
      </trkpt>
      <trkpt lat="42.28899" lon="2.57223">
        <ele>616.821</ele>
        <time>2018-01-10T16:06:23Z</time>
      </trkpt>
      <trkpt lat="42.28903" lon="2.57216">
        <ele>613.43</ele>
        <time>2018-01-10T16:06:34Z</time>
      </trkpt>
      <trkpt lat="42.28896" lon="2.57206">
        <ele>610.597</ele>
        <time>2018-01-10T16:06:47Z</time>
      </trkpt>
      <trkpt lat="42.28887" lon="2.57205">
        <ele>610.023</ele>
        <time>2018-01-10T16:06:59Z</time>
      </trkpt>
      <trkpt lat="42.28877" lon="2.57209">
        <ele>607.625</ele>
        <time>2018-01-10T16:07:11Z</time>
      </trkpt>
      <trkpt lat="42.28868" lon="2.57207">
        <ele>607.608</ele>
        <time>2018-01-10T16:07:16Z</time>
      </trkpt>
      <trkpt lat="42.28853" lon="2.57192">
        <ele>606.221</ele>
        <time>2018-01-10T16:07:29Z</time>
      </trkpt>
      <trkpt lat="42.28834" lon="2.57173">
        <ele>606.26</ele>
        <time>2018-01-10T16:07:44Z</time>
      </trkpt>
      <trkpt lat="42.28825" lon="2.57163">
        <ele>605.298</ele>
        <time>2018-01-10T16:07:58Z</time>
      </trkpt>
      <trkpt lat="42.28821" lon="2.57155">
        <ele>602.416</ele>
        <time>2018-01-10T16:08:07Z</time>
      </trkpt>
      <trkpt lat="42.28815" lon="2.57146">
        <ele>599.032</ele>
        <time>2018-01-10T16:08:15Z</time>
      </trkpt>
      <trkpt lat="42.28811" lon="2.57136">
        <ele>597.652</ele>
        <time>2018-01-10T16:08:29Z</time>
      </trkpt>
      <trkpt lat="42.28809" lon="2.57132">
        <ele>597.156</ele>
        <time>2018-01-10T16:08:55Z</time>
      </trkpt>
      <trkpt lat="42.28806" lon="2.5713">
        <ele>596.195</ele>
        <time>2018-01-10T16:08:59Z</time>
      </trkpt>
      <trkpt lat="42.28799" lon="2.57122">
        <ele>592.389</ele>
        <time>2018-01-10T16:09:09Z</time>
      </trkpt>
      <trkpt lat="42.28795" lon="2.57115">
        <ele>588.906</ele>
        <time>2018-01-10T16:09:18Z</time>
      </trkpt>
      <trkpt lat="42.28793" lon="2.57109">
        <ele>585.526</ele>
        <time>2018-01-10T16:09:27Z</time>
      </trkpt>
      <trkpt lat="42.28791" lon="2.57101">
        <ele>584.108</ele>
        <time>2018-01-10T16:09:43Z</time>
      </trkpt>
      <trkpt lat="42.28792" lon="2.57094">
        <ele>581.78</ele>
        <time>2018-01-10T16:10:04Z</time>
      </trkpt>
      <trkpt lat="42.28793" lon="2.57089">
        <ele>578.829</ele>
        <time>2018-01-10T16:10:12Z</time>
      </trkpt>
      <trkpt lat="42.28794" lon="2.57083">
        <ele>575.977</ele>
        <time>2018-01-10T16:10:27Z</time>
      </trkpt>
      <trkpt lat="42.28793" lon="2.57077">
        <ele>574.015</ele>
        <time>2018-01-10T16:10:45Z</time>
      </trkpt>
      <trkpt lat="42.28792" lon="2.57073">
        <ele>572.191</ele>
        <time>2018-01-10T16:10:49Z</time>
      </trkpt>
      <trkpt lat="42.28792" lon="2.57068">
        <ele>569.231</ele>
        <time>2018-01-10T16:10:58Z</time>
      </trkpt>
      <trkpt lat="42.28789" lon="2.57062">
        <ele>565.825</ele>
        <time>2018-01-10T16:11:07Z</time>
      </trkpt>
      <trkpt lat="42.28789" lon="2.5706">
        <ele>564.984</ele>
        <time>2018-01-10T16:11:09Z</time>
      </trkpt>
      <trkpt lat="42.28787" lon="2.57054">
        <ele>561.551</ele>
        <time>2018-01-10T16:11:19Z</time>
      </trkpt>
      <trkpt lat="42.28789" lon="2.57038">
        <ele>558.101</ele>
        <time>2018-01-10T16:11:33Z</time>
      </trkpt>
      <trkpt lat="42.28787" lon="2.5703">
        <ele>554.811</ele>
        <time>2018-01-10T16:11:43Z</time>
      </trkpt>
      <trkpt lat="42.28787" lon="2.57022">
        <ele>551.908</ele>
        <time>2018-01-10T16:11:54Z</time>
      </trkpt>
      <trkpt lat="42.2879" lon="2.57024">
        <ele>550.927</ele>
        <time>2018-01-10T16:11:57Z</time>
      </trkpt>
      <trkpt lat="42.28791" lon="2.57025">
        <ele>550.956</ele>
        <time>2018-01-10T16:11:59Z</time>
      </trkpt>
      <trkpt lat="42.28798" lon="2.57021">
        <ele>547.174</ele>
        <time>2018-01-10T16:12:12Z</time>
      </trkpt>
      <trkpt lat="42.28804" lon="2.57026">
        <ele>543.712</ele>
        <time>2018-01-10T16:12:24Z</time>
      </trkpt>
      <trkpt lat="42.28809" lon="2.5704">
        <ele>540.888</ele>
        <time>2018-01-10T16:12:39Z</time>
      </trkpt>
      <trkpt lat="42.28826" lon="2.57055">
        <ele>538.958</ele>
        <time>2018-01-10T16:12:55Z</time>
      </trkpt>
      <trkpt lat="42.28834" lon="2.57066">
        <ele>537.052</ele>
        <time>2018-01-10T16:13:09Z</time>
      </trkpt>
      <trkpt lat="42.28849" lon="2.57072">
        <ele>536.031</ele>
        <time>2018-01-10T16:13:12Z</time>
      </trkpt>
      <trkpt lat="42.28854" lon="2.57063">
        <ele>532.759</ele>
        <time>2018-01-10T16:13:22Z</time>
      </trkpt>
      <trkpt lat="42.2885" lon="2.57051">
        <ele>529.303</ele>
        <time>2018-01-10T16:13:35Z</time>
      </trkpt>
      <trkpt lat="42.28845" lon="2.57042">
        <ele>526.423</ele>
        <time>2018-01-10T16:13:45Z</time>
      </trkpt>
      <trkpt lat="42.2884" lon="2.57031">
        <ele>524.008</ele>
        <time>2018-01-10T16:13:55Z</time>
      </trkpt>
      <trkpt lat="42.28831" lon="2.57006">
        <ele>521.667</ele>
        <time>2018-01-10T16:14:09Z</time>
      </trkpt>
      <trkpt lat="42.28822" lon="2.56983">
        <ele>519.256</ele>
        <time>2018-01-10T16:14:24Z</time>
      </trkpt>
      <trkpt lat="42.28817" lon="2.56967">
        <ele>515.884</ele>
        <time>2018-01-10T16:14:38Z</time>
      </trkpt>
      <trkpt lat="42.28816" lon="2.56957">
        <ele>514.442</ele>
        <time>2018-01-10T16:14:55Z</time>
      </trkpt>
      <trkpt lat="42.28821" lon="2.56966">
        <ele>511.068</ele>
        <time>2018-01-10T16:15:13Z</time>
      </trkpt>
      <trkpt lat="42.28829" lon="2.56968">
        <ele>507.758</ele>
        <time>2018-01-10T16:15:21Z</time>
      </trkpt>
      <trkpt lat="42.28832" lon="2.56971">
        <ele>504.312</ele>
        <time>2018-01-10T16:15:31Z</time>
      </trkpt>
      <trkpt lat="42.28842" lon="2.56976">
        <ele>501.481</ele>
        <time>2018-01-10T16:15:45Z</time>
      </trkpt>
      <trkpt lat="42.28838" lon="2.56959">
        <ele>498.194</ele>
        <time>2018-01-10T16:15:59Z</time>
      </trkpt>
      <trkpt lat="42.28835" lon="2.56947">
        <ele>495.757</ele>
        <time>2018-01-10T16:16:13Z</time>
      </trkpt>
      <trkpt lat="42.28833" lon="2.56933">
        <ele>492.322</ele>
        <time>2018-01-10T16:16:26Z</time>
      </trkpt>
      <trkpt lat="42.28833" lon="2.56925">
        <ele>490.408</ele>
        <time>2018-01-10T16:16:33Z</time>
      </trkpt>
      <trkpt lat="42.28836" lon="2.56921">
        <ele>488.021</ele>
        <time>2018-01-10T16:16:46Z</time>
      </trkpt>
      <trkpt lat="42.28839" lon="2.56914">
        <ele>484.67</ele>
        <time>2018-01-10T16:16:56Z</time>
      </trkpt>
      <trkpt lat="42.28836" lon="2.56903">
        <ele>482.228</ele>
        <time>2018-01-10T16:17:10Z</time>
      </trkpt>
      <trkpt lat="42.28837" lon="2.56904">
        <ele>481.236</ele>
        <time>2018-01-10T16:17:11Z</time>
      </trkpt>
      <trkpt lat="42.28839" lon="2.56908">
        <ele>479.372</ele>
        <time>2018-01-10T16:17:23Z</time>
      </trkpt>
      <trkpt lat="42.2884" lon="2.56915">
        <ele>477.412</ele>
        <time>2018-01-10T16:17:30Z</time>
      </trkpt>
      <trkpt lat="42.28846" lon="2.56913">
        <ele>474.086</ele>
        <time>2018-01-10T16:17:41Z</time>
      </trkpt>
      <trkpt lat="42.2885" lon="2.56904">
        <ele>470.735</ele>
        <time>2018-01-10T16:17:50Z</time>
      </trkpt>
      <trkpt lat="42.28853" lon="2.56909">
        <ele>467.848</ele>
        <time>2018-01-10T16:18:01Z</time>
      </trkpt>
      <trkpt lat="42.28877" lon="2.56918">
        <ele>464.961</ele>
        <time>2018-01-10T16:18:14Z</time>
      </trkpt>
      <trkpt lat="42.28886" lon="2.5691">
        <ele>462.517</ele>
        <time>2018-01-10T16:18:26Z</time>
      </trkpt>
      <trkpt lat="42.28888" lon="2.56892">
        <ele>459.108</ele>
        <time>2018-01-10T16:18:39Z</time>
      </trkpt>
      <trkpt lat="42.28891" lon="2.56885">
        <ele>455.836</ele>
        <time>2018-01-10T16:18:51Z</time>
      </trkpt>
      <trkpt lat="42.28897" lon="2.56879">
        <ele>452.495</ele>
        <time>2018-01-10T16:19:02Z</time>
      </trkpt>
      <trkpt lat="42.28897" lon="2.56871">
        <ele>450.573</ele>
        <time>2018-01-10T16:19:15Z</time>
      </trkpt>
      <trkpt lat="42.28898" lon="2.56869">
        <ele>448.571</ele>
        <time>2018-01-10T16:19:29Z</time>
      </trkpt>
      <trkpt lat="42.28902" lon="2.56859">
        <ele>445.217</ele>
        <time>2018-01-10T16:19:46Z</time>
      </trkpt>
      <trkpt lat="42.28905" lon="2.56851">
        <ele>441.897</ele>
        <time>2018-01-10T16:19:55Z</time>
      </trkpt>
      <trkpt lat="42.28904" lon="2.56841">
        <ele>440.971</ele>
        <time>2018-01-10T16:20:09Z</time>
      </trkpt>
      <trkpt lat="42.28898" lon="2.56842">
        <ele>437.55</ele>
        <time>2018-01-10T16:20:22Z</time>
      </trkpt>
      <trkpt lat="42.28903" lon="2.56832">
        <ele>434.673</ele>
        <time>2018-01-10T16:20:38Z</time>
      </trkpt>
      <trkpt lat="42.28909" lon="2.56816">
        <ele>431.285</ele>
        <time>2018-01-10T16:20:53Z</time>
      </trkpt>
      <trkpt lat="42.28904" lon="2.56817">
        <ele>428.413</ele>
        <time>2018-01-10T16:21:06Z</time>
      </trkpt>
      <trkpt lat="42.28898" lon="2.56823">
        <ele>425.508</ele>
        <time>2018-01-10T16:21:18Z</time>
      </trkpt>
      <trkpt lat="42.28898" lon="2.56816">
        <ele>423.199</ele>
        <time>2018-01-10T16:21:27Z</time>
      </trkpt>
      <trkpt lat="42.289" lon="2.56806">
        <ele>421.128</ele>
        <time>2018-01-10T16:21:34Z</time>
      </trkpt>
      <trkpt lat="42.28904" lon="2.56796">
        <ele>418.776</ele>
        <time>2018-01-10T16:21:46Z</time>
      </trkpt>
      <trkpt lat="42.28905" lon="2.56778">
        <ele>416.884</ele>
        <time>2018-01-10T16:21:58Z</time>
      </trkpt>
      <trkpt lat="42.28905" lon="2.56774">
        <ele>416.32</ele>
        <time>2018-01-10T16:22:01Z</time>
      </trkpt>
      <trkpt lat="42.28907" lon="2.56771">
        <ele>415.91</ele>
        <time>2018-01-10T16:22:03Z</time>
      </trkpt>
      <trkpt lat="42.28913" lon="2.5676">
        <ele>413.084</ele>
        <time>2018-01-10T16:22:16Z</time>
      </trkpt>
      <trkpt lat="42.28904" lon="2.56755">
        <ele>410.663</ele>
        <time>2018-01-10T16:22:30Z</time>
      </trkpt>
      <trkpt lat="42.28901" lon="2.56747">
        <ele>409.157</ele>
        <time>2018-01-10T16:22:47Z</time>
      </trkpt>
      <trkpt lat="42.28902" lon="2.56746">
        <ele>408.2</ele>
        <time>2018-01-10T16:22:49Z</time>
      </trkpt>
      <trkpt lat="42.28909" lon="2.56747">
        <ele>406.72</ele>
        <time>2018-01-10T16:23:01Z</time>
      </trkpt>
      <trkpt lat="42.28916" lon="2.56745">
        <ele>403.408</ele>
        <time>2018-01-10T16:23:14Z</time>
      </trkpt>
      <trkpt lat="42.28916" lon="2.56732">
        <ele>401.017</ele>
        <time>2018-01-10T16:23:27Z</time>
      </trkpt>
      <trkpt lat="42.28905" lon="2.56709">
        <ele>401.416</ele>
        <time>2018-01-10T16:23:40Z</time>
      </trkpt>
      <trkpt lat="42.28904" lon="2.56698">
        <ele>400.544</ele>
        <time>2018-01-10T16:23:54Z</time>
      </trkpt>
      <trkpt lat="42.289" lon="2.56688">
        <ele>400.042</ele>
        <time>2018-01-10T16:24:08Z</time>
      </trkpt>
      <trkpt lat="42.28893" lon="2.56665">
        <ele>400.068</ele>
        <time>2018-01-10T16:24:20Z</time>
      </trkpt>
      <trkpt lat="42.2889" lon="2.56647">
        <ele>397.678</ele>
        <time>2018-01-10T16:24:33Z</time>
      </trkpt>
      <trkpt lat="42.28888" lon="2.56644">
        <ele>397.112</ele>
        <time>2018-01-10T16:24:35Z</time>
      </trkpt>
      <trkpt lat="42.28884" lon="2.56627">
        <ele>393.811</ele>
        <time>2018-01-10T16:24:49Z</time>
      </trkpt>
      <trkpt lat="42.28884" lon="2.56624">
        <ele>393.369</ele>
        <time>2018-01-10T16:24:51Z</time>
      </trkpt>
      <trkpt lat="42.28877" lon="2.56601">
        <ele>390.404</ele>
        <time>2018-01-10T16:25:04Z</time>
      </trkpt>
      <trkpt lat="42.28874" lon="2.56584">
        <ele>387.524</ele>
        <time>2018-01-10T16:25:13Z</time>
      </trkpt>
      <trkpt lat="42.2887" lon="2.56571">
        <ele>385.108</ele>
        <time>2018-01-10T16:25:22Z</time>
      </trkpt>
      <trkpt lat="42.28868" lon="2.56565">
        <ele>384.128</ele>
        <time>2018-01-10T16:25:26Z</time>
      </trkpt>
      <trkpt lat="42.28863" lon="2.56547">
        <ele>380.347</ele>
        <time>2018-01-10T16:25:38Z</time>
      </trkpt>
      <trkpt lat="42.28859" lon="2.56532">
        <ele>377.475</ele>
        <time>2018-01-10T16:25:51Z</time>
      </trkpt>
      <trkpt lat="42.2886" lon="2.56534">
        <ele>376.913</ele>
        <time>2018-01-10T16:26:10Z</time>
      </trkpt>
      <trkpt lat="42.28857" lon="2.56528">
        <ele>376.439</ele>
        <time>2018-01-10T16:26:28Z</time>
      </trkpt>
      <trkpt lat="42.28855" lon="2.56518">
        <ele>374.089</ele>
        <time>2018-01-10T16:26:41Z</time>
      </trkpt>
      <trkpt lat="42.28849" lon="2.565">
        <ele>371.683</ele>
        <time>2018-01-10T16:26:58Z</time>
      </trkpt>
      <trkpt lat="42.28846" lon="2.56495">
        <ele>370.752</ele>
        <time>2018-01-10T16:27:13Z</time>
      </trkpt>
      <trkpt lat="42.28852" lon="2.56501">
        <ele>368.813</ele>
        <time>2018-01-10T16:27:27Z</time>
      </trkpt>
      <trkpt lat="42.28851" lon="2.56514">
        <ele>367.843</ele>
        <time>2018-01-10T16:27:40Z</time>
      </trkpt>
      <trkpt lat="42.2885" lon="2.56516">
        <ele>367.307</ele>
        <time>2018-01-10T16:27:52Z</time>
      </trkpt>
      <trkpt lat="42.28843" lon="2.56513">
        <ele>366.808</ele>
        <time>2018-01-10T16:28:08Z</time>
      </trkpt>
      <trkpt lat="42.28846" lon="2.56511">
        <ele>368.323</ele>
        <time>2018-01-10T16:28:27Z</time>
      </trkpt>
      <trkpt lat="42.28848" lon="2.565">
        <ele>370.782</ele>
        <time>2018-01-10T16:28:39Z</time>
      </trkpt>
      <trkpt lat="42.28847" lon="2.56495">
        <ele>370.21</ele>
        <time>2018-01-10T16:28:59Z</time>
      </trkpt>
      <trkpt lat="42.28844" lon="2.56497">
        <ele>370.258</ele>
        <time>2018-01-10T16:29:26Z</time>
      </trkpt>
      <trkpt lat="42.28846" lon="2.56495">
        <ele>370.234</ele>
        <time>2018-01-10T16:29:48Z</time>
      </trkpt>
      <trkpt lat="42.28847" lon="2.56495">
        <ele>370.224</ele>
        <time>2018-01-10T16:30:20Z</time>
      </trkpt>
      <trkpt lat="42.28852" lon="2.56491">
        <ele>370.278</ele>
        <time>2018-01-10T16:30:43Z</time>
      </trkpt>
      <trkpt lat="42.28848" lon="2.56488">
        <ele>370.267</ele>
        <time>2018-01-10T16:31:20Z</time>
      </trkpt>
      <trkpt lat="42.28845" lon="2.56489">
        <ele>370.239</ele>
        <time>2018-01-10T16:31:44Z</time>
      </trkpt>
      <trkpt lat="42.28843" lon="2.56483">
        <ele>370.201</ele>
        <time>2018-01-10T16:32:15Z</time>
      </trkpt>
      <trkpt lat="42.28846" lon="2.56485">
        <ele>370.221</ele>
        <time>2018-01-10T16:32:42Z</time>
      </trkpt>
      <trkpt lat="42.28843" lon="2.56489">
        <ele>370.208</ele>
        <time>2018-01-10T16:33:05Z</time>
      </trkpt>
      <trkpt lat="42.28843" lon="2.56488">
        <ele>370.715</ele>
        <time>2018-01-10T16:33:36Z</time>
      </trkpt>
      <trkpt lat="42.28846" lon="2.56489">
        <ele>370.714</ele>
        <time>2018-01-10T16:34:08Z</time>
      </trkpt>
      <trkpt lat="42.28846" lon="2.56488">
        <ele>370.732</ele>
        <time>2018-01-10T16:34:29Z</time>
      </trkpt>
      <trkpt lat="42.28844" lon="2.56481">
        <ele>368.34</ele>
        <time>2018-01-10T16:34:47Z</time>
      </trkpt>
      <trkpt lat="42.28843" lon="2.56468">
        <ele>366.856</ele>
        <time>2018-01-10T16:34:59Z</time>
      </trkpt>
      <trkpt lat="42.28845" lon="2.56458">
        <ele>365.496</ele>
        <time>2018-01-10T16:35:11Z</time>
      </trkpt>
      <trkpt lat="42.28848" lon="2.56452">
        <ele>364.42</ele>
        <time>2018-01-10T16:35:18Z</time>
      </trkpt>
      <trkpt lat="42.2885" lon="2.56427">
        <ele>362.579</ele>
        <time>2018-01-10T16:35:32Z</time>
      </trkpt>
      <trkpt lat="42.28849" lon="2.56413">
        <ele>361.597</ele>
        <time>2018-01-10T16:35:39Z</time>
      </trkpt>
      <trkpt lat="42.28849" lon="2.56395">
        <ele>359.623</ele>
        <time>2018-01-10T16:35:51Z</time>
      </trkpt>
      <trkpt lat="42.28851" lon="2.56377">
        <ele>358.225</ele>
        <time>2018-01-10T16:35:58Z</time>
      </trkpt>
      <trkpt lat="42.28852" lon="2.56375">
        <ele>358.208</ele>
        <time>2018-01-10T16:35:59Z</time>
      </trkpt>
      <trkpt lat="42.28853" lon="2.56352">
        <ele>355.811</ele>
        <time>2018-01-10T16:36:11Z</time>
      </trkpt>
      <trkpt lat="42.28854" lon="2.56312">
        <ele>354.37</ele>
        <time>2018-01-10T16:36:26Z</time>
      </trkpt>
      <trkpt lat="42.28854" lon="2.56291">
        <ele>351.928</ele>
        <time>2018-01-10T16:36:38Z</time>
      </trkpt>
      <trkpt lat="42.28855" lon="2.56274">
        <ele>350.586</ele>
        <time>2018-01-10T16:36:49Z</time>
      </trkpt>
      <trkpt lat="42.28854" lon="2.56261">
        <ele>348.662</ele>
        <time>2018-01-10T16:37:01Z</time>
      </trkpt>
      <trkpt lat="42.2885" lon="2.56244">
        <ele>347.162</ele>
        <time>2018-01-10T16:37:14Z</time>
      </trkpt>
      <trkpt lat="42.28854" lon="2.56224">
        <ele>345.296</ele>
        <time>2018-01-10T16:37:26Z</time>
      </trkpt>
      <trkpt lat="42.28859" lon="2.56206">
        <ele>343.365</ele>
        <time>2018-01-10T16:37:39Z</time>
      </trkpt>
      <trkpt lat="42.28858" lon="2.56187">
        <ele>341.452</ele>
        <time>2018-01-10T16:37:51Z</time>
      </trkpt>
      <trkpt lat="42.28852" lon="2.56166">
        <ele>339.053</ele>
        <time>2018-01-10T16:38:05Z</time>
      </trkpt>
      <trkpt lat="42.28843" lon="2.56152">
        <ele>337.008</ele>
        <time>2018-01-10T16:38:19Z</time>
      </trkpt>
      <trkpt lat="42.28833" lon="2.56134">
        <ele>333.708</ele>
        <time>2018-01-10T16:38:32Z</time>
      </trkpt>
      <trkpt lat="42.28822" lon="2.56124">
        <ele>332.247</ele>
        <time>2018-01-10T16:38:43Z</time>
      </trkpt>
      <trkpt lat="42.28809" lon="2.56118">
        <ele>330.336</ele>
        <time>2018-01-10T16:38:54Z</time>
      </trkpt>
      <trkpt lat="42.28802" lon="2.56115">
        <ele>327.484</ele>
        <time>2018-01-10T16:39:05Z</time>
      </trkpt>
      <trkpt lat="42.28793" lon="2.56124">
        <ele>326.082</ele>
        <time>2018-01-10T16:39:12Z</time>
      </trkpt>
      <trkpt lat="42.28784" lon="2.56134">
        <ele>326.568</ele>
        <time>2018-01-10T16:39:27Z</time>
      </trkpt>
      <trkpt lat="42.28784" lon="2.56145">
        <ele>326.058</ele>
        <time>2018-01-10T16:39:40Z</time>
      </trkpt>
      <trkpt lat="42.2878" lon="2.56149">
        <ele>327.422</ele>
        <time>2018-01-10T16:39:53Z</time>
      </trkpt>
      <trkpt lat="42.28781" lon="2.56149">
        <ele>327.471</ele>
        <time>2018-01-10T16:39:54Z</time>
      </trkpt>
      <trkpt lat="42.28774" lon="2.56159">
        <ele>329.826</ele>
        <time>2018-01-10T16:40:09Z</time>
      </trkpt>
      <trkpt lat="42.28777" lon="2.56166">
        <ele>332.747</ele>
        <time>2018-01-10T16:40:24Z</time>
      </trkpt>
      <trkpt lat="42.28778" lon="2.56164">
        <ele>333.211</ele>
        <time>2018-01-10T16:40:38Z</time>
      </trkpt>
      <trkpt lat="42.28785" lon="2.56184">
        <ele>335.608</ele>
        <time>2018-01-10T16:40:55Z</time>
      </trkpt>
      <trkpt lat="42.28777" lon="2.562">
        <ele>337.514</ele>
        <time>2018-01-10T16:41:09Z</time>
      </trkpt>
      <trkpt lat="42.28766" lon="2.5619">
        <ele>339.473</ele>
        <time>2018-01-10T16:41:24Z</time>
      </trkpt>
      <trkpt lat="42.28756" lon="2.56182">
        <ele>340.941</ele>
        <time>2018-01-10T16:41:38Z</time>
      </trkpt>
      <trkpt lat="42.28742" lon="2.56174">
        <ele>342.819</ele>
        <time>2018-01-10T16:41:53Z</time>
      </trkpt>
      <trkpt lat="42.28736" lon="2.56179">
        <ele>345.795</ele>
        <time>2018-01-10T16:42:09Z</time>
      </trkpt>
      <trkpt lat="42.28739" lon="2.56196">
        <ele>347.185</ele>
        <time>2018-01-10T16:42:23Z</time>
      </trkpt>
      <trkpt lat="42.28736" lon="2.56218">
        <ele>348.119</ele>
        <time>2018-01-10T16:42:38Z</time>
      </trkpt>
      <trkpt lat="42.2873" lon="2.56236">
        <ele>349.138</ele>
        <time>2018-01-10T16:42:51Z</time>
      </trkpt>
      <trkpt lat="42.28722" lon="2.56255">
        <ele>350.058</ele>
        <time>2018-01-10T16:43:05Z</time>
      </trkpt>
      <trkpt lat="42.28721" lon="2.56261">
        <ele>350.052</ele>
        <time>2018-01-10T16:43:09Z</time>
      </trkpt>
      <trkpt lat="42.2872" lon="2.56262">
        <ele>348.617</ele>
        <time>2018-01-10T16:43:11Z</time>
      </trkpt>
      <trkpt lat="42.28699" lon="2.5628">
        <ele>347.608</ele>
        <time>2018-01-10T16:43:27Z</time>
      </trkpt>
      <trkpt lat="42.28677" lon="2.56279">
        <ele>347.677</ele>
        <time>2018-01-10T16:43:42Z</time>
      </trkpt>
      <trkpt lat="42.28659" lon="2.56271">
        <ele>349.586</ele>
        <time>2018-01-10T16:43:56Z</time>
      </trkpt>
      <trkpt lat="42.28656" lon="2.56271">
        <ele>349.554</ele>
        <time>2018-01-10T16:43:59Z</time>
      </trkpt>
      <trkpt lat="42.28644" lon="2.56268">
        <ele>350.542</ele>
        <time>2018-01-10T16:44:09Z</time>
      </trkpt>
      <trkpt lat="42.28628" lon="2.56262">
        <ele>351.938</ele>
        <time>2018-01-10T16:44:23Z</time>
      </trkpt>
      <trkpt lat="42.28616" lon="2.56248">
        <ele>353.998</ele>
        <time>2018-01-10T16:44:37Z</time>
      </trkpt>
      <trkpt lat="42.28609" lon="2.56235">
        <ele>356.382</ele>
        <time>2018-01-10T16:44:52Z</time>
      </trkpt>
      <trkpt lat="42.28608" lon="2.56234">
        <ele>356.381</ele>
        <time>2018-01-10T16:44:56Z</time>
      </trkpt>
      <trkpt lat="42.286" lon="2.56223">
        <ele>358.743</ele>
        <time>2018-01-10T16:45:10Z</time>
      </trkpt>
      <trkpt lat="42.2859" lon="2.56214">
        <ele>361.564</ele>
        <time>2018-01-10T16:45:24Z</time>
      </trkpt>
      <trkpt lat="42.28578" lon="2.56203">
        <ele>364.41</ele>
        <time>2018-01-10T16:45:38Z</time>
      </trkpt>
      <trkpt lat="42.2857" lon="2.56194">
        <ele>366.808</ele>
        <time>2018-01-10T16:45:52Z</time>
      </trkpt>
      <trkpt lat="42.28567" lon="2.56185">
        <ele>369.786</ele>
        <time>2018-01-10T16:46:06Z</time>
      </trkpt>
      <trkpt lat="42.28564" lon="2.56178">
        <ele>372.135</ele>
        <time>2018-01-10T16:46:18Z</time>
      </trkpt>
      <trkpt lat="42.28553" lon="2.56174">
        <ele>374.563</ele>
        <time>2018-01-10T16:46:31Z</time>
      </trkpt>
      <trkpt lat="42.28543" lon="2.56174">
        <ele>376.951</ele>
        <time>2018-01-10T16:46:48Z</time>
      </trkpt>
      <trkpt lat="42.28533" lon="2.5617">
        <ele>380.327</ele>
        <time>2018-01-10T16:47:05Z</time>
      </trkpt>
      <trkpt lat="42.28524" lon="2.5618">
        <ele>382.717</ele>
        <time>2018-01-10T16:47:20Z</time>
      </trkpt>
      <trkpt lat="42.28517" lon="2.56191">
        <ele>385.151</ele>
        <time>2018-01-10T16:47:34Z</time>
      </trkpt>
      <trkpt lat="42.28511" lon="2.56199">
        <ele>387.08</ele>
        <time>2018-01-10T16:47:47Z</time>
      </trkpt>
      <trkpt lat="42.28503" lon="2.56206">
        <ele>389.412</ele>
        <time>2018-01-10T16:48:01Z</time>
      </trkpt>
      <trkpt lat="42.28498" lon="2.56211">
        <ele>392.332</ele>
        <time>2018-01-10T16:48:15Z</time>
      </trkpt>
      <trkpt lat="42.285" lon="2.56195">
        <ele>394.705</ele>
        <time>2018-01-10T16:48:31Z</time>
      </trkpt>
      <trkpt lat="42.28502" lon="2.56173">
        <ele>397.108</ele>
        <time>2018-01-10T16:48:49Z</time>
      </trkpt>
      <trkpt lat="42.28501" lon="2.56159">
        <ele>400.073</ele>
        <time>2018-01-10T16:49:03Z</time>
      </trkpt>
      <trkpt lat="42.285" lon="2.56146">
        <ele>401.492</ele>
        <time>2018-01-10T16:49:19Z</time>
      </trkpt>
      <trkpt lat="42.28502" lon="2.56131">
        <ele>403.44</ele>
        <time>2018-01-10T16:49:34Z</time>
      </trkpt>
      <trkpt lat="42.28507" lon="2.56121">
        <ele>405.828</ele>
        <time>2018-01-10T16:49:47Z</time>
      </trkpt>
      <trkpt lat="42.28515" lon="2.56109">
        <ele>407.724</ele>
        <time>2018-01-10T16:50:01Z</time>
      </trkpt>
      <trkpt lat="42.28522" lon="2.56093">
        <ele>409.624</ele>
        <time>2018-01-10T16:50:16Z</time>
      </trkpt>
      <trkpt lat="42.28514" lon="2.5608">
        <ele>411.588</ele>
        <time>2018-01-10T16:50:31Z</time>
      </trkpt>
      <trkpt lat="42.28507" lon="2.56075">
        <ele>413.067</ele>
        <time>2018-01-10T16:50:45Z</time>
      </trkpt>
      <trkpt lat="42.28501" lon="2.56074">
        <ele>414.931</ele>
        <time>2018-01-10T16:51:11Z</time>
      </trkpt>
      <trkpt lat="42.28495" lon="2.5607">
        <ele>416.861</ele>
        <time>2018-01-10T16:51:22Z</time>
      </trkpt>
      <trkpt lat="42.28493" lon="2.56073">
        <ele>419.207</ele>
        <time>2018-01-10T16:51:37Z</time>
      </trkpt>
      <trkpt lat="42.28489" lon="2.56085">
        <ele>421.108</ele>
        <time>2018-01-10T16:51:50Z</time>
      </trkpt>
      <trkpt lat="42.28478" lon="2.56093">
        <ele>423.135</ele>
        <time>2018-01-10T16:52:03Z</time>
      </trkpt>
      <trkpt lat="42.28469" lon="2.561">
        <ele>425.034</ele>
        <time>2018-01-10T16:52:12Z</time>
      </trkpt>
      <trkpt lat="42.28458" lon="2.56104">
        <ele>426.992</ele>
        <time>2018-01-10T16:52:24Z</time>
      </trkpt>
      <trkpt lat="42.28449" lon="2.56109">
        <ele>430.36</ele>
        <time>2018-01-10T16:52:37Z</time>
      </trkpt>
      <trkpt lat="42.28446" lon="2.56118">
        <ele>432.726</ele>
        <time>2018-01-10T16:52:49Z</time>
      </trkpt>
      <trkpt lat="42.28441" lon="2.56126">
        <ele>435.156</ele>
        <time>2018-01-10T16:53:01Z</time>
      </trkpt>
      <trkpt lat="42.28435" lon="2.5613">
        <ele>437.03</ele>
        <time>2018-01-10T16:53:16Z</time>
      </trkpt>
      <trkpt lat="42.28435" lon="2.56124">
        <ele>439.939</ele>
        <time>2018-01-10T16:53:28Z</time>
      </trkpt>
      <trkpt lat="42.28428" lon="2.56134">
        <ele>442.317</ele>
        <time>2018-01-10T16:53:44Z</time>
      </trkpt>
      <trkpt lat="42.28422" lon="2.56141">
        <ele>445.287</ele>
        <time>2018-01-10T16:53:56Z</time>
      </trkpt>
      <trkpt lat="42.28422" lon="2.56142">
        <ele>445.215</ele>
        <time>2018-01-10T16:53:57Z</time>
      </trkpt>
      <trkpt lat="42.28411" lon="2.56149">
        <ele>447.608</ele>
        <time>2018-01-10T16:54:11Z</time>
      </trkpt>
      <trkpt lat="42.28408" lon="2.56151">
        <ele>451.023</ele>
        <time>2018-01-10T16:54:23Z</time>
      </trkpt>
      <trkpt lat="42.28406" lon="2.56154">
        <ele>453.812</ele>
        <time>2018-01-10T16:54:31Z</time>
      </trkpt>
      <trkpt lat="42.28395" lon="2.56161">
        <ele>454.31</ele>
        <time>2018-01-10T16:54:46Z</time>
      </trkpt>
      <trkpt lat="42.28388" lon="2.56164">
        <ele>457.218</ele>
        <time>2018-01-10T16:54:59Z</time>
      </trkpt>
      <trkpt lat="42.28381" lon="2.56181">
        <ele>460.134</ele>
        <time>2018-01-10T16:55:14Z</time>
      </trkpt>
      <trkpt lat="42.28375" lon="2.56185">
        <ele>462.554</ele>
        <time>2018-01-10T16:55:27Z</time>
      </trkpt>
      <trkpt lat="42.28366" lon="2.56185">
        <ele>464.488</ele>
        <time>2018-01-10T16:55:39Z</time>
      </trkpt>
      <trkpt lat="42.28358" lon="2.56187">
        <ele>466.837</ele>
        <time>2018-01-10T16:55:52Z</time>
      </trkpt>
      <trkpt lat="42.28356" lon="2.56186">
        <ele>467.381</ele>
        <time>2018-01-10T16:56:13Z</time>
      </trkpt>
      <trkpt lat="42.28345" lon="2.56187">
        <ele>468.361</ele>
        <time>2018-01-10T16:56:26Z</time>
      </trkpt>
      <trkpt lat="42.2833" lon="2.56181">
        <ele>470.217</ele>
        <time>2018-01-10T16:56:41Z</time>
      </trkpt>
      <trkpt lat="42.28313" lon="2.56171">
        <ele>470.708</ele>
        <time>2018-01-10T16:56:55Z</time>
      </trkpt>
      <trkpt lat="42.28304" lon="2.56167">
        <ele>469.28</ele>
        <time>2018-01-10T16:57:02Z</time>
      </trkpt>
      <trkpt lat="42.28301" lon="2.56167">
        <ele>468.799</ele>
        <time>2018-01-10T16:57:05Z</time>
      </trkpt>
      <trkpt lat="42.28292" lon="2.56164">
        <ele>468.737</ele>
        <time>2018-01-10T16:57:13Z</time>
      </trkpt>
      <trkpt lat="42.2828" lon="2.56158">
        <ele>469.775</ele>
        <time>2018-01-10T16:57:25Z</time>
      </trkpt>
      <trkpt lat="42.28273" lon="2.56151">
        <ele>470.721</ele>
        <time>2018-01-10T16:57:40Z</time>
      </trkpt>
      <trkpt lat="42.28269" lon="2.56145">
        <ele>473.181</ele>
        <time>2018-01-10T16:57:52Z</time>
      </trkpt>
      <trkpt lat="42.28265" lon="2.56135">
        <ele>476.495</ele>
        <time>2018-01-10T16:58:04Z</time>
      </trkpt>
      <trkpt lat="42.28256" lon="2.56133">
        <ele>477.494</ele>
        <time>2018-01-10T16:58:12Z</time>
      </trkpt>
      <trkpt lat="42.28252" lon="2.56134">
        <ele>477.945</ele>
        <time>2018-01-10T16:58:15Z</time>
      </trkpt>
      <trkpt lat="42.28242" lon="2.56134">
        <ele>479.847</ele>
        <time>2018-01-10T16:58:24Z</time>
      </trkpt>
      <trkpt lat="42.28239" lon="2.56135">
        <ele>479.811</ele>
        <time>2018-01-10T16:58:26Z</time>
      </trkpt>
      <trkpt lat="42.28227" lon="2.56136">
        <ele>481.708</ele>
        <time>2018-01-10T16:58:42Z</time>
      </trkpt>
      <trkpt lat="42.28218" lon="2.56134">
        <ele>483.696</ele>
        <time>2018-01-10T16:58:55Z</time>
      </trkpt>
      <trkpt lat="42.28218" lon="2.56123">
        <ele>486.565</ele>
        <time>2018-01-10T16:59:11Z</time>
      </trkpt>
      <trkpt lat="42.28219" lon="2.56117">
        <ele>486.533</ele>
        <time>2018-01-10T16:59:36Z</time>
      </trkpt>
      <trkpt lat="42.28229" lon="2.56108">
        <ele>488.491</ele>
        <time>2018-01-10T16:59:50Z</time>
      </trkpt>
      <trkpt lat="42.28241" lon="2.56095">
        <ele>491.377</ele>
        <time>2018-01-10T17:00:06Z</time>
      </trkpt>
      <trkpt lat="42.28249" lon="2.56085">
        <ele>494.237</ele>
        <time>2018-01-10T17:00:20Z</time>
      </trkpt>
      <trkpt lat="42.28255" lon="2.56073">
        <ele>497.151</ele>
        <time>2018-01-10T17:00:34Z</time>
      </trkpt>
      <trkpt lat="42.28244" lon="2.56066">
        <ele>500.08</ele>
        <time>2018-01-10T17:00:49Z</time>
      </trkpt>
      <trkpt lat="42.28237" lon="2.56056">
        <ele>502.986</ele>
        <time>2018-01-10T17:01:03Z</time>
      </trkpt>
      <trkpt lat="42.28231" lon="2.56041">
        <ele>504.86</ele>
        <time>2018-01-10T17:01:18Z</time>
      </trkpt>
      <trkpt lat="42.28225" lon="2.56031">
        <ele>507.726</ele>
        <time>2018-01-10T17:01:31Z</time>
      </trkpt>
      <trkpt lat="42.28216" lon="2.56034">
        <ele>511.008</ele>
        <time>2018-01-10T17:01:46Z</time>
      </trkpt>
      <trkpt lat="42.28208" lon="2.56041">
        <ele>513.01</ele>
        <time>2018-01-10T17:02:00Z</time>
      </trkpt>
      <trkpt lat="42.28198" lon="2.56043">
        <ele>515.879</ele>
        <time>2018-01-10T17:02:16Z</time>
      </trkpt>
      <trkpt lat="42.28192" lon="2.56036">
        <ele>518.777</ele>
        <time>2018-01-10T17:02:30Z</time>
      </trkpt>
      <trkpt lat="42.28185" lon="2.56033">
        <ele>521.615</ele>
        <time>2018-01-10T17:02:45Z</time>
      </trkpt>
      <trkpt lat="42.28178" lon="2.56026">
        <ele>524.561</ele>
        <time>2018-01-10T17:03:00Z</time>
      </trkpt>
      <trkpt lat="42.28171" lon="2.56023">
        <ele>526.941</ele>
        <time>2018-01-10T17:03:14Z</time>
      </trkpt>
      <trkpt lat="42.28167" lon="2.56024">
        <ele>529.335</ele>
        <time>2018-01-10T17:03:30Z</time>
      </trkpt>
      <trkpt lat="42.28163" lon="2.56023">
        <ele>530.734</ele>
        <time>2018-01-10T17:03:56Z</time>
      </trkpt>
      <trkpt lat="42.28158" lon="2.56025">
        <ele>532.296</ele>
        <time>2018-01-10T17:04:02Z</time>
      </trkpt>
      <trkpt lat="42.28147" lon="2.56025">
        <ele>534.631</ele>
        <time>2018-01-10T17:04:16Z</time>
      </trkpt>
      <trkpt lat="42.28138" lon="2.56023">
        <ele>537.024</ele>
        <time>2018-01-10T17:04:29Z</time>
      </trkpt>
      <trkpt lat="42.28132" lon="2.56017">
        <ele>540.408</ele>
        <time>2018-01-10T17:04:40Z</time>
      </trkpt>
      <trkpt lat="42.28135" lon="2.56002">
        <ele>543.781</ele>
        <time>2018-01-10T17:04:58Z</time>
      </trkpt>
      <trkpt lat="42.28123" lon="2.55997">
        <ele>545.65</ele>
        <time>2018-01-10T17:05:12Z</time>
      </trkpt>
      <trkpt lat="42.28117" lon="2.55983">
        <ele>548.558</ele>
        <time>2018-01-10T17:05:25Z</time>
      </trkpt>
      <trkpt lat="42.28111" lon="2.55981">
        <ele>551.456</ele>
        <time>2018-01-10T17:05:36Z</time>
      </trkpt>
      <trkpt lat="42.28105" lon="2.55973">
        <ele>552.472</ele>
        <time>2018-01-10T17:05:49Z</time>
      </trkpt>
      <trkpt lat="42.28096" lon="2.55962">
        <ele>555.722</ele>
        <time>2018-01-10T17:06:03Z</time>
      </trkpt>
      <trkpt lat="42.28089" lon="2.55958">
        <ele>558.136</ele>
        <time>2018-01-10T17:06:16Z</time>
      </trkpt>
      <trkpt lat="42.2808" lon="2.55954">
        <ele>561.075</ele>
        <time>2018-01-10T17:06:30Z</time>
      </trkpt>
      <trkpt lat="42.28072" lon="2.5595">
        <ele>564.436</ele>
        <time>2018-01-10T17:06:45Z</time>
      </trkpt>
      <trkpt lat="42.28063" lon="2.55954">
        <ele>567.317</ele>
        <time>2018-01-10T17:07:00Z</time>
      </trkpt>
      <trkpt lat="42.28054" lon="2.55963">
        <ele>569.218</ele>
        <time>2018-01-10T17:07:13Z</time>
      </trkpt>
      <trkpt lat="42.2804" lon="2.55968">
        <ele>571.608</ele>
        <time>2018-01-10T17:07:28Z</time>
      </trkpt>
      <trkpt lat="42.28029" lon="2.55966">
        <ele>575.015</ele>
        <time>2018-01-10T17:07:42Z</time>
      </trkpt>
      <trkpt lat="42.2802" lon="2.55963">
        <ele>577.864</ele>
        <time>2018-01-10T17:07:56Z</time>
      </trkpt>
      <trkpt lat="42.28011" lon="2.55958">
        <ele>580.782</ele>
        <time>2018-01-10T17:08:11Z</time>
      </trkpt>
      <trkpt lat="42.27999" lon="2.55964">
        <ele>582.76</ele>
        <time>2018-01-10T17:08:26Z</time>
      </trkpt>
      <trkpt lat="42.27999" lon="2.55964">
        <ele>582.726</ele>
        <time>2018-01-10T17:08:27Z</time>
      </trkpt>
      <trkpt lat="42.27984" lon="2.55971">
        <ele>583.646</ele>
        <time>2018-01-10T17:08:39Z</time>
      </trkpt>
      <trkpt lat="42.27972" lon="2.55975">
        <ele>585.14</ele>
        <time>2018-01-10T17:08:51Z</time>
      </trkpt>
      <trkpt lat="42.27966" lon="2.55978">
        <ele>585.139</ele>
        <time>2018-01-10T17:08:57Z</time>
      </trkpt>
      <trkpt lat="42.27953" lon="2.55982">
        <ele>586.516</ele>
        <time>2018-01-10T17:09:10Z</time>
      </trkpt>
      <trkpt lat="42.27945" lon="2.55978">
        <ele>588.476</ele>
        <time>2018-01-10T17:09:22Z</time>
      </trkpt>
      <trkpt lat="42.27941" lon="2.55972">
        <ele>589.913</ele>
        <time>2018-01-10T17:09:28Z</time>
      </trkpt>
      <trkpt lat="42.2794" lon="2.55963">
        <ele>592.308</ele>
        <time>2018-01-10T17:09:41Z</time>
      </trkpt>
      <trkpt lat="42.27937" lon="2.55949">
        <ele>594.723</ele>
        <time>2018-01-10T17:09:54Z</time>
      </trkpt>
      <trkpt lat="42.27934" lon="2.55941">
        <ele>596.612</ele>
        <time>2018-01-10T17:10:05Z</time>
      </trkpt>
      <trkpt lat="42.27932" lon="2.55932">
        <ele>599.51</ele>
        <time>2018-01-10T17:10:20Z</time>
      </trkpt>
      <trkpt lat="42.27929" lon="2.55922">
        <ele>601.948</ele>
        <time>2018-01-10T17:10:37Z</time>
      </trkpt>
      <trkpt lat="42.27931" lon="2.55914">
        <ele>604.844</ele>
        <time>2018-01-10T17:10:52Z</time>
      </trkpt>
      <trkpt lat="42.27944" lon="2.55906">
        <ele>607.624</ele>
        <time>2018-01-10T17:11:11Z</time>
      </trkpt>
      <trkpt lat="42.2794" lon="2.559">
        <ele>611.048</ele>
        <time>2018-01-10T17:11:28Z</time>
      </trkpt>
      <trkpt lat="42.2793" lon="2.559">
        <ele>613.477</ele>
        <time>2018-01-10T17:11:43Z</time>
      </trkpt>
      <trkpt lat="42.2792" lon="2.55897">
        <ele>615.876</ele>
        <time>2018-01-10T17:11:59Z</time>
      </trkpt>
      <trkpt lat="42.27916" lon="2.5589">
        <ele>618.79</ele>
        <time>2018-01-10T17:12:13Z</time>
      </trkpt>
      <trkpt lat="42.27913" lon="2.55882">
        <ele>621.619</ele>
        <time>2018-01-10T17:12:28Z</time>
      </trkpt>
      <trkpt lat="42.27908" lon="2.55877">
        <ele>624.508</ele>
        <time>2018-01-10T17:12:41Z</time>
      </trkpt>
      <trkpt lat="42.27903" lon="2.55871">
        <ele>626.959</ele>
        <time>2018-01-10T17:12:58Z</time>
      </trkpt>
      <trkpt lat="42.2791" lon="2.55864">
        <ele>630.278</ele>
        <time>2018-01-10T17:13:17Z</time>
      </trkpt>
      <trkpt lat="42.27913" lon="2.55854">
        <ele>633.166</ele>
        <time>2018-01-10T17:13:36Z</time>
      </trkpt>
      <trkpt lat="42.27922" lon="2.55854">
        <ele>635.074</ele>
        <time>2018-01-10T17:13:54Z</time>
      </trkpt>
      <trkpt lat="42.27915" lon="2.55854">
        <ele>634.16</ele>
        <time>2018-01-10T17:14:06Z</time>
      </trkpt>
      <trkpt lat="42.27909" lon="2.5585">
        <ele>635.02</ele>
        <time>2018-01-10T17:14:15Z</time>
      </trkpt>
      <trkpt lat="42.279" lon="2.55846">
        <ele>637.974</ele>
        <time>2018-01-10T17:14:30Z</time>
      </trkpt>
      <trkpt lat="42.27911" lon="2.55841">
        <ele>641.363</ele>
        <time>2018-01-10T17:14:46Z</time>
      </trkpt>
      <trkpt lat="42.27921" lon="2.55836">
        <ele>644.791</ele>
        <time>2018-01-10T17:15:01Z</time>
      </trkpt>
      <trkpt lat="42.27924" lon="2.55831">
        <ele>646.681</ele>
        <time>2018-01-10T17:15:15Z</time>
      </trkpt>
      <trkpt lat="42.27929" lon="2.55822">
        <ele>649.519</ele>
        <time>2018-01-10T17:15:28Z</time>
      </trkpt>
      <trkpt lat="42.27937" lon="2.55815">
        <ele>652.808</ele>
        <time>2018-01-10T17:15:42Z</time>
      </trkpt>
      <trkpt lat="42.27936" lon="2.55806">
        <ele>655.261</ele>
        <time>2018-01-10T17:15:55Z</time>
      </trkpt>
      <trkpt lat="42.2793" lon="2.55796">
        <ele>658.61</ele>
        <time>2018-01-10T17:16:11Z</time>
      </trkpt>
      <trkpt lat="42.27933" lon="2.55785">
        <ele>661.078</ele>
        <time>2018-01-10T17:16:27Z</time>
      </trkpt>
      <trkpt lat="42.27936" lon="2.55775">
        <ele>664.476</ele>
        <time>2018-01-10T17:16:40Z</time>
      </trkpt>
      <trkpt lat="42.27926" lon="2.5577">
        <ele>666.852</ele>
        <time>2018-01-10T17:16:56Z</time>
      </trkpt>
      <trkpt lat="42.27917" lon="2.55769">
        <ele>669.762</ele>
        <time>2018-01-10T17:17:11Z</time>
      </trkpt>
      <trkpt lat="42.27908" lon="2.55767">
        <ele>671.656</ele>
        <time>2018-01-10T17:17:27Z</time>
      </trkpt>
      <trkpt lat="42.27913" lon="2.55758">
        <ele>673.585</ele>
        <time>2018-01-10T17:17:43Z</time>
      </trkpt>
      <trkpt lat="42.27921" lon="2.55745">
        <ele>673.519</ele>
        <time>2018-01-10T17:17:57Z</time>
      </trkpt>
      <trkpt lat="42.27922" lon="2.55729">
        <ele>673.009</ele>
        <time>2018-01-10T17:18:09Z</time>
      </trkpt>
      <trkpt lat="42.27921" lon="2.55718">
        <ele>673.519</ele>
        <time>2018-01-10T17:18:27Z</time>
      </trkpt>
      <trkpt lat="42.27915" lon="2.55711">
        <ele>672.108</ele>
        <time>2018-01-10T17:18:36Z</time>
      </trkpt>
      <trkpt lat="42.27909" lon="2.55702">
        <ele>672.153</ele>
        <time>2018-01-10T17:18:44Z</time>
      </trkpt>
      <trkpt lat="42.27892" lon="2.55692">
        <ele>672.112</ele>
        <time>2018-01-10T17:19:00Z</time>
      </trkpt>
      <trkpt lat="42.27877" lon="2.55677">
        <ele>671.65</ele>
        <time>2018-01-10T17:19:14Z</time>
      </trkpt>
      <trkpt lat="42.27861" lon="2.55654">
        <ele>671.618</ele>
        <time>2018-01-10T17:19:30Z</time>
      </trkpt>
      <trkpt lat="42.2786" lon="2.5565">
        <ele>671.654</ele>
        <time>2018-01-10T17:19:32Z</time>
      </trkpt>
      <trkpt lat="42.27837" lon="2.55641">
        <ele>671.634</ele>
        <time>2018-01-10T17:19:48Z</time>
      </trkpt>
      <trkpt lat="42.27812" lon="2.55628">
        <ele>671.138</ele>
        <time>2018-01-10T17:20:05Z</time>
      </trkpt>
      <trkpt lat="42.27808" lon="2.55627">
        <ele>671.177</ele>
        <time>2018-01-10T17:20:09Z</time>
      </trkpt>
      <trkpt lat="42.27796" lon="2.55614">
        <ele>671.658</ele>
        <time>2018-01-10T17:20:21Z</time>
      </trkpt>
      <trkpt lat="42.27781" lon="2.55593">
        <ele>671.652</ele>
        <time>2018-01-10T17:20:37Z</time>
      </trkpt>
      <trkpt lat="42.27767" lon="2.55574">
        <ele>673.517</ele>
        <time>2018-01-10T17:20:51Z</time>
      </trkpt>
      <trkpt lat="42.27757" lon="2.5555">
        <ele>674.508</ele>
        <time>2018-01-10T17:21:05Z</time>
      </trkpt>
      <trkpt lat="42.27744" lon="2.55533">
        <ele>674.937</ele>
        <time>2018-01-10T17:21:18Z</time>
      </trkpt>
      <trkpt lat="42.27725" lon="2.55538">
        <ele>676.946</ele>
        <time>2018-01-10T17:21:33Z</time>
      </trkpt>
      <trkpt lat="42.27712" lon="2.55559">
        <ele>678.814</ele>
        <time>2018-01-10T17:21:50Z</time>
      </trkpt>
      <trkpt lat="42.27703" lon="2.55579">
        <ele>681.232</ele>
        <time>2018-01-10T17:22:05Z</time>
      </trkpt>
      <trkpt lat="42.277" lon="2.55603">
        <ele>683.148</ele>
        <time>2018-01-10T17:22:19Z</time>
      </trkpt>
      <trkpt lat="42.27691" lon="2.55635">
        <ele>683.698</ele>
        <time>2018-01-10T17:22:37Z</time>
      </trkpt>
      <trkpt lat="42.27686" lon="2.55659">
        <ele>685.032</ele>
        <time>2018-01-10T17:22:52Z</time>
      </trkpt>
      <trkpt lat="42.27681" lon="2.55679">
        <ele>687.471</ele>
        <time>2018-01-10T17:23:08Z</time>
      </trkpt>
      <trkpt lat="42.27681" lon="2.55686">
        <ele>687.913</ele>
        <time>2018-01-10T17:23:13Z</time>
      </trkpt>
      <trkpt lat="42.27681" lon="2.55704">
        <ele>690.343</ele>
        <time>2018-01-10T17:23:28Z</time>
      </trkpt>
      <trkpt lat="42.27675" lon="2.55716">
        <ele>693.707</ele>
        <time>2018-01-10T17:23:42Z</time>
      </trkpt>
      <trkpt lat="42.27666" lon="2.55719">
        <ele>696.608</ele>
        <time>2018-01-10T17:23:57Z</time>
      </trkpt>
      <trkpt lat="42.27663" lon="2.5573">
        <ele>699.573</ele>
        <time>2018-01-10T17:24:12Z</time>
      </trkpt>
      <trkpt lat="42.27663" lon="2.55743">
        <ele>702.882</ele>
        <time>2018-01-10T17:24:26Z</time>
      </trkpt>
      <trkpt lat="42.27662" lon="2.5575">
        <ele>703.36</ele>
        <time>2018-01-10T17:24:32Z</time>
      </trkpt>
      <trkpt lat="42.27661" lon="2.55756">
        <ele>703.868</ele>
        <time>2018-01-10T17:24:35Z</time>
      </trkpt>
      <trkpt lat="42.27662" lon="2.55775">
        <ele>705.274</ele>
        <time>2018-01-10T17:24:49Z</time>
      </trkpt>
      <trkpt lat="42.27657" lon="2.55793">
        <ele>707.184</ele>
        <time>2018-01-10T17:25:05Z</time>
      </trkpt>
      <trkpt lat="42.27655" lon="2.55798">
        <ele>707.658</ele>
        <time>2018-01-10T17:25:08Z</time>
      </trkpt>
      <trkpt lat="42.27643" lon="2.55822">
        <ele>709.127</ele>
        <time>2018-01-10T17:25:25Z</time>
      </trkpt>
      <trkpt lat="42.27636" lon="2.55839">
        <ele>710.522</ele>
        <time>2018-01-10T17:25:38Z</time>
      </trkpt>
      <trkpt lat="42.27628" lon="2.55858">
        <ele>712.462</ele>
        <time>2018-01-10T17:25:53Z</time>
      </trkpt>
      <trkpt lat="42.27615" lon="2.55874">
        <ele>713.908</ele>
        <time>2018-01-10T17:26:07Z</time>
      </trkpt>
      <trkpt lat="42.27595" lon="2.55884">
        <ele>715.808</ele>
        <time>2018-01-10T17:26:23Z</time>
      </trkpt>
      <trkpt lat="42.27584" lon="2.55883">
        <ele>717.244</ele>
        <time>2018-01-10T17:26:35Z</time>
      </trkpt>
      <trkpt lat="42.27564" lon="2.5587">
        <ele>717.283</ele>
        <time>2018-01-10T17:26:51Z</time>
      </trkpt>
      <trkpt lat="42.27563" lon="2.5587">
        <ele>717.231</ele>
        <time>2018-01-10T17:26:52Z</time>
      </trkpt>
      <trkpt lat="42.2755" lon="2.5587">
        <ele>717.759</ele>
        <time>2018-01-10T17:27:04Z</time>
      </trkpt>
      <trkpt lat="42.27548" lon="2.55873">
        <ele>719.265</ele>
        <time>2018-01-10T17:27:18Z</time>
      </trkpt>
      <trkpt lat="42.27548" lon="2.55875">
        <ele>719.285</ele>
        <time>2018-01-10T17:27:36Z</time>
      </trkpt>
      <trkpt lat="42.27543" lon="2.55868">
        <ele>719.299</ele>
        <time>2018-01-10T17:27:59Z</time>
      </trkpt>
      <trkpt lat="42.27539" lon="2.5587">
        <ele>717.218</ele>
        <time>2018-01-10T17:28:15Z</time>
      </trkpt>
      <trkpt lat="42.27542" lon="2.55873">
        <ele>717.239</ele>
        <time>2018-01-10T17:28:33Z</time>
      </trkpt>
      <trkpt lat="42.2753" lon="2.55869">
        <ele>717.201</ele>
        <time>2018-01-10T17:28:46Z</time>
      </trkpt>
      <trkpt lat="42.2752" lon="2.55869">
        <ele>716.821</ele>
        <time>2018-01-10T17:29:00Z</time>
      </trkpt>
      <trkpt lat="42.27516" lon="2.55869">
        <ele>716.308</ele>
        <time>2018-01-10T17:29:03Z</time>
      </trkpt>
      <trkpt lat="42.27508" lon="2.55868">
        <ele>716.335</ele>
        <time>2018-01-10T17:29:14Z</time>
      </trkpt>
      <trkpt lat="42.27502" lon="2.55873">
        <ele>716.344</ele>
        <time>2018-01-10T17:29:20Z</time>
      </trkpt>
      <trkpt lat="42.275" lon="2.55877">
        <ele>717.252</ele>
        <time>2018-01-10T17:29:23Z</time>
      </trkpt>
      <trkpt lat="42.27498" lon="2.55891">
        <ele>716.33</ele>
        <time>2018-01-10T17:29:33Z</time>
      </trkpt>
      <trkpt lat="42.27497" lon="2.55905">
        <ele>713.966</ele>
        <time>2018-01-10T17:29:43Z</time>
      </trkpt>
      <trkpt lat="42.27496" lon="2.55908">
        <ele>713.476</ele>
        <time>2018-01-10T17:29:45Z</time>
      </trkpt>
      <trkpt lat="42.27492" lon="2.55916">
        <ele>711.56</ele>
        <time>2018-01-10T17:29:51Z</time>
      </trkpt>
      <trkpt lat="42.27484" lon="2.55924">
        <ele>708.699</ele>
        <time>2018-01-10T17:30:00Z</time>
      </trkpt>
      <trkpt lat="42.27482" lon="2.55929">
        <ele>705.772</ele>
        <time>2018-01-10T17:30:09Z</time>
      </trkpt>
      <trkpt lat="42.27475" lon="2.55942">
        <ele>702.313</ele>
        <time>2018-01-10T17:30:19Z</time>
      </trkpt>
      <trkpt lat="42.27468" lon="2.55956">
        <ele>699.514</ele>
        <time>2018-01-10T17:30:30Z</time>
      </trkpt>
      <trkpt lat="42.2746" lon="2.55968">
        <ele>696.608</ele>
        <time>2018-01-10T17:30:41Z</time>
      </trkpt>
      <trkpt lat="42.27459" lon="2.55976">
        <ele>694.639</ele>
        <time>2018-01-10T17:30:47Z</time>
      </trkpt>
      <trkpt lat="42.27456" lon="2.55982">
        <ele>693.768</ele>
        <time>2018-01-10T17:30:52Z</time>
      </trkpt>
      <trkpt lat="42.27442" lon="2.55996">
        <ele>690.346</ele>
        <time>2018-01-10T17:31:05Z</time>
      </trkpt>
      <trkpt lat="42.27442" lon="2.55997">
        <ele>690.314</ele>
        <time>2018-01-10T17:31:06Z</time>
      </trkpt>
      <trkpt lat="42.27441" lon="2.56004">
        <ele>688.92</ele>
        <time>2018-01-10T17:31:11Z</time>
      </trkpt>
      <trkpt lat="42.27441" lon="2.56006">
        <ele>688.46</ele>
        <time>2018-01-10T17:31:13Z</time>
      </trkpt>
      <trkpt lat="42.27441" lon="2.56011">
        <ele>687.914</ele>
        <time>2018-01-10T17:31:16Z</time>
      </trkpt>
      <trkpt lat="42.27427" lon="2.56038">
        <ele>685.593</ele>
        <time>2018-01-10T17:31:32Z</time>
      </trkpt>
      <trkpt lat="42.27419" lon="2.56058">
        <ele>685.587</ele>
        <time>2018-01-10T17:31:47Z</time>
      </trkpt>
      <trkpt lat="42.27421" lon="2.56065">
        <ele>685.042</ele>
        <time>2018-01-10T17:31:51Z</time>
      </trkpt>
      <trkpt lat="42.27421" lon="2.56069">
        <ele>685.026</ele>
        <time>2018-01-10T17:31:54Z</time>
      </trkpt>
      <trkpt lat="42.27425" lon="2.56076">
        <ele>684.608</ele>
        <time>2018-01-10T17:31:59Z</time>
      </trkpt>
      <trkpt lat="42.27435" lon="2.56097">
        <ele>682.64</ele>
        <time>2018-01-10T17:32:13Z</time>
      </trkpt>
      <trkpt lat="42.27448" lon="2.56111">
        <ele>679.319</ele>
        <time>2018-01-10T17:32:26Z</time>
      </trkpt>
      <trkpt lat="42.27462" lon="2.56122">
        <ele>675.917</ele>
        <time>2018-01-10T17:32:40Z</time>
      </trkpt>
      <trkpt lat="42.27463" lon="2.56122">
        <ele>675.965</ele>
        <time>2018-01-10T17:32:41Z</time>
      </trkpt>
      <trkpt lat="42.27477" lon="2.56134">
        <ele>672.571</ele>
        <time>2018-01-10T17:32:55Z</time>
      </trkpt>
      <trkpt lat="42.2749" lon="2.5614">
        <ele>669.271</ele>
        <time>2018-01-10T17:33:06Z</time>
      </trkpt>
      <trkpt lat="42.27506" lon="2.56154">
        <ele>666.815</ele>
        <time>2018-01-10T17:33:21Z</time>
      </trkpt>
      <trkpt lat="42.27513" lon="2.5616">
        <ele>665.814</ele>
        <time>2018-01-10T17:33:28Z</time>
      </trkpt>
      <trkpt lat="42.27522" lon="2.56171">
        <ele>663.921</ele>
        <time>2018-01-10T17:33:39Z</time>
      </trkpt>
      <trkpt lat="42.2753" lon="2.56182">
        <ele>661.041</ele>
        <time>2018-01-10T17:33:50Z</time>
      </trkpt>
      <trkpt lat="42.27535" lon="2.56197">
        <ele>657.605</ele>
        <time>2018-01-10T17:34:01Z</time>
      </trkpt>
      <trkpt lat="42.27536" lon="2.56202">
        <ele>656.708</ele>
        <time>2018-01-10T17:34:05Z</time>
      </trkpt>
      <trkpt lat="42.27538" lon="2.56218">
        <ele>652.844</ele>
        <time>2018-01-10T17:34:16Z</time>
      </trkpt>
      <trkpt lat="42.27538" lon="2.5622">
        <ele>652.883</ele>
        <time>2018-01-10T17:34:17Z</time>
      </trkpt>
      <trkpt lat="42.27534" lon="2.56247">
        <ele>651.931</ele>
        <time>2018-01-10T17:34:31Z</time>
      </trkpt>
      <trkpt lat="42.27526" lon="2.56274">
        <ele>650.479</ele>
        <time>2018-01-10T17:34:44Z</time>
      </trkpt>
      <trkpt lat="42.27525" lon="2.56274">
        <ele>650.435</ele>
        <time>2018-01-10T17:34:45Z</time>
      </trkpt>
      <trkpt lat="42.27513" lon="2.563">
        <ele>649.955</ele>
        <time>2018-01-10T17:35:00Z</time>
      </trkpt>
      <trkpt lat="42.27505" lon="2.56312">
        <ele>649.929</ele>
        <time>2018-01-10T17:35:08Z</time>
      </trkpt>
      <trkpt lat="42.27493" lon="2.56333">
        <ele>649.058</ele>
        <time>2018-01-10T17:35:22Z</time>
      </trkpt>
      <trkpt lat="42.27476" lon="2.56351">
        <ele>647.196</ele>
        <time>2018-01-10T17:35:38Z</time>
      </trkpt>
      <trkpt lat="42.27463" lon="2.56362">
        <ele>646.631</ele>
        <time>2018-01-10T17:35:50Z</time>
      </trkpt>
      <trkpt lat="42.27449" lon="2.56375">
        <ele>644.224</ele>
        <time>2018-01-10T17:36:04Z</time>
      </trkpt>
      <trkpt lat="42.27439" lon="2.56387">
        <ele>642.308</ele>
        <time>2018-01-10T17:36:17Z</time>
      </trkpt>
      <trkpt lat="42.27428" lon="2.56405">
        <ele>639.491</ele>
        <time>2018-01-10T17:36:27Z</time>
      </trkpt>
      <trkpt lat="42.27424" lon="2.56407">
        <ele>638.92</ele>
        <time>2018-01-10T17:36:30Z</time>
      </trkpt>
      <trkpt lat="42.2741" lon="2.56419">
        <ele>637.488</ele>
        <time>2018-01-10T17:36:43Z</time>
      </trkpt>
      <trkpt lat="42.27392" lon="2.56435">
        <ele>636.576</ele>
        <time>2018-01-10T17:36:58Z</time>
      </trkpt>
      <trkpt lat="42.27389" lon="2.56438">
        <ele>636.582</ele>
        <time>2018-01-10T17:37:01Z</time>
      </trkpt>
      <trkpt lat="42.27375" lon="2.56447">
        <ele>635.042</ele>
        <time>2018-01-10T17:37:15Z</time>
      </trkpt>
      <trkpt lat="42.27373" lon="2.56449">
        <ele>635.096</ele>
        <time>2018-01-10T17:37:17Z</time>
      </trkpt>
      <trkpt lat="42.27366" lon="2.56457">
        <ele>634.665</ele>
        <time>2018-01-10T17:37:23Z</time>
      </trkpt>
      <trkpt lat="42.27358" lon="2.56476">
        <ele>632.233</ele>
        <time>2018-01-10T17:37:36Z</time>
      </trkpt>
      <trkpt lat="42.27353" lon="2.56493">
        <ele>628.823</ele>
        <time>2018-01-10T17:37:47Z</time>
      </trkpt>
      <trkpt lat="42.27351" lon="2.565">
        <ele>628.315</ele>
        <time>2018-01-10T17:37:51Z</time>
      </trkpt>
      <trkpt lat="42.27347" lon="2.5651">
        <ele>627.408</ele>
        <time>2018-01-10T17:37:56Z</time>
      </trkpt>
      <trkpt lat="42.27346" lon="2.56514">
        <ele>626.425</ele>
        <time>2018-01-10T17:37:58Z</time>
      </trkpt>
      <trkpt lat="42.27333" lon="2.56533">
        <ele>623.544</ele>
        <time>2018-01-10T17:38:13Z</time>
      </trkpt>
      <trkpt lat="42.2733" lon="2.5655">
        <ele>620.192</ele>
        <time>2018-01-10T17:38:26Z</time>
      </trkpt>
      <trkpt lat="42.27325" lon="2.56562">
        <ele>616.81</ele>
        <time>2018-01-10T17:38:37Z</time>
      </trkpt>
      <trkpt lat="42.27324" lon="2.56565">
        <ele>616.396</ele>
        <time>2018-01-10T17:38:39Z</time>
      </trkpt>
      <trkpt lat="42.27322" lon="2.56579">
        <ele>612.966</ele>
        <time>2018-01-10T17:38:50Z</time>
      </trkpt>
      <trkpt lat="42.27317" lon="2.56598">
        <ele>610.07</ele>
        <time>2018-01-10T17:39:02Z</time>
      </trkpt>
      <trkpt lat="42.27312" lon="2.56614">
        <ele>607.229</ele>
        <time>2018-01-10T17:39:14Z</time>
      </trkpt>
      <trkpt lat="42.27313" lon="2.5663">
        <ele>603.885</ele>
        <time>2018-01-10T17:39:25Z</time>
      </trkpt>
      <trkpt lat="42.27309" lon="2.56648">
        <ele>600.989</ele>
        <time>2018-01-10T17:39:37Z</time>
      </trkpt>
      <trkpt lat="42.2731" lon="2.56668">
        <ele>597.617</ele>
        <time>2018-01-10T17:39:49Z</time>
      </trkpt>
      <trkpt lat="42.2731" lon="2.56683">
        <ele>595.108</ele>
        <time>2018-01-10T17:39:59Z</time>
      </trkpt>
      <trkpt lat="42.27308" lon="2.56705">
        <ele>591.33</ele>
        <time>2018-01-10T17:40:12Z</time>
      </trkpt>
      <trkpt lat="42.27308" lon="2.56723">
        <ele>587.979</ele>
        <time>2018-01-10T17:40:25Z</time>
      </trkpt>
      <trkpt lat="42.27302" lon="2.56746">
        <ele>584.617</ele>
        <time>2018-01-10T17:40:39Z</time>
      </trkpt>
      <trkpt lat="42.27298" lon="2.56761">
        <ele>581.295</ele>
        <time>2018-01-10T17:40:53Z</time>
      </trkpt>
      <trkpt lat="42.27294" lon="2.56775">
        <ele>578.381</ele>
        <time>2018-01-10T17:41:04Z</time>
      </trkpt>
      <trkpt lat="42.27292" lon="2.56777">
        <ele>577.851</ele>
        <time>2018-01-10T17:41:06Z</time>
      </trkpt>
      <trkpt lat="42.27289" lon="2.56794">
        <ele>575.075</ele>
        <time>2018-01-10T17:41:21Z</time>
      </trkpt>
      <trkpt lat="42.27291" lon="2.56812">
        <ele>572.164</ele>
        <time>2018-01-10T17:41:34Z</time>
      </trkpt>
      <trkpt lat="42.27288" lon="2.5683">
        <ele>569.295</ele>
        <time>2018-01-10T17:41:48Z</time>
      </trkpt>
      <trkpt lat="42.27285" lon="2.56848">
        <ele>566.349</ele>
        <time>2018-01-10T17:42:00Z</time>
      </trkpt>
      <trkpt lat="42.27284" lon="2.56865">
        <ele>563.923</ele>
        <time>2018-01-10T17:42:17Z</time>
      </trkpt>
      <trkpt lat="42.27282" lon="2.56887">
        <ele>561.008</ele>
        <time>2018-01-10T17:42:31Z</time>
      </trkpt>
      <trkpt lat="42.27283" lon="2.56908">
        <ele>558.631</ele>
        <time>2018-01-10T17:42:42Z</time>
      </trkpt>
      <trkpt lat="42.27286" lon="2.56919">
        <ele>556.71</ele>
        <time>2018-01-10T17:42:50Z</time>
      </trkpt>
      <trkpt lat="42.27286" lon="2.56922">
        <ele>556.268</ele>
        <time>2018-01-10T17:42:52Z</time>
      </trkpt>
      <trkpt lat="42.27287" lon="2.5694">
        <ele>553.316</ele>
        <time>2018-01-10T17:43:03Z</time>
      </trkpt>
      <trkpt lat="42.27292" lon="2.56958">
        <ele>550.482</ele>
        <time>2018-01-10T17:43:16Z</time>
      </trkpt>
      <trkpt lat="42.27292" lon="2.56971">
        <ele>548.032</ele>
        <time>2018-01-10T17:43:28Z</time>
      </trkpt>
      <trkpt lat="42.27292" lon="2.56973">
        <ele>548.066</ele>
        <time>2018-01-10T17:43:29Z</time>
      </trkpt>
      <trkpt lat="42.2729" lon="2.56982">
        <ele>545.695</ele>
        <time>2018-01-10T17:43:37Z</time>
      </trkpt>
      <trkpt lat="42.27282" lon="2.56995">
        <ele>543.266</ele>
        <time>2018-01-10T17:43:47Z</time>
      </trkpt>
      <trkpt lat="42.27278" lon="2.56998">
        <ele>542.329</ele>
        <time>2018-01-10T17:43:51Z</time>
      </trkpt>
      <trkpt lat="42.27275" lon="2.57005">
        <ele>540.821</ele>
        <time>2018-01-10T17:44:04Z</time>
      </trkpt>
      <trkpt lat="42.27284" lon="2.57012">
        <ele>537.508</ele>
        <time>2018-01-10T17:44:18Z</time>
      </trkpt>
      <trkpt lat="42.27295" lon="2.57018">
        <ele>534.148</ele>
        <time>2018-01-10T17:44:30Z</time>
      </trkpt>
      <trkpt lat="42.27301" lon="2.57017">
        <ele>533.127</ele>
        <time>2018-01-10T17:44:34Z</time>
      </trkpt>
      <trkpt lat="42.2731" lon="2.57021">
        <ele>530.395</ele>
        <time>2018-01-10T17:44:48Z</time>
      </trkpt>
      <trkpt lat="42.27306" lon="2.57025">
        <ele>529.353</ele>
        <time>2018-01-10T17:44:54Z</time>
      </trkpt>
      <trkpt lat="42.27309" lon="2.57035">
        <ele>528.829</ele>
        <time>2018-01-10T17:45:09Z</time>
      </trkpt>
      <trkpt lat="42.27307" lon="2.57031">
        <ele>528.829</ele>
        <time>2018-01-10T17:45:27Z</time>
      </trkpt>
      <trkpt lat="42.27308" lon="2.57031">
        <ele>528.833</ele>
        <time>2018-01-10T17:45:49Z</time>
      </trkpt>
      <trkpt lat="42.27306" lon="2.5703">
        <ele>528.882</ele>
        <time>2018-01-10T17:46:15Z</time>
      </trkpt>
      <trkpt lat="42.27306" lon="2.5703">
        <ele>528.832</ele>
        <time>2018-01-10T17:46:42Z</time>
      </trkpt>
      <trkpt lat="42.27307" lon="2.57031">
        <ele>528.892</ele>
        <time>2018-01-10T17:47:04Z</time>
      </trkpt>
      <trkpt lat="42.27307" lon="2.57031">
        <ele>528.811</ele>
        <time>2018-01-10T17:47:23Z</time>
      </trkpt>
      <trkpt lat="42.27309" lon="2.57032">
        <ele>528.808</ele>
        <time>2018-01-10T17:47:42Z</time>
      </trkpt>
      <trkpt lat="42.27315" lon="2.57033">
        <ele>528.345</ele>
        <time>2018-01-10T17:47:48Z</time>
      </trkpt>
      <trkpt lat="42.27334" lon="2.57029">
        <ele>525.084</ele>
        <time>2018-01-10T17:48:01Z</time>
      </trkpt>
      <trkpt lat="42.27347" lon="2.57038">
        <ele>523.592</ele>
        <time>2018-01-10T17:48:10Z</time>
      </trkpt>
      <trkpt lat="42.27355" lon="2.57049">
        <ele>523.02</ele>
        <time>2018-01-10T17:48:17Z</time>
      </trkpt>
      <trkpt lat="42.27371" lon="2.57079">
        <ele>522.156</ele>
        <time>2018-01-10T17:48:34Z</time>
      </trkpt>
      <trkpt lat="42.27373" lon="2.57084">
        <ele>522.156</ele>
        <time>2018-01-10T17:48:37Z</time>
      </trkpt>
      <trkpt lat="42.27385" lon="2.571">
        <ele>522.14</ele>
        <time>2018-01-10T17:48:50Z</time>
      </trkpt>
      <trkpt lat="42.27398" lon="2.57121">
        <ele>519.759</ele>
        <time>2018-01-10T17:49:04Z</time>
      </trkpt>
      <trkpt lat="42.274" lon="2.57124">
        <ele>519.754</ele>
        <time>2018-01-10T17:49:06Z</time>
      </trkpt>
      <trkpt lat="42.27414" lon="2.57142">
        <ele>518.256</ele>
        <time>2018-01-10T17:49:21Z</time>
      </trkpt>
      <trkpt lat="42.27422" lon="2.57151">
        <ele>516.811</ele>
        <time>2018-01-10T17:49:28Z</time>
      </trkpt>
      <trkpt lat="42.27433" lon="2.57176">
        <ele>515.408</ele>
        <time>2018-01-10T17:49:40Z</time>
      </trkpt>
      <trkpt lat="42.27442" lon="2.57198">
        <ele>513.457</ele>
        <time>2018-01-10T17:49:55Z</time>
      </trkpt>
      <trkpt lat="42.27465" lon="2.57221">
        <ele>510.676</ele>
        <time>2018-01-10T17:50:12Z</time>
      </trkpt>
      <trkpt lat="42.27474" lon="2.57229">
        <ele>511.034</ele>
        <time>2018-01-10T17:50:19Z</time>
      </trkpt>
      <trkpt lat="42.27494" lon="2.57238">
        <ele>507.722</ele>
        <time>2018-01-10T17:50:33Z</time>
      </trkpt>
      <trkpt lat="42.27501" lon="2.57242">
        <ele>507.268</ele>
        <time>2018-01-10T17:50:38Z</time>
      </trkpt>
      <trkpt lat="42.27513" lon="2.57256">
        <ele>504.848</ele>
        <time>2018-01-10T17:50:49Z</time>
      </trkpt>
      <trkpt lat="42.27516" lon="2.5726">
        <ele>504.862</ele>
        <time>2018-01-10T17:50:52Z</time>
      </trkpt>
      <trkpt lat="42.2752" lon="2.57266">
        <ele>503.821</ele>
        <time>2018-01-10T17:50:56Z</time>
      </trkpt>
      <trkpt lat="42.27522" lon="2.57269">
        <ele>503.817</ele>
        <time>2018-01-10T17:50:57Z</time>
      </trkpt>
      <trkpt lat="42.27524" lon="2.57274">
        <ele>502.987</ele>
        <time>2018-01-10T17:51:00Z</time>
      </trkpt>
      <trkpt lat="42.27527" lon="2.57293">
        <ele>500.515</ele>
        <time>2018-01-10T17:51:11Z</time>
      </trkpt>
      <trkpt lat="42.27529" lon="2.57307">
        <ele>498.508</ele>
        <time>2018-01-10T17:51:21Z</time>
      </trkpt>
      <trkpt lat="42.27523" lon="2.57332">
        <ele>496.693</ele>
        <time>2018-01-10T17:51:35Z</time>
      </trkpt>
      <trkpt lat="42.27524" lon="2.57336">
        <ele>496.632</ele>
        <time>2018-01-10T17:51:39Z</time>
      </trkpt>
      <trkpt lat="42.27535" lon="2.57356">
        <ele>496.61</ele>
        <time>2018-01-10T17:51:53Z</time>
      </trkpt>
      <trkpt lat="42.27538" lon="2.5736">
        <ele>496.198</ele>
        <time>2018-01-10T17:51:55Z</time>
      </trkpt>
      <trkpt lat="42.2755" lon="2.5737">
        <ele>493.714</ele>
        <time>2018-01-10T17:52:05Z</time>
      </trkpt>
      <trkpt lat="42.27567" lon="2.57388">
        <ele>493.254</ele>
        <time>2018-01-10T17:52:18Z</time>
      </trkpt>
      <trkpt lat="42.27569" lon="2.57392">
        <ele>493.298</ele>
        <time>2018-01-10T17:52:20Z</time>
      </trkpt>
      <trkpt lat="42.27571" lon="2.57395">
        <ele>492.837</ele>
        <time>2018-01-10T17:52:22Z</time>
      </trkpt>
      <trkpt lat="42.27575" lon="2.57401">
        <ele>492.371</ele>
        <time>2018-01-10T17:52:26Z</time>
      </trkpt>
      <trkpt lat="42.2758" lon="2.57411">
        <ele>491.341</ele>
        <time>2018-01-10T17:52:39Z</time>
      </trkpt>
      <trkpt lat="42.27581" lon="2.5743">
        <ele>490.815</ele>
        <time>2018-01-10T17:53:01Z</time>
      </trkpt>
      <trkpt lat="42.27582" lon="2.57444">
        <ele>489.908</ele>
        <time>2018-01-10T17:53:13Z</time>
      </trkpt>
      <trkpt lat="42.27585" lon="2.5746">
        <ele>487.569</ele>
        <time>2018-01-10T17:53:28Z</time>
      </trkpt>
      <trkpt lat="42.2759" lon="2.57482">
        <ele>486.018</ele>
        <time>2018-01-10T17:53:39Z</time>
      </trkpt>
      <trkpt lat="42.27591" lon="2.57491">
        <ele>484.146</ele>
        <time>2018-01-10T17:53:45Z</time>
      </trkpt>
      <trkpt lat="42.27591" lon="2.57506">
        <ele>480.864</ele>
        <time>2018-01-10T17:53:55Z</time>
      </trkpt>
      <trkpt lat="42.2759" lon="2.57521">
        <ele>477.99</ele>
        <time>2018-01-10T17:54:07Z</time>
      </trkpt>
      <trkpt lat="42.27587" lon="2.57536">
        <ele>476.43</ele>
        <time>2018-01-10T17:54:16Z</time>
      </trkpt>
      <trkpt lat="42.27593" lon="2.57564">
        <ele>477.464</ele>
        <time>2018-01-10T17:54:32Z</time>
      </trkpt>
      <trkpt lat="42.27602" lon="2.57574">
        <ele>477.913</ele>
        <time>2018-01-10T17:54:41Z</time>
      </trkpt>
      <trkpt lat="42.27613" lon="2.57588">
        <ele>480.862</ele>
        <time>2018-01-10T17:54:56Z</time>
      </trkpt>
      <trkpt lat="42.27619" lon="2.5761">
        <ele>483.283</ele>
        <time>2018-01-10T17:55:13Z</time>
      </trkpt>
      <trkpt lat="42.27627" lon="2.57628">
        <ele>483.611</ele>
        <time>2018-01-10T17:55:27Z</time>
      </trkpt>
      <trkpt lat="42.2763" lon="2.57641">
        <ele>483.608</ele>
        <time>2018-01-10T17:55:37Z</time>
      </trkpt>
      <trkpt lat="42.2763" lon="2.57644">
        <ele>483.658</ele>
        <time>2018-01-10T17:55:39Z</time>
      </trkpt>
      <trkpt lat="42.27633" lon="2.57675">
        <ele>485.157</ele>
        <time>2018-01-10T17:55:57Z</time>
      </trkpt>
      <trkpt lat="42.27632" lon="2.57679">
        <ele>485.615</ele>
        <time>2018-01-10T17:55:59Z</time>
      </trkpt>
      <trkpt lat="42.27631" lon="2.57692">
        <ele>486.023</ele>
        <time>2018-01-10T17:56:06Z</time>
      </trkpt>
      <trkpt lat="42.27632" lon="2.57699">
        <ele>486.089</ele>
        <time>2018-01-10T17:56:10Z</time>
      </trkpt>
      <trkpt lat="42.27633" lon="2.57718">
        <ele>486.529</ele>
        <time>2018-01-10T17:56:22Z</time>
      </trkpt>
      <trkpt lat="42.27634" lon="2.57724">
        <ele>486.573</ele>
        <time>2018-01-10T17:56:24Z</time>
      </trkpt>
      <trkpt lat="42.27642" lon="2.57743">
        <ele>488.442</ele>
        <time>2018-01-10T17:56:38Z</time>
      </trkpt>
      <trkpt lat="42.27643" lon="2.57746">
        <ele>488.452</ele>
        <time>2018-01-10T17:56:40Z</time>
      </trkpt>
      <trkpt lat="42.27648" lon="2.57763">
        <ele>489.953</ele>
        <time>2018-01-10T17:56:51Z</time>
      </trkpt>
      <trkpt lat="42.27652" lon="2.57791">
        <ele>490.808</ele>
        <time>2018-01-10T17:57:07Z</time>
      </trkpt>
      <trkpt lat="42.27655" lon="2.57809">
        <ele>491.308</ele>
        <time>2018-01-10T17:57:19Z</time>
      </trkpt>
      <trkpt lat="42.27658" lon="2.5783">
        <ele>491.347</ele>
        <time>2018-01-10T17:57:30Z</time>
      </trkpt>
      <trkpt lat="42.27661" lon="2.5784">
        <ele>491.356</ele>
        <time>2018-01-10T17:57:36Z</time>
      </trkpt>
      <trkpt lat="42.27661" lon="2.57851">
        <ele>489.974</ele>
        <time>2018-01-10T17:57:43Z</time>
      </trkpt>
      <trkpt lat="42.27667" lon="2.57856">
        <ele>488.492</ele>
        <time>2018-01-10T17:57:55Z</time>
      </trkpt>
      <trkpt lat="42.27677" lon="2.57857">
        <ele>487.538</ele>
        <time>2018-01-10T17:58:03Z</time>
      </trkpt>
      <trkpt lat="42.27684" lon="2.57857">
        <ele>487.078</ele>
        <time>2018-01-10T17:58:09Z</time>
      </trkpt>
      <trkpt lat="42.27685" lon="2.57865">
        <ele>487.012</ele>
        <time>2018-01-10T17:58:14Z</time>
      </trkpt>
      <trkpt lat="42.27691" lon="2.57883">
        <ele>486.031</ele>
        <time>2018-01-10T17:58:25Z</time>
      </trkpt>
      <trkpt lat="42.27696" lon="2.5789">
        <ele>485.665</ele>
        <time>2018-01-10T17:58:30Z</time>
      </trkpt>
      <trkpt lat="42.27706" lon="2.57899">
        <ele>485.168</ele>
        <time>2018-01-10T17:58:40Z</time>
      </trkpt>
      <trkpt lat="42.27711" lon="2.57906">
        <ele>485.114</ele>
        <time>2018-01-10T17:58:45Z</time>
      </trkpt>
      <trkpt lat="42.27713" lon="2.57927">
        <ele>482.708</ele>
        <time>2018-01-10T17:58:59Z</time>
      </trkpt>
      <trkpt lat="42.27713" lon="2.57929">
        <ele>482.738</ele>
        <time>2018-01-10T17:59:00Z</time>
      </trkpt>
      <trkpt lat="42.27713" lon="2.57946">
        <ele>481.777</ele>
        <time>2018-01-10T17:59:11Z</time>
      </trkpt>
      <trkpt lat="42.27713" lon="2.57971">
        <ele>480.815</ele>
        <time>2018-01-10T17:59:24Z</time>
      </trkpt>
      <trkpt lat="42.27708" lon="2.57992">
        <ele>479.853</ele>
        <time>2018-01-10T17:59:36Z</time>
      </trkpt>
      <trkpt lat="42.27704" lon="2.58021">
        <ele>479.839</ele>
        <time>2018-01-10T17:59:52Z</time>
      </trkpt>
      <trkpt lat="42.27703" lon="2.58023">
        <ele>479.819</ele>
        <time>2018-01-10T17:59:54Z</time>
      </trkpt>
      <trkpt lat="42.27702" lon="2.58027">
        <ele>478.313</ele>
        <time>2018-01-10T17:59:56Z</time>
      </trkpt>
      <trkpt lat="42.27696" lon="2.58039">
        <ele>476.472</ele>
        <time>2018-01-10T18:00:04Z</time>
      </trkpt>
      <trkpt lat="42.27688" lon="2.58064">
        <ele>474.076</ele>
        <time>2018-01-10T18:00:20Z</time>
      </trkpt>
      <trkpt lat="42.27681" lon="2.58081">
        <ele>471.69</ele>
        <time>2018-01-10T18:00:31Z</time>
      </trkpt>
      <trkpt lat="42.27675" lon="2.58091">
        <ele>469.219</ele>
        <time>2018-01-10T18:00:39Z</time>
      </trkpt>
      <trkpt lat="42.27666" lon="2.58097">
        <ele>466.808</ele>
        <time>2018-01-10T18:00:50Z</time>
      </trkpt>
      <trkpt lat="42.27669" lon="2.58112">
        <ele>464.979</ele>
        <time>2018-01-10T18:01:04Z</time>
      </trkpt>
      <trkpt lat="42.27666" lon="2.58113">
        <ele>462.078</ele>
        <time>2018-01-10T18:01:13Z</time>
      </trkpt>
      <trkpt lat="42.27664" lon="2.58119">
        <ele>461.066</ele>
        <time>2018-01-10T18:01:18Z</time>
      </trkpt>
      <trkpt lat="42.27661" lon="2.58127">
        <ele>459.144</ele>
        <time>2018-01-10T18:01:23Z</time>
      </trkpt>
      <trkpt lat="42.27656" lon="2.58142">
        <ele>456.72</ele>
        <time>2018-01-10T18:01:33Z</time>
      </trkpt>
      <trkpt lat="42.27653" lon="2.58164">
        <ele>453.85</ele>
        <time>2018-01-10T18:01:45Z</time>
      </trkpt>
      <trkpt lat="42.2765" lon="2.5818">
        <ele>450.594</ele>
        <time>2018-01-10T18:01:56Z</time>
      </trkpt>
      <trkpt lat="42.2765" lon="2.58191">
        <ele>449.043</ele>
        <time>2018-01-10T18:02:04Z</time>
      </trkpt>
      <trkpt lat="42.27643" lon="2.5822">
        <ele>445.763</ele>
        <time>2018-01-10T18:02:19Z</time>
      </trkpt>
      <trkpt lat="42.27641" lon="2.58248">
        <ele>443.744</ele>
        <time>2018-01-10T18:02:33Z</time>
      </trkpt>
      <trkpt lat="42.27639" lon="2.5826">
        <ele>440.918</ele>
        <time>2018-01-10T18:02:46Z</time>
      </trkpt>
      <trkpt lat="42.27639" lon="2.5826">
        <ele>439.908</ele>
        <time>2018-01-10T18:02:47Z</time>
      </trkpt>
      <trkpt lat="42.27634" lon="2.58257">
        <ele>437.538</ele>
        <time>2018-01-10T18:02:59Z</time>
      </trkpt>
      <trkpt lat="42.27632" lon="2.58264">
        <ele>434.157</ele>
        <time>2018-01-10T18:03:08Z</time>
      </trkpt>
      <trkpt lat="42.2763" lon="2.5827">
        <ele>431.275</ele>
        <time>2018-01-10T18:03:19Z</time>
      </trkpt>
      <trkpt lat="42.2763" lon="2.58284">
        <ele>428.443</ele>
        <time>2018-01-10T18:03:31Z</time>
      </trkpt>
      <trkpt lat="42.2763" lon="2.58299">
        <ele>426.099</ele>
        <time>2018-01-10T18:03:42Z</time>
      </trkpt>
      <trkpt lat="42.27632" lon="2.58316">
        <ele>425.099</ele>
        <time>2018-01-10T18:03:53Z</time>
      </trkpt>
      <trkpt lat="42.27633" lon="2.5833">
        <ele>424.063</ele>
        <time>2018-01-10T18:04:07Z</time>
      </trkpt>
      <trkpt lat="42.27633" lon="2.58335">
        <ele>423.112</ele>
        <time>2018-01-10T18:04:10Z</time>
      </trkpt>
      <trkpt lat="42.27635" lon="2.58354">
        <ele>421.154</ele>
        <time>2018-01-10T18:04:21Z</time>
      </trkpt>
      <trkpt lat="42.27635" lon="2.58357">
        <ele>421.156</ele>
        <time>2018-01-10T18:04:23Z</time>
      </trkpt>
      <trkpt lat="42.27631" lon="2.58387">
        <ele>417.811</ele>
        <time>2018-01-10T18:04:34Z</time>
      </trkpt>
      <trkpt lat="42.2763" lon="2.58395">
        <ele>416.808</ele>
        <time>2018-01-10T18:04:38Z</time>
      </trkpt>
      <trkpt lat="42.27621" lon="2.58417">
        <ele>413.537</ele>
        <time>2018-01-10T18:04:51Z</time>
      </trkpt>
      <trkpt lat="42.27618" lon="2.58423">
        <ele>412.576</ele>
        <time>2018-01-10T18:04:55Z</time>
      </trkpt>
      <trkpt lat="42.27614" lon="2.58444">
        <ele>410.614</ele>
        <time>2018-01-10T18:05:07Z</time>
      </trkpt>
      <trkpt lat="42.27608" lon="2.58455">
        <ele>407.282</ele>
        <time>2018-01-10T18:05:19Z</time>
      </trkpt>
      <trkpt lat="42.27598" lon="2.58455">
        <ele>403.888</ele>
        <time>2018-01-10T18:05:29Z</time>
      </trkpt>
      <trkpt lat="42.27587" lon="2.58459">
        <ele>400.578</ele>
        <time>2018-01-10T18:05:39Z</time>
      </trkpt>
      <trkpt lat="42.27585" lon="2.58462">
        <ele>400.082</ele>
        <time>2018-01-10T18:05:42Z</time>
      </trkpt>
      <trkpt lat="42.27578" lon="2.58478">
        <ele>397.141</ele>
        <time>2018-01-10T18:05:56Z</time>
      </trkpt>
      <trkpt lat="42.27576" lon="2.58479">
        <ele>396.642</ele>
        <time>2018-01-10T18:05:58Z</time>
      </trkpt>
      <trkpt lat="42.27566" lon="2.58489">
        <ele>393.322</ele>
        <time>2018-01-10T18:06:12Z</time>
      </trkpt>
      <trkpt lat="42.27568" lon="2.58498">
        <ele>390.414</ele>
        <time>2018-01-10T18:06:24Z</time>
      </trkpt>
      <trkpt lat="42.27569" lon="2.58509">
        <ele>386.108</ele>
        <time>2018-01-10T18:06:36Z</time>
      </trkpt>
      <trkpt lat="42.27565" lon="2.58508">
        <ele>385.696</ele>
        <time>2018-01-10T18:06:40Z</time>
      </trkpt>
      <trkpt lat="42.27549" lon="2.585">
        <ele>382.725</ele>
        <time>2018-01-10T18:06:55Z</time>
      </trkpt>
      <trkpt lat="42.27544" lon="2.58503">
        <ele>379.323</ele>
        <time>2018-01-10T18:07:06Z</time>
      </trkpt>
      <trkpt lat="42.27534" lon="2.58494">
        <ele>378.971</ele>
        <time>2018-01-10T18:07:18Z</time>
      </trkpt>
      <trkpt lat="42.27525" lon="2.5849">
        <ele>376.467</ele>
        <time>2018-01-10T18:07:31Z</time>
      </trkpt>
      <trkpt lat="42.27513" lon="2.5849">
        <ele>375.027</ele>
        <time>2018-01-10T18:07:45Z</time>
      </trkpt>
      <trkpt lat="42.27509" lon="2.58504">
        <ele>376.011</ele>
        <time>2018-01-10T18:07:56Z</time>
      </trkpt>
      <trkpt lat="42.27509" lon="2.58526">
        <ele>376.45</ele>
        <time>2018-01-10T18:08:09Z</time>
      </trkpt>
      <trkpt lat="42.27507" lon="2.58536">
        <ele>376.487</ele>
        <time>2018-01-10T18:08:15Z</time>
      </trkpt>
      <trkpt lat="42.27506" lon="2.58539">
        <ele>376.442</ele>
        <time>2018-01-10T18:08:17Z</time>
      </trkpt>
      <trkpt lat="42.27506" lon="2.58542">
        <ele>376.426</ele>
        <time>2018-01-10T18:08:19Z</time>
      </trkpt>
      <trkpt lat="42.27506" lon="2.58553">
        <ele>376.408</ele>
        <time>2018-01-10T18:08:25Z</time>
      </trkpt>
      <trkpt lat="42.27501" lon="2.5858">
        <ele>375.05</ele>
        <time>2018-01-10T18:08:37Z</time>
      </trkpt>
      <trkpt lat="42.27501" lon="2.58581">
        <ele>375.019</ele>
        <time>2018-01-10T18:08:38Z</time>
      </trkpt>
      <trkpt lat="42.275" lon="2.58599">
        <ele>374.027</ele>
        <time>2018-01-10T18:08:46Z</time>
      </trkpt>
      <trkpt lat="42.275" lon="2.58601">
        <ele>374.055</ele>
        <time>2018-01-10T18:08:47Z</time>
      </trkpt>
      <trkpt lat="42.27499" lon="2.58603">
        <ele>374.031</ele>
        <time>2018-01-10T18:08:48Z</time>
      </trkpt>
      <trkpt lat="42.27495" lon="2.5863">
        <ele>371.631</ele>
        <time>2018-01-10T18:09:03Z</time>
      </trkpt>
      <trkpt lat="42.27494" lon="2.58635">
        <ele>371.245</ele>
        <time>2018-01-10T18:09:06Z</time>
      </trkpt>
      <trkpt lat="42.27496" lon="2.58652">
        <ele>368.834</ele>
        <time>2018-01-10T18:09:15Z</time>
      </trkpt>
      <trkpt lat="42.27494" lon="2.58659">
        <ele>367.327</ele>
        <time>2018-01-10T18:09:19Z</time>
      </trkpt>
      <trkpt lat="42.27492" lon="2.58671">
        <ele>366.468</ele>
        <time>2018-01-10T18:09:26Z</time>
      </trkpt>
      <trkpt lat="42.27486" lon="2.58689">
        <ele>364.414</ele>
        <time>2018-01-10T18:09:38Z</time>
      </trkpt>
      <trkpt lat="42.27477" lon="2.58706">
        <ele>363.008</ele>
        <time>2018-01-10T18:09:51Z</time>
      </trkpt>
      <trkpt lat="42.27477" lon="2.58723">
        <ele>360.674</ele>
        <time>2018-01-10T18:10:01Z</time>
      </trkpt>
      <trkpt lat="42.27477" lon="2.58724">
        <ele>360.653</ele>
        <time>2018-01-10T18:10:02Z</time>
      </trkpt>
      <trkpt lat="42.27476" lon="2.58726">
        <ele>360.171</ele>
        <time>2018-01-10T18:10:03Z</time>
      </trkpt>
      <trkpt lat="42.27472" lon="2.58739">
        <ele>357.789</ele>
        <time>2018-01-10T18:10:15Z</time>
      </trkpt>
      <trkpt lat="42.27467" lon="2.58748">
        <ele>356.725</ele>
        <time>2018-01-10T18:10:21Z</time>
      </trkpt>
      <trkpt lat="42.27466" lon="2.58751">
        <ele>356.765</ele>
        <time>2018-01-10T18:10:23Z</time>
      </trkpt>
      <trkpt lat="42.27465" lon="2.58758">
        <ele>355.829</ele>
        <time>2018-01-10T18:10:25Z</time>
      </trkpt>
      <trkpt lat="42.27463" lon="2.58775">
        <ele>355.388</ele>
        <time>2018-01-10T18:10:33Z</time>
      </trkpt>
      <trkpt lat="42.27462" lon="2.58783">
        <ele>354.359</ele>
        <time>2018-01-10T18:10:37Z</time>
      </trkpt>
      <trkpt lat="42.27446" lon="2.58807">
        <ele>351.503</ele>
        <time>2018-01-10T18:10:53Z</time>
      </trkpt>
      <trkpt lat="42.2744" lon="2.58815">
        <ele>350.523</ele>
        <time>2018-01-10T18:10:58Z</time>
      </trkpt>
      <trkpt lat="42.27439" lon="2.58819">
        <ele>349.508</ele>
        <time>2018-01-10T18:11:01Z</time>
      </trkpt>
      <trkpt lat="42.27434" lon="2.58826">
        <ele>348.177</ele>
        <time>2018-01-10T18:11:05Z</time>
      </trkpt>
      <trkpt lat="42.27427" lon="2.5885">
        <ele>345.216</ele>
        <time>2018-01-10T18:11:19Z</time>
      </trkpt>
      <trkpt lat="42.2742" lon="2.58858">
        <ele>343.334</ele>
        <time>2018-01-10T18:11:27Z</time>
      </trkpt>
      <trkpt lat="42.27418" lon="2.58864">
        <ele>342.362</ele>
        <time>2018-01-10T18:11:30Z</time>
      </trkpt>
      <trkpt lat="42.27409" lon="2.58878">
        <ele>339.038</ele>
        <time>2018-01-10T18:11:42Z</time>
      </trkpt>
      <trkpt lat="42.27399" lon="2.58887">
        <ele>336.198</ele>
        <time>2018-01-10T18:11:53Z</time>
      </trkpt>
      <trkpt lat="42.27388" lon="2.58892">
        <ele>332.762</ele>
        <time>2018-01-10T18:12:06Z</time>
      </trkpt>
      <trkpt lat="42.27375" lon="2.58899">
        <ele>331.731</ele>
        <time>2018-01-10T18:12:18Z</time>
      </trkpt>
      <trkpt lat="42.2736" lon="2.58904">
        <ele>329.826</ele>
        <time>2018-01-10T18:12:30Z</time>
      </trkpt>
      <trkpt lat="42.27347" lon="2.58918">
        <ele>326.947</ele>
        <time>2018-01-10T18:12:44Z</time>
      </trkpt>
      <trkpt lat="42.27339" lon="2.5893">
        <ele>324.511</ele>
        <time>2018-01-10T18:12:54Z</time>
      </trkpt>
      <trkpt lat="42.27328" lon="2.58943">
        <ele>322.108</ele>
        <time>2018-01-10T18:13:07Z</time>
      </trkpt>
      <trkpt lat="42.27324" lon="2.58945">
        <ele>320.734</ele>
        <time>2018-01-10T18:13:10Z</time>
      </trkpt>
      <trkpt lat="42.27316" lon="2.58949">
        <ele>317.843</ele>
        <time>2018-01-10T18:13:18Z</time>
      </trkpt>
      <trkpt lat="42.27304" lon="2.58958">
        <ele>314.461</ele>
        <time>2018-01-10T18:13:33Z</time>
      </trkpt>
      <trkpt lat="42.27293" lon="2.58969">
        <ele>310.639</ele>
        <time>2018-01-10T18:13:45Z</time>
      </trkpt>
      <trkpt lat="42.27276" lon="2.58976">
        <ele>307.225</ele>
        <time>2018-01-10T18:13:59Z</time>
      </trkpt>
      <trkpt lat="42.27274" lon="2.58978">
        <ele>306.875</ele>
        <time>2018-01-10T18:14:01Z</time>
      </trkpt>
      <trkpt lat="42.27262" lon="2.58982">
        <ele>303.439</ele>
        <time>2018-01-10T18:14:12Z</time>
      </trkpt>
      <trkpt lat="42.27251" lon="2.58991">
        <ele>300.038</ele>
        <time>2018-01-10T18:14:22Z</time>
      </trkpt>
      <trkpt lat="42.2725" lon="2.58996">
        <ele>297.168</ele>
        <time>2018-01-10T18:14:35Z</time>
      </trkpt>
      <trkpt lat="42.27239" lon="2.59007">
        <ele>293.842</ele>
        <time>2018-01-10T18:14:48Z</time>
      </trkpt>
      <trkpt lat="42.27225" lon="2.59015">
        <ele>290.926</ele>
        <time>2018-01-10T18:15:00Z</time>
      </trkpt>
      <trkpt lat="42.2721" lon="2.5901">
        <ele>287.508</ele>
        <time>2018-01-10T18:15:13Z</time>
      </trkpt>
      <trkpt lat="42.27199" lon="2.59008">
        <ele>284.648</ele>
        <time>2018-01-10T18:15:26Z</time>
      </trkpt>
      <trkpt lat="42.27198" lon="2.59008">
        <ele>284.667</ele>
        <time>2018-01-10T18:15:27Z</time>
      </trkpt>
      <trkpt lat="42.27193" lon="2.59006">
        <ele>281.325</ele>
        <time>2018-01-10T18:15:37Z</time>
      </trkpt>
      <trkpt lat="42.2718" lon="2.59001">
        <ele>278.953</ele>
        <time>2018-01-10T18:15:53Z</time>
      </trkpt>
      <trkpt lat="42.27166" lon="2.59011">
        <ele>277.429</ele>
        <time>2018-01-10T18:16:06Z</time>
      </trkpt>
      <trkpt lat="42.27158" lon="2.59023">
        <ele>274.179</ele>
        <time>2018-01-10T18:16:14Z</time>
      </trkpt>
      <trkpt lat="42.27147" lon="2.59036">
        <ele>271.253</ele>
        <time>2018-01-10T18:16:29Z</time>
      </trkpt>
      <trkpt lat="42.27146" lon="2.5904">
        <ele>272.172</ele>
        <time>2018-01-10T18:16:54Z</time>
      </trkpt>
      <trkpt lat="42.27141" lon="2.5904">
        <ele>270.722</ele>
        <time>2018-01-10T18:17:00Z</time>
      </trkpt>
      <trkpt lat="42.27141" lon="2.59039">
        <ele>270.262</ele>
        <time>2018-01-10T18:17:01Z</time>
      </trkpt>
      <trkpt lat="42.27134" lon="2.59037">
        <ele>266.908</ele>
        <time>2018-01-10T18:17:11Z</time>
      </trkpt>
      <trkpt lat="42.27127" lon="2.59032">
        <ele>263.508</ele>
        <time>2018-01-10T18:17:21Z</time>
      </trkpt>
      <trkpt lat="42.27126" lon="2.59032">
        <ele>263.594</ele>
        <time>2018-01-10T18:17:22Z</time>
      </trkpt>
      <trkpt lat="42.2712" lon="2.59036">
        <ele>260.163</ele>
        <time>2018-01-10T18:17:29Z</time>
      </trkpt>
      <trkpt lat="42.27119" lon="2.59037">
        <ele>260.111</ele>
        <time>2018-01-10T18:17:30Z</time>
      </trkpt>
      <trkpt lat="42.27112" lon="2.59037">
        <ele>256.889</ele>
        <time>2018-01-10T18:17:40Z</time>
      </trkpt>
      <trkpt lat="42.27105" lon="2.59041">
        <ele>253.415</ele>
        <time>2018-01-10T18:17:50Z</time>
      </trkpt>
      <trkpt lat="42.27091" lon="2.59055">
        <ele>250.095</ele>
        <time>2018-01-10T18:18:03Z</time>
      </trkpt>
      <trkpt lat="42.27087" lon="2.59057">
        <ele>249.189</ele>
        <time>2018-01-10T18:18:06Z</time>
      </trkpt>
      <trkpt lat="42.27085" lon="2.59062">
        <ele>248.648</ele>
        <time>2018-01-10T18:18:20Z</time>
      </trkpt>
      <trkpt lat="42.27068" lon="2.59064">
        <ele>248.177</ele>
        <time>2018-01-10T18:18:33Z</time>
      </trkpt>
      <trkpt lat="42.2706" lon="2.59067">
        <ele>248.161</ele>
        <time>2018-01-10T18:18:40Z</time>
      </trkpt>
      <trkpt lat="42.27042" lon="2.59069">
        <ele>248.127</ele>
        <time>2018-01-10T18:18:55Z</time>
      </trkpt>
      <trkpt lat="42.27028" lon="2.59078">
        <ele>249.608</ele>
        <time>2018-01-10T18:19:09Z</time>
      </trkpt>
      <trkpt lat="42.27027" lon="2.59078">
        <ele>249.639</ele>
        <time>2018-01-10T18:19:10Z</time>
      </trkpt>
      <trkpt lat="42.27014" lon="2.59084">
        <ele>251.588</ele>
        <time>2018-01-10T18:19:24Z</time>
      </trkpt>
      <trkpt lat="42.26989" lon="2.59074">
        <ele>252.016</ele>
        <time>2018-01-10T18:19:43Z</time>
      </trkpt>
      <trkpt lat="42.2698" lon="2.59071">
        <ele>252.074</ele>
        <time>2018-01-10T18:19:48Z</time>
      </trkpt>
      <trkpt lat="42.26949" lon="2.59063">
        <ele>252.07</ele>
        <time>2018-01-10T18:20:06Z</time>
      </trkpt>
      <trkpt lat="42.26933" lon="2.59069">
        <ele>252.01</ele>
        <time>2018-01-10T18:20:18Z</time>
      </trkpt>
      <trkpt lat="42.26902" lon="2.59063">
        <ele>252.054</ele>
        <time>2018-01-10T18:20:38Z</time>
      </trkpt>
      <trkpt lat="42.26899" lon="2.59063">
        <ele>252.023</ele>
        <time>2018-01-10T18:20:40Z</time>
      </trkpt>
      <trkpt lat="42.26874" lon="2.59058">
        <ele>252.062</ele>
        <time>2018-01-10T18:20:57Z</time>
      </trkpt>
      <trkpt lat="42.26856" lon="2.59055">
        <ele>252.483</ele>
        <time>2018-01-10T18:21:08Z</time>
      </trkpt>
      <trkpt lat="42.26833" lon="2.59062">
        <ele>252.411</ele>
        <time>2018-01-10T18:21:22Z</time>
      </trkpt>
      <trkpt lat="42.26808" lon="2.59066">
        <ele>252.408</ele>
        <time>2018-01-10T18:21:38Z</time>
      </trkpt>
      <trkpt lat="42.26793" lon="2.5907">
        <ele>251.528</ele>
        <time>2018-01-10T18:21:50Z</time>
      </trkpt>
      <trkpt lat="42.26778" lon="2.5908">
        <ele>251.077</ele>
        <time>2018-01-10T18:22:06Z</time>
      </trkpt>
      <trkpt lat="42.26775" lon="2.591">
        <ele>252.485</ele>
        <time>2018-01-10T18:22:21Z</time>
      </trkpt>
      <trkpt lat="42.2677" lon="2.59124">
        <ele>253.973</ele>
        <time>2018-01-10T18:22:36Z</time>
      </trkpt>
      <trkpt lat="42.26767" lon="2.5915">
        <ele>253.919</ele>
        <time>2018-01-10T18:22:50Z</time>
      </trkpt>
      <trkpt lat="42.26769" lon="2.59168">
        <ele>253.959</ele>
        <time>2018-01-10T18:23:01Z</time>
      </trkpt>
      <trkpt lat="42.26771" lon="2.59179">
        <ele>252.993</ele>
        <time>2018-01-10T18:23:05Z</time>
      </trkpt>
      <trkpt lat="42.26772" lon="2.5918">
        <ele>254.822</ele>
        <time>2018-01-10T18:23:06Z</time>
      </trkpt>
      <trkpt lat="42.2678" lon="2.59208">
        <ele>253.953</ele>
        <time>2018-01-10T18:23:19Z</time>
      </trkpt>
      <trkpt lat="42.26781" lon="2.59225">
        <ele>253.904</ele>
        <time>2018-01-10T18:23:29Z</time>
      </trkpt>
      <trkpt lat="42.26795" lon="2.59249">
        <ele>253.414</ele>
        <time>2018-01-10T18:23:42Z</time>
      </trkpt>
      <trkpt lat="42.26796" lon="2.59251">
        <ele>252.908</ele>
        <time>2018-01-10T18:23:43Z</time>
      </trkpt>
      <trkpt lat="42.26797" lon="2.59263">
        <ele>252.977</ele>
        <time>2018-01-10T18:23:49Z</time>
      </trkpt>
      <trkpt lat="42.26798" lon="2.59266">
        <ele>252.996</ele>
        <time>2018-01-10T18:23:52Z</time>
      </trkpt>
      <trkpt lat="42.26823" lon="2.59304">
        <ele>252.994</ele>
        <time>2018-01-10T18:24:06Z</time>
      </trkpt>
      <trkpt lat="42.26835" lon="2.59329">
        <ele>253.972</ele>
        <time>2018-01-10T18:24:23Z</time>
      </trkpt>
      <trkpt lat="42.26838" lon="2.59352">
        <ele>254.888</ele>
        <time>2018-01-10T18:24:39Z</time>
      </trkpt>
      <trkpt lat="42.26847" lon="2.59361">
        <ele>258.238</ele>
        <time>2018-01-10T18:24:54Z</time>
      </trkpt>
      <trkpt lat="42.26854" lon="2.59339">
        <ele>261.132</ele>
        <time>2018-01-10T18:25:11Z</time>
      </trkpt>
      <trkpt lat="42.2686" lon="2.59324">
        <ele>264.591</ele>
        <time>2018-01-10T18:25:25Z</time>
      </trkpt>
      <trkpt lat="42.26863" lon="2.5931">
        <ele>267.392</ele>
        <time>2018-01-10T18:25:41Z</time>
      </trkpt>
      <trkpt lat="42.26869" lon="2.59316">
        <ele>270.273</ele>
        <time>2018-01-10T18:25:53Z</time>
      </trkpt>
      <trkpt lat="42.26878" lon="2.59339">
        <ele>272.12</ele>
        <time>2018-01-10T18:26:11Z</time>
      </trkpt>
      <trkpt lat="42.26887" lon="2.59346">
        <ele>274.508</ele>
        <time>2018-01-10T18:26:24Z</time>
      </trkpt>
      <trkpt lat="42.26893" lon="2.59344">
        <ele>277.041</ele>
        <time>2018-01-10T18:26:39Z</time>
      </trkpt>
      <trkpt lat="42.26898" lon="2.59342">
        <ele>278.41</ele>
        <time>2018-01-10T18:26:50Z</time>
      </trkpt>
      <trkpt lat="42.269" lon="2.59329">
        <ele>281.398</ele>
        <time>2018-01-10T18:27:08Z</time>
      </trkpt>
      <trkpt lat="42.26905" lon="2.59334">
        <ele>283.776</ele>
        <time>2018-01-10T18:27:21Z</time>
      </trkpt>
      <trkpt lat="42.26913" lon="2.59341">
        <ele>286.152</ele>
        <time>2018-01-10T18:27:35Z</time>
      </trkpt>
      <trkpt lat="42.2692" lon="2.59347">
        <ele>288.582</ele>
        <time>2018-01-10T18:27:46Z</time>
      </trkpt>
      <trkpt lat="42.26935" lon="2.59371">
        <ele>289.036</ele>
        <time>2018-01-10T18:28:03Z</time>
      </trkpt>
      <trkpt lat="42.2694" lon="2.59382">
        <ele>289.995</ele>
        <time>2018-01-10T18:28:10Z</time>
      </trkpt>
      <trkpt lat="42.26956" lon="2.59392">
        <ele>290.457</ele>
        <time>2018-01-10T18:28:25Z</time>
      </trkpt>
      <trkpt lat="42.26954" lon="2.59392">
        <ele>290.9</ele>
        <time>2018-01-10T18:28:41Z</time>
      </trkpt>
    </trkseg>
  </trk>
</gpx>